<?xml version="1.0" encoding="UTF-8" standalone="no" ?>
<gpx xmlns="http://www.topografix.com/GPX/1/1" xmlns:xsi="http://www.w3.org/2001/XMLSchema-instance" xsi:schemaLocation="http://www.topografix.com/GPX/1/1 http://www.topografix.com/GPX/1/1/gpx.xsd" version="1.1" creator="VisuGPX - https://www.visugpx.com">
  <metadata>
    <name>La DolceEnduro en tandem</name>
    <desc><![CDATA[Compte rendu sur le site de l'ASCVTT :
http://www.ascvtt.com/2018/10/11/la-dolceenduro-en-tandem/]]></desc>
  </metadata>
  <trk>
    <name><![CDATA[Tracé actuel: 06 OCT 2018 09:02]]></name>
    <trkseg>
      <trkpt lat="43.84919" lon="7.625">
        <ele>89.54</ele>
        <time>2018-10-06T07:02:41Z</time>
      </trkpt>
      <trkpt lat="43.84918" lon="7.62501">
        <ele>89.54</ele>
        <time>2018-10-06T07:02:42Z</time>
      </trkpt>
      <trkpt lat="43.84917" lon="7.62499">
        <ele>56.86</ele>
        <time>2018-10-06T07:02:46Z</time>
      </trkpt>
      <trkpt lat="43.84916" lon="7.62498">
        <ele>56.86</ele>
        <time>2018-10-06T07:02:47Z</time>
      </trkpt>
      <trkpt lat="43.84917" lon="7.62501">
        <ele>56.86</ele>
        <time>2018-10-06T07:03:03Z</time>
      </trkpt>
      <trkpt lat="43.84918" lon="7.62502">
        <ele>56.86</ele>
        <time>2018-10-06T07:03:15Z</time>
      </trkpt>
      <trkpt lat="43.84922" lon="7.62501">
        <ele>55.89</ele>
        <time>2018-10-06T07:03:32Z</time>
      </trkpt>
      <trkpt lat="43.84921" lon="7.62504">
        <ele>55.89</ele>
        <time>2018-10-06T07:04:17Z</time>
      </trkpt>
      <trkpt lat="43.84917" lon="7.62505">
        <ele>55.89</ele>
        <time>2018-10-06T07:04:35Z</time>
      </trkpt>
      <trkpt lat="43.84912" lon="7.62511">
        <ele>55.89</ele>
        <time>2018-10-06T07:04:39Z</time>
      </trkpt>
      <trkpt lat="43.8491" lon="7.62514">
        <ele>55.89</ele>
        <time>2018-10-06T07:04:40Z</time>
      </trkpt>
      <trkpt lat="43.84909" lon="7.62516">
        <ele>55.89</ele>
        <time>2018-10-06T07:04:41Z</time>
      </trkpt>
      <trkpt lat="43.84908" lon="7.62518">
        <ele>55.89</ele>
        <time>2018-10-06T07:04:42Z</time>
      </trkpt>
      <trkpt lat="43.84906" lon="7.62521">
        <ele>55.89</ele>
        <time>2018-10-06T07:04:43Z</time>
      </trkpt>
      <trkpt lat="43.849" lon="7.62531">
        <ele>55.89</ele>
        <time>2018-10-06T07:04:47Z</time>
      </trkpt>
      <trkpt lat="43.84896" lon="7.6253">
        <ele>54.93</ele>
        <time>2018-10-06T07:04:48Z</time>
      </trkpt>
      <trkpt lat="43.84892" lon="7.62523">
        <ele>53.49</ele>
        <time>2018-10-06T07:04:50Z</time>
      </trkpt>
      <trkpt lat="43.84892" lon="7.62519">
        <ele>53.49</ele>
        <time>2018-10-06T07:04:51Z</time>
      </trkpt>
      <trkpt lat="43.84893" lon="7.62515">
        <ele>53.49</ele>
        <time>2018-10-06T07:04:52Z</time>
      </trkpt>
      <trkpt lat="43.84895" lon="7.62513">
        <ele>53.49</ele>
        <time>2018-10-06T07:04:53Z</time>
      </trkpt>
      <trkpt lat="43.84898" lon="7.62511">
        <ele>53.49</ele>
        <time>2018-10-06T07:04:54Z</time>
      </trkpt>
      <trkpt lat="43.84901" lon="7.62509">
        <ele>53.49</ele>
        <time>2018-10-06T07:04:55Z</time>
      </trkpt>
      <trkpt lat="43.84932" lon="7.62478">
        <ele>53.97</ele>
        <time>2018-10-06T07:05:07Z</time>
      </trkpt>
      <trkpt lat="43.84964" lon="7.62443">
        <ele>55.41</ele>
        <time>2018-10-06T07:05:20Z</time>
      </trkpt>
      <trkpt lat="43.84992" lon="7.62419">
        <ele>57.34</ele>
        <time>2018-10-06T07:05:33Z</time>
      </trkpt>
      <trkpt lat="43.85022" lon="7.62384">
        <ele>58.3</ele>
        <time>2018-10-06T07:05:46Z</time>
      </trkpt>
      <trkpt lat="43.85023" lon="7.6238">
        <ele>58.3</ele>
        <time>2018-10-06T07:05:47Z</time>
      </trkpt>
      <trkpt lat="43.85023" lon="7.62376">
        <ele>58.3</ele>
        <time>2018-10-06T07:05:48Z</time>
      </trkpt>
      <trkpt lat="43.85004" lon="7.62319">
        <ele>58.3</ele>
        <time>2018-10-06T07:06:03Z</time>
      </trkpt>
      <trkpt lat="43.85001" lon="7.62319">
        <ele>58.3</ele>
        <time>2018-10-06T07:06:04Z</time>
      </trkpt>
      <trkpt lat="43.84998" lon="7.62318">
        <ele>58.3</ele>
        <time>2018-10-06T07:06:05Z</time>
      </trkpt>
      <trkpt lat="43.84996" lon="7.62316">
        <ele>58.3</ele>
        <time>2018-10-06T07:06:06Z</time>
      </trkpt>
      <trkpt lat="43.84993" lon="7.62314">
        <ele>58.3</ele>
        <time>2018-10-06T07:06:07Z</time>
      </trkpt>
      <trkpt lat="43.84991" lon="7.62313">
        <ele>58.3</ele>
        <time>2018-10-06T07:06:08Z</time>
      </trkpt>
      <trkpt lat="43.84988" lon="7.62313">
        <ele>58.3</ele>
        <time>2018-10-06T07:06:09Z</time>
      </trkpt>
      <trkpt lat="43.84985" lon="7.62314">
        <ele>58.3</ele>
        <time>2018-10-06T07:06:10Z</time>
      </trkpt>
      <trkpt lat="43.84983" lon="7.62314">
        <ele>58.78</ele>
        <time>2018-10-06T07:06:11Z</time>
      </trkpt>
      <trkpt lat="43.84955" lon="7.62313">
        <ele>61.66</ele>
        <time>2018-10-06T07:06:24Z</time>
      </trkpt>
      <trkpt lat="43.84924" lon="7.623">
        <ele>63.1</ele>
        <time>2018-10-06T07:06:38Z</time>
      </trkpt>
      <trkpt lat="43.84898" lon="7.62295">
        <ele>65.51</ele>
        <time>2018-10-06T07:06:49Z</time>
      </trkpt>
      <trkpt lat="43.84897" lon="7.62294">
        <ele>65.51</ele>
        <time>2018-10-06T07:06:50Z</time>
      </trkpt>
      <trkpt lat="43.84852" lon="7.62272">
        <ele>68.39</ele>
        <time>2018-10-06T07:07:09Z</time>
      </trkpt>
      <trkpt lat="43.84807" lon="7.62259">
        <ele>69.35</ele>
        <time>2018-10-06T07:07:24Z</time>
      </trkpt>
      <trkpt lat="43.84754" lon="7.6225">
        <ele>69.83</ele>
        <time>2018-10-06T07:07:40Z</time>
      </trkpt>
      <trkpt lat="43.84738" lon="7.62247">
        <ele>69.83</ele>
        <time>2018-10-06T07:07:45Z</time>
      </trkpt>
      <trkpt lat="43.84736" lon="7.62244">
        <ele>69.83</ele>
        <time>2018-10-06T07:07:46Z</time>
      </trkpt>
      <trkpt lat="43.84736" lon="7.6224">
        <ele>69.83</ele>
        <time>2018-10-06T07:07:47Z</time>
      </trkpt>
      <trkpt lat="43.84736" lon="7.62236">
        <ele>69.83</ele>
        <time>2018-10-06T07:07:48Z</time>
      </trkpt>
      <trkpt lat="43.84736" lon="7.62232">
        <ele>70.31</ele>
        <time>2018-10-06T07:07:49Z</time>
      </trkpt>
      <trkpt lat="43.84737" lon="7.62228">
        <ele>70.31</ele>
        <time>2018-10-06T07:07:50Z</time>
      </trkpt>
      <trkpt lat="43.84739" lon="7.62224">
        <ele>70.31</ele>
        <time>2018-10-06T07:07:51Z</time>
      </trkpt>
      <trkpt lat="43.84741" lon="7.62176">
        <ele>72.24</ele>
        <time>2018-10-06T07:08:03Z</time>
      </trkpt>
      <trkpt lat="43.84737" lon="7.62173">
        <ele>72.72</ele>
        <time>2018-10-06T07:08:05Z</time>
      </trkpt>
      <trkpt lat="43.84734" lon="7.62173">
        <ele>72.72</ele>
        <time>2018-10-06T07:08:06Z</time>
      </trkpt>
      <trkpt lat="43.84731" lon="7.62175">
        <ele>72.72</ele>
        <time>2018-10-06T07:08:07Z</time>
      </trkpt>
      <trkpt lat="43.8472" lon="7.62183">
        <ele>74.64</ele>
        <time>2018-10-06T07:08:14Z</time>
      </trkpt>
      <trkpt lat="43.84718" lon="7.62183">
        <ele>75.12</ele>
        <time>2018-10-06T07:08:15Z</time>
      </trkpt>
      <trkpt lat="43.84717" lon="7.62184">
        <ele>75.12</ele>
        <time>2018-10-06T07:08:16Z</time>
      </trkpt>
      <trkpt lat="43.84716" lon="7.62184">
        <ele>75.6</ele>
        <time>2018-10-06T07:08:17Z</time>
      </trkpt>
      <trkpt lat="43.84714" lon="7.62184">
        <ele>75.6</ele>
        <time>2018-10-06T07:08:18Z</time>
      </trkpt>
      <trkpt lat="43.84713" lon="7.62185">
        <ele>76.08</ele>
        <time>2018-10-06T07:08:19Z</time>
      </trkpt>
      <trkpt lat="43.84712" lon="7.62185">
        <ele>76.08</ele>
        <time>2018-10-06T07:08:20Z</time>
      </trkpt>
      <trkpt lat="43.8471" lon="7.62185">
        <ele>76.08</ele>
        <time>2018-10-06T07:08:21Z</time>
      </trkpt>
      <trkpt lat="43.84695" lon="7.62187">
        <ele>79.45</ele>
        <time>2018-10-06T07:08:32Z</time>
      </trkpt>
      <trkpt lat="43.84681" lon="7.62187">
        <ele>82.33</ele>
        <time>2018-10-06T07:08:43Z</time>
      </trkpt>
      <trkpt lat="43.84678" lon="7.62187">
        <ele>82.81</ele>
        <time>2018-10-06T07:08:45Z</time>
      </trkpt>
      <trkpt lat="43.84677" lon="7.62187">
        <ele>82.81</ele>
        <time>2018-10-06T07:08:46Z</time>
      </trkpt>
      <trkpt lat="43.84676" lon="7.62186">
        <ele>83.29</ele>
        <time>2018-10-06T07:08:47Z</time>
      </trkpt>
      <trkpt lat="43.84675" lon="7.62185">
        <ele>83.29</ele>
        <time>2018-10-06T07:08:48Z</time>
      </trkpt>
      <trkpt lat="43.84674" lon="7.62184">
        <ele>83.77</ele>
        <time>2018-10-06T07:08:49Z</time>
      </trkpt>
      <trkpt lat="43.84664" lon="7.62176">
        <ele>87.14</ele>
        <time>2018-10-06T07:08:58Z</time>
      </trkpt>
      <trkpt lat="43.84645" lon="7.62181">
        <ele>90.02</ele>
        <time>2018-10-06T07:09:12Z</time>
      </trkpt>
      <trkpt lat="43.84617" lon="7.62188">
        <ele>92.9</ele>
        <time>2018-10-06T07:09:27Z</time>
      </trkpt>
      <trkpt lat="43.84609" lon="7.62184">
        <ele>93.87</ele>
        <time>2018-10-06T07:09:32Z</time>
      </trkpt>
      <trkpt lat="43.84608" lon="7.62183">
        <ele>93.87</ele>
        <time>2018-10-06T07:09:33Z</time>
      </trkpt>
      <trkpt lat="43.84606" lon="7.62183">
        <ele>93.87</ele>
        <time>2018-10-06T07:09:34Z</time>
      </trkpt>
      <trkpt lat="43.84604" lon="7.62183">
        <ele>94.35</ele>
        <time>2018-10-06T07:09:35Z</time>
      </trkpt>
      <trkpt lat="43.84602" lon="7.62184">
        <ele>94.35</ele>
        <time>2018-10-06T07:09:36Z</time>
      </trkpt>
      <trkpt lat="43.846" lon="7.62184">
        <ele>94.83</ele>
        <time>2018-10-06T07:09:37Z</time>
      </trkpt>
      <trkpt lat="43.84598" lon="7.62185">
        <ele>94.83</ele>
        <time>2018-10-06T07:09:38Z</time>
      </trkpt>
      <trkpt lat="43.84597" lon="7.62187">
        <ele>94.83</ele>
        <time>2018-10-06T07:09:39Z</time>
      </trkpt>
      <trkpt lat="43.84595" lon="7.62188">
        <ele>94.83</ele>
        <time>2018-10-06T07:09:40Z</time>
      </trkpt>
      <trkpt lat="43.84565" lon="7.6221">
        <ele>97.71</ele>
        <time>2018-10-06T07:09:56Z</time>
      </trkpt>
      <trkpt lat="43.84553" lon="7.62186">
        <ele>99.15</ele>
        <time>2018-10-06T07:10:06Z</time>
      </trkpt>
      <trkpt lat="43.84556" lon="7.62147">
        <ele>102.52</ele>
        <time>2018-10-06T07:10:21Z</time>
      </trkpt>
      <trkpt lat="43.84555" lon="7.62129">
        <ele>105.4</ele>
        <time>2018-10-06T07:10:30Z</time>
      </trkpt>
      <trkpt lat="43.8455" lon="7.62104">
        <ele>108.77</ele>
        <time>2018-10-06T07:10:42Z</time>
      </trkpt>
      <trkpt lat="43.84539" lon="7.6208">
        <ele>111.65</ele>
        <time>2018-10-06T07:10:55Z</time>
      </trkpt>
      <trkpt lat="43.84517" lon="7.62057">
        <ele>114.05</ele>
        <time>2018-10-06T07:11:10Z</time>
      </trkpt>
      <trkpt lat="43.84506" lon="7.62087">
        <ele>115.5</ele>
        <time>2018-10-06T07:11:22Z</time>
      </trkpt>
      <trkpt lat="43.8448" lon="7.62112">
        <ele>117.9</ele>
        <time>2018-10-06T07:11:37Z</time>
      </trkpt>
      <trkpt lat="43.8445" lon="7.62125">
        <ele>121.26</ele>
        <time>2018-10-06T07:11:52Z</time>
      </trkpt>
      <trkpt lat="43.84416" lon="7.62135">
        <ele>124.63</ele>
        <time>2018-10-06T07:12:09Z</time>
      </trkpt>
      <trkpt lat="43.84377" lon="7.62134">
        <ele>127.51</ele>
        <time>2018-10-06T07:12:27Z</time>
      </trkpt>
      <trkpt lat="43.84347" lon="7.62114">
        <ele>130.4</ele>
        <time>2018-10-06T07:12:43Z</time>
      </trkpt>
      <trkpt lat="43.84329" lon="7.62087">
        <ele>133.28</ele>
        <time>2018-10-06T07:12:56Z</time>
      </trkpt>
      <trkpt lat="43.84308" lon="7.62094">
        <ele>135.68</ele>
        <time>2018-10-06T07:13:07Z</time>
      </trkpt>
      <trkpt lat="43.84281" lon="7.62118">
        <ele>139.53</ele>
        <time>2018-10-06T07:13:23Z</time>
      </trkpt>
      <trkpt lat="43.84259" lon="7.62146">
        <ele>142.41</ele>
        <time>2018-10-06T07:13:39Z</time>
      </trkpt>
      <trkpt lat="43.84229" lon="7.62165">
        <ele>145.3</ele>
        <time>2018-10-06T07:13:55Z</time>
      </trkpt>
      <trkpt lat="43.84207" lon="7.62203">
        <ele>146.26</ele>
        <time>2018-10-06T07:14:08Z</time>
      </trkpt>
      <trkpt lat="43.84181" lon="7.62237">
        <ele>148.66</ele>
        <time>2018-10-06T07:14:21Z</time>
      </trkpt>
      <trkpt lat="43.84149" lon="7.62249">
        <ele>151.54</ele>
        <time>2018-10-06T07:14:34Z</time>
      </trkpt>
      <trkpt lat="43.84122" lon="7.62263">
        <ele>154.91</ele>
        <time>2018-10-06T07:14:48Z</time>
      </trkpt>
      <trkpt lat="43.8409" lon="7.62247">
        <ele>157.79</ele>
        <time>2018-10-06T07:15:04Z</time>
      </trkpt>
      <trkpt lat="43.84056" lon="7.62208">
        <ele>160.2</ele>
        <time>2018-10-06T07:15:20Z</time>
      </trkpt>
      <trkpt lat="43.84021" lon="7.62165">
        <ele>162.6</ele>
        <time>2018-10-06T07:15:36Z</time>
      </trkpt>
      <trkpt lat="43.83996" lon="7.6218">
        <ele>163.56</ele>
        <time>2018-10-06T07:15:46Z</time>
      </trkpt>
      <trkpt lat="43.83951" lon="7.62187">
        <ele>166.45</ele>
        <time>2018-10-06T07:16:02Z</time>
      </trkpt>
      <trkpt lat="43.83936" lon="7.62167">
        <ele>166.45</ele>
        <time>2018-10-06T07:16:08Z</time>
      </trkpt>
      <trkpt lat="43.83933" lon="7.62166">
        <ele>166.45</ele>
        <time>2018-10-06T07:16:09Z</time>
      </trkpt>
      <trkpt lat="43.83929" lon="7.62166">
        <ele>166.45</ele>
        <time>2018-10-06T07:16:10Z</time>
      </trkpt>
      <trkpt lat="43.83925" lon="7.62168">
        <ele>166.93</ele>
        <time>2018-10-06T07:16:11Z</time>
      </trkpt>
      <trkpt lat="43.83923" lon="7.62171">
        <ele>166.93</ele>
        <time>2018-10-06T07:16:12Z</time>
      </trkpt>
      <trkpt lat="43.8392" lon="7.62174">
        <ele>166.93</ele>
        <time>2018-10-06T07:16:13Z</time>
      </trkpt>
      <trkpt lat="43.83892" lon="7.62196">
        <ele>168.37</ele>
        <time>2018-10-06T07:16:23Z</time>
      </trkpt>
      <trkpt lat="43.8388" lon="7.62196">
        <ele>169.81</ele>
        <time>2018-10-06T07:16:28Z</time>
      </trkpt>
      <trkpt lat="43.83877" lon="7.6219">
        <ele>170.77</ele>
        <time>2018-10-06T07:16:31Z</time>
      </trkpt>
      <trkpt lat="43.83877" lon="7.62187">
        <ele>171.25</ele>
        <time>2018-10-06T07:16:32Z</time>
      </trkpt>
      <trkpt lat="43.83877" lon="7.62185">
        <ele>171.25</ele>
        <time>2018-10-06T07:16:33Z</time>
      </trkpt>
      <trkpt lat="43.83878" lon="7.62183">
        <ele>171.25</ele>
        <time>2018-10-06T07:16:34Z</time>
      </trkpt>
      <trkpt lat="43.83879" lon="7.62181">
        <ele>172.21</ele>
        <time>2018-10-06T07:16:35Z</time>
      </trkpt>
      <trkpt lat="43.8388" lon="7.62179">
        <ele>172.21</ele>
        <time>2018-10-06T07:16:36Z</time>
      </trkpt>
      <trkpt lat="43.83882" lon="7.62178">
        <ele>172.69</ele>
        <time>2018-10-06T07:16:37Z</time>
      </trkpt>
      <trkpt lat="43.83884" lon="7.62176">
        <ele>172.69</ele>
        <time>2018-10-06T07:16:38Z</time>
      </trkpt>
      <trkpt lat="43.83885" lon="7.62175">
        <ele>172.69</ele>
        <time>2018-10-06T07:16:39Z</time>
      </trkpt>
      <trkpt lat="43.83887" lon="7.62174">
        <ele>173.17</ele>
        <time>2018-10-06T07:16:40Z</time>
      </trkpt>
      <trkpt lat="43.83889" lon="7.62173">
        <ele>173.17</ele>
        <time>2018-10-06T07:16:41Z</time>
      </trkpt>
      <trkpt lat="43.83891" lon="7.62172">
        <ele>173.66</ele>
        <time>2018-10-06T07:16:42Z</time>
      </trkpt>
      <trkpt lat="43.83893" lon="7.62172">
        <ele>173.66</ele>
        <time>2018-10-06T07:16:43Z</time>
      </trkpt>
      <trkpt lat="43.83894" lon="7.62171">
        <ele>174.14</ele>
        <time>2018-10-06T07:16:44Z</time>
      </trkpt>
      <trkpt lat="43.83917" lon="7.62148">
        <ele>177.5</ele>
        <time>2018-10-06T07:16:59Z</time>
      </trkpt>
      <trkpt lat="43.83937" lon="7.62118">
        <ele>180.38</ele>
        <time>2018-10-06T07:17:14Z</time>
      </trkpt>
      <trkpt lat="43.83939" lon="7.62117">
        <ele>180.38</ele>
        <time>2018-10-06T07:17:15Z</time>
      </trkpt>
      <trkpt lat="43.83941" lon="7.62118">
        <ele>180.38</ele>
        <time>2018-10-06T07:17:16Z</time>
      </trkpt>
      <trkpt lat="43.83974" lon="7.62127">
        <ele>182.79</ele>
        <time>2018-10-06T07:17:31Z</time>
      </trkpt>
      <trkpt lat="43.84002" lon="7.62098">
        <ele>184.23</ele>
        <time>2018-10-06T07:17:44Z</time>
      </trkpt>
      <trkpt lat="43.84025" lon="7.62108">
        <ele>186.15</ele>
        <time>2018-10-06T07:17:54Z</time>
      </trkpt>
      <trkpt lat="43.84067" lon="7.62127">
        <ele>189.52</ele>
        <time>2018-10-06T07:18:11Z</time>
      </trkpt>
      <trkpt lat="43.84099" lon="7.62132">
        <ele>192.4</ele>
        <time>2018-10-06T07:18:26Z</time>
      </trkpt>
      <trkpt lat="43.84125" lon="7.62111">
        <ele>195.28</ele>
        <time>2018-10-06T07:18:40Z</time>
      </trkpt>
      <trkpt lat="43.8415" lon="7.62075">
        <ele>198.17</ele>
        <time>2018-10-06T07:18:56Z</time>
      </trkpt>
      <trkpt lat="43.84185" lon="7.62028">
        <ele>198.65</ele>
        <time>2018-10-06T07:19:10Z</time>
      </trkpt>
      <trkpt lat="43.84235" lon="7.61985">
        <ele>198.65</ele>
        <time>2018-10-06T07:19:23Z</time>
      </trkpt>
      <trkpt lat="43.84248" lon="7.61975">
        <ele>198.65</ele>
        <time>2018-10-06T07:19:26Z</time>
      </trkpt>
      <trkpt lat="43.84252" lon="7.61971">
        <ele>198.65</ele>
        <time>2018-10-06T07:19:27Z</time>
      </trkpt>
      <trkpt lat="43.84255" lon="7.61966">
        <ele>198.65</ele>
        <time>2018-10-06T07:19:28Z</time>
      </trkpt>
      <trkpt lat="43.84258" lon="7.61961">
        <ele>197.21</ele>
        <time>2018-10-06T07:19:29Z</time>
      </trkpt>
      <trkpt lat="43.84261" lon="7.61955">
        <ele>197.21</ele>
        <time>2018-10-06T07:19:30Z</time>
      </trkpt>
      <trkpt lat="43.84263" lon="7.61949">
        <ele>197.21</ele>
        <time>2018-10-06T07:19:31Z</time>
      </trkpt>
      <trkpt lat="43.84265" lon="7.61943">
        <ele>197.21</ele>
        <time>2018-10-06T07:19:32Z</time>
      </trkpt>
      <trkpt lat="43.84266" lon="7.61936">
        <ele>197.21</ele>
        <time>2018-10-06T07:19:33Z</time>
      </trkpt>
      <trkpt lat="43.84268" lon="7.61922">
        <ele>196.73</ele>
        <time>2018-10-06T07:19:35Z</time>
      </trkpt>
      <trkpt lat="43.84272" lon="7.61915">
        <ele>196.25</ele>
        <time>2018-10-06T07:19:36Z</time>
      </trkpt>
      <trkpt lat="43.84277" lon="7.61913">
        <ele>195.28</ele>
        <time>2018-10-06T07:19:37Z</time>
      </trkpt>
      <trkpt lat="43.84283" lon="7.61912">
        <ele>195.28</ele>
        <time>2018-10-06T07:19:38Z</time>
      </trkpt>
      <trkpt lat="43.84288" lon="7.61913">
        <ele>195.28</ele>
        <time>2018-10-06T07:19:39Z</time>
      </trkpt>
      <trkpt lat="43.84294" lon="7.61914">
        <ele>195.28</ele>
        <time>2018-10-06T07:19:40Z</time>
      </trkpt>
      <trkpt lat="43.84299" lon="7.61913">
        <ele>195.28</ele>
        <time>2018-10-06T07:19:41Z</time>
      </trkpt>
      <trkpt lat="43.84312" lon="7.61912">
        <ele>194.8</ele>
        <time>2018-10-06T07:19:43Z</time>
      </trkpt>
      <trkpt lat="43.84318" lon="7.61913">
        <ele>194.8</ele>
        <time>2018-10-06T07:19:44Z</time>
      </trkpt>
      <trkpt lat="43.84385" lon="7.61951">
        <ele>195.77</ele>
        <time>2018-10-06T07:19:57Z</time>
      </trkpt>
      <trkpt lat="43.84399" lon="7.61959">
        <ele>197.21</ele>
        <time>2018-10-06T07:20:01Z</time>
      </trkpt>
      <trkpt lat="43.84402" lon="7.61958">
        <ele>197.69</ele>
        <time>2018-10-06T07:20:02Z</time>
      </trkpt>
      <trkpt lat="43.84405" lon="7.61955">
        <ele>197.69</ele>
        <time>2018-10-06T07:20:03Z</time>
      </trkpt>
      <trkpt lat="43.84407" lon="7.61951">
        <ele>198.17</ele>
        <time>2018-10-06T07:20:04Z</time>
      </trkpt>
      <trkpt lat="43.84408" lon="7.61947">
        <ele>198.17</ele>
        <time>2018-10-06T07:20:05Z</time>
      </trkpt>
      <trkpt lat="43.84409" lon="7.61943">
        <ele>198.65</ele>
        <time>2018-10-06T07:20:06Z</time>
      </trkpt>
      <trkpt lat="43.84409" lon="7.61938">
        <ele>198.65</ele>
        <time>2018-10-06T07:20:07Z</time>
      </trkpt>
      <trkpt lat="43.84409" lon="7.61934">
        <ele>199.13</ele>
        <time>2018-10-06T07:20:08Z</time>
      </trkpt>
      <trkpt lat="43.84409" lon="7.61929">
        <ele>198.65</ele>
        <time>2018-10-06T07:20:09Z</time>
      </trkpt>
      <trkpt lat="43.84409" lon="7.61882">
        <ele>202.01</ele>
        <time>2018-10-06T07:20:21Z</time>
      </trkpt>
      <trkpt lat="43.84418" lon="7.61816">
        <ele>204.42</ele>
        <time>2018-10-06T07:20:37Z</time>
      </trkpt>
      <trkpt lat="43.84464" lon="7.61797">
        <ele>204.9</ele>
        <time>2018-10-06T07:20:50Z</time>
      </trkpt>
      <trkpt lat="43.84468" lon="7.61796">
        <ele>204.9</ele>
        <time>2018-10-06T07:20:51Z</time>
      </trkpt>
      <trkpt lat="43.84472" lon="7.61795">
        <ele>204.9</ele>
        <time>2018-10-06T07:20:52Z</time>
      </trkpt>
      <trkpt lat="43.84481" lon="7.61793">
        <ele>204.9</ele>
        <time>2018-10-06T07:20:54Z</time>
      </trkpt>
      <trkpt lat="43.8454" lon="7.61796">
        <ele>205.38</ele>
        <time>2018-10-06T07:21:07Z</time>
      </trkpt>
      <trkpt lat="43.84553" lon="7.61803">
        <ele>205.38</ele>
        <time>2018-10-06T07:21:10Z</time>
      </trkpt>
      <trkpt lat="43.84558" lon="7.61804">
        <ele>205.38</ele>
        <time>2018-10-06T07:21:11Z</time>
      </trkpt>
      <trkpt lat="43.84563" lon="7.61804">
        <ele>205.38</ele>
        <time>2018-10-06T07:21:12Z</time>
      </trkpt>
      <trkpt lat="43.84568" lon="7.61803">
        <ele>205.38</ele>
        <time>2018-10-06T07:21:13Z</time>
      </trkpt>
      <trkpt lat="43.84572" lon="7.61802">
        <ele>205.38</ele>
        <time>2018-10-06T07:21:14Z</time>
      </trkpt>
      <trkpt lat="43.84577" lon="7.61801">
        <ele>205.38</ele>
        <time>2018-10-06T07:21:15Z</time>
      </trkpt>
      <trkpt lat="43.84659" lon="7.61774">
        <ele>205.86</ele>
        <time>2018-10-06T07:21:32Z</time>
      </trkpt>
      <trkpt lat="43.84681" lon="7.61768">
        <ele>206.82</ele>
        <time>2018-10-06T07:21:37Z</time>
      </trkpt>
      <trkpt lat="43.84689" lon="7.61764">
        <ele>207.3</ele>
        <time>2018-10-06T07:21:39Z</time>
      </trkpt>
      <trkpt lat="43.84693" lon="7.61761">
        <ele>207.3</ele>
        <time>2018-10-06T07:21:40Z</time>
      </trkpt>
      <trkpt lat="43.84696" lon="7.61757">
        <ele>207.3</ele>
        <time>2018-10-06T07:21:41Z</time>
      </trkpt>
      <trkpt lat="43.84698" lon="7.61753">
        <ele>207.78</ele>
        <time>2018-10-06T07:21:42Z</time>
      </trkpt>
      <trkpt lat="43.847" lon="7.61748">
        <ele>207.78</ele>
        <time>2018-10-06T07:21:43Z</time>
      </trkpt>
      <trkpt lat="43.84701" lon="7.61743">
        <ele>207.78</ele>
        <time>2018-10-06T07:21:44Z</time>
      </trkpt>
      <trkpt lat="43.84701" lon="7.61736">
        <ele>207.78</ele>
        <time>2018-10-06T07:21:45Z</time>
      </trkpt>
      <trkpt lat="43.84697" lon="7.61688">
        <ele>210.19</ele>
        <time>2018-10-06T07:21:55Z</time>
      </trkpt>
      <trkpt lat="43.84714" lon="7.61626">
        <ele>213.07</ele>
        <time>2018-10-06T07:22:10Z</time>
      </trkpt>
      <trkpt lat="43.84732" lon="7.61595">
        <ele>216.43</ele>
        <time>2018-10-06T07:22:23Z</time>
      </trkpt>
      <trkpt lat="43.8473" lon="7.61564">
        <ele>219.8</ele>
        <time>2018-10-06T07:22:35Z</time>
      </trkpt>
      <trkpt lat="43.84726" lon="7.61553">
        <ele>220.76</ele>
        <time>2018-10-06T07:22:40Z</time>
      </trkpt>
      <trkpt lat="43.84725" lon="7.61551">
        <ele>220.76</ele>
        <time>2018-10-06T07:22:41Z</time>
      </trkpt>
      <trkpt lat="43.84724" lon="7.61548">
        <ele>221.24</ele>
        <time>2018-10-06T07:22:42Z</time>
      </trkpt>
      <trkpt lat="43.84724" lon="7.61546">
        <ele>221.24</ele>
        <time>2018-10-06T07:22:43Z</time>
      </trkpt>
      <trkpt lat="43.84723" lon="7.61543">
        <ele>221.72</ele>
        <time>2018-10-06T07:22:44Z</time>
      </trkpt>
      <trkpt lat="43.84723" lon="7.6154">
        <ele>221.72</ele>
        <time>2018-10-06T07:22:45Z</time>
      </trkpt>
      <trkpt lat="43.84723" lon="7.61537">
        <ele>222.2</ele>
        <time>2018-10-06T07:22:46Z</time>
      </trkpt>
      <trkpt lat="43.84722" lon="7.61534">
        <ele>222.2</ele>
        <time>2018-10-06T07:22:47Z</time>
      </trkpt>
      <trkpt lat="43.84722" lon="7.61531">
        <ele>222.2</ele>
        <time>2018-10-06T07:22:48Z</time>
      </trkpt>
      <trkpt lat="43.84718" lon="7.61476">
        <ele>224.61</ele>
        <time>2018-10-06T07:23:04Z</time>
      </trkpt>
      <trkpt lat="43.84716" lon="7.61412">
        <ele>225.57</ele>
        <time>2018-10-06T07:23:19Z</time>
      </trkpt>
      <trkpt lat="43.84755" lon="7.61392">
        <ele>226.05</ele>
        <time>2018-10-06T07:23:30Z</time>
      </trkpt>
      <trkpt lat="43.84825" lon="7.61364">
        <ele>226.53</ele>
        <time>2018-10-06T07:23:46Z</time>
      </trkpt>
      <trkpt lat="43.84834" lon="7.61362">
        <ele>226.53</ele>
        <time>2018-10-06T07:23:48Z</time>
      </trkpt>
      <trkpt lat="43.84848" lon="7.6136">
        <ele>227.01</ele>
        <time>2018-10-06T07:23:51Z</time>
      </trkpt>
      <trkpt lat="43.84852" lon="7.61358">
        <ele>227.01</ele>
        <time>2018-10-06T07:23:52Z</time>
      </trkpt>
      <trkpt lat="43.84881" lon="7.61342">
        <ele>227.97</ele>
        <time>2018-10-06T07:23:59Z</time>
      </trkpt>
      <trkpt lat="43.84885" lon="7.61341">
        <ele>228.45</ele>
        <time>2018-10-06T07:24:00Z</time>
      </trkpt>
      <trkpt lat="43.84914" lon="7.61327">
        <ele>231.81</ele>
        <time>2018-10-06T07:24:10Z</time>
      </trkpt>
      <trkpt lat="43.84939" lon="7.61289">
        <ele>234.22</ele>
        <time>2018-10-06T07:24:25Z</time>
      </trkpt>
      <trkpt lat="43.84955" lon="7.61247">
        <ele>237.58</ele>
        <time>2018-10-06T07:24:39Z</time>
      </trkpt>
      <trkpt lat="43.8498" lon="7.61182">
        <ele>239.02</ele>
        <time>2018-10-06T07:24:57Z</time>
      </trkpt>
      <trkpt lat="43.85005" lon="7.61189">
        <ele>240.95</ele>
        <time>2018-10-06T07:25:06Z</time>
      </trkpt>
      <trkpt lat="43.85056" lon="7.61188">
        <ele>243.35</ele>
        <time>2018-10-06T07:25:22Z</time>
      </trkpt>
      <trkpt lat="43.85096" lon="7.61166">
        <ele>246.23</ele>
        <time>2018-10-06T07:25:37Z</time>
      </trkpt>
      <trkpt lat="43.85099" lon="7.61166">
        <ele>246.23</ele>
        <time>2018-10-06T07:25:38Z</time>
      </trkpt>
      <trkpt lat="43.85101" lon="7.61166">
        <ele>246.23</ele>
        <time>2018-10-06T07:25:39Z</time>
      </trkpt>
      <trkpt lat="43.85142" lon="7.61194">
        <ele>248.64</ele>
        <time>2018-10-06T07:25:54Z</time>
      </trkpt>
      <trkpt lat="43.85184" lon="7.61211">
        <ele>249.12</ele>
        <time>2018-10-06T07:26:07Z</time>
      </trkpt>
      <trkpt lat="43.85188" lon="7.61211">
        <ele>249.12</ele>
        <time>2018-10-06T07:26:08Z</time>
      </trkpt>
      <trkpt lat="43.85192" lon="7.61213">
        <ele>249.12</ele>
        <time>2018-10-06T07:26:09Z</time>
      </trkpt>
      <trkpt lat="43.85194" lon="7.61217">
        <ele>249.12</ele>
        <time>2018-10-06T07:26:10Z</time>
      </trkpt>
      <trkpt lat="43.85195" lon="7.61223">
        <ele>249.12</ele>
        <time>2018-10-06T07:26:11Z</time>
      </trkpt>
      <trkpt lat="43.85195" lon="7.61228">
        <ele>249.12</ele>
        <time>2018-10-06T07:26:12Z</time>
      </trkpt>
      <trkpt lat="43.85194" lon="7.61234">
        <ele>249.12</ele>
        <time>2018-10-06T07:26:13Z</time>
      </trkpt>
      <trkpt lat="43.8519" lon="7.61283">
        <ele>249.12</ele>
        <time>2018-10-06T07:26:22Z</time>
      </trkpt>
      <trkpt lat="43.85195" lon="7.61321">
        <ele>249.12</ele>
        <time>2018-10-06T07:26:28Z</time>
      </trkpt>
      <trkpt lat="43.85195" lon="7.61328">
        <ele>249.12</ele>
        <time>2018-10-06T07:26:29Z</time>
      </trkpt>
      <trkpt lat="43.85195" lon="7.61348">
        <ele>249.12</ele>
        <time>2018-10-06T07:26:32Z</time>
      </trkpt>
      <trkpt lat="43.85197" lon="7.61372">
        <ele>249.6</ele>
        <time>2018-10-06T07:26:36Z</time>
      </trkpt>
      <trkpt lat="43.85198" lon="7.61378">
        <ele>249.6</ele>
        <time>2018-10-06T07:26:37Z</time>
      </trkpt>
      <trkpt lat="43.852" lon="7.61384">
        <ele>249.6</ele>
        <time>2018-10-06T07:26:38Z</time>
      </trkpt>
      <trkpt lat="43.85224" lon="7.61446">
        <ele>252</ele>
        <time>2018-10-06T07:26:51Z</time>
      </trkpt>
      <trkpt lat="43.85253" lon="7.61505">
        <ele>254.89</ele>
        <time>2018-10-06T07:27:07Z</time>
      </trkpt>
      <trkpt lat="43.85284" lon="7.61549">
        <ele>257.29</ele>
        <time>2018-10-06T07:27:22Z</time>
      </trkpt>
      <trkpt lat="43.85313" lon="7.61579">
        <ele>259.69</ele>
        <time>2018-10-06T07:27:35Z</time>
      </trkpt>
      <trkpt lat="43.85351" lon="7.61586">
        <ele>262.58</ele>
        <time>2018-10-06T07:27:49Z</time>
      </trkpt>
      <trkpt lat="43.85395" lon="7.61589">
        <ele>265.46</ele>
        <time>2018-10-06T07:28:05Z</time>
      </trkpt>
      <trkpt lat="43.85432" lon="7.61614">
        <ele>267.86</ele>
        <time>2018-10-06T07:28:20Z</time>
      </trkpt>
      <trkpt lat="43.8546" lon="7.61593">
        <ele>270.75</ele>
        <time>2018-10-06T07:28:33Z</time>
      </trkpt>
      <trkpt lat="43.8549" lon="7.61555">
        <ele>274.11</ele>
        <time>2018-10-06T07:28:50Z</time>
      </trkpt>
      <trkpt lat="43.85523" lon="7.61513">
        <ele>276.52</ele>
        <time>2018-10-06T07:29:08Z</time>
      </trkpt>
      <trkpt lat="43.85552" lon="7.61497">
        <ele>279.88</ele>
        <time>2018-10-06T07:29:21Z</time>
      </trkpt>
      <trkpt lat="43.85583" lon="7.61488">
        <ele>282.77</ele>
        <time>2018-10-06T07:29:35Z</time>
      </trkpt>
      <trkpt lat="43.85612" lon="7.61459">
        <ele>285.65</ele>
        <time>2018-10-06T07:29:50Z</time>
      </trkpt>
      <trkpt lat="43.85627" lon="7.6142">
        <ele>289.01</ele>
        <time>2018-10-06T07:30:05Z</time>
      </trkpt>
      <trkpt lat="43.85648" lon="7.6139">
        <ele>291.9</ele>
        <time>2018-10-06T07:30:21Z</time>
      </trkpt>
      <trkpt lat="43.85682" lon="7.61372">
        <ele>294.3</ele>
        <time>2018-10-06T07:30:37Z</time>
      </trkpt>
      <trkpt lat="43.85713" lon="7.61364">
        <ele>296.7</ele>
        <time>2018-10-06T07:30:52Z</time>
      </trkpt>
      <trkpt lat="43.85743" lon="7.61366">
        <ele>300.07</ele>
        <time>2018-10-06T07:31:06Z</time>
      </trkpt>
      <trkpt lat="43.85781" lon="7.61359">
        <ele>303.43</ele>
        <time>2018-10-06T07:31:24Z</time>
      </trkpt>
      <trkpt lat="43.85811" lon="7.61344">
        <ele>306.32</ele>
        <time>2018-10-06T07:31:39Z</time>
      </trkpt>
      <trkpt lat="43.85834" lon="7.61326">
        <ele>309.68</ele>
        <time>2018-10-06T07:31:52Z</time>
      </trkpt>
      <trkpt lat="43.85857" lon="7.6136">
        <ele>310.16</ele>
        <time>2018-10-06T07:32:04Z</time>
      </trkpt>
      <trkpt lat="43.85895" lon="7.61404">
        <ele>312.57</ele>
        <time>2018-10-06T07:32:19Z</time>
      </trkpt>
      <trkpt lat="43.85941" lon="7.61427">
        <ele>315.93</ele>
        <time>2018-10-06T07:32:35Z</time>
      </trkpt>
      <trkpt lat="43.85968" lon="7.61458">
        <ele>318.81</ele>
        <time>2018-10-06T07:32:49Z</time>
      </trkpt>
      <trkpt lat="43.85991" lon="7.61455">
        <ele>321.7</ele>
        <time>2018-10-06T07:33:00Z</time>
      </trkpt>
      <trkpt lat="43.86005" lon="7.61436">
        <ele>325.06</ele>
        <time>2018-10-06T07:33:13Z</time>
      </trkpt>
      <trkpt lat="43.85999" lon="7.61409">
        <ele>328.43</ele>
        <time>2018-10-06T07:33:27Z</time>
      </trkpt>
      <trkpt lat="43.85981" lon="7.61384">
        <ele>331.79</ele>
        <time>2018-10-06T07:33:42Z</time>
      </trkpt>
      <trkpt lat="43.85968" lon="7.61351">
        <ele>334.68</ele>
        <time>2018-10-06T07:33:57Z</time>
      </trkpt>
      <trkpt lat="43.8595" lon="7.61327">
        <ele>336.12</ele>
        <time>2018-10-06T07:34:09Z</time>
      </trkpt>
      <trkpt lat="43.85922" lon="7.61288">
        <ele>339.48</ele>
        <time>2018-10-06T07:34:27Z</time>
      </trkpt>
      <trkpt lat="43.8591" lon="7.6124">
        <ele>342.37</ele>
        <time>2018-10-06T07:34:43Z</time>
      </trkpt>
      <trkpt lat="43.85884" lon="7.61198">
        <ele>345.25</ele>
        <time>2018-10-06T07:35:00Z</time>
      </trkpt>
      <trkpt lat="43.85847" lon="7.61202">
        <ele>347.65</ele>
        <time>2018-10-06T07:35:15Z</time>
      </trkpt>
      <trkpt lat="43.85816" lon="7.61208">
        <ele>349.58</ele>
        <time>2018-10-06T07:35:28Z</time>
      </trkpt>
      <trkpt lat="43.85777" lon="7.61216">
        <ele>352.46</ele>
        <time>2018-10-06T07:35:44Z</time>
      </trkpt>
      <trkpt lat="43.85733" lon="7.61218">
        <ele>355.34</ele>
        <time>2018-10-06T07:36:02Z</time>
      </trkpt>
      <trkpt lat="43.8569" lon="7.61218">
        <ele>358.23</ele>
        <time>2018-10-06T07:36:19Z</time>
      </trkpt>
      <trkpt lat="43.85656" lon="7.61227">
        <ele>361.11</ele>
        <time>2018-10-06T07:36:33Z</time>
      </trkpt>
      <trkpt lat="43.85621" lon="7.61251">
        <ele>363.52</ele>
        <time>2018-10-06T07:36:49Z</time>
      </trkpt>
      <trkpt lat="43.85579" lon="7.61281">
        <ele>366.88</ele>
        <time>2018-10-06T07:37:08Z</time>
      </trkpt>
      <trkpt lat="43.85551" lon="7.61271">
        <ele>369.28</ele>
        <time>2018-10-06T07:37:21Z</time>
      </trkpt>
      <trkpt lat="43.85543" lon="7.61199">
        <ele>371.21</ele>
        <time>2018-10-06T07:37:40Z</time>
      </trkpt>
      <trkpt lat="43.85536" lon="7.61129">
        <ele>372.65</ele>
        <time>2018-10-06T07:37:57Z</time>
      </trkpt>
      <trkpt lat="43.85534" lon="7.61049">
        <ele>374.57</ele>
        <time>2018-10-06T07:38:15Z</time>
      </trkpt>
      <trkpt lat="43.85531" lon="7.60988">
        <ele>377.45</ele>
        <time>2018-10-06T07:38:30Z</time>
      </trkpt>
      <trkpt lat="43.8553" lon="7.60932">
        <ele>380.34</ele>
        <time>2018-10-06T07:38:45Z</time>
      </trkpt>
      <trkpt lat="43.85529" lon="7.60878">
        <ele>382.26</ele>
        <time>2018-10-06T07:39:00Z</time>
      </trkpt>
      <trkpt lat="43.85522" lon="7.60823">
        <ele>385.63</ele>
        <time>2018-10-06T07:39:17Z</time>
      </trkpt>
      <trkpt lat="43.8551" lon="7.60782">
        <ele>387.55</ele>
        <time>2018-10-06T07:39:30Z</time>
      </trkpt>
      <trkpt lat="43.85498" lon="7.60718">
        <ele>390.43</ele>
        <time>2018-10-06T07:39:48Z</time>
      </trkpt>
      <trkpt lat="43.85458" lon="7.60702">
        <ele>392.84</ele>
        <time>2018-10-06T07:40:03Z</time>
      </trkpt>
      <trkpt lat="43.85412" lon="7.60709">
        <ele>396.2</ele>
        <time>2018-10-06T07:40:20Z</time>
      </trkpt>
      <trkpt lat="43.85377" lon="7.60725">
        <ele>398.12</ele>
        <time>2018-10-06T07:40:34Z</time>
      </trkpt>
      <trkpt lat="43.85344" lon="7.60697">
        <ele>401.49</ele>
        <time>2018-10-06T07:40:49Z</time>
      </trkpt>
      <trkpt lat="43.85324" lon="7.60656">
        <ele>403.89</ele>
        <time>2018-10-06T07:41:04Z</time>
      </trkpt>
      <trkpt lat="43.85298" lon="7.6062">
        <ele>405.81</ele>
        <time>2018-10-06T07:41:19Z</time>
      </trkpt>
      <trkpt lat="43.85267" lon="7.60603">
        <ele>409.18</ele>
        <time>2018-10-06T07:41:33Z</time>
      </trkpt>
      <trkpt lat="43.85238" lon="7.60579">
        <ele>411.58</ele>
        <time>2018-10-06T07:41:47Z</time>
      </trkpt>
      <trkpt lat="43.85202" lon="7.6056">
        <ele>413.98</ele>
        <time>2018-10-06T07:42:03Z</time>
      </trkpt>
      <trkpt lat="43.85162" lon="7.60543">
        <ele>416.87</ele>
        <time>2018-10-06T07:42:20Z</time>
      </trkpt>
      <trkpt lat="43.85124" lon="7.60559">
        <ele>419.75</ele>
        <time>2018-10-06T07:42:36Z</time>
      </trkpt>
      <trkpt lat="43.85097" lon="7.60564">
        <ele>422.16</ele>
        <time>2018-10-06T07:42:48Z</time>
      </trkpt>
      <trkpt lat="43.85095" lon="7.60562">
        <ele>422.16</ele>
        <time>2018-10-06T07:42:49Z</time>
      </trkpt>
      <trkpt lat="43.85094" lon="7.60559">
        <ele>422.64</ele>
        <time>2018-10-06T07:42:50Z</time>
      </trkpt>
      <trkpt lat="43.85095" lon="7.60556">
        <ele>422.64</ele>
        <time>2018-10-06T07:42:51Z</time>
      </trkpt>
      <trkpt lat="43.85095" lon="7.60554">
        <ele>422.64</ele>
        <time>2018-10-06T07:42:52Z</time>
      </trkpt>
      <trkpt lat="43.85097" lon="7.60551">
        <ele>423.12</ele>
        <time>2018-10-06T07:42:53Z</time>
      </trkpt>
      <trkpt lat="43.85098" lon="7.60549">
        <ele>423.12</ele>
        <time>2018-10-06T07:42:54Z</time>
      </trkpt>
      <trkpt lat="43.851" lon="7.60547">
        <ele>423.12</ele>
        <time>2018-10-06T07:42:55Z</time>
      </trkpt>
      <trkpt lat="43.85103" lon="7.60545">
        <ele>423.12</ele>
        <time>2018-10-06T07:42:56Z</time>
      </trkpt>
      <trkpt lat="43.85105" lon="7.60544">
        <ele>423.6</ele>
        <time>2018-10-06T07:42:57Z</time>
      </trkpt>
      <trkpt lat="43.85108" lon="7.60543">
        <ele>423.6</ele>
        <time>2018-10-06T07:42:58Z</time>
      </trkpt>
      <trkpt lat="43.85157" lon="7.60527">
        <ele>425.52</ele>
        <time>2018-10-06T07:43:15Z</time>
      </trkpt>
      <trkpt lat="43.85208" lon="7.60512">
        <ele>428.4</ele>
        <time>2018-10-06T07:43:32Z</time>
      </trkpt>
      <trkpt lat="43.85262" lon="7.60517">
        <ele>430.81</ele>
        <time>2018-10-06T07:43:50Z</time>
      </trkpt>
      <trkpt lat="43.85298" lon="7.60521">
        <ele>433.69</ele>
        <time>2018-10-06T07:44:03Z</time>
      </trkpt>
      <trkpt lat="43.8534" lon="7.60536">
        <ele>436.58</ele>
        <time>2018-10-06T07:44:19Z</time>
      </trkpt>
      <trkpt lat="43.85385" lon="7.60566">
        <ele>439.94</ele>
        <time>2018-10-06T07:44:38Z</time>
      </trkpt>
      <trkpt lat="43.85422" lon="7.60593">
        <ele>442.82</ele>
        <time>2018-10-06T07:44:54Z</time>
      </trkpt>
      <trkpt lat="43.85449" lon="7.60583">
        <ele>444.75</ele>
        <time>2018-10-06T07:45:06Z</time>
      </trkpt>
      <trkpt lat="43.85483" lon="7.60558">
        <ele>447.15</ele>
        <time>2018-10-06T07:45:20Z</time>
      </trkpt>
      <trkpt lat="43.85539" lon="7.60537">
        <ele>450.52</ele>
        <time>2018-10-06T07:45:40Z</time>
      </trkpt>
      <trkpt lat="43.85597" lon="7.60529">
        <ele>453.4</ele>
        <time>2018-10-06T07:46:00Z</time>
      </trkpt>
      <trkpt lat="43.85643" lon="7.60541">
        <ele>455.8</ele>
        <time>2018-10-06T07:46:16Z</time>
      </trkpt>
      <trkpt lat="43.85672" lon="7.6058">
        <ele>457.72</ele>
        <time>2018-10-06T07:46:30Z</time>
      </trkpt>
      <trkpt lat="43.8567" lon="7.60641">
        <ele>460.61</ele>
        <time>2018-10-06T07:46:45Z</time>
      </trkpt>
      <trkpt lat="43.85688" lon="7.60686">
        <ele>462.53</ele>
        <time>2018-10-06T07:46:58Z</time>
      </trkpt>
      <trkpt lat="43.85722" lon="7.60735">
        <ele>464.93</ele>
        <time>2018-10-06T07:47:15Z</time>
      </trkpt>
      <trkpt lat="43.85756" lon="7.60788">
        <ele>467.34</ele>
        <time>2018-10-06T07:47:32Z</time>
      </trkpt>
      <trkpt lat="43.85789" lon="7.60842">
        <ele>469.26</ele>
        <time>2018-10-06T07:47:49Z</time>
      </trkpt>
      <trkpt lat="43.85832" lon="7.60836">
        <ele>471.18</ele>
        <time>2018-10-06T07:48:03Z</time>
      </trkpt>
      <trkpt lat="43.85891" lon="7.60825">
        <ele>473.11</ele>
        <time>2018-10-06T07:48:21Z</time>
      </trkpt>
      <trkpt lat="43.85952" lon="7.60813">
        <ele>475.51</ele>
        <time>2018-10-06T07:48:39Z</time>
      </trkpt>
      <trkpt lat="43.86008" lon="7.60783">
        <ele>477.91</ele>
        <time>2018-10-06T07:48:57Z</time>
      </trkpt>
      <trkpt lat="43.86018" lon="7.60748">
        <ele>479.35</ele>
        <time>2018-10-06T07:49:06Z</time>
      </trkpt>
      <trkpt lat="43.86025" lon="7.60682">
        <ele>481.76</ele>
        <time>2018-10-06T07:49:21Z</time>
      </trkpt>
      <trkpt lat="43.86038" lon="7.60622">
        <ele>483.2</ele>
        <time>2018-10-06T07:49:34Z</time>
      </trkpt>
      <trkpt lat="43.86095" lon="7.60567">
        <ele>485.12</ele>
        <time>2018-10-06T07:49:52Z</time>
      </trkpt>
      <trkpt lat="43.86143" lon="7.6052">
        <ele>487.53</ele>
        <time>2018-10-06T07:50:09Z</time>
      </trkpt>
      <trkpt lat="43.86192" lon="7.60472">
        <ele>489.93</ele>
        <time>2018-10-06T07:50:27Z</time>
      </trkpt>
      <trkpt lat="43.86202" lon="7.60453">
        <ele>491.37</ele>
        <time>2018-10-06T07:50:37Z</time>
      </trkpt>
      <trkpt lat="43.86213" lon="7.60435">
        <ele>494.74</ele>
        <time>2018-10-06T07:50:49Z</time>
      </trkpt>
      <trkpt lat="43.86213" lon="7.60434">
        <ele>494.74</ele>
        <time>2018-10-06T07:50:50Z</time>
      </trkpt>
      <trkpt lat="43.86214" lon="7.60432">
        <ele>495.22</ele>
        <time>2018-10-06T07:50:51Z</time>
      </trkpt>
      <trkpt lat="43.86214" lon="7.60431">
        <ele>495.22</ele>
        <time>2018-10-06T07:50:52Z</time>
      </trkpt>
      <trkpt lat="43.86215" lon="7.60429">
        <ele>495.7</ele>
        <time>2018-10-06T07:50:53Z</time>
      </trkpt>
      <trkpt lat="43.86216" lon="7.60427">
        <ele>495.7</ele>
        <time>2018-10-06T07:50:54Z</time>
      </trkpt>
      <trkpt lat="43.86221" lon="7.60417">
        <ele>498.1</ele>
        <time>2018-10-06T07:51:01Z</time>
      </trkpt>
      <trkpt lat="43.86222" lon="7.60416">
        <ele>498.1</ele>
        <time>2018-10-06T07:51:02Z</time>
      </trkpt>
      <trkpt lat="43.86223" lon="7.60414">
        <ele>498.1</ele>
        <time>2018-10-06T07:51:03Z</time>
      </trkpt>
      <trkpt lat="43.86224" lon="7.60413">
        <ele>498.58</ele>
        <time>2018-10-06T07:51:04Z</time>
      </trkpt>
      <trkpt lat="43.86224" lon="7.60412">
        <ele>498.58</ele>
        <time>2018-10-06T07:51:05Z</time>
      </trkpt>
      <trkpt lat="43.86225" lon="7.6041">
        <ele>499.06</ele>
        <time>2018-10-06T07:51:06Z</time>
      </trkpt>
      <trkpt lat="43.86238" lon="7.6039">
        <ele>502.43</ele>
        <time>2018-10-06T07:51:21Z</time>
      </trkpt>
      <trkpt lat="43.86247" lon="7.60377">
        <ele>504.35</ele>
        <time>2018-10-06T07:51:30Z</time>
      </trkpt>
      <trkpt lat="43.86248" lon="7.60376">
        <ele>504.83</ele>
        <time>2018-10-06T07:51:31Z</time>
      </trkpt>
      <trkpt lat="43.8625" lon="7.60375">
        <ele>504.83</ele>
        <time>2018-10-06T07:51:32Z</time>
      </trkpt>
      <trkpt lat="43.86251" lon="7.60374">
        <ele>504.83</ele>
        <time>2018-10-06T07:51:33Z</time>
      </trkpt>
      <trkpt lat="43.86252" lon="7.60373">
        <ele>505.79</ele>
        <time>2018-10-06T07:51:34Z</time>
      </trkpt>
      <trkpt lat="43.86253" lon="7.60373">
        <ele>505.79</ele>
        <time>2018-10-06T07:51:35Z</time>
      </trkpt>
      <trkpt lat="43.86255" lon="7.60372">
        <ele>505.79</ele>
        <time>2018-10-06T07:51:36Z</time>
      </trkpt>
      <trkpt lat="43.86277" lon="7.60365">
        <ele>508.67</ele>
        <time>2018-10-06T07:51:52Z</time>
      </trkpt>
      <trkpt lat="43.86279" lon="7.6036">
        <ele>509.16</ele>
        <time>2018-10-06T07:51:55Z</time>
      </trkpt>
      <trkpt lat="43.86279" lon="7.60358">
        <ele>509.64</ele>
        <time>2018-10-06T07:51:56Z</time>
      </trkpt>
      <trkpt lat="43.86279" lon="7.60356">
        <ele>509.64</ele>
        <time>2018-10-06T07:51:57Z</time>
      </trkpt>
      <trkpt lat="43.86278" lon="7.60354">
        <ele>510.12</ele>
        <time>2018-10-06T07:51:58Z</time>
      </trkpt>
      <trkpt lat="43.86277" lon="7.60353">
        <ele>510.12</ele>
        <time>2018-10-06T07:51:59Z</time>
      </trkpt>
      <trkpt lat="43.86276" lon="7.60352">
        <ele>510.6</ele>
        <time>2018-10-06T07:52:00Z</time>
      </trkpt>
      <trkpt lat="43.86275" lon="7.6035">
        <ele>510.6</ele>
        <time>2018-10-06T07:52:01Z</time>
      </trkpt>
      <trkpt lat="43.86274" lon="7.60349">
        <ele>511.08</ele>
        <time>2018-10-06T07:52:02Z</time>
      </trkpt>
      <trkpt lat="43.86272" lon="7.60349">
        <ele>511.08</ele>
        <time>2018-10-06T07:52:03Z</time>
      </trkpt>
      <trkpt lat="43.8625" lon="7.60349">
        <ele>512.52</ele>
        <time>2018-10-06T07:52:18Z</time>
      </trkpt>
      <trkpt lat="43.86233" lon="7.60355">
        <ele>513.96</ele>
        <time>2018-10-06T07:52:31Z</time>
      </trkpt>
      <trkpt lat="43.86218" lon="7.60366">
        <ele>517.33</ele>
        <time>2018-10-06T07:52:42Z</time>
      </trkpt>
      <trkpt lat="43.86205" lon="7.60381">
        <ele>517.81</ele>
        <time>2018-10-06T07:52:52Z</time>
      </trkpt>
      <trkpt lat="43.86188" lon="7.60392">
        <ele>519.25</ele>
        <time>2018-10-06T07:53:02Z</time>
      </trkpt>
      <trkpt lat="43.86187" lon="7.60393">
        <ele>519.73</ele>
        <time>2018-10-06T07:53:03Z</time>
      </trkpt>
      <trkpt lat="43.86185" lon="7.60394">
        <ele>519.73</ele>
        <time>2018-10-06T07:53:04Z</time>
      </trkpt>
      <trkpt lat="43.86163" lon="7.60414">
        <ele>520.21</ele>
        <time>2018-10-06T07:53:16Z</time>
      </trkpt>
      <trkpt lat="43.86157" lon="7.60419">
        <ele>520.21</ele>
        <time>2018-10-06T07:53:18Z</time>
      </trkpt>
      <trkpt lat="43.86154" lon="7.60421">
        <ele>520.21</ele>
        <time>2018-10-06T07:53:19Z</time>
      </trkpt>
      <trkpt lat="43.86152" lon="7.60423">
        <ele>520.21</ele>
        <time>2018-10-06T07:53:20Z</time>
      </trkpt>
      <trkpt lat="43.86131" lon="7.60435">
        <ele>521.65</ele>
        <time>2018-10-06T07:53:33Z</time>
      </trkpt>
      <trkpt lat="43.86128" lon="7.60438">
        <ele>523.09</ele>
        <time>2018-10-06T07:53:41Z</time>
      </trkpt>
      <trkpt lat="43.86127" lon="7.60439">
        <ele>523.09</ele>
        <time>2018-10-06T07:53:42Z</time>
      </trkpt>
      <trkpt lat="43.86126" lon="7.6044">
        <ele>523.09</ele>
        <time>2018-10-06T07:53:43Z</time>
      </trkpt>
      <trkpt lat="43.86121" lon="7.60449">
        <ele>525.5</ele>
        <time>2018-10-06T07:53:55Z</time>
      </trkpt>
      <trkpt lat="43.86112" lon="7.60458">
        <ele>527.9</ele>
        <time>2018-10-06T07:54:08Z</time>
      </trkpt>
      <trkpt lat="43.8609" lon="7.60473">
        <ele>527.42</ele>
        <time>2018-10-06T07:54:20Z</time>
      </trkpt>
      <trkpt lat="43.86076" lon="7.60483">
        <ele>528.86</ele>
        <time>2018-10-06T07:54:27Z</time>
      </trkpt>
      <trkpt lat="43.86075" lon="7.60485">
        <ele>528.86</ele>
        <time>2018-10-06T07:54:28Z</time>
      </trkpt>
      <trkpt lat="43.86074" lon="7.60487">
        <ele>529.34</ele>
        <time>2018-10-06T07:54:29Z</time>
      </trkpt>
      <trkpt lat="43.86073" lon="7.60489">
        <ele>529.34</ele>
        <time>2018-10-06T07:54:30Z</time>
      </trkpt>
      <trkpt lat="43.86072" lon="7.60492">
        <ele>529.34</ele>
        <time>2018-10-06T07:54:31Z</time>
      </trkpt>
      <trkpt lat="43.86069" lon="7.60494">
        <ele>529.34</ele>
        <time>2018-10-06T07:54:32Z</time>
      </trkpt>
      <trkpt lat="43.86066" lon="7.60496">
        <ele>529.34</ele>
        <time>2018-10-06T07:54:33Z</time>
      </trkpt>
      <trkpt lat="43.86061" lon="7.60499">
        <ele>527.42</ele>
        <time>2018-10-06T07:54:34Z</time>
      </trkpt>
      <trkpt lat="43.86056" lon="7.60504">
        <ele>526.94</ele>
        <time>2018-10-06T07:54:35Z</time>
      </trkpt>
      <trkpt lat="43.86051" lon="7.60509">
        <ele>525.98</ele>
        <time>2018-10-06T07:54:36Z</time>
      </trkpt>
      <trkpt lat="43.86048" lon="7.60513">
        <ele>525.5</ele>
        <time>2018-10-06T07:54:37Z</time>
      </trkpt>
      <trkpt lat="43.86041" lon="7.60518">
        <ele>524.54</ele>
        <time>2018-10-06T07:54:39Z</time>
      </trkpt>
      <trkpt lat="43.86029" lon="7.60531">
        <ele>524.54</ele>
        <time>2018-10-06T07:54:47Z</time>
      </trkpt>
      <trkpt lat="43.86023" lon="7.60536">
        <ele>524.54</ele>
        <time>2018-10-06T07:54:54Z</time>
      </trkpt>
      <trkpt lat="43.8602" lon="7.60541">
        <ele>521.65</ele>
        <time>2018-10-06T07:54:55Z</time>
      </trkpt>
      <trkpt lat="43.86016" lon="7.60547">
        <ele>519.73</ele>
        <time>2018-10-06T07:54:56Z</time>
      </trkpt>
      <trkpt lat="43.86007" lon="7.60562">
        <ele>517.33</ele>
        <time>2018-10-06T07:54:58Z</time>
      </trkpt>
      <trkpt lat="43.86003" lon="7.60567">
        <ele>517.33</ele>
        <time>2018-10-06T07:54:59Z</time>
      </trkpt>
      <trkpt lat="43.86001" lon="7.60569">
        <ele>519.25</ele>
        <time>2018-10-06T07:55:00Z</time>
      </trkpt>
      <trkpt lat="43.86" lon="7.60569">
        <ele>520.21</ele>
        <time>2018-10-06T07:55:01Z</time>
      </trkpt>
      <trkpt lat="43.85996" lon="7.60568">
        <ele>521.65</ele>
        <time>2018-10-06T07:55:07Z</time>
      </trkpt>
      <trkpt lat="43.85995" lon="7.60569">
        <ele>521.65</ele>
        <time>2018-10-06T07:55:08Z</time>
      </trkpt>
      <trkpt lat="43.85993" lon="7.6057">
        <ele>522.13</ele>
        <time>2018-10-06T07:55:10Z</time>
      </trkpt>
      <trkpt lat="43.85992" lon="7.60571">
        <ele>522.13</ele>
        <time>2018-10-06T07:55:11Z</time>
      </trkpt>
      <trkpt lat="43.85989" lon="7.60576">
        <ele>522.61</ele>
        <time>2018-10-06T07:55:19Z</time>
      </trkpt>
      <trkpt lat="43.85984" lon="7.60582">
        <ele>521.65</ele>
        <time>2018-10-06T07:55:21Z</time>
      </trkpt>
      <trkpt lat="43.85982" lon="7.60587">
        <ele>520.69</ele>
        <time>2018-10-06T07:55:22Z</time>
      </trkpt>
      <trkpt lat="43.8598" lon="7.6059">
        <ele>520.69</ele>
        <time>2018-10-06T07:55:23Z</time>
      </trkpt>
      <trkpt lat="43.85979" lon="7.60591">
        <ele>521.17</ele>
        <time>2018-10-06T07:55:24Z</time>
      </trkpt>
      <trkpt lat="43.85977" lon="7.6059">
        <ele>522.13</ele>
        <time>2018-10-06T07:55:25Z</time>
      </trkpt>
      <trkpt lat="43.85976" lon="7.60588">
        <ele>522.61</ele>
        <time>2018-10-06T07:55:26Z</time>
      </trkpt>
      <trkpt lat="43.85974" lon="7.60586">
        <ele>522.61</ele>
        <time>2018-10-06T07:55:27Z</time>
      </trkpt>
      <trkpt lat="43.8597" lon="7.60584">
        <ele>522.61</ele>
        <time>2018-10-06T07:55:28Z</time>
      </trkpt>
      <trkpt lat="43.85966" lon="7.60584">
        <ele>522.61</ele>
        <time>2018-10-06T07:55:29Z</time>
      </trkpt>
      <trkpt lat="43.85962" lon="7.60585">
        <ele>521.17</ele>
        <time>2018-10-06T07:55:30Z</time>
      </trkpt>
      <trkpt lat="43.85956" lon="7.60585">
        <ele>520.69</ele>
        <time>2018-10-06T07:55:31Z</time>
      </trkpt>
      <trkpt lat="43.85952" lon="7.60585">
        <ele>520.69</ele>
        <time>2018-10-06T07:55:32Z</time>
      </trkpt>
      <trkpt lat="43.85947" lon="7.60585">
        <ele>520.69</ele>
        <time>2018-10-06T07:55:33Z</time>
      </trkpt>
      <trkpt lat="43.85943" lon="7.60585">
        <ele>520.69</ele>
        <time>2018-10-06T07:55:34Z</time>
      </trkpt>
      <trkpt lat="43.85937" lon="7.60583">
        <ele>520.69</ele>
        <time>2018-10-06T07:55:41Z</time>
      </trkpt>
      <trkpt lat="43.85936" lon="7.60582">
        <ele>520.69</ele>
        <time>2018-10-06T07:55:53Z</time>
      </trkpt>
      <trkpt lat="43.85936" lon="7.60584">
        <ele>520.69</ele>
        <time>2018-10-06T07:56:12Z</time>
      </trkpt>
      <trkpt lat="43.85935" lon="7.60584">
        <ele>520.69</ele>
        <time>2018-10-06T07:56:36Z</time>
      </trkpt>
      <trkpt lat="43.85935" lon="7.60583">
        <ele>521.17</ele>
        <time>2018-10-06T07:57:15Z</time>
      </trkpt>
      <trkpt lat="43.85935" lon="7.60584">
        <ele>521.17</ele>
        <time>2018-10-06T07:57:53Z</time>
      </trkpt>
      <trkpt lat="43.85934" lon="7.60583">
        <ele>521.17</ele>
        <time>2018-10-06T07:58:28Z</time>
      </trkpt>
      <trkpt lat="43.85935" lon="7.60583">
        <ele>521.17</ele>
        <time>2018-10-06T07:58:55Z</time>
      </trkpt>
      <trkpt lat="43.85934" lon="7.60583">
        <ele>521.65</ele>
        <time>2018-10-06T07:59:39Z</time>
      </trkpt>
      <trkpt lat="43.85935" lon="7.60581">
        <ele>521.65</ele>
        <time>2018-10-06T08:00:16Z</time>
      </trkpt>
      <trkpt lat="43.85936" lon="7.60581">
        <ele>521.65</ele>
        <time>2018-10-06T08:00:30Z</time>
      </trkpt>
      <trkpt lat="43.85936" lon="7.60581">
        <ele>521.65</ele>
        <time>2018-10-06T08:00:49Z</time>
      </trkpt>
      <trkpt lat="43.85927" lon="7.60568">
        <ele>519.73</ele>
        <time>2018-10-06T08:00:53Z</time>
      </trkpt>
      <trkpt lat="43.85924" lon="7.60563">
        <ele>519.25</ele>
        <time>2018-10-06T08:00:54Z</time>
      </trkpt>
      <trkpt lat="43.85921" lon="7.6056">
        <ele>518.29</ele>
        <time>2018-10-06T08:00:55Z</time>
      </trkpt>
      <trkpt lat="43.85916" lon="7.60557">
        <ele>517.81</ele>
        <time>2018-10-06T08:00:56Z</time>
      </trkpt>
      <trkpt lat="43.85911" lon="7.60556">
        <ele>517.33</ele>
        <time>2018-10-06T08:00:57Z</time>
      </trkpt>
      <trkpt lat="43.85905" lon="7.60556">
        <ele>517.33</ele>
        <time>2018-10-06T08:00:58Z</time>
      </trkpt>
      <trkpt lat="43.859" lon="7.60557">
        <ele>516.85</ele>
        <time>2018-10-06T08:00:59Z</time>
      </trkpt>
      <trkpt lat="43.85894" lon="7.60557">
        <ele>516.37</ele>
        <time>2018-10-06T08:01:00Z</time>
      </trkpt>
      <trkpt lat="43.85889" lon="7.60555">
        <ele>516.37</ele>
        <time>2018-10-06T08:01:01Z</time>
      </trkpt>
      <trkpt lat="43.85884" lon="7.60553">
        <ele>516.37</ele>
        <time>2018-10-06T08:01:02Z</time>
      </trkpt>
      <trkpt lat="43.85881" lon="7.6055">
        <ele>516.37</ele>
        <time>2018-10-06T08:01:03Z</time>
      </trkpt>
      <trkpt lat="43.85878" lon="7.60546">
        <ele>516.37</ele>
        <time>2018-10-06T08:01:04Z</time>
      </trkpt>
      <trkpt lat="43.85876" lon="7.60543">
        <ele>516.37</ele>
        <time>2018-10-06T08:01:05Z</time>
      </trkpt>
      <trkpt lat="43.85874" lon="7.60539">
        <ele>516.37</ele>
        <time>2018-10-06T08:01:06Z</time>
      </trkpt>
      <trkpt lat="43.85872" lon="7.60534">
        <ele>516.37</ele>
        <time>2018-10-06T08:01:07Z</time>
      </trkpt>
      <trkpt lat="43.8587" lon="7.60529">
        <ele>516.37</ele>
        <time>2018-10-06T08:01:08Z</time>
      </trkpt>
      <trkpt lat="43.85868" lon="7.60525">
        <ele>516.37</ele>
        <time>2018-10-06T08:01:09Z</time>
      </trkpt>
      <trkpt lat="43.85866" lon="7.60521">
        <ele>516.37</ele>
        <time>2018-10-06T08:01:10Z</time>
      </trkpt>
      <trkpt lat="43.85863" lon="7.60517">
        <ele>516.37</ele>
        <time>2018-10-06T08:01:11Z</time>
      </trkpt>
      <trkpt lat="43.85859" lon="7.60513">
        <ele>516.37</ele>
        <time>2018-10-06T08:01:12Z</time>
      </trkpt>
      <trkpt lat="43.85852" lon="7.60506">
        <ele>516.37</ele>
        <time>2018-10-06T08:01:14Z</time>
      </trkpt>
      <trkpt lat="43.85849" lon="7.60506">
        <ele>516.37</ele>
        <time>2018-10-06T08:01:15Z</time>
      </trkpt>
      <trkpt lat="43.85846" lon="7.60507">
        <ele>516.85</ele>
        <time>2018-10-06T08:01:16Z</time>
      </trkpt>
      <trkpt lat="43.85844" lon="7.60507">
        <ele>516.85</ele>
        <time>2018-10-06T08:01:20Z</time>
      </trkpt>
      <trkpt lat="43.85843" lon="7.60505">
        <ele>516.85</ele>
        <time>2018-10-06T08:01:21Z</time>
      </trkpt>
      <trkpt lat="43.85842" lon="7.60504">
        <ele>516.85</ele>
        <time>2018-10-06T08:01:22Z</time>
      </trkpt>
      <trkpt lat="43.8584" lon="7.60503">
        <ele>516.85</ele>
        <time>2018-10-06T08:01:23Z</time>
      </trkpt>
      <trkpt lat="43.85838" lon="7.60502">
        <ele>516.85</ele>
        <time>2018-10-06T08:01:24Z</time>
      </trkpt>
      <trkpt lat="43.85836" lon="7.60501">
        <ele>516.85</ele>
        <time>2018-10-06T08:01:25Z</time>
      </trkpt>
      <trkpt lat="43.85825" lon="7.60501">
        <ele>515.88</ele>
        <time>2018-10-06T08:01:28Z</time>
      </trkpt>
      <trkpt lat="43.85821" lon="7.60503">
        <ele>515.4</ele>
        <time>2018-10-06T08:01:30Z</time>
      </trkpt>
      <trkpt lat="43.85818" lon="7.60501">
        <ele>514.44</ele>
        <time>2018-10-06T08:01:31Z</time>
      </trkpt>
      <trkpt lat="43.85814" lon="7.60499">
        <ele>513.48</ele>
        <time>2018-10-06T08:01:32Z</time>
      </trkpt>
      <trkpt lat="43.85811" lon="7.60497">
        <ele>512.04</ele>
        <time>2018-10-06T08:01:33Z</time>
      </trkpt>
      <trkpt lat="43.8581" lon="7.60483">
        <ele>509.64</ele>
        <time>2018-10-06T08:01:36Z</time>
      </trkpt>
      <trkpt lat="43.85808" lon="7.60479">
        <ele>508.67</ele>
        <time>2018-10-06T08:01:37Z</time>
      </trkpt>
      <trkpt lat="43.85806" lon="7.60477">
        <ele>508.67</ele>
        <time>2018-10-06T08:01:38Z</time>
      </trkpt>
      <trkpt lat="43.85803" lon="7.60475">
        <ele>508.67</ele>
        <time>2018-10-06T08:01:39Z</time>
      </trkpt>
      <trkpt lat="43.858" lon="7.60475">
        <ele>507.71</ele>
        <time>2018-10-06T08:01:40Z</time>
      </trkpt>
      <trkpt lat="43.85797" lon="7.60474">
        <ele>506.75</ele>
        <time>2018-10-06T08:01:41Z</time>
      </trkpt>
      <trkpt lat="43.85793" lon="7.60475">
        <ele>505.31</ele>
        <time>2018-10-06T08:01:42Z</time>
      </trkpt>
      <trkpt lat="43.8579" lon="7.60478">
        <ele>504.35</ele>
        <time>2018-10-06T08:01:43Z</time>
      </trkpt>
      <trkpt lat="43.85787" lon="7.6048">
        <ele>503.39</ele>
        <time>2018-10-06T08:01:44Z</time>
      </trkpt>
      <trkpt lat="43.85785" lon="7.6048">
        <ele>503.39</ele>
        <time>2018-10-06T08:01:45Z</time>
      </trkpt>
      <trkpt lat="43.85785" lon="7.60483">
        <ele>503.39</ele>
        <time>2018-10-06T08:01:55Z</time>
      </trkpt>
      <trkpt lat="43.85784" lon="7.60484">
        <ele>503.39</ele>
        <time>2018-10-06T08:02:02Z</time>
      </trkpt>
      <trkpt lat="43.85781" lon="7.6048">
        <ele>501.95</ele>
        <time>2018-10-06T08:02:12Z</time>
      </trkpt>
      <trkpt lat="43.85781" lon="7.6048">
        <ele>501.95</ele>
        <time>2018-10-06T08:02:21Z</time>
      </trkpt>
      <trkpt lat="43.85772" lon="7.60477">
        <ele>500.02</ele>
        <time>2018-10-06T08:02:25Z</time>
      </trkpt>
      <trkpt lat="43.85767" lon="7.60476">
        <ele>499.54</ele>
        <time>2018-10-06T08:02:26Z</time>
      </trkpt>
      <trkpt lat="43.85763" lon="7.60474">
        <ele>498.1</ele>
        <time>2018-10-06T08:02:27Z</time>
      </trkpt>
      <trkpt lat="43.85759" lon="7.60473">
        <ele>497.62</ele>
        <time>2018-10-06T08:02:28Z</time>
      </trkpt>
      <trkpt lat="43.85735" lon="7.60467">
        <ele>492.33</ele>
        <time>2018-10-06T08:02:32Z</time>
      </trkpt>
      <trkpt lat="43.85731" lon="7.60466">
        <ele>490.89</ele>
        <time>2018-10-06T08:02:33Z</time>
      </trkpt>
      <trkpt lat="43.85728" lon="7.60464">
        <ele>490.41</ele>
        <time>2018-10-06T08:02:34Z</time>
      </trkpt>
      <trkpt lat="43.85725" lon="7.60461">
        <ele>489.45</ele>
        <time>2018-10-06T08:02:35Z</time>
      </trkpt>
      <trkpt lat="43.85722" lon="7.6046">
        <ele>488.97</ele>
        <time>2018-10-06T08:02:36Z</time>
      </trkpt>
      <trkpt lat="43.85717" lon="7.60458">
        <ele>488.01</ele>
        <time>2018-10-06T08:02:37Z</time>
      </trkpt>
      <trkpt lat="43.85712" lon="7.60454">
        <ele>486.56</ele>
        <time>2018-10-06T08:02:38Z</time>
      </trkpt>
      <trkpt lat="43.85707" lon="7.6045">
        <ele>486.08</ele>
        <time>2018-10-06T08:02:39Z</time>
      </trkpt>
      <trkpt lat="43.85703" lon="7.60445">
        <ele>485.12</ele>
        <time>2018-10-06T08:02:40Z</time>
      </trkpt>
      <trkpt lat="43.85699" lon="7.60441">
        <ele>484.16</ele>
        <time>2018-10-06T08:02:41Z</time>
      </trkpt>
      <trkpt lat="43.85694" lon="7.60438">
        <ele>484.16</ele>
        <time>2018-10-06T08:02:42Z</time>
      </trkpt>
      <trkpt lat="43.85688" lon="7.60437">
        <ele>483.2</ele>
        <time>2018-10-06T08:02:43Z</time>
      </trkpt>
      <trkpt lat="43.85681" lon="7.60438">
        <ele>482.24</ele>
        <time>2018-10-06T08:02:44Z</time>
      </trkpt>
      <trkpt lat="43.85675" lon="7.60439">
        <ele>481.76</ele>
        <time>2018-10-06T08:02:45Z</time>
      </trkpt>
      <trkpt lat="43.85662" lon="7.60443">
        <ele>480.32</ele>
        <time>2018-10-06T08:02:47Z</time>
      </trkpt>
      <trkpt lat="43.85656" lon="7.60448">
        <ele>479.84</ele>
        <time>2018-10-06T08:02:48Z</time>
      </trkpt>
      <trkpt lat="43.85645" lon="7.60459">
        <ele>479.35</ele>
        <time>2018-10-06T08:02:54Z</time>
      </trkpt>
      <trkpt lat="43.85648" lon="7.60457">
        <ele>479.84</ele>
        <time>2018-10-06T08:03:07Z</time>
      </trkpt>
      <trkpt lat="43.8565" lon="7.60456">
        <ele>479.84</ele>
        <time>2018-10-06T08:03:08Z</time>
      </trkpt>
      <trkpt lat="43.85651" lon="7.60454">
        <ele>479.84</ele>
        <time>2018-10-06T08:03:09Z</time>
      </trkpt>
      <trkpt lat="43.85666" lon="7.60442">
        <ele>481.28</ele>
        <time>2018-10-06T08:03:17Z</time>
      </trkpt>
      <trkpt lat="43.85668" lon="7.60442">
        <ele>481.28</ele>
        <time>2018-10-06T08:03:18Z</time>
      </trkpt>
      <trkpt lat="43.85669" lon="7.60441">
        <ele>481.28</ele>
        <time>2018-10-06T08:03:19Z</time>
      </trkpt>
      <trkpt lat="43.85671" lon="7.60441">
        <ele>481.28</ele>
        <time>2018-10-06T08:03:20Z</time>
      </trkpt>
      <trkpt lat="43.85673" lon="7.60441">
        <ele>481.76</ele>
        <time>2018-10-06T08:03:21Z</time>
      </trkpt>
      <trkpt lat="43.85697" lon="7.6044">
        <ele>484.16</ele>
        <time>2018-10-06T08:03:33Z</time>
      </trkpt>
      <trkpt lat="43.85716" lon="7.60457">
        <ele>487.05</ele>
        <time>2018-10-06T08:03:45Z</time>
      </trkpt>
      <trkpt lat="43.85725" lon="7.60461">
        <ele>489.45</ele>
        <time>2018-10-06T08:03:56Z</time>
      </trkpt>
      <trkpt lat="43.85729" lon="7.60465">
        <ele>490.89</ele>
        <time>2018-10-06T08:04:07Z</time>
      </trkpt>
      <trkpt lat="43.85738" lon="7.60468">
        <ele>492.33</ele>
        <time>2018-10-06T08:04:19Z</time>
      </trkpt>
      <trkpt lat="43.85749" lon="7.6047">
        <ele>494.74</ele>
        <time>2018-10-06T08:04:32Z</time>
      </trkpt>
      <trkpt lat="43.85763" lon="7.60474">
        <ele>497.62</ele>
        <time>2018-10-06T08:04:47Z</time>
      </trkpt>
      <trkpt lat="43.85774" lon="7.60477">
        <ele>500.5</ele>
        <time>2018-10-06T08:05:00Z</time>
      </trkpt>
      <trkpt lat="43.85781" lon="7.60482">
        <ele>502.43</ele>
        <time>2018-10-06T08:05:11Z</time>
      </trkpt>
      <trkpt lat="43.85784" lon="7.60481">
        <ele>503.87</ele>
        <time>2018-10-06T08:05:19Z</time>
      </trkpt>
      <trkpt lat="43.85784" lon="7.60476">
        <ele>503.87</ele>
        <time>2018-10-06T08:05:22Z</time>
      </trkpt>
      <trkpt lat="43.85783" lon="7.60473">
        <ele>504.83</ele>
        <time>2018-10-06T08:05:29Z</time>
      </trkpt>
      <trkpt lat="43.85775" lon="7.60437">
        <ele>507.23</ele>
        <time>2018-10-06T08:05:45Z</time>
      </trkpt>
      <trkpt lat="43.85784" lon="7.60425">
        <ele>510.6</ele>
        <time>2018-10-06T08:05:55Z</time>
      </trkpt>
      <trkpt lat="43.85785" lon="7.60423">
        <ele>510.6</ele>
        <time>2018-10-06T08:05:56Z</time>
      </trkpt>
      <trkpt lat="43.85786" lon="7.60422">
        <ele>511.08</ele>
        <time>2018-10-06T08:05:57Z</time>
      </trkpt>
      <trkpt lat="43.85785" lon="7.60403">
        <ele>511.08</ele>
        <time>2018-10-06T08:06:05Z</time>
      </trkpt>
      <trkpt lat="43.85786" lon="7.60401">
        <ele>511.08</ele>
        <time>2018-10-06T08:06:16Z</time>
      </trkpt>
      <trkpt lat="43.85786" lon="7.60377">
        <ele>507.23</ele>
        <time>2018-10-06T08:06:22Z</time>
      </trkpt>
      <trkpt lat="43.85787" lon="7.60355">
        <ele>502.43</ele>
        <time>2018-10-06T08:06:27Z</time>
      </trkpt>
      <trkpt lat="43.85785" lon="7.6035">
        <ele>501.46</ele>
        <time>2018-10-06T08:06:28Z</time>
      </trkpt>
      <trkpt lat="43.85783" lon="7.60338">
        <ele>498.1</ele>
        <time>2018-10-06T08:06:30Z</time>
      </trkpt>
      <trkpt lat="43.85784" lon="7.60332">
        <ele>497.14</ele>
        <time>2018-10-06T08:06:32Z</time>
      </trkpt>
      <trkpt lat="43.85786" lon="7.6032">
        <ele>493.29</ele>
        <time>2018-10-06T08:06:35Z</time>
      </trkpt>
      <trkpt lat="43.85783" lon="7.60306">
        <ele>489.45</ele>
        <time>2018-10-06T08:06:38Z</time>
      </trkpt>
      <trkpt lat="43.85781" lon="7.60294">
        <ele>486.56</ele>
        <time>2018-10-06T08:06:41Z</time>
      </trkpt>
      <trkpt lat="43.85783" lon="7.60278">
        <ele>483.2</ele>
        <time>2018-10-06T08:06:45Z</time>
      </trkpt>
      <trkpt lat="43.85782" lon="7.6027">
        <ele>480.8</ele>
        <time>2018-10-06T08:06:47Z</time>
      </trkpt>
      <trkpt lat="43.85772" lon="7.6025">
        <ele>475.99</ele>
        <time>2018-10-06T08:06:52Z</time>
      </trkpt>
      <trkpt lat="43.85772" lon="7.60249">
        <ele>475.51</ele>
        <time>2018-10-06T08:06:58Z</time>
      </trkpt>
      <trkpt lat="43.85773" lon="7.60248">
        <ele>476.47</ele>
        <time>2018-10-06T08:07:12Z</time>
      </trkpt>
      <trkpt lat="43.85779" lon="7.60235">
        <ele>472.14</ele>
        <time>2018-10-06T08:07:16Z</time>
      </trkpt>
      <trkpt lat="43.85776" lon="7.60217">
        <ele>468.78</ele>
        <time>2018-10-06T08:07:20Z</time>
      </trkpt>
      <trkpt lat="43.85776" lon="7.60203">
        <ele>464.93</ele>
        <time>2018-10-06T08:07:23Z</time>
      </trkpt>
      <trkpt lat="43.85778" lon="7.60194">
        <ele>462.05</ele>
        <time>2018-10-06T08:07:25Z</time>
      </trkpt>
      <trkpt lat="43.8577" lon="7.6018">
        <ele>457.24</ele>
        <time>2018-10-06T08:07:31Z</time>
      </trkpt>
      <trkpt lat="43.85777" lon="7.60179">
        <ele>455.8</ele>
        <time>2018-10-06T08:07:35Z</time>
      </trkpt>
      <trkpt lat="43.85767" lon="7.6017">
        <ele>452.44</ele>
        <time>2018-10-06T08:07:42Z</time>
      </trkpt>
      <trkpt lat="43.85772" lon="7.60158">
        <ele>449.07</ele>
        <time>2018-10-06T08:07:47Z</time>
      </trkpt>
      <trkpt lat="43.85764" lon="7.60148">
        <ele>444.75</ele>
        <time>2018-10-06T08:07:50Z</time>
      </trkpt>
      <trkpt lat="43.85761" lon="7.60145">
        <ele>444.27</ele>
        <time>2018-10-06T08:07:52Z</time>
      </trkpt>
      <trkpt lat="43.85762" lon="7.60143">
        <ele>444.27</ele>
        <time>2018-10-06T08:07:53Z</time>
      </trkpt>
      <trkpt lat="43.85765" lon="7.60141">
        <ele>442.82</ele>
        <time>2018-10-06T08:08:03Z</time>
      </trkpt>
      <trkpt lat="43.85764" lon="7.6014">
        <ele>442.34</ele>
        <time>2018-10-06T08:08:12Z</time>
      </trkpt>
      <trkpt lat="43.85761" lon="7.60134">
        <ele>440.9</ele>
        <time>2018-10-06T08:08:16Z</time>
      </trkpt>
      <trkpt lat="43.8576" lon="7.60129">
        <ele>439.46</ele>
        <time>2018-10-06T08:08:18Z</time>
      </trkpt>
      <trkpt lat="43.85759" lon="7.60127">
        <ele>438.02</ele>
        <time>2018-10-06T08:08:19Z</time>
      </trkpt>
      <trkpt lat="43.85754" lon="7.6012">
        <ele>435.61</ele>
        <time>2018-10-06T08:08:21Z</time>
      </trkpt>
      <trkpt lat="43.85751" lon="7.60115">
        <ele>434.65</ele>
        <time>2018-10-06T08:08:22Z</time>
      </trkpt>
      <trkpt lat="43.85749" lon="7.6011">
        <ele>434.17</ele>
        <time>2018-10-06T08:08:23Z</time>
      </trkpt>
      <trkpt lat="43.85748" lon="7.60104">
        <ele>434.17</ele>
        <time>2018-10-06T08:08:24Z</time>
      </trkpt>
      <trkpt lat="43.85748" lon="7.60099">
        <ele>433.69</ele>
        <time>2018-10-06T08:08:25Z</time>
      </trkpt>
      <trkpt lat="43.85748" lon="7.60095">
        <ele>433.69</ele>
        <time>2018-10-06T08:08:26Z</time>
      </trkpt>
      <trkpt lat="43.85747" lon="7.60092">
        <ele>433.21</ele>
        <time>2018-10-06T08:08:27Z</time>
      </trkpt>
      <trkpt lat="43.85746" lon="7.60089">
        <ele>431.29</ele>
        <time>2018-10-06T08:08:28Z</time>
      </trkpt>
      <trkpt lat="43.85744" lon="7.60085">
        <ele>432.73</ele>
        <time>2018-10-06T08:08:37Z</time>
      </trkpt>
      <trkpt lat="43.85744" lon="7.60083">
        <ele>432.73</ele>
        <time>2018-10-06T08:08:39Z</time>
      </trkpt>
      <trkpt lat="43.85743" lon="7.60081">
        <ele>432.73</ele>
        <time>2018-10-06T08:08:40Z</time>
      </trkpt>
      <trkpt lat="43.85729" lon="7.60035">
        <ele>430.81</ele>
        <time>2018-10-06T08:08:50Z</time>
      </trkpt>
      <trkpt lat="43.85713" lon="7.59989">
        <ele>429.85</ele>
        <time>2018-10-06T08:09:00Z</time>
      </trkpt>
      <trkpt lat="43.85712" lon="7.59983">
        <ele>429.37</ele>
        <time>2018-10-06T08:09:01Z</time>
      </trkpt>
      <trkpt lat="43.85712" lon="7.59976">
        <ele>428.4</ele>
        <time>2018-10-06T08:09:02Z</time>
      </trkpt>
      <trkpt lat="43.85713" lon="7.59943">
        <ele>424.56</ele>
        <time>2018-10-06T08:09:06Z</time>
      </trkpt>
      <trkpt lat="43.85713" lon="7.59918">
        <ele>421.19</ele>
        <time>2018-10-06T08:09:09Z</time>
      </trkpt>
      <trkpt lat="43.85713" lon="7.59903">
        <ele>418.79</ele>
        <time>2018-10-06T08:09:11Z</time>
      </trkpt>
      <trkpt lat="43.85712" lon="7.59894">
        <ele>417.83</ele>
        <time>2018-10-06T08:09:12Z</time>
      </trkpt>
      <trkpt lat="43.85708" lon="7.59886">
        <ele>416.87</ele>
        <time>2018-10-06T08:09:13Z</time>
      </trkpt>
      <trkpt lat="43.85703" lon="7.59878">
        <ele>415.91</ele>
        <time>2018-10-06T08:09:14Z</time>
      </trkpt>
      <trkpt lat="43.85698" lon="7.59871">
        <ele>414.95</ele>
        <time>2018-10-06T08:09:15Z</time>
      </trkpt>
      <trkpt lat="43.8569" lon="7.59859">
        <ele>413.5</ele>
        <time>2018-10-06T08:09:17Z</time>
      </trkpt>
      <trkpt lat="43.85668" lon="7.59823">
        <ele>409.66</ele>
        <time>2018-10-06T08:09:22Z</time>
      </trkpt>
      <trkpt lat="43.85665" lon="7.59816">
        <ele>408.7</ele>
        <time>2018-10-06T08:09:23Z</time>
      </trkpt>
      <trkpt lat="43.85664" lon="7.59811">
        <ele>407.26</ele>
        <time>2018-10-06T08:09:24Z</time>
      </trkpt>
      <trkpt lat="43.85663" lon="7.59807">
        <ele>407.26</ele>
        <time>2018-10-06T08:09:25Z</time>
      </trkpt>
      <trkpt lat="43.85664" lon="7.59803">
        <ele>406.77</ele>
        <time>2018-10-06T08:09:26Z</time>
      </trkpt>
      <trkpt lat="43.85665" lon="7.598">
        <ele>406.77</ele>
        <time>2018-10-06T08:09:27Z</time>
      </trkpt>
      <trkpt lat="43.85666" lon="7.59798">
        <ele>406.77</ele>
        <time>2018-10-06T08:09:28Z</time>
      </trkpt>
      <trkpt lat="43.85667" lon="7.59797">
        <ele>407.26</ele>
        <time>2018-10-06T08:09:29Z</time>
      </trkpt>
      <trkpt lat="43.85668" lon="7.59796">
        <ele>407.26</ele>
        <time>2018-10-06T08:09:30Z</time>
      </trkpt>
      <trkpt lat="43.8568" lon="7.59788">
        <ele>404.85</ele>
        <time>2018-10-06T08:09:35Z</time>
      </trkpt>
      <trkpt lat="43.85686" lon="7.5978">
        <ele>402.93</ele>
        <time>2018-10-06T08:09:38Z</time>
      </trkpt>
      <trkpt lat="43.85683" lon="7.5976">
        <ele>400.53</ele>
        <time>2018-10-06T08:09:41Z</time>
      </trkpt>
      <trkpt lat="43.85681" lon="7.59746">
        <ele>400.05</ele>
        <time>2018-10-06T08:09:43Z</time>
      </trkpt>
      <trkpt lat="43.85681" lon="7.59732">
        <ele>400.05</ele>
        <time>2018-10-06T08:09:45Z</time>
      </trkpt>
      <trkpt lat="43.85684" lon="7.5971">
        <ele>399.57</ele>
        <time>2018-10-06T08:09:49Z</time>
      </trkpt>
      <trkpt lat="43.85683" lon="7.59681">
        <ele>395.72</ele>
        <time>2018-10-06T08:09:55Z</time>
      </trkpt>
      <trkpt lat="43.85681" lon="7.59676">
        <ele>395.72</ele>
        <time>2018-10-06T08:09:56Z</time>
      </trkpt>
      <trkpt lat="43.85669" lon="7.5967">
        <ele>392.36</ele>
        <time>2018-10-06T08:09:59Z</time>
      </trkpt>
      <trkpt lat="43.85657" lon="7.59669">
        <ele>388.03</ele>
        <time>2018-10-06T08:10:02Z</time>
      </trkpt>
      <trkpt lat="43.85655" lon="7.59666">
        <ele>387.07</ele>
        <time>2018-10-06T08:10:03Z</time>
      </trkpt>
      <trkpt lat="43.85655" lon="7.59663">
        <ele>387.07</ele>
        <time>2018-10-06T08:10:04Z</time>
      </trkpt>
      <trkpt lat="43.85656" lon="7.59659">
        <ele>386.59</ele>
        <time>2018-10-06T08:10:05Z</time>
      </trkpt>
      <trkpt lat="43.85657" lon="7.59654">
        <ele>386.59</ele>
        <time>2018-10-06T08:10:06Z</time>
      </trkpt>
      <trkpt lat="43.85656" lon="7.5965">
        <ele>386.59</ele>
        <time>2018-10-06T08:10:07Z</time>
      </trkpt>
      <trkpt lat="43.85654" lon="7.59649">
        <ele>386.11</ele>
        <time>2018-10-06T08:10:08Z</time>
      </trkpt>
      <trkpt lat="43.8565" lon="7.59648">
        <ele>384.66</ele>
        <time>2018-10-06T08:10:09Z</time>
      </trkpt>
      <trkpt lat="43.85646" lon="7.59646">
        <ele>383.7</ele>
        <time>2018-10-06T08:10:10Z</time>
      </trkpt>
      <trkpt lat="43.85644" lon="7.59643">
        <ele>382.74</ele>
        <time>2018-10-06T08:10:11Z</time>
      </trkpt>
      <trkpt lat="43.85644" lon="7.59639">
        <ele>382.74</ele>
        <time>2018-10-06T08:10:12Z</time>
      </trkpt>
      <trkpt lat="43.85642" lon="7.59628">
        <ele>381.3</ele>
        <time>2018-10-06T08:10:15Z</time>
      </trkpt>
      <trkpt lat="43.85642" lon="7.59624">
        <ele>380.82</ele>
        <time>2018-10-06T08:10:20Z</time>
      </trkpt>
      <trkpt lat="43.8564" lon="7.59608">
        <ele>377.45</ele>
        <time>2018-10-06T08:10:24Z</time>
      </trkpt>
      <trkpt lat="43.85626" lon="7.59594">
        <ele>376.01</ele>
        <time>2018-10-06T08:10:29Z</time>
      </trkpt>
      <trkpt lat="43.85625" lon="7.59579">
        <ele>374.09</ele>
        <time>2018-10-06T08:10:31Z</time>
      </trkpt>
      <trkpt lat="43.85615" lon="7.59559">
        <ele>370.24</ele>
        <time>2018-10-06T08:10:35Z</time>
      </trkpt>
      <trkpt lat="43.85595" lon="7.59535">
        <ele>365.92</ele>
        <time>2018-10-06T08:10:41Z</time>
      </trkpt>
      <trkpt lat="43.8558" lon="7.5949">
        <ele>363.04</ele>
        <time>2018-10-06T08:10:50Z</time>
      </trkpt>
      <trkpt lat="43.85567" lon="7.5946">
        <ele>364</ele>
        <time>2018-10-06T08:10:57Z</time>
      </trkpt>
      <trkpt lat="43.85568" lon="7.59457">
        <ele>364</ele>
        <time>2018-10-06T08:10:58Z</time>
      </trkpt>
      <trkpt lat="43.8556" lon="7.59439">
        <ele>365.44</ele>
        <time>2018-10-06T08:11:05Z</time>
      </trkpt>
      <trkpt lat="43.85551" lon="7.59423">
        <ele>365.44</ele>
        <time>2018-10-06T08:11:10Z</time>
      </trkpt>
      <trkpt lat="43.85535" lon="7.5939">
        <ele>365.44</ele>
        <time>2018-10-06T08:11:18Z</time>
      </trkpt>
      <trkpt lat="43.85526" lon="7.59369">
        <ele>365.44</ele>
        <time>2018-10-06T08:11:24Z</time>
      </trkpt>
      <trkpt lat="43.85512" lon="7.59353">
        <ele>365.92</ele>
        <time>2018-10-06T08:11:35Z</time>
      </trkpt>
      <trkpt lat="43.85509" lon="7.59352">
        <ele>365.92</ele>
        <time>2018-10-06T08:11:45Z</time>
      </trkpt>
      <trkpt lat="43.85503" lon="7.59352">
        <ele>365.92</ele>
        <time>2018-10-06T08:11:47Z</time>
      </trkpt>
      <trkpt lat="43.85498" lon="7.59347">
        <ele>364.48</ele>
        <time>2018-10-06T08:11:49Z</time>
      </trkpt>
      <trkpt lat="43.85478" lon="7.59337">
        <ele>361.59</ele>
        <time>2018-10-06T08:11:54Z</time>
      </trkpt>
      <trkpt lat="43.85462" lon="7.59313">
        <ele>360.63</ele>
        <time>2018-10-06T08:11:59Z</time>
      </trkpt>
      <trkpt lat="43.85456" lon="7.59287">
        <ele>355.83</ele>
        <time>2018-10-06T08:12:03Z</time>
      </trkpt>
      <trkpt lat="43.85442" lon="7.59266">
        <ele>350.54</ele>
        <time>2018-10-06T08:12:08Z</time>
      </trkpt>
      <trkpt lat="43.85435" lon="7.59265">
        <ele>349.58</ele>
        <time>2018-10-06T08:12:10Z</time>
      </trkpt>
      <trkpt lat="43.85429" lon="7.59264">
        <ele>347.65</ele>
        <time>2018-10-06T08:12:14Z</time>
      </trkpt>
      <trkpt lat="43.85429" lon="7.59264">
        <ele>347.65</ele>
        <time>2018-10-06T08:12:15Z</time>
      </trkpt>
      <trkpt lat="43.85424" lon="7.59259">
        <ele>345.25</ele>
        <time>2018-10-06T08:12:20Z</time>
      </trkpt>
      <trkpt lat="43.85413" lon="7.5926">
        <ele>341.89</ele>
        <time>2018-10-06T08:12:25Z</time>
      </trkpt>
      <trkpt lat="43.85412" lon="7.5926">
        <ele>341.41</ele>
        <time>2018-10-06T08:12:31Z</time>
      </trkpt>
      <trkpt lat="43.85412" lon="7.59254">
        <ele>340.44</ele>
        <time>2018-10-06T08:12:35Z</time>
      </trkpt>
      <trkpt lat="43.8541" lon="7.59255">
        <ele>339.48</ele>
        <time>2018-10-06T08:12:37Z</time>
      </trkpt>
      <trkpt lat="43.85408" lon="7.59248">
        <ele>337.56</ele>
        <time>2018-10-06T08:12:40Z</time>
      </trkpt>
      <trkpt lat="43.8541" lon="7.59244">
        <ele>336.6</ele>
        <time>2018-10-06T08:12:42Z</time>
      </trkpt>
      <trkpt lat="43.8541" lon="7.59234">
        <ele>333.23</ele>
        <time>2018-10-06T08:12:46Z</time>
      </trkpt>
      <trkpt lat="43.85403" lon="7.59229">
        <ele>331.31</ele>
        <time>2018-10-06T08:12:49Z</time>
      </trkpt>
      <trkpt lat="43.85395" lon="7.59215">
        <ele>326.02</ele>
        <time>2018-10-06T08:12:54Z</time>
      </trkpt>
      <trkpt lat="43.85396" lon="7.59199">
        <ele>322.66</ele>
        <time>2018-10-06T08:13:00Z</time>
      </trkpt>
      <trkpt lat="43.85393" lon="7.59177">
        <ele>316.89</ele>
        <time>2018-10-06T08:13:04Z</time>
      </trkpt>
      <trkpt lat="43.85391" lon="7.59173">
        <ele>315.93</ele>
        <time>2018-10-06T08:13:05Z</time>
      </trkpt>
      <trkpt lat="43.85374" lon="7.5915">
        <ele>309.2</ele>
        <time>2018-10-06T08:13:10Z</time>
      </trkpt>
      <trkpt lat="43.85366" lon="7.5911">
        <ele>301.99</ele>
        <time>2018-10-06T08:13:14Z</time>
      </trkpt>
      <trkpt lat="43.85363" lon="7.59098">
        <ele>301.03</ele>
        <time>2018-10-06T08:13:15Z</time>
      </trkpt>
      <trkpt lat="43.85358" lon="7.59084">
        <ele>300.07</ele>
        <time>2018-10-06T08:13:17Z</time>
      </trkpt>
      <trkpt lat="43.85357" lon="7.5907">
        <ele>296.7</ele>
        <time>2018-10-06T08:13:21Z</time>
      </trkpt>
      <trkpt lat="43.85356" lon="7.59068">
        <ele>296.7</ele>
        <time>2018-10-06T08:13:22Z</time>
      </trkpt>
      <trkpt lat="43.85355" lon="7.59066">
        <ele>296.7</ele>
        <time>2018-10-06T08:13:23Z</time>
      </trkpt>
      <trkpt lat="43.85349" lon="7.59056">
        <ele>294.78</ele>
        <time>2018-10-06T08:13:26Z</time>
      </trkpt>
      <trkpt lat="43.85345" lon="7.59039">
        <ele>290.46</ele>
        <time>2018-10-06T08:13:30Z</time>
      </trkpt>
      <trkpt lat="43.85336" lon="7.59029">
        <ele>287.57</ele>
        <time>2018-10-06T08:13:34Z</time>
      </trkpt>
      <trkpt lat="43.85322" lon="7.59019">
        <ele>282.28</ele>
        <time>2018-10-06T08:13:39Z</time>
      </trkpt>
      <trkpt lat="43.85321" lon="7.59018">
        <ele>281.8</ele>
        <time>2018-10-06T08:13:40Z</time>
      </trkpt>
      <trkpt lat="43.85305" lon="7.58998">
        <ele>276.04</ele>
        <time>2018-10-06T08:13:45Z</time>
      </trkpt>
      <trkpt lat="43.85288" lon="7.58974">
        <ele>272.67</ele>
        <time>2018-10-06T08:13:50Z</time>
      </trkpt>
      <trkpt lat="43.85283" lon="7.58965">
        <ele>271.23</ele>
        <time>2018-10-06T08:13:52Z</time>
      </trkpt>
      <trkpt lat="43.85279" lon="7.58955">
        <ele>270.27</ele>
        <time>2018-10-06T08:13:54Z</time>
      </trkpt>
      <trkpt lat="43.85268" lon="7.58932">
        <ele>266.9</ele>
        <time>2018-10-06T08:13:58Z</time>
      </trkpt>
      <trkpt lat="43.85255" lon="7.58931">
        <ele>263.06</ele>
        <time>2018-10-06T08:14:01Z</time>
      </trkpt>
      <trkpt lat="43.85249" lon="7.5893">
        <ele>261.62</ele>
        <time>2018-10-06T08:14:03Z</time>
      </trkpt>
      <trkpt lat="43.85246" lon="7.58927">
        <ele>261.62</ele>
        <time>2018-10-06T08:14:11Z</time>
      </trkpt>
      <trkpt lat="43.85246" lon="7.58924">
        <ele>261.14</ele>
        <time>2018-10-06T08:14:30Z</time>
      </trkpt>
      <trkpt lat="43.85245" lon="7.58924">
        <ele>261.14</ele>
        <time>2018-10-06T08:14:51Z</time>
      </trkpt>
      <trkpt lat="43.85245" lon="7.58924">
        <ele>261.14</ele>
        <time>2018-10-06T08:15:13Z</time>
      </trkpt>
      <trkpt lat="43.85243" lon="7.58922">
        <ele>261.14</ele>
        <time>2018-10-06T08:15:15Z</time>
      </trkpt>
      <trkpt lat="43.85228" lon="7.58918">
        <ele>255.37</ele>
        <time>2018-10-06T08:15:19Z</time>
      </trkpt>
      <trkpt lat="43.85223" lon="7.58914">
        <ele>253.44</ele>
        <time>2018-10-06T08:15:22Z</time>
      </trkpt>
      <trkpt lat="43.85222" lon="7.58893">
        <ele>251.04</ele>
        <time>2018-10-06T08:15:28Z</time>
      </trkpt>
      <trkpt lat="43.8522" lon="7.58886">
        <ele>249.6</ele>
        <time>2018-10-06T08:15:30Z</time>
      </trkpt>
      <trkpt lat="43.85213" lon="7.58865">
        <ele>246.72</ele>
        <time>2018-10-06T08:15:35Z</time>
      </trkpt>
      <trkpt lat="43.85204" lon="7.58853">
        <ele>245.75</ele>
        <time>2018-10-06T08:15:38Z</time>
      </trkpt>
      <trkpt lat="43.85192" lon="7.58828">
        <ele>241.91</ele>
        <time>2018-10-06T08:15:43Z</time>
      </trkpt>
      <trkpt lat="43.85186" lon="7.58813">
        <ele>238.06</ele>
        <time>2018-10-06T08:15:47Z</time>
      </trkpt>
      <trkpt lat="43.85184" lon="7.58804">
        <ele>235.66</ele>
        <time>2018-10-06T08:15:49Z</time>
      </trkpt>
      <trkpt lat="43.85183" lon="7.58792">
        <ele>232.78</ele>
        <time>2018-10-06T08:15:52Z</time>
      </trkpt>
      <trkpt lat="43.85182" lon="7.58788">
        <ele>231.33</ele>
        <time>2018-10-06T08:15:53Z</time>
      </trkpt>
      <trkpt lat="43.8518" lon="7.58772">
        <ele>227.49</ele>
        <time>2018-10-06T08:15:56Z</time>
      </trkpt>
      <trkpt lat="43.85176" lon="7.58752">
        <ele>223.64</ele>
        <time>2018-10-06T08:15:59Z</time>
      </trkpt>
      <trkpt lat="43.85175" lon="7.58738">
        <ele>221.24</ele>
        <time>2018-10-06T08:16:01Z</time>
      </trkpt>
      <trkpt lat="43.85176" lon="7.58725">
        <ele>219.32</ele>
        <time>2018-10-06T08:16:03Z</time>
      </trkpt>
      <trkpt lat="43.85167" lon="7.58692">
        <ele>216.43</ele>
        <time>2018-10-06T08:16:08Z</time>
      </trkpt>
      <trkpt lat="43.85158" lon="7.58668">
        <ele>213.55</ele>
        <time>2018-10-06T08:16:11Z</time>
      </trkpt>
      <trkpt lat="43.85148" lon="7.58653">
        <ele>212.59</ele>
        <time>2018-10-06T08:16:13Z</time>
      </trkpt>
      <trkpt lat="43.85144" lon="7.58647">
        <ele>212.59</ele>
        <time>2018-10-06T08:16:14Z</time>
      </trkpt>
      <trkpt lat="43.85136" lon="7.58638">
        <ele>214.03</ele>
        <time>2018-10-06T08:16:16Z</time>
      </trkpt>
      <trkpt lat="43.85129" lon="7.58618">
        <ele>210.67</ele>
        <time>2018-10-06T08:16:21Z</time>
      </trkpt>
      <trkpt lat="43.8513" lon="7.58618">
        <ele>213.55</ele>
        <time>2018-10-06T08:16:28Z</time>
      </trkpt>
      <trkpt lat="43.8513" lon="7.58616">
        <ele>213.55</ele>
        <time>2018-10-06T08:16:36Z</time>
      </trkpt>
      <trkpt lat="43.85131" lon="7.58611">
        <ele>213.55</ele>
        <time>2018-10-06T08:16:41Z</time>
      </trkpt>
      <trkpt lat="43.85131" lon="7.58598">
        <ele>213.55</ele>
        <time>2018-10-06T08:16:50Z</time>
      </trkpt>
      <trkpt lat="43.85129" lon="7.58582">
        <ele>208.26</ele>
        <time>2018-10-06T08:16:56Z</time>
      </trkpt>
      <trkpt lat="43.85123" lon="7.58584">
        <ele>204.9</ele>
        <time>2018-10-06T08:17:00Z</time>
      </trkpt>
      <trkpt lat="43.85121" lon="7.58585">
        <ele>203.94</ele>
        <time>2018-10-06T08:17:01Z</time>
      </trkpt>
      <trkpt lat="43.85114" lon="7.58585">
        <ele>200.57</ele>
        <time>2018-10-06T08:17:05Z</time>
      </trkpt>
      <trkpt lat="43.85107" lon="7.58588">
        <ele>196.73</ele>
        <time>2018-10-06T08:17:09Z</time>
      </trkpt>
      <trkpt lat="43.85101" lon="7.5859">
        <ele>193.36</ele>
        <time>2018-10-06T08:17:12Z</time>
      </trkpt>
      <trkpt lat="43.85094" lon="7.58597">
        <ele>190</ele>
        <time>2018-10-06T08:17:16Z</time>
      </trkpt>
      <trkpt lat="43.85087" lon="7.58595">
        <ele>186.63</ele>
        <time>2018-10-06T08:17:19Z</time>
      </trkpt>
      <trkpt lat="43.85081" lon="7.58604">
        <ele>182.79</ele>
        <time>2018-10-06T08:17:22Z</time>
      </trkpt>
      <trkpt lat="43.85071" lon="7.5861">
        <ele>179.42</ele>
        <time>2018-10-06T08:17:25Z</time>
      </trkpt>
      <trkpt lat="43.85058" lon="7.58613">
        <ele>175.1</ele>
        <time>2018-10-06T08:17:29Z</time>
      </trkpt>
      <trkpt lat="43.85051" lon="7.58629">
        <ele>171.73</ele>
        <time>2018-10-06T08:17:33Z</time>
      </trkpt>
      <trkpt lat="43.85051" lon="7.58632">
        <ele>171.25</ele>
        <time>2018-10-06T08:17:34Z</time>
      </trkpt>
      <trkpt lat="43.85051" lon="7.58637">
        <ele>170.77</ele>
        <time>2018-10-06T08:17:44Z</time>
      </trkpt>
      <trkpt lat="43.85051" lon="7.58638">
        <ele>169.81</ele>
        <time>2018-10-06T08:17:54Z</time>
      </trkpt>
      <trkpt lat="43.85046" lon="7.58635">
        <ele>168.85</ele>
        <time>2018-10-06T08:18:03Z</time>
      </trkpt>
      <trkpt lat="43.85046" lon="7.58641">
        <ele>166.93</ele>
        <time>2018-10-06T08:18:07Z</time>
      </trkpt>
      <trkpt lat="43.85045" lon="7.58647">
        <ele>164.04</ele>
        <time>2018-10-06T08:18:11Z</time>
      </trkpt>
      <trkpt lat="43.85041" lon="7.58656">
        <ele>162.12</ele>
        <time>2018-10-06T08:18:21Z</time>
      </trkpt>
      <trkpt lat="43.85041" lon="7.58658">
        <ele>161.64</ele>
        <time>2018-10-06T08:18:36Z</time>
      </trkpt>
      <trkpt lat="43.85038" lon="7.5866">
        <ele>159.72</ele>
        <time>2018-10-06T08:18:38Z</time>
      </trkpt>
      <trkpt lat="43.85033" lon="7.58663">
        <ele>156.35</ele>
        <time>2018-10-06T08:18:43Z</time>
      </trkpt>
      <trkpt lat="43.85036" lon="7.58682">
        <ele>153.95</ele>
        <time>2018-10-06T08:18:52Z</time>
      </trkpt>
      <trkpt lat="43.85036" lon="7.58683">
        <ele>153.95</ele>
        <time>2018-10-06T08:18:53Z</time>
      </trkpt>
      <trkpt lat="43.85035" lon="7.58686">
        <ele>153.95</ele>
        <time>2018-10-06T08:19:06Z</time>
      </trkpt>
      <trkpt lat="43.85036" lon="7.58687">
        <ele>153.47</ele>
        <time>2018-10-06T08:19:16Z</time>
      </trkpt>
      <trkpt lat="43.85035" lon="7.58699">
        <ele>150.1</ele>
        <time>2018-10-06T08:19:20Z</time>
      </trkpt>
      <trkpt lat="43.85035" lon="7.58702">
        <ele>148.66</ele>
        <time>2018-10-06T08:19:21Z</time>
      </trkpt>
      <trkpt lat="43.85028" lon="7.58705">
        <ele>144.82</ele>
        <time>2018-10-06T08:19:26Z</time>
      </trkpt>
      <trkpt lat="43.85026" lon="7.58706">
        <ele>142.89</ele>
        <time>2018-10-06T08:19:28Z</time>
      </trkpt>
      <trkpt lat="43.85019" lon="7.58699">
        <ele>139.05</ele>
        <time>2018-10-06T08:19:33Z</time>
      </trkpt>
      <trkpt lat="43.85018" lon="7.58698">
        <ele>139.05</ele>
        <time>2018-10-06T08:19:34Z</time>
      </trkpt>
      <trkpt lat="43.85012" lon="7.58699">
        <ele>135.68</ele>
        <time>2018-10-06T08:19:38Z</time>
      </trkpt>
      <trkpt lat="43.8501" lon="7.58702">
        <ele>133.76</ele>
        <time>2018-10-06T08:19:41Z</time>
      </trkpt>
      <trkpt lat="43.85004" lon="7.58701">
        <ele>131.36</ele>
        <time>2018-10-06T08:19:45Z</time>
      </trkpt>
      <trkpt lat="43.85003" lon="7.587">
        <ele>130.88</ele>
        <time>2018-10-06T08:19:47Z</time>
      </trkpt>
      <trkpt lat="43.85002" lon="7.58698">
        <ele>130.4</ele>
        <time>2018-10-06T08:19:48Z</time>
      </trkpt>
      <trkpt lat="43.84999" lon="7.58697">
        <ele>129.92</ele>
        <time>2018-10-06T08:19:49Z</time>
      </trkpt>
      <trkpt lat="43.84995" lon="7.58697">
        <ele>127.51</ele>
        <time>2018-10-06T08:19:50Z</time>
      </trkpt>
      <trkpt lat="43.84993" lon="7.58697">
        <ele>126.55</ele>
        <time>2018-10-06T08:19:51Z</time>
      </trkpt>
      <trkpt lat="43.84992" lon="7.58696">
        <ele>126.55</ele>
        <time>2018-10-06T08:19:52Z</time>
      </trkpt>
      <trkpt lat="43.84993" lon="7.58695">
        <ele>126.55</ele>
        <time>2018-10-06T08:20:06Z</time>
      </trkpt>
      <trkpt lat="43.84994" lon="7.58695">
        <ele>126.55</ele>
        <time>2018-10-06T08:20:18Z</time>
      </trkpt>
      <trkpt lat="43.84994" lon="7.58693">
        <ele>126.55</ele>
        <time>2018-10-06T08:20:35Z</time>
      </trkpt>
      <trkpt lat="43.84993" lon="7.58693">
        <ele>126.55</ele>
        <time>2018-10-06T08:20:59Z</time>
      </trkpt>
      <trkpt lat="43.84991" lon="7.5869">
        <ele>126.55</ele>
        <time>2018-10-06T08:21:03Z</time>
      </trkpt>
      <trkpt lat="43.8499" lon="7.58689">
        <ele>126.55</ele>
        <time>2018-10-06T08:21:04Z</time>
      </trkpt>
      <trkpt lat="43.84989" lon="7.58686">
        <ele>126.07</ele>
        <time>2018-10-06T08:21:05Z</time>
      </trkpt>
      <trkpt lat="43.84987" lon="7.58683">
        <ele>126.07</ele>
        <time>2018-10-06T08:21:06Z</time>
      </trkpt>
      <trkpt lat="43.84985" lon="7.58679">
        <ele>125.11</ele>
        <time>2018-10-06T08:21:07Z</time>
      </trkpt>
      <trkpt lat="43.84983" lon="7.58676">
        <ele>125.11</ele>
        <time>2018-10-06T08:21:08Z</time>
      </trkpt>
      <trkpt lat="43.84965" lon="7.58655">
        <ele>122.22</ele>
        <time>2018-10-06T08:21:15Z</time>
      </trkpt>
      <trkpt lat="43.84962" lon="7.58652">
        <ele>121.74</ele>
        <time>2018-10-06T08:21:16Z</time>
      </trkpt>
      <trkpt lat="43.8496" lon="7.58647">
        <ele>121.74</ele>
        <time>2018-10-06T08:21:17Z</time>
      </trkpt>
      <trkpt lat="43.84958" lon="7.58642">
        <ele>121.74</ele>
        <time>2018-10-06T08:21:18Z</time>
      </trkpt>
      <trkpt lat="43.84956" lon="7.58636">
        <ele>121.26</ele>
        <time>2018-10-06T08:21:19Z</time>
      </trkpt>
      <trkpt lat="43.84949" lon="7.5861">
        <ele>120.3</ele>
        <time>2018-10-06T08:21:23Z</time>
      </trkpt>
      <trkpt lat="43.84948" lon="7.58603">
        <ele>119.34</ele>
        <time>2018-10-06T08:21:24Z</time>
      </trkpt>
      <trkpt lat="43.84948" lon="7.58596">
        <ele>119.34</ele>
        <time>2018-10-06T08:21:25Z</time>
      </trkpt>
      <trkpt lat="43.84947" lon="7.5859">
        <ele>119.34</ele>
        <time>2018-10-06T08:21:26Z</time>
      </trkpt>
      <trkpt lat="43.84946" lon="7.58584">
        <ele>118.86</ele>
        <time>2018-10-06T08:21:27Z</time>
      </trkpt>
      <trkpt lat="43.84946" lon="7.58578">
        <ele>118.38</ele>
        <time>2018-10-06T08:21:28Z</time>
      </trkpt>
      <trkpt lat="43.84947" lon="7.58571">
        <ele>117.42</ele>
        <time>2018-10-06T08:21:29Z</time>
      </trkpt>
      <trkpt lat="43.84948" lon="7.58562">
        <ele>116.46</ele>
        <time>2018-10-06T08:21:30Z</time>
      </trkpt>
      <trkpt lat="43.84949" lon="7.58553">
        <ele>115.98</ele>
        <time>2018-10-06T08:21:31Z</time>
      </trkpt>
      <trkpt lat="43.84952" lon="7.58544">
        <ele>115.5</ele>
        <time>2018-10-06T08:21:32Z</time>
      </trkpt>
      <trkpt lat="43.84956" lon="7.58536">
        <ele>114.53</ele>
        <time>2018-10-06T08:21:33Z</time>
      </trkpt>
      <trkpt lat="43.84961" lon="7.58529">
        <ele>114.05</ele>
        <time>2018-10-06T08:21:34Z</time>
      </trkpt>
      <trkpt lat="43.84964" lon="7.58521">
        <ele>113.57</ele>
        <time>2018-10-06T08:21:35Z</time>
      </trkpt>
      <trkpt lat="43.84965" lon="7.58514">
        <ele>113.57</ele>
        <time>2018-10-06T08:21:36Z</time>
      </trkpt>
      <trkpt lat="43.84963" lon="7.58507">
        <ele>113.57</ele>
        <time>2018-10-06T08:21:37Z</time>
      </trkpt>
      <trkpt lat="43.8496" lon="7.585">
        <ele>113.57</ele>
        <time>2018-10-06T08:21:38Z</time>
      </trkpt>
      <trkpt lat="43.8495" lon="7.58458">
        <ele>110.69</ele>
        <time>2018-10-06T08:21:43Z</time>
      </trkpt>
      <trkpt lat="43.84947" lon="7.58452">
        <ele>110.21</ele>
        <time>2018-10-06T08:21:44Z</time>
      </trkpt>
      <trkpt lat="43.84939" lon="7.58454">
        <ele>108.77</ele>
        <time>2018-10-06T08:21:46Z</time>
      </trkpt>
      <trkpt lat="43.84938" lon="7.58461">
        <ele>108.29</ele>
        <time>2018-10-06T08:21:47Z</time>
      </trkpt>
      <trkpt lat="43.84939" lon="7.58469">
        <ele>107.81</ele>
        <time>2018-10-06T08:21:48Z</time>
      </trkpt>
      <trkpt lat="43.84941" lon="7.58477">
        <ele>107.32</ele>
        <time>2018-10-06T08:21:49Z</time>
      </trkpt>
      <trkpt lat="43.84942" lon="7.58487">
        <ele>106.36</ele>
        <time>2018-10-06T08:21:50Z</time>
      </trkpt>
      <trkpt lat="43.84943" lon="7.58498">
        <ele>105.4</ele>
        <time>2018-10-06T08:21:51Z</time>
      </trkpt>
      <trkpt lat="43.84941" lon="7.58509">
        <ele>104.44</ele>
        <time>2018-10-06T08:21:52Z</time>
      </trkpt>
      <trkpt lat="43.84937" lon="7.58518">
        <ele>103.48</ele>
        <time>2018-10-06T08:21:53Z</time>
      </trkpt>
      <trkpt lat="43.84932" lon="7.58527">
        <ele>103.48</ele>
        <time>2018-10-06T08:21:54Z</time>
      </trkpt>
      <trkpt lat="43.84927" lon="7.58536">
        <ele>103</ele>
        <time>2018-10-06T08:21:55Z</time>
      </trkpt>
      <trkpt lat="43.84919" lon="7.58556">
        <ele>102.52</ele>
        <time>2018-10-06T08:21:57Z</time>
      </trkpt>
      <trkpt lat="43.84917" lon="7.58567">
        <ele>102.04</ele>
        <time>2018-10-06T08:21:58Z</time>
      </trkpt>
      <trkpt lat="43.84911" lon="7.58589">
        <ele>100.6</ele>
        <time>2018-10-06T08:22:00Z</time>
      </trkpt>
      <trkpt lat="43.84907" lon="7.586">
        <ele>99.63</ele>
        <time>2018-10-06T08:22:01Z</time>
      </trkpt>
      <trkpt lat="43.84893" lon="7.58651">
        <ele>95.79</ele>
        <time>2018-10-06T08:22:06Z</time>
      </trkpt>
      <trkpt lat="43.84894" lon="7.58661">
        <ele>94.83</ele>
        <time>2018-10-06T08:22:07Z</time>
      </trkpt>
      <trkpt lat="43.84897" lon="7.58672">
        <ele>93.87</ele>
        <time>2018-10-06T08:22:08Z</time>
      </trkpt>
      <trkpt lat="43.84903" lon="7.58682">
        <ele>92.42</ele>
        <time>2018-10-06T08:22:09Z</time>
      </trkpt>
      <trkpt lat="43.84909" lon="7.58691">
        <ele>91.46</ele>
        <time>2018-10-06T08:22:10Z</time>
      </trkpt>
      <trkpt lat="43.84932" lon="7.58722">
        <ele>88.58</ele>
        <time>2018-10-06T08:22:14Z</time>
      </trkpt>
      <trkpt lat="43.84927" lon="7.58728">
        <ele>87.14</ele>
        <time>2018-10-06T08:22:16Z</time>
      </trkpt>
      <trkpt lat="43.84922" lon="7.58726">
        <ele>85.69</ele>
        <time>2018-10-06T08:22:17Z</time>
      </trkpt>
      <trkpt lat="43.84915" lon="7.58722">
        <ele>84.25</ele>
        <time>2018-10-06T08:22:18Z</time>
      </trkpt>
      <trkpt lat="43.84899" lon="7.58712">
        <ele>80.41</ele>
        <time>2018-10-06T08:22:20Z</time>
      </trkpt>
      <trkpt lat="43.84892" lon="7.58708">
        <ele>79.45</ele>
        <time>2018-10-06T08:22:21Z</time>
      </trkpt>
      <trkpt lat="43.84886" lon="7.58708">
        <ele>78.97</ele>
        <time>2018-10-06T08:22:22Z</time>
      </trkpt>
      <trkpt lat="43.84883" lon="7.58712">
        <ele>78</ele>
        <time>2018-10-06T08:22:23Z</time>
      </trkpt>
      <trkpt lat="43.84884" lon="7.58718">
        <ele>77.52</ele>
        <time>2018-10-06T08:22:24Z</time>
      </trkpt>
      <trkpt lat="43.84888" lon="7.58722">
        <ele>77.04</ele>
        <time>2018-10-06T08:22:25Z</time>
      </trkpt>
      <trkpt lat="43.84893" lon="7.58725">
        <ele>76.56</ele>
        <time>2018-10-06T08:22:26Z</time>
      </trkpt>
      <trkpt lat="43.84903" lon="7.58732">
        <ele>76.08</ele>
        <time>2018-10-06T08:22:28Z</time>
      </trkpt>
      <trkpt lat="43.84907" lon="7.58736">
        <ele>75.6</ele>
        <time>2018-10-06T08:22:29Z</time>
      </trkpt>
      <trkpt lat="43.84907" lon="7.58741">
        <ele>75.6</ele>
        <time>2018-10-06T08:22:30Z</time>
      </trkpt>
      <trkpt lat="43.84904" lon="7.58744">
        <ele>74.64</ele>
        <time>2018-10-06T08:22:31Z</time>
      </trkpt>
      <trkpt lat="43.849" lon="7.58742">
        <ele>74.16</ele>
        <time>2018-10-06T08:22:32Z</time>
      </trkpt>
      <trkpt lat="43.84894" lon="7.58738">
        <ele>72.72</ele>
        <time>2018-10-06T08:22:33Z</time>
      </trkpt>
      <trkpt lat="43.8488" lon="7.5873">
        <ele>70.79</ele>
        <time>2018-10-06T08:22:35Z</time>
      </trkpt>
      <trkpt lat="43.84871" lon="7.58728">
        <ele>70.31</ele>
        <time>2018-10-06T08:22:36Z</time>
      </trkpt>
      <trkpt lat="43.84862" lon="7.58726">
        <ele>69.35</ele>
        <time>2018-10-06T08:22:37Z</time>
      </trkpt>
      <trkpt lat="43.84853" lon="7.58724">
        <ele>67.91</ele>
        <time>2018-10-06T08:22:38Z</time>
      </trkpt>
      <trkpt lat="43.84845" lon="7.58721">
        <ele>66.95</ele>
        <time>2018-10-06T08:22:39Z</time>
      </trkpt>
      <trkpt lat="43.84836" lon="7.58718">
        <ele>65.99</ele>
        <time>2018-10-06T08:22:40Z</time>
      </trkpt>
      <trkpt lat="43.84829" lon="7.58715">
        <ele>64.55</ele>
        <time>2018-10-06T08:22:41Z</time>
      </trkpt>
      <trkpt lat="43.84824" lon="7.58713">
        <ele>63.58</ele>
        <time>2018-10-06T08:22:42Z</time>
      </trkpt>
      <trkpt lat="43.84818" lon="7.58717">
        <ele>62.14</ele>
        <time>2018-10-06T08:22:43Z</time>
      </trkpt>
      <trkpt lat="43.84816" lon="7.58725">
        <ele>60.7</ele>
        <time>2018-10-06T08:22:44Z</time>
      </trkpt>
      <trkpt lat="43.84813" lon="7.58736">
        <ele>58.78</ele>
        <time>2018-10-06T08:22:45Z</time>
      </trkpt>
      <trkpt lat="43.84808" lon="7.58746">
        <ele>57.82</ele>
        <time>2018-10-06T08:22:46Z</time>
      </trkpt>
      <trkpt lat="43.84801" lon="7.58752">
        <ele>56.86</ele>
        <time>2018-10-06T08:22:47Z</time>
      </trkpt>
      <trkpt lat="43.84793" lon="7.58753">
        <ele>56.37</ele>
        <time>2018-10-06T08:22:48Z</time>
      </trkpt>
      <trkpt lat="43.84786" lon="7.58749">
        <ele>56.37</ele>
        <time>2018-10-06T08:22:49Z</time>
      </trkpt>
      <trkpt lat="43.84779" lon="7.58743">
        <ele>55.89</ele>
        <time>2018-10-06T08:22:50Z</time>
      </trkpt>
      <trkpt lat="43.84772" lon="7.58738">
        <ele>55.89</ele>
        <time>2018-10-06T08:22:51Z</time>
      </trkpt>
      <trkpt lat="43.84766" lon="7.58731">
        <ele>55.89</ele>
        <time>2018-10-06T08:22:52Z</time>
      </trkpt>
      <trkpt lat="43.84759" lon="7.58725">
        <ele>55.89</ele>
        <time>2018-10-06T08:22:53Z</time>
      </trkpt>
      <trkpt lat="43.84752" lon="7.5872">
        <ele>55.41</ele>
        <time>2018-10-06T08:22:54Z</time>
      </trkpt>
      <trkpt lat="43.84745" lon="7.58717">
        <ele>55.41</ele>
        <time>2018-10-06T08:22:55Z</time>
      </trkpt>
      <trkpt lat="43.84737" lon="7.58716">
        <ele>55.41</ele>
        <time>2018-10-06T08:22:56Z</time>
      </trkpt>
      <trkpt lat="43.8473" lon="7.58715">
        <ele>54.93</ele>
        <time>2018-10-06T08:22:57Z</time>
      </trkpt>
      <trkpt lat="43.84723" lon="7.58713">
        <ele>54.93</ele>
        <time>2018-10-06T08:22:58Z</time>
      </trkpt>
      <trkpt lat="43.84717" lon="7.58711">
        <ele>54.93</ele>
        <time>2018-10-06T08:22:59Z</time>
      </trkpt>
      <trkpt lat="43.84713" lon="7.58708">
        <ele>56.37</ele>
        <time>2018-10-06T08:23:00Z</time>
      </trkpt>
      <trkpt lat="43.84711" lon="7.58705">
        <ele>57.34</ele>
        <time>2018-10-06T08:23:02Z</time>
      </trkpt>
      <trkpt lat="43.84713" lon="7.58703">
        <ele>57.34</ele>
        <time>2018-10-06T08:23:13Z</time>
      </trkpt>
      <trkpt lat="43.84714" lon="7.58703">
        <ele>57.34</ele>
        <time>2018-10-06T08:23:48Z</time>
      </trkpt>
      <trkpt lat="43.84713" lon="7.58703">
        <ele>56.86</ele>
        <time>2018-10-06T08:24:20Z</time>
      </trkpt>
      <trkpt lat="43.84712" lon="7.58705">
        <ele>56.86</ele>
        <time>2018-10-06T08:24:56Z</time>
      </trkpt>
      <trkpt lat="43.84711" lon="7.58705">
        <ele>56.86</ele>
        <time>2018-10-06T08:25:28Z</time>
      </trkpt>
      <trkpt lat="43.84712" lon="7.58706">
        <ele>56.86</ele>
        <time>2018-10-06T08:26:08Z</time>
      </trkpt>
      <trkpt lat="43.84711" lon="7.58704">
        <ele>56.86</ele>
        <time>2018-10-06T08:26:37Z</time>
      </trkpt>
      <trkpt lat="43.8471" lon="7.58703">
        <ele>56.86</ele>
        <time>2018-10-06T08:26:54Z</time>
      </trkpt>
      <trkpt lat="43.84711" lon="7.58701">
        <ele>56.37</ele>
        <time>2018-10-06T08:27:15Z</time>
      </trkpt>
      <trkpt lat="43.84713" lon="7.58703">
        <ele>56.37</ele>
        <time>2018-10-06T08:27:32Z</time>
      </trkpt>
      <trkpt lat="43.84714" lon="7.58704">
        <ele>56.37</ele>
        <time>2018-10-06T08:27:57Z</time>
      </trkpt>
      <trkpt lat="43.84713" lon="7.58706">
        <ele>56.86</ele>
        <time>2018-10-06T08:28:24Z</time>
      </trkpt>
      <trkpt lat="43.84713" lon="7.58706">
        <ele>57.34</ele>
        <time>2018-10-06T08:28:51Z</time>
      </trkpt>
      <trkpt lat="43.84711" lon="7.58704">
        <ele>57.34</ele>
        <time>2018-10-06T08:29:08Z</time>
      </trkpt>
      <trkpt lat="43.84708" lon="7.58702">
        <ele>56.86</ele>
        <time>2018-10-06T08:29:41Z</time>
      </trkpt>
      <trkpt lat="43.84709" lon="7.58703">
        <ele>56.86</ele>
        <time>2018-10-06T08:30:20Z</time>
      </trkpt>
      <trkpt lat="43.84711" lon="7.58703">
        <ele>56.86</ele>
        <time>2018-10-06T08:30:45Z</time>
      </trkpt>
      <trkpt lat="43.84715" lon="7.58702">
        <ele>56.86</ele>
        <time>2018-10-06T08:31:17Z</time>
      </trkpt>
      <trkpt lat="43.84715" lon="7.58702">
        <ele>56.86</ele>
        <time>2018-10-06T08:31:45Z</time>
      </trkpt>
      <trkpt lat="43.84713" lon="7.58702">
        <ele>56.37</ele>
        <time>2018-10-06T08:32:09Z</time>
      </trkpt>
      <trkpt lat="43.84712" lon="7.58702">
        <ele>56.37</ele>
        <time>2018-10-06T08:32:29Z</time>
      </trkpt>
      <trkpt lat="43.84711" lon="7.58702">
        <ele>56.37</ele>
        <time>2018-10-06T08:32:43Z</time>
      </trkpt>
      <trkpt lat="43.84708" lon="7.58701">
        <ele>56.86</ele>
        <time>2018-10-06T08:32:58Z</time>
      </trkpt>
      <trkpt lat="43.84707" lon="7.58702">
        <ele>56.86</ele>
        <time>2018-10-06T08:32:59Z</time>
      </trkpt>
      <trkpt lat="43.84704" lon="7.58704">
        <ele>56.86</ele>
        <time>2018-10-06T08:33:00Z</time>
      </trkpt>
      <trkpt lat="43.84703" lon="7.58706">
        <ele>56.86</ele>
        <time>2018-10-06T08:33:01Z</time>
      </trkpt>
      <trkpt lat="43.84701" lon="7.58708">
        <ele>56.86</ele>
        <time>2018-10-06T08:33:02Z</time>
      </trkpt>
      <trkpt lat="43.84699" lon="7.58711">
        <ele>56.86</ele>
        <time>2018-10-06T08:33:03Z</time>
      </trkpt>
      <trkpt lat="43.84697" lon="7.58714">
        <ele>56.86</ele>
        <time>2018-10-06T08:33:04Z</time>
      </trkpt>
      <trkpt lat="43.84669" lon="7.58759">
        <ele>56.86</ele>
        <time>2018-10-06T08:33:16Z</time>
      </trkpt>
      <trkpt lat="43.84626" lon="7.58827">
        <ele>55.41</ele>
        <time>2018-10-06T08:33:32Z</time>
      </trkpt>
      <trkpt lat="43.84623" lon="7.58832">
        <ele>55.41</ele>
        <time>2018-10-06T08:33:33Z</time>
      </trkpt>
      <trkpt lat="43.84573" lon="7.58909">
        <ele>54.93</ele>
        <time>2018-10-06T08:33:50Z</time>
      </trkpt>
      <trkpt lat="43.84524" lon="7.58984">
        <ele>54.45</ele>
        <time>2018-10-06T08:34:06Z</time>
      </trkpt>
      <trkpt lat="43.84501" lon="7.5902">
        <ele>54.45</ele>
        <time>2018-10-06T08:34:13Z</time>
      </trkpt>
      <trkpt lat="43.84446" lon="7.59105">
        <ele>53.97</ele>
        <time>2018-10-06T08:34:29Z</time>
      </trkpt>
      <trkpt lat="43.844" lon="7.5916">
        <ele>53.49</ele>
        <time>2018-10-06T08:34:41Z</time>
      </trkpt>
      <trkpt lat="43.84395" lon="7.59162">
        <ele>53.49</ele>
        <time>2018-10-06T08:34:42Z</time>
      </trkpt>
      <trkpt lat="43.8436" lon="7.59176">
        <ele>53.49</ele>
        <time>2018-10-06T08:34:49Z</time>
      </trkpt>
      <trkpt lat="43.84354" lon="7.59177">
        <ele>53.49</ele>
        <time>2018-10-06T08:34:50Z</time>
      </trkpt>
      <trkpt lat="43.8435" lon="7.59176">
        <ele>53.49</ele>
        <time>2018-10-06T08:34:51Z</time>
      </trkpt>
      <trkpt lat="43.84291" lon="7.59161">
        <ele>53.01</ele>
        <time>2018-10-06T08:35:02Z</time>
      </trkpt>
      <trkpt lat="43.84286" lon="7.59157">
        <ele>53.01</ele>
        <time>2018-10-06T08:35:03Z</time>
      </trkpt>
      <trkpt lat="43.84281" lon="7.59153">
        <ele>53.01</ele>
        <time>2018-10-06T08:35:04Z</time>
      </trkpt>
      <trkpt lat="43.84277" lon="7.59148">
        <ele>53.01</ele>
        <time>2018-10-06T08:35:05Z</time>
      </trkpt>
      <trkpt lat="43.84272" lon="7.59143">
        <ele>53.01</ele>
        <time>2018-10-06T08:35:06Z</time>
      </trkpt>
      <trkpt lat="43.84256" lon="7.59121">
        <ele>53.01</ele>
        <time>2018-10-06T08:35:10Z</time>
      </trkpt>
      <trkpt lat="43.84236" lon="7.59086">
        <ele>53.01</ele>
        <time>2018-10-06T08:35:16Z</time>
      </trkpt>
      <trkpt lat="43.84232" lon="7.59081">
        <ele>53.01</ele>
        <time>2018-10-06T08:35:17Z</time>
      </trkpt>
      <trkpt lat="43.84227" lon="7.59077">
        <ele>53.01</ele>
        <time>2018-10-06T08:35:18Z</time>
      </trkpt>
      <trkpt lat="43.84168" lon="7.59023">
        <ele>53.01</ele>
        <time>2018-10-06T08:35:31Z</time>
      </trkpt>
      <trkpt lat="43.8416" lon="7.59018">
        <ele>53.01</ele>
        <time>2018-10-06T08:35:35Z</time>
      </trkpt>
      <trkpt lat="43.84158" lon="7.59021">
        <ele>53.01</ele>
        <time>2018-10-06T08:35:36Z</time>
      </trkpt>
      <trkpt lat="43.84156" lon="7.59025">
        <ele>53.01</ele>
        <time>2018-10-06T08:35:37Z</time>
      </trkpt>
      <trkpt lat="43.84155" lon="7.5903">
        <ele>52.53</ele>
        <time>2018-10-06T08:35:38Z</time>
      </trkpt>
      <trkpt lat="43.84154" lon="7.59035">
        <ele>52.05</ele>
        <time>2018-10-06T08:35:39Z</time>
      </trkpt>
      <trkpt lat="43.84152" lon="7.59041">
        <ele>52.05</ele>
        <time>2018-10-06T08:35:40Z</time>
      </trkpt>
      <trkpt lat="43.84149" lon="7.59057">
        <ele>51.57</ele>
        <time>2018-10-06T08:35:43Z</time>
      </trkpt>
      <trkpt lat="43.84149" lon="7.59063">
        <ele>51.57</ele>
        <time>2018-10-06T08:35:44Z</time>
      </trkpt>
      <trkpt lat="43.84151" lon="7.59069">
        <ele>51.57</ele>
        <time>2018-10-06T08:35:45Z</time>
      </trkpt>
      <trkpt lat="43.84154" lon="7.59074">
        <ele>51.57</ele>
        <time>2018-10-06T08:35:46Z</time>
      </trkpt>
      <trkpt lat="43.84157" lon="7.59078">
        <ele>51.09</ele>
        <time>2018-10-06T08:35:47Z</time>
      </trkpt>
      <trkpt lat="43.8416" lon="7.59083">
        <ele>51.09</ele>
        <time>2018-10-06T08:35:48Z</time>
      </trkpt>
      <trkpt lat="43.84161" lon="7.59087">
        <ele>51.09</ele>
        <time>2018-10-06T08:35:49Z</time>
      </trkpt>
      <trkpt lat="43.84162" lon="7.59091">
        <ele>51.09</ele>
        <time>2018-10-06T08:35:50Z</time>
      </trkpt>
      <trkpt lat="43.84162" lon="7.59095">
        <ele>51.09</ele>
        <time>2018-10-06T08:35:51Z</time>
      </trkpt>
      <trkpt lat="43.84162" lon="7.59098">
        <ele>52.53</ele>
        <time>2018-10-06T08:35:52Z</time>
      </trkpt>
      <trkpt lat="43.84161" lon="7.591">
        <ele>52.53</ele>
        <time>2018-10-06T08:35:53Z</time>
      </trkpt>
      <trkpt lat="43.8416" lon="7.59102">
        <ele>53.01</ele>
        <time>2018-10-06T08:35:54Z</time>
      </trkpt>
      <trkpt lat="43.84152" lon="7.59115">
        <ele>54.93</ele>
        <time>2018-10-06T08:36:03Z</time>
      </trkpt>
      <trkpt lat="43.84151" lon="7.59117">
        <ele>55.41</ele>
        <time>2018-10-06T08:36:04Z</time>
      </trkpt>
      <trkpt lat="43.8415" lon="7.59118">
        <ele>55.41</ele>
        <time>2018-10-06T08:36:05Z</time>
      </trkpt>
      <trkpt lat="43.84149" lon="7.59119">
        <ele>55.89</ele>
        <time>2018-10-06T08:36:06Z</time>
      </trkpt>
      <trkpt lat="43.84148" lon="7.5912">
        <ele>55.89</ele>
        <time>2018-10-06T08:36:07Z</time>
      </trkpt>
      <trkpt lat="43.84147" lon="7.5912">
        <ele>55.89</ele>
        <time>2018-10-06T08:36:08Z</time>
      </trkpt>
      <trkpt lat="43.84132" lon="7.59135">
        <ele>58.78</ele>
        <time>2018-10-06T08:36:22Z</time>
      </trkpt>
      <trkpt lat="43.8412" lon="7.59153">
        <ele>62.14</ele>
        <time>2018-10-06T08:36:33Z</time>
      </trkpt>
      <trkpt lat="43.84119" lon="7.59155">
        <ele>62.14</ele>
        <time>2018-10-06T08:36:34Z</time>
      </trkpt>
      <trkpt lat="43.84119" lon="7.59157">
        <ele>62.62</ele>
        <time>2018-10-06T08:36:35Z</time>
      </trkpt>
      <trkpt lat="43.84118" lon="7.59159">
        <ele>62.62</ele>
        <time>2018-10-06T08:36:36Z</time>
      </trkpt>
      <trkpt lat="43.84118" lon="7.59161">
        <ele>63.1</ele>
        <time>2018-10-06T08:36:37Z</time>
      </trkpt>
      <trkpt lat="43.84118" lon="7.59163">
        <ele>63.1</ele>
        <time>2018-10-06T08:36:38Z</time>
      </trkpt>
      <trkpt lat="43.84118" lon="7.59167">
        <ele>63.58</ele>
        <time>2018-10-06T08:36:40Z</time>
      </trkpt>
      <trkpt lat="43.84119" lon="7.59168">
        <ele>63.58</ele>
        <time>2018-10-06T08:36:41Z</time>
      </trkpt>
      <trkpt lat="43.84119" lon="7.5917">
        <ele>64.07</ele>
        <time>2018-10-06T08:36:42Z</time>
      </trkpt>
      <trkpt lat="43.8412" lon="7.59172">
        <ele>64.07</ele>
        <time>2018-10-06T08:36:43Z</time>
      </trkpt>
      <trkpt lat="43.8412" lon="7.59173">
        <ele>64.07</ele>
        <time>2018-10-06T08:36:44Z</time>
      </trkpt>
      <trkpt lat="43.84125" lon="7.59196">
        <ele>67.43</ele>
        <time>2018-10-06T08:36:57Z</time>
      </trkpt>
      <trkpt lat="43.84126" lon="7.59199">
        <ele>67.91</ele>
        <time>2018-10-06T08:36:59Z</time>
      </trkpt>
      <trkpt lat="43.84126" lon="7.59201">
        <ele>67.91</ele>
        <time>2018-10-06T08:37:00Z</time>
      </trkpt>
      <trkpt lat="43.84126" lon="7.59202">
        <ele>68.39</ele>
        <time>2018-10-06T08:37:01Z</time>
      </trkpt>
      <trkpt lat="43.84127" lon="7.59203">
        <ele>68.39</ele>
        <time>2018-10-06T08:37:02Z</time>
      </trkpt>
      <trkpt lat="43.84128" lon="7.59206">
        <ele>68.87</ele>
        <time>2018-10-06T08:37:04Z</time>
      </trkpt>
      <trkpt lat="43.84131" lon="7.59215">
        <ele>70.31</ele>
        <time>2018-10-06T08:37:10Z</time>
      </trkpt>
      <trkpt lat="43.8413" lon="7.59217">
        <ele>70.31</ele>
        <time>2018-10-06T08:37:11Z</time>
      </trkpt>
      <trkpt lat="43.84131" lon="7.5923">
        <ele>72.72</ele>
        <time>2018-10-06T08:37:20Z</time>
      </trkpt>
      <trkpt lat="43.84131" lon="7.59233">
        <ele>73.2</ele>
        <time>2018-10-06T08:37:22Z</time>
      </trkpt>
      <trkpt lat="43.84131" lon="7.59235">
        <ele>73.68</ele>
        <time>2018-10-06T08:37:23Z</time>
      </trkpt>
      <trkpt lat="43.84131" lon="7.59237">
        <ele>73.68</ele>
        <time>2018-10-06T08:37:24Z</time>
      </trkpt>
      <trkpt lat="43.84131" lon="7.59238">
        <ele>74.16</ele>
        <time>2018-10-06T08:37:25Z</time>
      </trkpt>
      <trkpt lat="43.84131" lon="7.5924">
        <ele>74.16</ele>
        <time>2018-10-06T08:37:26Z</time>
      </trkpt>
      <trkpt lat="43.84131" lon="7.59242">
        <ele>74.16</ele>
        <time>2018-10-06T08:37:27Z</time>
      </trkpt>
      <trkpt lat="43.84131" lon="7.59244">
        <ele>74.16</ele>
        <time>2018-10-06T08:37:28Z</time>
      </trkpt>
      <trkpt lat="43.84132" lon="7.59246">
        <ele>74.64</ele>
        <time>2018-10-06T08:37:29Z</time>
      </trkpt>
      <trkpt lat="43.84133" lon="7.59248">
        <ele>74.64</ele>
        <time>2018-10-06T08:37:30Z</time>
      </trkpt>
      <trkpt lat="43.84133" lon="7.59249">
        <ele>75.12</ele>
        <time>2018-10-06T08:37:31Z</time>
      </trkpt>
      <trkpt lat="43.84134" lon="7.59251">
        <ele>75.12</ele>
        <time>2018-10-06T08:37:32Z</time>
      </trkpt>
      <trkpt lat="43.84134" lon="7.59253">
        <ele>75.12</ele>
        <time>2018-10-06T08:37:33Z</time>
      </trkpt>
      <trkpt lat="43.84134" lon="7.59255">
        <ele>76.08</ele>
        <time>2018-10-06T08:37:34Z</time>
      </trkpt>
      <trkpt lat="43.84142" lon="7.59278">
        <ele>78.97</ele>
        <time>2018-10-06T08:37:48Z</time>
      </trkpt>
      <trkpt lat="43.8414" lon="7.593">
        <ele>81.85</ele>
        <time>2018-10-06T08:38:00Z</time>
      </trkpt>
      <trkpt lat="43.8414" lon="7.59302">
        <ele>81.85</ele>
        <time>2018-10-06T08:38:01Z</time>
      </trkpt>
      <trkpt lat="43.8414" lon="7.59304">
        <ele>81.85</ele>
        <time>2018-10-06T08:38:02Z</time>
      </trkpt>
      <trkpt lat="43.8414" lon="7.59306">
        <ele>82.33</ele>
        <time>2018-10-06T08:38:03Z</time>
      </trkpt>
      <trkpt lat="43.8414" lon="7.59308">
        <ele>82.33</ele>
        <time>2018-10-06T08:38:04Z</time>
      </trkpt>
      <trkpt lat="43.84139" lon="7.5931">
        <ele>82.33</ele>
        <time>2018-10-06T08:38:05Z</time>
      </trkpt>
      <trkpt lat="43.84139" lon="7.59312">
        <ele>82.33</ele>
        <time>2018-10-06T08:38:06Z</time>
      </trkpt>
      <trkpt lat="43.84133" lon="7.59338">
        <ele>85.21</ele>
        <time>2018-10-06T08:38:20Z</time>
      </trkpt>
      <trkpt lat="43.8413" lon="7.59363">
        <ele>87.62</ele>
        <time>2018-10-06T08:38:33Z</time>
      </trkpt>
      <trkpt lat="43.84124" lon="7.59383">
        <ele>90.02</ele>
        <time>2018-10-06T08:38:45Z</time>
      </trkpt>
      <trkpt lat="43.84123" lon="7.59385">
        <ele>90.5</ele>
        <time>2018-10-06T08:38:46Z</time>
      </trkpt>
      <trkpt lat="43.84122" lon="7.59387">
        <ele>90.5</ele>
        <time>2018-10-06T08:38:47Z</time>
      </trkpt>
      <trkpt lat="43.84122" lon="7.59388">
        <ele>90.5</ele>
        <time>2018-10-06T08:38:48Z</time>
      </trkpt>
      <trkpt lat="43.84121" lon="7.5939">
        <ele>90.98</ele>
        <time>2018-10-06T08:38:49Z</time>
      </trkpt>
      <trkpt lat="43.84121" lon="7.59391">
        <ele>91.46</ele>
        <time>2018-10-06T08:38:50Z</time>
      </trkpt>
      <trkpt lat="43.84121" lon="7.59393">
        <ele>91.46</ele>
        <time>2018-10-06T08:38:51Z</time>
      </trkpt>
      <trkpt lat="43.84121" lon="7.59395">
        <ele>91.94</ele>
        <time>2018-10-06T08:38:52Z</time>
      </trkpt>
      <trkpt lat="43.8412" lon="7.59396">
        <ele>91.94</ele>
        <time>2018-10-06T08:38:53Z</time>
      </trkpt>
      <trkpt lat="43.8412" lon="7.59398">
        <ele>92.42</ele>
        <time>2018-10-06T08:38:54Z</time>
      </trkpt>
      <trkpt lat="43.84119" lon="7.594">
        <ele>92.42</ele>
        <time>2018-10-06T08:38:55Z</time>
      </trkpt>
      <trkpt lat="43.84119" lon="7.59402">
        <ele>92.9</ele>
        <time>2018-10-06T08:38:56Z</time>
      </trkpt>
      <trkpt lat="43.8412" lon="7.59404">
        <ele>92.9</ele>
        <time>2018-10-06T08:38:57Z</time>
      </trkpt>
      <trkpt lat="43.8412" lon="7.59406">
        <ele>93.39</ele>
        <time>2018-10-06T08:38:58Z</time>
      </trkpt>
      <trkpt lat="43.8412" lon="7.59407">
        <ele>93.39</ele>
        <time>2018-10-06T08:38:59Z</time>
      </trkpt>
      <trkpt lat="43.84128" lon="7.59431">
        <ele>96.75</ele>
        <time>2018-10-06T08:39:13Z</time>
      </trkpt>
      <trkpt lat="43.84131" lon="7.59443">
        <ele>97.71</ele>
        <time>2018-10-06T08:39:20Z</time>
      </trkpt>
      <trkpt lat="43.84131" lon="7.59445">
        <ele>97.71</ele>
        <time>2018-10-06T08:39:21Z</time>
      </trkpt>
      <trkpt lat="43.84132" lon="7.59446">
        <ele>98.67</ele>
        <time>2018-10-06T08:39:22Z</time>
      </trkpt>
      <trkpt lat="43.84133" lon="7.59448">
        <ele>98.67</ele>
        <time>2018-10-06T08:39:23Z</time>
      </trkpt>
      <trkpt lat="43.84133" lon="7.5945">
        <ele>99.15</ele>
        <time>2018-10-06T08:39:24Z</time>
      </trkpt>
      <trkpt lat="43.84133" lon="7.59451">
        <ele>99.15</ele>
        <time>2018-10-06T08:39:25Z</time>
      </trkpt>
      <trkpt lat="43.84134" lon="7.59453">
        <ele>99.15</ele>
        <time>2018-10-06T08:39:26Z</time>
      </trkpt>
      <trkpt lat="43.84135" lon="7.59463">
        <ele>100.6</ele>
        <time>2018-10-06T08:39:32Z</time>
      </trkpt>
      <trkpt lat="43.84134" lon="7.59467">
        <ele>101.08</ele>
        <time>2018-10-06T08:39:34Z</time>
      </trkpt>
      <trkpt lat="43.84136" lon="7.59501">
        <ele>103.48</ele>
        <time>2018-10-06T08:39:51Z</time>
      </trkpt>
      <trkpt lat="43.84145" lon="7.59536">
        <ele>105.88</ele>
        <time>2018-10-06T08:40:07Z</time>
      </trkpt>
      <trkpt lat="43.84147" lon="7.59569">
        <ele>108.77</ele>
        <time>2018-10-06T08:40:22Z</time>
      </trkpt>
      <trkpt lat="43.84143" lon="7.59591">
        <ele>111.65</ele>
        <time>2018-10-06T08:40:32Z</time>
      </trkpt>
      <trkpt lat="43.84141" lon="7.59603">
        <ele>113.09</ele>
        <time>2018-10-06T08:40:38Z</time>
      </trkpt>
      <trkpt lat="43.84141" lon="7.59605">
        <ele>113.09</ele>
        <time>2018-10-06T08:40:39Z</time>
      </trkpt>
      <trkpt lat="43.84141" lon="7.59607">
        <ele>113.09</ele>
        <time>2018-10-06T08:40:40Z</time>
      </trkpt>
      <trkpt lat="43.84136" lon="7.59626">
        <ele>115.98</ele>
        <time>2018-10-06T08:40:52Z</time>
      </trkpt>
      <trkpt lat="43.84136" lon="7.59628">
        <ele>116.94</ele>
        <time>2018-10-06T08:40:53Z</time>
      </trkpt>
      <trkpt lat="43.84135" lon="7.5963">
        <ele>116.94</ele>
        <time>2018-10-06T08:40:54Z</time>
      </trkpt>
      <trkpt lat="43.84132" lon="7.59652">
        <ele>120.3</ele>
        <time>2018-10-06T08:41:07Z</time>
      </trkpt>
      <trkpt lat="43.84127" lon="7.59673">
        <ele>122.71</ele>
        <time>2018-10-06T08:41:19Z</time>
      </trkpt>
      <trkpt lat="43.84126" lon="7.59675">
        <ele>122.71</ele>
        <time>2018-10-06T08:41:20Z</time>
      </trkpt>
      <trkpt lat="43.84104" lon="7.59701">
        <ele>124.15</ele>
        <time>2018-10-06T08:41:36Z</time>
      </trkpt>
      <trkpt lat="43.84098" lon="7.59714">
        <ele>124.15</ele>
        <time>2018-10-06T08:41:40Z</time>
      </trkpt>
      <trkpt lat="43.84098" lon="7.59717">
        <ele>124.15</ele>
        <time>2018-10-06T08:41:41Z</time>
      </trkpt>
      <trkpt lat="43.84107" lon="7.59746">
        <ele>126.07</ele>
        <time>2018-10-06T08:41:52Z</time>
      </trkpt>
      <trkpt lat="43.84113" lon="7.59755">
        <ele>127.99</ele>
        <time>2018-10-06T08:41:58Z</time>
      </trkpt>
      <trkpt lat="43.84113" lon="7.59756">
        <ele>127.99</ele>
        <time>2018-10-06T08:41:59Z</time>
      </trkpt>
      <trkpt lat="43.84113" lon="7.59758">
        <ele>128.47</ele>
        <time>2018-10-06T08:42:00Z</time>
      </trkpt>
      <trkpt lat="43.84113" lon="7.59759">
        <ele>128.47</ele>
        <time>2018-10-06T08:42:01Z</time>
      </trkpt>
      <trkpt lat="43.84112" lon="7.5976">
        <ele>128.47</ele>
        <time>2018-10-06T08:42:02Z</time>
      </trkpt>
      <trkpt lat="43.84098" lon="7.59791">
        <ele>130.88</ele>
        <time>2018-10-06T08:42:17Z</time>
      </trkpt>
      <trkpt lat="43.84094" lon="7.59825">
        <ele>132.8</ele>
        <time>2018-10-06T08:42:30Z</time>
      </trkpt>
      <trkpt lat="43.84085" lon="7.59866">
        <ele>135.68</ele>
        <time>2018-10-06T08:42:47Z</time>
      </trkpt>
      <trkpt lat="43.84078" lon="7.59903">
        <ele>138.57</ele>
        <time>2018-10-06T08:43:02Z</time>
      </trkpt>
      <trkpt lat="43.84066" lon="7.59932">
        <ele>141.93</ele>
        <time>2018-10-06T08:43:17Z</time>
      </trkpt>
      <trkpt lat="43.84057" lon="7.59958">
        <ele>144.82</ele>
        <time>2018-10-06T08:43:31Z</time>
      </trkpt>
      <trkpt lat="43.84058" lon="7.59962">
        <ele>145.3</ele>
        <time>2018-10-06T08:43:33Z</time>
      </trkpt>
      <trkpt lat="43.84059" lon="7.59963">
        <ele>145.78</ele>
        <time>2018-10-06T08:43:34Z</time>
      </trkpt>
      <trkpt lat="43.84061" lon="7.59963">
        <ele>145.78</ele>
        <time>2018-10-06T08:43:35Z</time>
      </trkpt>
      <trkpt lat="43.84062" lon="7.59963">
        <ele>146.26</ele>
        <time>2018-10-06T08:43:36Z</time>
      </trkpt>
      <trkpt lat="43.84063" lon="7.59963">
        <ele>146.26</ele>
        <time>2018-10-06T08:43:37Z</time>
      </trkpt>
      <trkpt lat="43.84064" lon="7.59962">
        <ele>146.26</ele>
        <time>2018-10-06T08:43:38Z</time>
      </trkpt>
      <trkpt lat="43.84065" lon="7.5996">
        <ele>146.74</ele>
        <time>2018-10-06T08:43:39Z</time>
      </trkpt>
      <trkpt lat="43.84066" lon="7.59959">
        <ele>147.22</ele>
        <time>2018-10-06T08:43:40Z</time>
      </trkpt>
      <trkpt lat="43.84072" lon="7.59952">
        <ele>148.18</ele>
        <time>2018-10-06T08:43:46Z</time>
      </trkpt>
      <trkpt lat="43.84073" lon="7.5995">
        <ele>148.66</ele>
        <time>2018-10-06T08:43:48Z</time>
      </trkpt>
      <trkpt lat="43.84074" lon="7.59949">
        <ele>148.66</ele>
        <time>2018-10-06T08:43:49Z</time>
      </trkpt>
      <trkpt lat="43.84087" lon="7.59941">
        <ele>151.54</ele>
        <time>2018-10-06T08:44:00Z</time>
      </trkpt>
      <trkpt lat="43.84088" lon="7.59942">
        <ele>152.03</ele>
        <time>2018-10-06T08:44:01Z</time>
      </trkpt>
      <trkpt lat="43.84089" lon="7.59943">
        <ele>152.51</ele>
        <time>2018-10-06T08:44:02Z</time>
      </trkpt>
      <trkpt lat="43.8409" lon="7.59944">
        <ele>152.51</ele>
        <time>2018-10-06T08:44:03Z</time>
      </trkpt>
      <trkpt lat="43.8409" lon="7.59945">
        <ele>152.99</ele>
        <time>2018-10-06T08:44:04Z</time>
      </trkpt>
      <trkpt lat="43.8409" lon="7.59947">
        <ele>153.47</ele>
        <time>2018-10-06T08:44:05Z</time>
      </trkpt>
      <trkpt lat="43.8409" lon="7.59948">
        <ele>153.47</ele>
        <time>2018-10-06T08:44:06Z</time>
      </trkpt>
      <trkpt lat="43.8409" lon="7.5995">
        <ele>153.47</ele>
        <time>2018-10-06T08:44:07Z</time>
      </trkpt>
      <trkpt lat="43.8409" lon="7.59952">
        <ele>153.95</ele>
        <time>2018-10-06T08:44:08Z</time>
      </trkpt>
      <trkpt lat="43.8409" lon="7.59954">
        <ele>153.95</ele>
        <time>2018-10-06T08:44:09Z</time>
      </trkpt>
      <trkpt lat="43.84088" lon="7.59977">
        <ele>156.83</ele>
        <time>2018-10-06T08:44:22Z</time>
      </trkpt>
      <trkpt lat="43.84087" lon="7.60001">
        <ele>159.72</ele>
        <time>2018-10-06T08:44:35Z</time>
      </trkpt>
      <trkpt lat="43.84089" lon="7.60023">
        <ele>162.12</ele>
        <time>2018-10-06T08:44:46Z</time>
      </trkpt>
      <trkpt lat="43.84089" lon="7.60025">
        <ele>162.12</ele>
        <time>2018-10-06T08:44:47Z</time>
      </trkpt>
      <trkpt lat="43.84089" lon="7.60027">
        <ele>162.12</ele>
        <time>2018-10-06T08:44:48Z</time>
      </trkpt>
      <trkpt lat="43.84089" lon="7.60029">
        <ele>162.12</ele>
        <time>2018-10-06T08:44:49Z</time>
      </trkpt>
      <trkpt lat="43.84088" lon="7.60031">
        <ele>162.6</ele>
        <time>2018-10-06T08:44:50Z</time>
      </trkpt>
      <trkpt lat="43.84088" lon="7.60033">
        <ele>162.12</ele>
        <time>2018-10-06T08:44:51Z</time>
      </trkpt>
      <trkpt lat="43.84088" lon="7.60034">
        <ele>163.08</ele>
        <time>2018-10-06T08:44:52Z</time>
      </trkpt>
      <trkpt lat="43.84084" lon="7.60048">
        <ele>164.52</ele>
        <time>2018-10-06T08:45:00Z</time>
      </trkpt>
      <trkpt lat="43.84084" lon="7.6005">
        <ele>164.52</ele>
        <time>2018-10-06T08:45:01Z</time>
      </trkpt>
      <trkpt lat="43.84083" lon="7.60052">
        <ele>165</ele>
        <time>2018-10-06T08:45:02Z</time>
      </trkpt>
      <trkpt lat="43.84083" lon="7.60054">
        <ele>165</ele>
        <time>2018-10-06T08:45:03Z</time>
      </trkpt>
      <trkpt lat="43.84083" lon="7.60056">
        <ele>165</ele>
        <time>2018-10-06T08:45:04Z</time>
      </trkpt>
      <trkpt lat="43.84077" lon="7.60082">
        <ele>167.89</ele>
        <time>2018-10-06T08:45:19Z</time>
      </trkpt>
      <trkpt lat="43.84074" lon="7.60116">
        <ele>171.25</ele>
        <time>2018-10-06T08:45:35Z</time>
      </trkpt>
      <trkpt lat="43.84071" lon="7.60149">
        <ele>173.17</ele>
        <time>2018-10-06T08:45:50Z</time>
      </trkpt>
      <trkpt lat="43.84067" lon="7.60159">
        <ele>174.14</ele>
        <time>2018-10-06T08:45:56Z</time>
      </trkpt>
      <trkpt lat="43.84066" lon="7.6016">
        <ele>174.62</ele>
        <time>2018-10-06T08:45:57Z</time>
      </trkpt>
      <trkpt lat="43.84066" lon="7.60162">
        <ele>174.62</ele>
        <time>2018-10-06T08:45:58Z</time>
      </trkpt>
      <trkpt lat="43.84065" lon="7.60164">
        <ele>174.62</ele>
        <time>2018-10-06T08:45:59Z</time>
      </trkpt>
      <trkpt lat="43.84065" lon="7.60166">
        <ele>175.1</ele>
        <time>2018-10-06T08:46:00Z</time>
      </trkpt>
      <trkpt lat="43.84064" lon="7.60167">
        <ele>175.1</ele>
        <time>2018-10-06T08:46:01Z</time>
      </trkpt>
      <trkpt lat="43.84062" lon="7.60175">
        <ele>176.54</ele>
        <time>2018-10-06T08:46:05Z</time>
      </trkpt>
      <trkpt lat="43.84063" lon="7.60178">
        <ele>176.06</ele>
        <time>2018-10-06T08:46:06Z</time>
      </trkpt>
      <trkpt lat="43.84062" lon="7.6018">
        <ele>176.06</ele>
        <time>2018-10-06T08:46:07Z</time>
      </trkpt>
      <trkpt lat="43.84062" lon="7.60182">
        <ele>176.54</ele>
        <time>2018-10-06T08:46:08Z</time>
      </trkpt>
      <trkpt lat="43.84062" lon="7.60184">
        <ele>176.54</ele>
        <time>2018-10-06T08:46:09Z</time>
      </trkpt>
      <trkpt lat="43.84062" lon="7.60186">
        <ele>177.02</ele>
        <time>2018-10-06T08:46:10Z</time>
      </trkpt>
      <trkpt lat="43.84062" lon="7.60188">
        <ele>177.5</ele>
        <time>2018-10-06T08:46:11Z</time>
      </trkpt>
      <trkpt lat="43.84063" lon="7.6019">
        <ele>177.02</ele>
        <time>2018-10-06T08:46:12Z</time>
      </trkpt>
      <trkpt lat="43.84063" lon="7.60192">
        <ele>177.5</ele>
        <time>2018-10-06T08:46:13Z</time>
      </trkpt>
      <trkpt lat="43.84064" lon="7.60194">
        <ele>177.5</ele>
        <time>2018-10-06T08:46:14Z</time>
      </trkpt>
      <trkpt lat="43.84065" lon="7.60195">
        <ele>177.5</ele>
        <time>2018-10-06T08:46:15Z</time>
      </trkpt>
      <trkpt lat="43.84066" lon="7.60197">
        <ele>177.5</ele>
        <time>2018-10-06T08:46:16Z</time>
      </trkpt>
      <trkpt lat="43.84068" lon="7.60198">
        <ele>177.98</ele>
        <time>2018-10-06T08:46:17Z</time>
      </trkpt>
      <trkpt lat="43.84075" lon="7.60203">
        <ele>178.46</ele>
        <time>2018-10-06T08:46:22Z</time>
      </trkpt>
      <trkpt lat="43.841" lon="7.6021">
        <ele>180.87</ele>
        <time>2018-10-06T08:46:37Z</time>
      </trkpt>
      <trkpt lat="43.84106" lon="7.60211">
        <ele>180.87</ele>
        <time>2018-10-06T08:46:40Z</time>
      </trkpt>
      <trkpt lat="43.84108" lon="7.60212">
        <ele>180.87</ele>
        <time>2018-10-06T08:46:41Z</time>
      </trkpt>
      <trkpt lat="43.84109" lon="7.60213">
        <ele>181.35</ele>
        <time>2018-10-06T08:46:42Z</time>
      </trkpt>
      <trkpt lat="43.84111" lon="7.60215">
        <ele>181.35</ele>
        <time>2018-10-06T08:46:43Z</time>
      </trkpt>
      <trkpt lat="43.84113" lon="7.60216">
        <ele>181.35</ele>
        <time>2018-10-06T08:46:44Z</time>
      </trkpt>
      <trkpt lat="43.84114" lon="7.60218">
        <ele>181.35</ele>
        <time>2018-10-06T08:46:45Z</time>
      </trkpt>
      <trkpt lat="43.84115" lon="7.6022">
        <ele>182.31</ele>
        <time>2018-10-06T08:46:46Z</time>
      </trkpt>
      <trkpt lat="43.84115" lon="7.60223">
        <ele>182.31</ele>
        <time>2018-10-06T08:46:47Z</time>
      </trkpt>
      <trkpt lat="43.84124" lon="7.60248">
        <ele>185.19</ele>
        <time>2018-10-06T08:47:01Z</time>
      </trkpt>
      <trkpt lat="43.84131" lon="7.60257">
        <ele>186.63</ele>
        <time>2018-10-06T08:47:08Z</time>
      </trkpt>
      <trkpt lat="43.84133" lon="7.60257">
        <ele>186.63</ele>
        <time>2018-10-06T08:47:09Z</time>
      </trkpt>
      <trkpt lat="43.84134" lon="7.60259">
        <ele>186.63</ele>
        <time>2018-10-06T08:47:10Z</time>
      </trkpt>
      <trkpt lat="43.84135" lon="7.6026">
        <ele>187.11</ele>
        <time>2018-10-06T08:47:11Z</time>
      </trkpt>
      <trkpt lat="43.84137" lon="7.60261">
        <ele>187.11</ele>
        <time>2018-10-06T08:47:12Z</time>
      </trkpt>
      <trkpt lat="43.84138" lon="7.60262">
        <ele>187.11</ele>
        <time>2018-10-06T08:47:13Z</time>
      </trkpt>
      <trkpt lat="43.84159" lon="7.60278">
        <ele>189.52</ele>
        <time>2018-10-06T08:47:27Z</time>
      </trkpt>
      <trkpt lat="43.8416" lon="7.60281">
        <ele>189.52</ele>
        <time>2018-10-06T08:47:28Z</time>
      </trkpt>
      <trkpt lat="43.84159" lon="7.60283">
        <ele>189.52</ele>
        <time>2018-10-06T08:47:29Z</time>
      </trkpt>
      <trkpt lat="43.8416" lon="7.60285">
        <ele>190</ele>
        <time>2018-10-06T08:47:30Z</time>
      </trkpt>
      <trkpt lat="43.8416" lon="7.60288">
        <ele>190</ele>
        <time>2018-10-06T08:47:31Z</time>
      </trkpt>
      <trkpt lat="43.8416" lon="7.6029">
        <ele>190</ele>
        <time>2018-10-06T08:47:32Z</time>
      </trkpt>
      <trkpt lat="43.84159" lon="7.60292">
        <ele>190.48</ele>
        <time>2018-10-06T08:47:33Z</time>
      </trkpt>
      <trkpt lat="43.84159" lon="7.60295">
        <ele>190.48</ele>
        <time>2018-10-06T08:47:34Z</time>
      </trkpt>
      <trkpt lat="43.84159" lon="7.60297">
        <ele>190.96</ele>
        <time>2018-10-06T08:47:35Z</time>
      </trkpt>
      <trkpt lat="43.84158" lon="7.60318">
        <ele>193.84</ele>
        <time>2018-10-06T08:47:46Z</time>
      </trkpt>
      <trkpt lat="43.84158" lon="7.60319">
        <ele>193.84</ele>
        <time>2018-10-06T08:47:47Z</time>
      </trkpt>
      <trkpt lat="43.84158" lon="7.60321">
        <ele>193.84</ele>
        <time>2018-10-06T08:47:48Z</time>
      </trkpt>
      <trkpt lat="43.84159" lon="7.60345">
        <ele>196.73</ele>
        <time>2018-10-06T08:48:01Z</time>
      </trkpt>
      <trkpt lat="43.8416" lon="7.6037">
        <ele>200.09</ele>
        <time>2018-10-06T08:48:15Z</time>
      </trkpt>
      <trkpt lat="43.84167" lon="7.60393">
        <ele>202.49</ele>
        <time>2018-10-06T08:48:29Z</time>
      </trkpt>
      <trkpt lat="43.84171" lon="7.60402">
        <ele>203.46</ele>
        <time>2018-10-06T08:48:34Z</time>
      </trkpt>
      <trkpt lat="43.84185" lon="7.60427">
        <ele>206.82</ele>
        <time>2018-10-06T08:48:50Z</time>
      </trkpt>
      <trkpt lat="43.84194" lon="7.6044">
        <ele>207.78</ele>
        <time>2018-10-06T08:49:00Z</time>
      </trkpt>
      <trkpt lat="43.84207" lon="7.60478">
        <ele>210.19</ele>
        <time>2018-10-06T08:49:17Z</time>
      </trkpt>
      <trkpt lat="43.84219" lon="7.60514">
        <ele>212.59</ele>
        <time>2018-10-06T08:49:33Z</time>
      </trkpt>
      <trkpt lat="43.84232" lon="7.60539">
        <ele>215.95</ele>
        <time>2018-10-06T08:49:49Z</time>
      </trkpt>
      <trkpt lat="43.84232" lon="7.60542">
        <ele>216.43</ele>
        <time>2018-10-06T08:49:51Z</time>
      </trkpt>
      <trkpt lat="43.84232" lon="7.60544">
        <ele>216.43</ele>
        <time>2018-10-06T08:49:52Z</time>
      </trkpt>
      <trkpt lat="43.8423" lon="7.60545">
        <ele>216.91</ele>
        <time>2018-10-06T08:49:53Z</time>
      </trkpt>
      <trkpt lat="43.84226" lon="7.60548">
        <ele>218.36</ele>
        <time>2018-10-06T08:49:57Z</time>
      </trkpt>
      <trkpt lat="43.84225" lon="7.60547">
        <ele>218.36</ele>
        <time>2018-10-06T08:49:58Z</time>
      </trkpt>
      <trkpt lat="43.84224" lon="7.60547">
        <ele>218.84</ele>
        <time>2018-10-06T08:49:59Z</time>
      </trkpt>
      <trkpt lat="43.84223" lon="7.60546">
        <ele>218.84</ele>
        <time>2018-10-06T08:50:00Z</time>
      </trkpt>
      <trkpt lat="43.84222" lon="7.60546">
        <ele>219.32</ele>
        <time>2018-10-06T08:50:01Z</time>
      </trkpt>
      <trkpt lat="43.84221" lon="7.60546">
        <ele>219.32</ele>
        <time>2018-10-06T08:50:02Z</time>
      </trkpt>
      <trkpt lat="43.84219" lon="7.60546">
        <ele>219.8</ele>
        <time>2018-10-06T08:50:03Z</time>
      </trkpt>
      <trkpt lat="43.84218" lon="7.60546">
        <ele>219.8</ele>
        <time>2018-10-06T08:50:04Z</time>
      </trkpt>
      <trkpt lat="43.84217" lon="7.60546">
        <ele>220.76</ele>
        <time>2018-10-06T08:50:05Z</time>
      </trkpt>
      <trkpt lat="43.84216" lon="7.60546">
        <ele>220.76</ele>
        <time>2018-10-06T08:50:06Z</time>
      </trkpt>
      <trkpt lat="43.84215" lon="7.60547">
        <ele>221.24</ele>
        <time>2018-10-06T08:50:07Z</time>
      </trkpt>
      <trkpt lat="43.84214" lon="7.60549">
        <ele>221.24</ele>
        <time>2018-10-06T08:50:08Z</time>
      </trkpt>
      <trkpt lat="43.84214" lon="7.60551">
        <ele>221.72</ele>
        <time>2018-10-06T08:50:09Z</time>
      </trkpt>
      <trkpt lat="43.84214" lon="7.60552">
        <ele>221.72</ele>
        <time>2018-10-06T08:50:10Z</time>
      </trkpt>
      <trkpt lat="43.84215" lon="7.60556">
        <ele>221.72</ele>
        <time>2018-10-06T08:50:13Z</time>
      </trkpt>
      <trkpt lat="43.84216" lon="7.60556">
        <ele>221.72</ele>
        <time>2018-10-06T08:50:14Z</time>
      </trkpt>
      <trkpt lat="43.84217" lon="7.60557">
        <ele>222.2</ele>
        <time>2018-10-06T08:50:15Z</time>
      </trkpt>
      <trkpt lat="43.84219" lon="7.60557">
        <ele>222.2</ele>
        <time>2018-10-06T08:50:16Z</time>
      </trkpt>
      <trkpt lat="43.8422" lon="7.60558">
        <ele>222.68</ele>
        <time>2018-10-06T08:50:17Z</time>
      </trkpt>
      <trkpt lat="43.84234" lon="7.60565">
        <ele>226.05</ele>
        <time>2018-10-06T08:50:31Z</time>
      </trkpt>
      <trkpt lat="43.84245" lon="7.60578">
        <ele>228.93</ele>
        <time>2018-10-06T08:50:41Z</time>
      </trkpt>
      <trkpt lat="43.84248" lon="7.60595">
        <ele>231.33</ele>
        <time>2018-10-06T08:50:52Z</time>
      </trkpt>
      <trkpt lat="43.84246" lon="7.60603">
        <ele>232.3</ele>
        <time>2018-10-06T08:50:57Z</time>
      </trkpt>
      <trkpt lat="43.84246" lon="7.60605">
        <ele>232.78</ele>
        <time>2018-10-06T08:50:58Z</time>
      </trkpt>
      <trkpt lat="43.84246" lon="7.60606">
        <ele>232.78</ele>
        <time>2018-10-06T08:50:59Z</time>
      </trkpt>
      <trkpt lat="43.84246" lon="7.60611">
        <ele>233.74</ele>
        <time>2018-10-06T08:51:02Z</time>
      </trkpt>
      <trkpt lat="43.84246" lon="7.60613">
        <ele>233.74</ele>
        <time>2018-10-06T08:51:03Z</time>
      </trkpt>
      <trkpt lat="43.84239" lon="7.60631">
        <ele>237.1</ele>
        <time>2018-10-06T08:51:16Z</time>
      </trkpt>
      <trkpt lat="43.8424" lon="7.60633">
        <ele>237.1</ele>
        <time>2018-10-06T08:51:17Z</time>
      </trkpt>
      <trkpt lat="43.84241" lon="7.60634">
        <ele>237.58</ele>
        <time>2018-10-06T08:51:18Z</time>
      </trkpt>
      <trkpt lat="43.84243" lon="7.60635">
        <ele>237.58</ele>
        <time>2018-10-06T08:51:19Z</time>
      </trkpt>
      <trkpt lat="43.84244" lon="7.60636">
        <ele>237.58</ele>
        <time>2018-10-06T08:51:20Z</time>
      </trkpt>
      <trkpt lat="43.84245" lon="7.60637">
        <ele>238.06</ele>
        <time>2018-10-06T08:51:21Z</time>
      </trkpt>
      <trkpt lat="43.84247" lon="7.60637">
        <ele>238.06</ele>
        <time>2018-10-06T08:51:22Z</time>
      </trkpt>
      <trkpt lat="43.84258" lon="7.60638">
        <ele>239.99</ele>
        <time>2018-10-06T08:51:33Z</time>
      </trkpt>
      <trkpt lat="43.84258" lon="7.60639">
        <ele>240.47</ele>
        <time>2018-10-06T08:51:34Z</time>
      </trkpt>
      <trkpt lat="43.84259" lon="7.6064">
        <ele>240.47</ele>
        <time>2018-10-06T08:51:35Z</time>
      </trkpt>
      <trkpt lat="43.84262" lon="7.60643">
        <ele>240.95</ele>
        <time>2018-10-06T08:51:38Z</time>
      </trkpt>
      <trkpt lat="43.84263" lon="7.60645">
        <ele>241.43</ele>
        <time>2018-10-06T08:51:39Z</time>
      </trkpt>
      <trkpt lat="43.84264" lon="7.60646">
        <ele>241.91</ele>
        <time>2018-10-06T08:51:40Z</time>
      </trkpt>
      <trkpt lat="43.84279" lon="7.60659">
        <ele>244.31</ele>
        <time>2018-10-06T08:51:53Z</time>
      </trkpt>
      <trkpt lat="43.84297" lon="7.60662">
        <ele>247.68</ele>
        <time>2018-10-06T08:52:07Z</time>
      </trkpt>
      <trkpt lat="43.84311" lon="7.6066">
        <ele>249.6</ele>
        <time>2018-10-06T08:52:18Z</time>
      </trkpt>
      <trkpt lat="43.84312" lon="7.6066">
        <ele>250.56</ele>
        <time>2018-10-06T08:52:19Z</time>
      </trkpt>
      <trkpt lat="43.84325" lon="7.60667">
        <ele>253.93</ele>
        <time>2018-10-06T08:52:31Z</time>
      </trkpt>
      <trkpt lat="43.84328" lon="7.60672">
        <ele>254.89</ele>
        <time>2018-10-06T08:52:35Z</time>
      </trkpt>
      <trkpt lat="43.84328" lon="7.60673">
        <ele>254.89</ele>
        <time>2018-10-06T08:52:36Z</time>
      </trkpt>
      <trkpt lat="43.84329" lon="7.60674">
        <ele>255.37</ele>
        <time>2018-10-06T08:52:37Z</time>
      </trkpt>
      <trkpt lat="43.84341" lon="7.60681">
        <ele>258.25</ele>
        <time>2018-10-06T08:52:51Z</time>
      </trkpt>
      <trkpt lat="43.8435" lon="7.60686">
        <ele>260.17</ele>
        <time>2018-10-06T08:53:00Z</time>
      </trkpt>
      <trkpt lat="43.84351" lon="7.60687">
        <ele>260.65</ele>
        <time>2018-10-06T08:53:01Z</time>
      </trkpt>
      <trkpt lat="43.84352" lon="7.60688">
        <ele>260.65</ele>
        <time>2018-10-06T08:53:02Z</time>
      </trkpt>
      <trkpt lat="43.84352" lon="7.6069">
        <ele>261.14</ele>
        <time>2018-10-06T08:53:03Z</time>
      </trkpt>
      <trkpt lat="43.84353" lon="7.60691">
        <ele>261.14</ele>
        <time>2018-10-06T08:53:04Z</time>
      </trkpt>
      <trkpt lat="43.84353" lon="7.6071">
        <ele>264.5</ele>
        <time>2018-10-06T08:53:17Z</time>
      </trkpt>
      <trkpt lat="43.84353" lon="7.60712">
        <ele>264.5</ele>
        <time>2018-10-06T08:53:18Z</time>
      </trkpt>
      <trkpt lat="43.84348" lon="7.60715">
        <ele>265.94</ele>
        <time>2018-10-06T08:53:23Z</time>
      </trkpt>
      <trkpt lat="43.84331" lon="7.60711">
        <ele>268.83</ele>
        <time>2018-10-06T08:53:38Z</time>
      </trkpt>
      <trkpt lat="43.84318" lon="7.60707">
        <ele>271.71</ele>
        <time>2018-10-06T08:53:50Z</time>
      </trkpt>
      <trkpt lat="43.84302" lon="7.60708">
        <ele>275.07</ele>
        <time>2018-10-06T08:54:03Z</time>
      </trkpt>
      <trkpt lat="43.84287" lon="7.60706">
        <ele>277.96</ele>
        <time>2018-10-06T08:54:16Z</time>
      </trkpt>
      <trkpt lat="43.84276" lon="7.60704">
        <ele>278.92</ele>
        <time>2018-10-06T08:54:24Z</time>
      </trkpt>
      <trkpt lat="43.84266" lon="7.60725">
        <ele>280.84</ele>
        <time>2018-10-06T08:54:38Z</time>
      </trkpt>
      <trkpt lat="43.84257" lon="7.60748">
        <ele>283.25</ele>
        <time>2018-10-06T08:54:53Z</time>
      </trkpt>
      <trkpt lat="43.84252" lon="7.60759">
        <ele>285.17</ele>
        <time>2018-10-06T08:55:01Z</time>
      </trkpt>
      <trkpt lat="43.84251" lon="7.60768">
        <ele>286.61</ele>
        <time>2018-10-06T08:55:07Z</time>
      </trkpt>
      <trkpt lat="43.84246" lon="7.60777">
        <ele>288.05</ele>
        <time>2018-10-06T08:55:14Z</time>
      </trkpt>
      <trkpt lat="43.8424" lon="7.60785">
        <ele>289.97</ele>
        <time>2018-10-06T08:55:22Z</time>
      </trkpt>
      <trkpt lat="43.84228" lon="7.60786">
        <ele>291.9</ele>
        <time>2018-10-06T08:55:31Z</time>
      </trkpt>
      <trkpt lat="43.84216" lon="7.60769">
        <ele>295.26</ele>
        <time>2018-10-06T08:55:47Z</time>
      </trkpt>
      <trkpt lat="43.84215" lon="7.60766">
        <ele>295.74</ele>
        <time>2018-10-06T08:55:49Z</time>
      </trkpt>
      <trkpt lat="43.84215" lon="7.6076">
        <ele>296.22</ele>
        <time>2018-10-06T08:55:53Z</time>
      </trkpt>
      <trkpt lat="43.84212" lon="7.60752">
        <ele>297.18</ele>
        <time>2018-10-06T08:55:58Z</time>
      </trkpt>
      <trkpt lat="43.84196" lon="7.60727">
        <ele>299.11</ele>
        <time>2018-10-06T08:56:15Z</time>
      </trkpt>
      <trkpt lat="43.84188" lon="7.60705">
        <ele>301.51</ele>
        <time>2018-10-06T08:56:29Z</time>
      </trkpt>
      <trkpt lat="43.84177" lon="7.60682">
        <ele>304.39</ele>
        <time>2018-10-06T08:56:44Z</time>
      </trkpt>
      <trkpt lat="43.8417" lon="7.60676">
        <ele>305.36</ele>
        <time>2018-10-06T08:56:51Z</time>
      </trkpt>
      <trkpt lat="43.84157" lon="7.60676">
        <ele>308.72</ele>
        <time>2018-10-06T08:57:03Z</time>
      </trkpt>
      <trkpt lat="43.84143" lon="7.6067">
        <ele>311.6</ele>
        <time>2018-10-06T08:57:16Z</time>
      </trkpt>
      <trkpt lat="43.84137" lon="7.60661">
        <ele>313.53</ele>
        <time>2018-10-06T08:57:27Z</time>
      </trkpt>
      <trkpt lat="43.84135" lon="7.60659">
        <ele>314.01</ele>
        <time>2018-10-06T08:57:29Z</time>
      </trkpt>
      <trkpt lat="43.8413" lon="7.60656">
        <ele>314.49</ele>
        <time>2018-10-06T08:57:34Z</time>
      </trkpt>
      <trkpt lat="43.84127" lon="7.6065">
        <ele>315.45</ele>
        <time>2018-10-06T08:57:39Z</time>
      </trkpt>
      <trkpt lat="43.84127" lon="7.60646">
        <ele>315.93</ele>
        <time>2018-10-06T08:57:41Z</time>
      </trkpt>
      <trkpt lat="43.84125" lon="7.60644">
        <ele>316.41</ele>
        <time>2018-10-06T08:57:43Z</time>
      </trkpt>
      <trkpt lat="43.84108" lon="7.60624">
        <ele>319.3</ele>
        <time>2018-10-06T08:57:59Z</time>
      </trkpt>
      <trkpt lat="43.84106" lon="7.60622">
        <ele>319.78</ele>
        <time>2018-10-06T08:58:02Z</time>
      </trkpt>
      <trkpt lat="43.84095" lon="7.60617">
        <ele>320.74</ele>
        <time>2018-10-06T08:58:10Z</time>
      </trkpt>
      <trkpt lat="43.84087" lon="7.60614">
        <ele>322.18</ele>
        <time>2018-10-06T08:58:16Z</time>
      </trkpt>
      <trkpt lat="43.84069" lon="7.60604">
        <ele>324.58</ele>
        <time>2018-10-06T08:58:31Z</time>
      </trkpt>
      <trkpt lat="43.84067" lon="7.60603">
        <ele>325.06</ele>
        <time>2018-10-06T08:58:33Z</time>
      </trkpt>
      <trkpt lat="43.84054" lon="7.60595">
        <ele>328.43</ele>
        <time>2018-10-06T08:58:45Z</time>
      </trkpt>
      <trkpt lat="43.84051" lon="7.60596">
        <ele>328.91</ele>
        <time>2018-10-06T08:58:48Z</time>
      </trkpt>
      <trkpt lat="43.8405" lon="7.60603">
        <ele>330.35</ele>
        <time>2018-10-06T08:58:52Z</time>
      </trkpt>
      <trkpt lat="43.84049" lon="7.60614">
        <ele>331.79</ele>
        <time>2018-10-06T08:58:59Z</time>
      </trkpt>
      <trkpt lat="43.84048" lon="7.60624">
        <ele>333.23</ele>
        <time>2018-10-06T08:59:05Z</time>
      </trkpt>
      <trkpt lat="43.84045" lon="7.60644">
        <ele>336.6</ele>
        <time>2018-10-06T08:59:17Z</time>
      </trkpt>
      <trkpt lat="43.84047" lon="7.60658">
        <ele>338.04</ele>
        <time>2018-10-06T08:59:25Z</time>
      </trkpt>
      <trkpt lat="43.84048" lon="7.60667">
        <ele>339</ele>
        <time>2018-10-06T08:59:37Z</time>
      </trkpt>
      <trkpt lat="43.84047" lon="7.60667">
        <ele>339</ele>
        <time>2018-10-06T08:59:55Z</time>
      </trkpt>
      <trkpt lat="43.84049" lon="7.60671">
        <ele>339</ele>
        <time>2018-10-06T09:00:18Z</time>
      </trkpt>
      <trkpt lat="43.84045" lon="7.60709">
        <ele>338.04</ele>
        <time>2018-10-06T09:00:31Z</time>
      </trkpt>
      <trkpt lat="43.84044" lon="7.60715">
        <ele>338.04</ele>
        <time>2018-10-06T09:00:32Z</time>
      </trkpt>
      <trkpt lat="43.84042" lon="7.60728">
        <ele>337.56</ele>
        <time>2018-10-06T09:00:34Z</time>
      </trkpt>
      <trkpt lat="43.8404" lon="7.60735">
        <ele>337.08</ele>
        <time>2018-10-06T09:00:35Z</time>
      </trkpt>
      <trkpt lat="43.84037" lon="7.60741">
        <ele>337.08</ele>
        <time>2018-10-06T09:00:36Z</time>
      </trkpt>
      <trkpt lat="43.84011" lon="7.60777">
        <ele>338.04</ele>
        <time>2018-10-06T09:00:47Z</time>
      </trkpt>
      <trkpt lat="43.83989" lon="7.60778">
        <ele>340.44</ele>
        <time>2018-10-06T09:01:00Z</time>
      </trkpt>
      <trkpt lat="43.83965" lon="7.60768">
        <ele>343.33</ele>
        <time>2018-10-06T09:01:15Z</time>
      </trkpt>
      <trkpt lat="43.83943" lon="7.60739">
        <ele>344.29</ele>
        <time>2018-10-06T09:01:28Z</time>
      </trkpt>
      <trkpt lat="43.83928" lon="7.6073">
        <ele>344.77</ele>
        <time>2018-10-06T09:01:35Z</time>
      </trkpt>
      <trkpt lat="43.83926" lon="7.60732">
        <ele>344.77</ele>
        <time>2018-10-06T09:01:36Z</time>
      </trkpt>
      <trkpt lat="43.83925" lon="7.60735">
        <ele>344.77</ele>
        <time>2018-10-06T09:01:37Z</time>
      </trkpt>
      <trkpt lat="43.83924" lon="7.60738">
        <ele>345.25</ele>
        <time>2018-10-06T09:01:38Z</time>
      </trkpt>
      <trkpt lat="43.83924" lon="7.6074">
        <ele>345.25</ele>
        <time>2018-10-06T09:01:39Z</time>
      </trkpt>
      <trkpt lat="43.83924" lon="7.60743">
        <ele>345.25</ele>
        <time>2018-10-06T09:01:40Z</time>
      </trkpt>
      <trkpt lat="43.83925" lon="7.60744">
        <ele>345.73</ele>
        <time>2018-10-06T09:01:41Z</time>
      </trkpt>
      <trkpt lat="43.83926" lon="7.60746">
        <ele>345.73</ele>
        <time>2018-10-06T09:01:42Z</time>
      </trkpt>
      <trkpt lat="43.83927" lon="7.60748">
        <ele>346.21</ele>
        <time>2018-10-06T09:01:43Z</time>
      </trkpt>
      <trkpt lat="43.83928" lon="7.60749">
        <ele>346.21</ele>
        <time>2018-10-06T09:01:44Z</time>
      </trkpt>
      <trkpt lat="43.83957" lon="7.60776">
        <ele>347.65</ele>
        <time>2018-10-06T09:01:59Z</time>
      </trkpt>
      <trkpt lat="43.83975" lon="7.60785">
        <ele>346.21</ele>
        <time>2018-10-06T09:02:04Z</time>
      </trkpt>
      <trkpt lat="43.83994" lon="7.60792">
        <ele>345.25</ele>
        <time>2018-10-06T09:02:08Z</time>
      </trkpt>
      <trkpt lat="43.83999" lon="7.60794">
        <ele>345.25</ele>
        <time>2018-10-06T09:02:09Z</time>
      </trkpt>
      <trkpt lat="43.84024" lon="7.60795">
        <ele>347.17</ele>
        <time>2018-10-06T09:02:18Z</time>
      </trkpt>
      <trkpt lat="43.84042" lon="7.60784">
        <ele>350.06</ele>
        <time>2018-10-06T09:02:32Z</time>
      </trkpt>
      <trkpt lat="43.84053" lon="7.60775">
        <ele>351.98</ele>
        <time>2018-10-06T09:02:41Z</time>
      </trkpt>
      <trkpt lat="43.84055" lon="7.60774">
        <ele>352.46</ele>
        <time>2018-10-06T09:02:42Z</time>
      </trkpt>
      <trkpt lat="43.84056" lon="7.60773">
        <ele>352.46</ele>
        <time>2018-10-06T09:02:43Z</time>
      </trkpt>
      <trkpt lat="43.84057" lon="7.60772">
        <ele>352.46</ele>
        <time>2018-10-06T09:02:44Z</time>
      </trkpt>
      <trkpt lat="43.84058" lon="7.60771">
        <ele>352.94</ele>
        <time>2018-10-06T09:02:45Z</time>
      </trkpt>
      <trkpt lat="43.84059" lon="7.6077">
        <ele>352.94</ele>
        <time>2018-10-06T09:02:46Z</time>
      </trkpt>
      <trkpt lat="43.8406" lon="7.60769">
        <ele>352.94</ele>
        <time>2018-10-06T09:02:47Z</time>
      </trkpt>
      <trkpt lat="43.8406" lon="7.60767">
        <ele>353.42</ele>
        <time>2018-10-06T09:02:48Z</time>
      </trkpt>
      <trkpt lat="43.84061" lon="7.60765">
        <ele>353.9</ele>
        <time>2018-10-06T09:02:49Z</time>
      </trkpt>
      <trkpt lat="43.84069" lon="7.60755">
        <ele>355.34</ele>
        <time>2018-10-06T09:02:58Z</time>
      </trkpt>
      <trkpt lat="43.8407" lon="7.60755">
        <ele>356.31</ele>
        <time>2018-10-06T09:02:59Z</time>
      </trkpt>
      <trkpt lat="43.84071" lon="7.60756">
        <ele>356.31</ele>
        <time>2018-10-06T09:03:00Z</time>
      </trkpt>
      <trkpt lat="43.84072" lon="7.60757">
        <ele>356.79</ele>
        <time>2018-10-06T09:03:01Z</time>
      </trkpt>
      <trkpt lat="43.84072" lon="7.60758">
        <ele>356.79</ele>
        <time>2018-10-06T09:03:02Z</time>
      </trkpt>
      <trkpt lat="43.84073" lon="7.6076">
        <ele>356.79</ele>
        <time>2018-10-06T09:03:03Z</time>
      </trkpt>
      <trkpt lat="43.84072" lon="7.60762">
        <ele>356.79</ele>
        <time>2018-10-06T09:03:04Z</time>
      </trkpt>
      <trkpt lat="43.84072" lon="7.60764">
        <ele>357.27</ele>
        <time>2018-10-06T09:03:05Z</time>
      </trkpt>
      <trkpt lat="43.84072" lon="7.60766">
        <ele>357.27</ele>
        <time>2018-10-06T09:03:06Z</time>
      </trkpt>
      <trkpt lat="43.84071" lon="7.60768">
        <ele>357.27</ele>
        <time>2018-10-06T09:03:07Z</time>
      </trkpt>
      <trkpt lat="43.84055" lon="7.60797">
        <ele>358.71</ele>
        <time>2018-10-06T09:03:21Z</time>
      </trkpt>
      <trkpt lat="43.84036" lon="7.60815">
        <ele>361.11</ele>
        <time>2018-10-06T09:03:36Z</time>
      </trkpt>
      <trkpt lat="43.84019" lon="7.60842">
        <ele>363.52</ele>
        <time>2018-10-06T09:03:51Z</time>
      </trkpt>
      <trkpt lat="43.83999" lon="7.60837">
        <ele>365.44</ele>
        <time>2018-10-06T09:04:04Z</time>
      </trkpt>
      <trkpt lat="43.8397" lon="7.60826">
        <ele>368.32</ele>
        <time>2018-10-06T09:04:20Z</time>
      </trkpt>
      <trkpt lat="43.83948" lon="7.60818">
        <ele>370.24</ele>
        <time>2018-10-06T09:04:35Z</time>
      </trkpt>
      <trkpt lat="43.83947" lon="7.6082">
        <ele>370.24</ele>
        <time>2018-10-06T09:04:59Z</time>
      </trkpt>
      <trkpt lat="43.83951" lon="7.60821">
        <ele>370.24</ele>
        <time>2018-10-06T09:05:20Z</time>
      </trkpt>
      <trkpt lat="43.83951" lon="7.60819">
        <ele>370.24</ele>
        <time>2018-10-06T09:05:43Z</time>
      </trkpt>
      <trkpt lat="43.83951" lon="7.6082">
        <ele>370.24</ele>
        <time>2018-10-06T09:05:54Z</time>
      </trkpt>
      <trkpt lat="43.83948" lon="7.60821">
        <ele>370.73</ele>
        <time>2018-10-06T09:06:06Z</time>
      </trkpt>
      <trkpt lat="43.83945" lon="7.60823">
        <ele>370.73</ele>
        <time>2018-10-06T09:06:11Z</time>
      </trkpt>
      <trkpt lat="43.83923" lon="7.60845">
        <ele>372.17</ele>
        <time>2018-10-06T09:06:25Z</time>
      </trkpt>
      <trkpt lat="43.83903" lon="7.60868">
        <ele>375.05</ele>
        <time>2018-10-06T09:06:40Z</time>
      </trkpt>
      <trkpt lat="43.83883" lon="7.6089">
        <ele>377.45</ele>
        <time>2018-10-06T09:06:55Z</time>
      </trkpt>
      <trkpt lat="43.83861" lon="7.609">
        <ele>380.34</ele>
        <time>2018-10-06T09:07:10Z</time>
      </trkpt>
      <trkpt lat="43.83839" lon="7.60901">
        <ele>383.22</ele>
        <time>2018-10-06T09:07:25Z</time>
      </trkpt>
      <trkpt lat="43.83816" lon="7.60887">
        <ele>386.11</ele>
        <time>2018-10-06T09:07:41Z</time>
      </trkpt>
      <trkpt lat="43.83794" lon="7.60887">
        <ele>388.03</ele>
        <time>2018-10-06T09:07:56Z</time>
      </trkpt>
      <trkpt lat="43.83766" lon="7.60911">
        <ele>390.43</ele>
        <time>2018-10-06T09:08:13Z</time>
      </trkpt>
      <trkpt lat="43.83746" lon="7.6095">
        <ele>391.87</ele>
        <time>2018-10-06T09:08:29Z</time>
      </trkpt>
      <trkpt lat="43.83724" lon="7.60982">
        <ele>395.24</ele>
        <time>2018-10-06T09:08:45Z</time>
      </trkpt>
      <trkpt lat="43.83703" lon="7.60998">
        <ele>398.12</ele>
        <time>2018-10-06T09:09:01Z</time>
      </trkpt>
      <trkpt lat="43.83669" lon="7.60983">
        <ele>394.76</ele>
        <time>2018-10-06T09:09:12Z</time>
      </trkpt>
      <trkpt lat="43.8365" lon="7.60978">
        <ele>391.39</ele>
        <time>2018-10-06T09:09:15Z</time>
      </trkpt>
      <trkpt lat="43.83634" lon="7.60971">
        <ele>389.95</ele>
        <time>2018-10-06T09:09:18Z</time>
      </trkpt>
      <trkpt lat="43.83624" lon="7.60967">
        <ele>389.47</ele>
        <time>2018-10-06T09:09:26Z</time>
      </trkpt>
      <trkpt lat="43.83622" lon="7.60966">
        <ele>389.95</ele>
        <time>2018-10-06T09:09:39Z</time>
      </trkpt>
      <trkpt lat="43.83623" lon="7.60966">
        <ele>389.95</ele>
        <time>2018-10-06T09:09:58Z</time>
      </trkpt>
      <trkpt lat="43.83622" lon="7.60966">
        <ele>389.95</ele>
        <time>2018-10-06T09:10:17Z</time>
      </trkpt>
      <trkpt lat="43.83623" lon="7.60966">
        <ele>389.95</ele>
        <time>2018-10-06T09:10:35Z</time>
      </trkpt>
      <trkpt lat="43.83618" lon="7.60966">
        <ele>389.95</ele>
        <time>2018-10-06T09:10:46Z</time>
      </trkpt>
      <trkpt lat="43.83617" lon="7.60966">
        <ele>389.95</ele>
        <time>2018-10-06T09:10:47Z</time>
      </trkpt>
      <trkpt lat="43.83616" lon="7.60966">
        <ele>389.95</ele>
        <time>2018-10-06T09:10:48Z</time>
      </trkpt>
      <trkpt lat="43.83614" lon="7.60966">
        <ele>389.95</ele>
        <time>2018-10-06T09:10:49Z</time>
      </trkpt>
      <trkpt lat="43.83612" lon="7.60966">
        <ele>389.95</ele>
        <time>2018-10-06T09:10:50Z</time>
      </trkpt>
      <trkpt lat="43.8361" lon="7.60966">
        <ele>389.95</ele>
        <time>2018-10-06T09:10:51Z</time>
      </trkpt>
      <trkpt lat="43.83608" lon="7.60965">
        <ele>389.95</ele>
        <time>2018-10-06T09:10:52Z</time>
      </trkpt>
      <trkpt lat="43.83606" lon="7.60965">
        <ele>389.95</ele>
        <time>2018-10-06T09:10:53Z</time>
      </trkpt>
      <trkpt lat="43.83605" lon="7.60964">
        <ele>389.95</ele>
        <time>2018-10-06T09:10:54Z</time>
      </trkpt>
      <trkpt lat="43.83603" lon="7.60964">
        <ele>389.95</ele>
        <time>2018-10-06T09:10:55Z</time>
      </trkpt>
      <trkpt lat="43.83602" lon="7.60964">
        <ele>389.95</ele>
        <time>2018-10-06T09:10:56Z</time>
      </trkpt>
      <trkpt lat="43.83601" lon="7.60963">
        <ele>389.95</ele>
        <time>2018-10-06T09:10:57Z</time>
      </trkpt>
      <trkpt lat="43.836" lon="7.60963">
        <ele>389.95</ele>
        <time>2018-10-06T09:10:58Z</time>
      </trkpt>
      <trkpt lat="43.83599" lon="7.60961">
        <ele>390.91</ele>
        <time>2018-10-06T09:11:04Z</time>
      </trkpt>
      <trkpt lat="43.83599" lon="7.60962">
        <ele>390.91</ele>
        <time>2018-10-06T09:11:23Z</time>
      </trkpt>
      <trkpt lat="43.836" lon="7.60962">
        <ele>390.91</ele>
        <time>2018-10-06T09:11:25Z</time>
      </trkpt>
      <trkpt lat="43.83601" lon="7.60963">
        <ele>390.91</ele>
        <time>2018-10-06T09:11:26Z</time>
      </trkpt>
      <trkpt lat="43.83603" lon="7.60965">
        <ele>390.91</ele>
        <time>2018-10-06T09:11:27Z</time>
      </trkpt>
      <trkpt lat="43.83606" lon="7.60965">
        <ele>390.91</ele>
        <time>2018-10-06T09:11:28Z</time>
      </trkpt>
      <trkpt lat="43.83608" lon="7.60966">
        <ele>390.91</ele>
        <time>2018-10-06T09:11:29Z</time>
      </trkpt>
      <trkpt lat="43.83613" lon="7.60967">
        <ele>389.95</ele>
        <time>2018-10-06T09:11:31Z</time>
      </trkpt>
      <trkpt lat="43.83635" lon="7.60977">
        <ele>389.95</ele>
        <time>2018-10-06T09:11:40Z</time>
      </trkpt>
      <trkpt lat="43.83634" lon="7.60983">
        <ele>389.95</ele>
        <time>2018-10-06T09:11:42Z</time>
      </trkpt>
      <trkpt lat="43.83629" lon="7.61008">
        <ele>388.03</ele>
        <time>2018-10-06T09:11:46Z</time>
      </trkpt>
      <trkpt lat="43.83612" lon="7.61029">
        <ele>387.55</ele>
        <time>2018-10-06T09:11:51Z</time>
      </trkpt>
      <trkpt lat="43.83609" lon="7.61032">
        <ele>387.07</ele>
        <time>2018-10-06T09:11:52Z</time>
      </trkpt>
      <trkpt lat="43.83592" lon="7.61047">
        <ele>385.15</ele>
        <time>2018-10-06T09:11:56Z</time>
      </trkpt>
      <trkpt lat="43.83589" lon="7.61051">
        <ele>384.18</ele>
        <time>2018-10-06T09:11:57Z</time>
      </trkpt>
      <trkpt lat="43.83583" lon="7.61053">
        <ele>383.7</ele>
        <time>2018-10-06T09:12:00Z</time>
      </trkpt>
      <trkpt lat="43.83579" lon="7.61064">
        <ele>380.82</ele>
        <time>2018-10-06T09:12:04Z</time>
      </trkpt>
      <trkpt lat="43.83572" lon="7.61083">
        <ele>377.45</ele>
        <time>2018-10-06T09:12:08Z</time>
      </trkpt>
      <trkpt lat="43.83562" lon="7.61093">
        <ele>374.09</ele>
        <time>2018-10-06T09:12:11Z</time>
      </trkpt>
      <trkpt lat="43.83559" lon="7.61096">
        <ele>372.65</ele>
        <time>2018-10-06T09:12:12Z</time>
      </trkpt>
      <trkpt lat="43.83555" lon="7.61097">
        <ele>371.69</ele>
        <time>2018-10-06T09:12:13Z</time>
      </trkpt>
      <trkpt lat="43.8355" lon="7.61096">
        <ele>370.24</ele>
        <time>2018-10-06T09:12:14Z</time>
      </trkpt>
      <trkpt lat="43.83544" lon="7.61095">
        <ele>369.28</ele>
        <time>2018-10-06T09:12:15Z</time>
      </trkpt>
      <trkpt lat="43.83539" lon="7.61091">
        <ele>368.8</ele>
        <time>2018-10-06T09:12:16Z</time>
      </trkpt>
      <trkpt lat="43.83535" lon="7.61087">
        <ele>368.8</ele>
        <time>2018-10-06T09:12:17Z</time>
      </trkpt>
      <trkpt lat="43.83531" lon="7.61083">
        <ele>368.8</ele>
        <time>2018-10-06T09:12:18Z</time>
      </trkpt>
      <trkpt lat="43.83527" lon="7.61079">
        <ele>368.8</ele>
        <time>2018-10-06T09:12:19Z</time>
      </trkpt>
      <trkpt lat="43.83523" lon="7.61077">
        <ele>368.8</ele>
        <time>2018-10-06T09:12:20Z</time>
      </trkpt>
      <trkpt lat="43.83514" lon="7.61075">
        <ele>368.8</ele>
        <time>2018-10-06T09:12:22Z</time>
      </trkpt>
      <trkpt lat="43.83488" lon="7.61078">
        <ele>369.28</ele>
        <time>2018-10-06T09:12:29Z</time>
      </trkpt>
      <trkpt lat="43.83472" lon="7.61082">
        <ele>369.28</ele>
        <time>2018-10-06T09:12:33Z</time>
      </trkpt>
      <trkpt lat="43.83468" lon="7.61084">
        <ele>369.28</ele>
        <time>2018-10-06T09:12:34Z</time>
      </trkpt>
      <trkpt lat="43.83464" lon="7.61086">
        <ele>368.8</ele>
        <time>2018-10-06T09:12:35Z</time>
      </trkpt>
      <trkpt lat="43.83415" lon="7.61127">
        <ele>368.8</ele>
        <time>2018-10-06T09:12:50Z</time>
      </trkpt>
      <trkpt lat="43.83411" lon="7.61128">
        <ele>368.8</ele>
        <time>2018-10-06T09:12:51Z</time>
      </trkpt>
      <trkpt lat="43.83398" lon="7.61132">
        <ele>368.8</ele>
        <time>2018-10-06T09:12:54Z</time>
      </trkpt>
      <trkpt lat="43.83394" lon="7.61135">
        <ele>368.8</ele>
        <time>2018-10-06T09:12:55Z</time>
      </trkpt>
      <trkpt lat="43.8339" lon="7.61139">
        <ele>368.8</ele>
        <time>2018-10-06T09:12:56Z</time>
      </trkpt>
      <trkpt lat="43.83386" lon="7.61145">
        <ele>368.8</ele>
        <time>2018-10-06T09:12:57Z</time>
      </trkpt>
      <trkpt lat="43.83384" lon="7.61152">
        <ele>368.32</ele>
        <time>2018-10-06T09:12:58Z</time>
      </trkpt>
      <trkpt lat="43.83382" lon="7.61159">
        <ele>368.32</ele>
        <time>2018-10-06T09:12:59Z</time>
      </trkpt>
      <trkpt lat="43.8338" lon="7.61167">
        <ele>367.36</ele>
        <time>2018-10-06T09:13:00Z</time>
      </trkpt>
      <trkpt lat="43.83377" lon="7.61184">
        <ele>366.88</ele>
        <time>2018-10-06T09:13:02Z</time>
      </trkpt>
      <trkpt lat="43.83372" lon="7.61202">
        <ele>365.44</ele>
        <time>2018-10-06T09:13:04Z</time>
      </trkpt>
      <trkpt lat="43.83371" lon="7.61212">
        <ele>364.96</ele>
        <time>2018-10-06T09:13:05Z</time>
      </trkpt>
      <trkpt lat="43.83368" lon="7.61244">
        <ele>363.52</ele>
        <time>2018-10-06T09:13:08Z</time>
      </trkpt>
      <trkpt lat="43.83363" lon="7.61268">
        <ele>362.07</ele>
        <time>2018-10-06T09:13:10Z</time>
      </trkpt>
      <trkpt lat="43.83359" lon="7.61279">
        <ele>361.11</ele>
        <time>2018-10-06T09:13:11Z</time>
      </trkpt>
      <trkpt lat="43.83344" lon="7.61327">
        <ele>358.23</ele>
        <time>2018-10-06T09:13:15Z</time>
      </trkpt>
      <trkpt lat="43.83341" lon="7.6134">
        <ele>357.27</ele>
        <time>2018-10-06T09:13:16Z</time>
      </trkpt>
      <trkpt lat="43.83336" lon="7.61395">
        <ele>354.38</ele>
        <time>2018-10-06T09:13:20Z</time>
      </trkpt>
      <trkpt lat="43.83333" lon="7.61437">
        <ele>351.98</ele>
        <time>2018-10-06T09:13:23Z</time>
      </trkpt>
      <trkpt lat="43.83331" lon="7.6145">
        <ele>351.98</ele>
        <time>2018-10-06T09:13:24Z</time>
      </trkpt>
      <trkpt lat="43.83326" lon="7.6146">
        <ele>351.02</ele>
        <time>2018-10-06T09:13:25Z</time>
      </trkpt>
      <trkpt lat="43.83318" lon="7.61465">
        <ele>350.54</ele>
        <time>2018-10-06T09:13:26Z</time>
      </trkpt>
      <trkpt lat="43.8331" lon="7.61465">
        <ele>350.06</ele>
        <time>2018-10-06T09:13:27Z</time>
      </trkpt>
      <trkpt lat="43.83302" lon="7.61461">
        <ele>349.58</ele>
        <time>2018-10-06T09:13:28Z</time>
      </trkpt>
      <trkpt lat="43.83294" lon="7.61457">
        <ele>350.06</ele>
        <time>2018-10-06T09:13:29Z</time>
      </trkpt>
      <trkpt lat="43.83271" lon="7.61448">
        <ele>350.06</ele>
        <time>2018-10-06T09:13:32Z</time>
      </trkpt>
      <trkpt lat="43.83264" lon="7.61451">
        <ele>350.06</ele>
        <time>2018-10-06T09:13:33Z</time>
      </trkpt>
      <trkpt lat="43.83259" lon="7.61457">
        <ele>350.06</ele>
        <time>2018-10-06T09:13:34Z</time>
      </trkpt>
      <trkpt lat="43.83251" lon="7.6147">
        <ele>350.06</ele>
        <time>2018-10-06T09:13:36Z</time>
      </trkpt>
      <trkpt lat="43.83246" lon="7.61476">
        <ele>350.06</ele>
        <time>2018-10-06T09:13:37Z</time>
      </trkpt>
      <trkpt lat="43.83241" lon="7.61481">
        <ele>350.06</ele>
        <time>2018-10-06T09:13:38Z</time>
      </trkpt>
      <trkpt lat="43.83236" lon="7.61487">
        <ele>350.06</ele>
        <time>2018-10-06T09:13:39Z</time>
      </trkpt>
      <trkpt lat="43.83233" lon="7.61494">
        <ele>350.06</ele>
        <time>2018-10-06T09:13:40Z</time>
      </trkpt>
      <trkpt lat="43.83233" lon="7.61501">
        <ele>350.06</ele>
        <time>2018-10-06T09:13:41Z</time>
      </trkpt>
      <trkpt lat="43.83236" lon="7.61508">
        <ele>350.06</ele>
        <time>2018-10-06T09:13:42Z</time>
      </trkpt>
      <trkpt lat="43.8324" lon="7.61514">
        <ele>350.06</ele>
        <time>2018-10-06T09:13:43Z</time>
      </trkpt>
      <trkpt lat="43.83244" lon="7.6152">
        <ele>350.06</ele>
        <time>2018-10-06T09:13:44Z</time>
      </trkpt>
      <trkpt lat="43.83246" lon="7.61527">
        <ele>350.06</ele>
        <time>2018-10-06T09:13:45Z</time>
      </trkpt>
      <trkpt lat="43.83247" lon="7.61535">
        <ele>350.06</ele>
        <time>2018-10-06T09:13:46Z</time>
      </trkpt>
      <trkpt lat="43.83247" lon="7.61543">
        <ele>350.06</ele>
        <time>2018-10-06T09:13:47Z</time>
      </trkpt>
      <trkpt lat="43.83245" lon="7.6155">
        <ele>350.06</ele>
        <time>2018-10-06T09:13:48Z</time>
      </trkpt>
      <trkpt lat="43.83243" lon="7.61556">
        <ele>350.06</ele>
        <time>2018-10-06T09:13:49Z</time>
      </trkpt>
      <trkpt lat="43.8324" lon="7.61562">
        <ele>350.06</ele>
        <time>2018-10-06T09:13:50Z</time>
      </trkpt>
      <trkpt lat="43.83236" lon="7.61568">
        <ele>351.5</ele>
        <time>2018-10-06T09:13:51Z</time>
      </trkpt>
      <trkpt lat="43.83232" lon="7.61573">
        <ele>351.5</ele>
        <time>2018-10-06T09:13:52Z</time>
      </trkpt>
      <trkpt lat="43.83228" lon="7.61577">
        <ele>351.5</ele>
        <time>2018-10-06T09:13:53Z</time>
      </trkpt>
      <trkpt lat="43.83219" lon="7.61587">
        <ele>351.5</ele>
        <time>2018-10-06T09:13:55Z</time>
      </trkpt>
      <trkpt lat="43.83216" lon="7.61593">
        <ele>351.5</ele>
        <time>2018-10-06T09:13:56Z</time>
      </trkpt>
      <trkpt lat="43.83206" lon="7.61611">
        <ele>351.98</ele>
        <time>2018-10-06T09:13:59Z</time>
      </trkpt>
      <trkpt lat="43.83202" lon="7.61616">
        <ele>351.98</ele>
        <time>2018-10-06T09:14:00Z</time>
      </trkpt>
      <trkpt lat="43.83197" lon="7.61618">
        <ele>351.98</ele>
        <time>2018-10-06T09:14:01Z</time>
      </trkpt>
      <trkpt lat="43.83191" lon="7.61619">
        <ele>351.98</ele>
        <time>2018-10-06T09:14:02Z</time>
      </trkpt>
      <trkpt lat="43.83186" lon="7.61618">
        <ele>352.46</ele>
        <time>2018-10-06T09:14:03Z</time>
      </trkpt>
      <trkpt lat="43.83181" lon="7.61618">
        <ele>352.46</ele>
        <time>2018-10-06T09:14:04Z</time>
      </trkpt>
      <trkpt lat="43.83176" lon="7.61619">
        <ele>352.46</ele>
        <time>2018-10-06T09:14:05Z</time>
      </trkpt>
      <trkpt lat="43.83171" lon="7.61622">
        <ele>352.46</ele>
        <time>2018-10-06T09:14:06Z</time>
      </trkpt>
      <trkpt lat="43.83166" lon="7.61625">
        <ele>352.46</ele>
        <time>2018-10-06T09:14:07Z</time>
      </trkpt>
      <trkpt lat="43.83161" lon="7.61627">
        <ele>352.46</ele>
        <time>2018-10-06T09:14:08Z</time>
      </trkpt>
      <trkpt lat="43.8315" lon="7.61632">
        <ele>352.46</ele>
        <time>2018-10-06T09:14:10Z</time>
      </trkpt>
      <trkpt lat="43.83145" lon="7.61632">
        <ele>352.46</ele>
        <time>2018-10-06T09:14:11Z</time>
      </trkpt>
      <trkpt lat="43.83125" lon="7.6163">
        <ele>352.46</ele>
        <time>2018-10-06T09:14:15Z</time>
      </trkpt>
      <trkpt lat="43.8312" lon="7.61631">
        <ele>353.42</ele>
        <time>2018-10-06T09:14:16Z</time>
      </trkpt>
      <trkpt lat="43.83115" lon="7.61633">
        <ele>353.42</ele>
        <time>2018-10-06T09:14:17Z</time>
      </trkpt>
      <trkpt lat="43.8311" lon="7.61637">
        <ele>353.42</ele>
        <time>2018-10-06T09:14:18Z</time>
      </trkpt>
      <trkpt lat="43.83106" lon="7.61641">
        <ele>353.42</ele>
        <time>2018-10-06T09:14:19Z</time>
      </trkpt>
      <trkpt lat="43.83102" lon="7.61644">
        <ele>353.42</ele>
        <time>2018-10-06T09:14:20Z</time>
      </trkpt>
      <trkpt lat="43.83084" lon="7.61658">
        <ele>352.94</ele>
        <time>2018-10-06T09:14:24Z</time>
      </trkpt>
      <trkpt lat="43.8308" lon="7.61662">
        <ele>353.42</ele>
        <time>2018-10-06T09:14:25Z</time>
      </trkpt>
      <trkpt lat="43.83077" lon="7.61667">
        <ele>352.94</ele>
        <time>2018-10-06T09:14:26Z</time>
      </trkpt>
      <trkpt lat="43.83073" lon="7.61672">
        <ele>352.94</ele>
        <time>2018-10-06T09:14:27Z</time>
      </trkpt>
      <trkpt lat="43.83069" lon="7.61677">
        <ele>352.94</ele>
        <time>2018-10-06T09:14:28Z</time>
      </trkpt>
      <trkpt lat="43.83066" lon="7.61683">
        <ele>353.9</ele>
        <time>2018-10-06T09:14:29Z</time>
      </trkpt>
      <trkpt lat="43.83059" lon="7.61693">
        <ele>353.9</ele>
        <time>2018-10-06T09:14:31Z</time>
      </trkpt>
      <trkpt lat="43.83052" lon="7.61701">
        <ele>353.9</ele>
        <time>2018-10-06T09:14:33Z</time>
      </trkpt>
      <trkpt lat="43.83048" lon="7.61705">
        <ele>354.38</ele>
        <time>2018-10-06T09:14:34Z</time>
      </trkpt>
      <trkpt lat="43.83013" lon="7.61746">
        <ele>354.38</ele>
        <time>2018-10-06T09:14:43Z</time>
      </trkpt>
      <trkpt lat="43.83009" lon="7.6175">
        <ele>354.38</ele>
        <time>2018-10-06T09:14:44Z</time>
      </trkpt>
      <trkpt lat="43.83005" lon="7.61754">
        <ele>354.38</ele>
        <time>2018-10-06T09:14:45Z</time>
      </trkpt>
      <trkpt lat="43.82991" lon="7.61764">
        <ele>354.86</ele>
        <time>2018-10-06T09:14:48Z</time>
      </trkpt>
      <trkpt lat="43.82986" lon="7.61766">
        <ele>354.86</ele>
        <time>2018-10-06T09:14:49Z</time>
      </trkpt>
      <trkpt lat="43.82967" lon="7.61772">
        <ele>354.86</ele>
        <time>2018-10-06T09:14:53Z</time>
      </trkpt>
      <trkpt lat="43.82927" lon="7.61769">
        <ele>355.34</ele>
        <time>2018-10-06T09:15:01Z</time>
      </trkpt>
      <trkpt lat="43.82922" lon="7.61767">
        <ele>355.83</ele>
        <time>2018-10-06T09:15:02Z</time>
      </trkpt>
      <trkpt lat="43.82879" lon="7.61754">
        <ele>356.31</ele>
        <time>2018-10-06T09:15:11Z</time>
      </trkpt>
      <trkpt lat="43.82864" lon="7.61742">
        <ele>356.79</ele>
        <time>2018-10-06T09:15:15Z</time>
      </trkpt>
      <trkpt lat="43.82861" lon="7.61738">
        <ele>356.79</ele>
        <time>2018-10-06T09:15:16Z</time>
      </trkpt>
      <trkpt lat="43.82859" lon="7.61732">
        <ele>356.79</ele>
        <time>2018-10-06T09:15:17Z</time>
      </trkpt>
      <trkpt lat="43.82858" lon="7.61726">
        <ele>356.79</ele>
        <time>2018-10-06T09:15:18Z</time>
      </trkpt>
      <trkpt lat="43.82858" lon="7.61719">
        <ele>356.79</ele>
        <time>2018-10-06T09:15:19Z</time>
      </trkpt>
      <trkpt lat="43.82859" lon="7.61713">
        <ele>356.79</ele>
        <time>2018-10-06T09:15:20Z</time>
      </trkpt>
      <trkpt lat="43.82862" lon="7.61707">
        <ele>356.79</ele>
        <time>2018-10-06T09:15:21Z</time>
      </trkpt>
      <trkpt lat="43.82865" lon="7.61702">
        <ele>356.79</ele>
        <time>2018-10-06T09:15:22Z</time>
      </trkpt>
      <trkpt lat="43.82869" lon="7.61698">
        <ele>356.79</ele>
        <time>2018-10-06T09:15:23Z</time>
      </trkpt>
      <trkpt lat="43.82873" lon="7.61694">
        <ele>356.79</ele>
        <time>2018-10-06T09:15:24Z</time>
      </trkpt>
      <trkpt lat="43.82894" lon="7.61676">
        <ele>356.79</ele>
        <time>2018-10-06T09:15:29Z</time>
      </trkpt>
      <trkpt lat="43.82909" lon="7.61662">
        <ele>356.79</ele>
        <time>2018-10-06T09:15:33Z</time>
      </trkpt>
      <trkpt lat="43.82912" lon="7.61658">
        <ele>356.79</ele>
        <time>2018-10-06T09:15:34Z</time>
      </trkpt>
      <trkpt lat="43.82915" lon="7.61652">
        <ele>356.79</ele>
        <time>2018-10-06T09:15:35Z</time>
      </trkpt>
      <trkpt lat="43.82916" lon="7.61647">
        <ele>356.79</ele>
        <time>2018-10-06T09:15:36Z</time>
      </trkpt>
      <trkpt lat="43.82917" lon="7.6164">
        <ele>356.79</ele>
        <time>2018-10-06T09:15:37Z</time>
      </trkpt>
      <trkpt lat="43.82917" lon="7.61634">
        <ele>356.79</ele>
        <time>2018-10-06T09:15:38Z</time>
      </trkpt>
      <trkpt lat="43.82917" lon="7.61628">
        <ele>356.79</ele>
        <time>2018-10-06T09:15:39Z</time>
      </trkpt>
      <trkpt lat="43.82917" lon="7.61622">
        <ele>356.79</ele>
        <time>2018-10-06T09:15:40Z</time>
      </trkpt>
      <trkpt lat="43.82916" lon="7.61615">
        <ele>356.79</ele>
        <time>2018-10-06T09:15:41Z</time>
      </trkpt>
      <trkpt lat="43.82914" lon="7.61609">
        <ele>356.79</ele>
        <time>2018-10-06T09:15:42Z</time>
      </trkpt>
      <trkpt lat="43.82911" lon="7.61603">
        <ele>356.79</ele>
        <time>2018-10-06T09:15:43Z</time>
      </trkpt>
      <trkpt lat="43.82908" lon="7.61598">
        <ele>356.79</ele>
        <time>2018-10-06T09:15:44Z</time>
      </trkpt>
      <trkpt lat="43.82903" lon="7.61595">
        <ele>356.79</ele>
        <time>2018-10-06T09:15:45Z</time>
      </trkpt>
      <trkpt lat="43.82898" lon="7.61593">
        <ele>356.79</ele>
        <time>2018-10-06T09:15:46Z</time>
      </trkpt>
      <trkpt lat="43.82893" lon="7.61592">
        <ele>356.79</ele>
        <time>2018-10-06T09:15:47Z</time>
      </trkpt>
      <trkpt lat="43.82888" lon="7.61593">
        <ele>356.79</ele>
        <time>2018-10-06T09:15:48Z</time>
      </trkpt>
      <trkpt lat="43.82883" lon="7.61594">
        <ele>356.79</ele>
        <time>2018-10-06T09:15:49Z</time>
      </trkpt>
      <trkpt lat="43.82862" lon="7.61597">
        <ele>356.79</ele>
        <time>2018-10-06T09:15:53Z</time>
      </trkpt>
      <trkpt lat="43.82857" lon="7.61595">
        <ele>356.79</ele>
        <time>2018-10-06T09:15:54Z</time>
      </trkpt>
      <trkpt lat="43.82852" lon="7.61593">
        <ele>356.79</ele>
        <time>2018-10-06T09:15:55Z</time>
      </trkpt>
      <trkpt lat="43.82847" lon="7.61589">
        <ele>356.79</ele>
        <time>2018-10-06T09:15:56Z</time>
      </trkpt>
      <trkpt lat="43.82843" lon="7.61585">
        <ele>356.79</ele>
        <time>2018-10-06T09:15:57Z</time>
      </trkpt>
      <trkpt lat="43.82817" lon="7.61561">
        <ele>356.79</ele>
        <time>2018-10-06T09:16:03Z</time>
      </trkpt>
      <trkpt lat="43.82812" lon="7.61557">
        <ele>356.79</ele>
        <time>2018-10-06T09:16:04Z</time>
      </trkpt>
      <trkpt lat="43.82793" lon="7.61546">
        <ele>356.79</ele>
        <time>2018-10-06T09:16:08Z</time>
      </trkpt>
      <trkpt lat="43.82789" lon="7.61543">
        <ele>356.79</ele>
        <time>2018-10-06T09:16:09Z</time>
      </trkpt>
      <trkpt lat="43.82778" lon="7.61537">
        <ele>356.79</ele>
        <time>2018-10-06T09:16:12Z</time>
      </trkpt>
      <trkpt lat="43.82776" lon="7.61534">
        <ele>356.79</ele>
        <time>2018-10-06T09:16:13Z</time>
      </trkpt>
      <trkpt lat="43.82777" lon="7.61531">
        <ele>356.79</ele>
        <time>2018-10-06T09:16:14Z</time>
      </trkpt>
      <trkpt lat="43.82778" lon="7.61531">
        <ele>356.79</ele>
        <time>2018-10-06T09:16:15Z</time>
      </trkpt>
      <trkpt lat="43.8278" lon="7.61531">
        <ele>357.27</ele>
        <time>2018-10-06T09:16:16Z</time>
      </trkpt>
      <trkpt lat="43.82781" lon="7.61532">
        <ele>357.27</ele>
        <time>2018-10-06T09:16:17Z</time>
      </trkpt>
      <trkpt lat="43.82782" lon="7.61532">
        <ele>358.23</ele>
        <time>2018-10-06T09:16:18Z</time>
      </trkpt>
      <trkpt lat="43.82796" lon="7.61537">
        <ele>360.63</ele>
        <time>2018-10-06T09:16:29Z</time>
      </trkpt>
      <trkpt lat="43.82798" lon="7.61537">
        <ele>361.11</ele>
        <time>2018-10-06T09:16:30Z</time>
      </trkpt>
      <trkpt lat="43.82799" lon="7.61538">
        <ele>361.11</ele>
        <time>2018-10-06T09:16:31Z</time>
      </trkpt>
      <trkpt lat="43.82818" lon="7.61544">
        <ele>364.48</ele>
        <time>2018-10-06T09:16:45Z</time>
      </trkpt>
      <trkpt lat="43.82838" lon="7.61553">
        <ele>367.84</ele>
        <time>2018-10-06T09:17:01Z</time>
      </trkpt>
      <trkpt lat="43.82851" lon="7.61557">
        <ele>369.76</ele>
        <time>2018-10-06T09:17:11Z</time>
      </trkpt>
      <trkpt lat="43.82853" lon="7.61557">
        <ele>370.24</ele>
        <time>2018-10-06T09:17:12Z</time>
      </trkpt>
      <trkpt lat="43.82871" lon="7.61558">
        <ele>373.61</ele>
        <time>2018-10-06T09:17:25Z</time>
      </trkpt>
      <trkpt lat="43.82891" lon="7.61549">
        <ele>376.01</ele>
        <time>2018-10-06T09:17:40Z</time>
      </trkpt>
      <trkpt lat="43.82896" lon="7.61543">
        <ele>377.45</ele>
        <time>2018-10-06T09:17:45Z</time>
      </trkpt>
      <trkpt lat="43.82897" lon="7.61541">
        <ele>377.45</ele>
        <time>2018-10-06T09:17:46Z</time>
      </trkpt>
      <trkpt lat="43.82898" lon="7.6154">
        <ele>377.94</ele>
        <time>2018-10-06T09:17:47Z</time>
      </trkpt>
      <trkpt lat="43.82898" lon="7.61538">
        <ele>377.94</ele>
        <time>2018-10-06T09:17:48Z</time>
      </trkpt>
      <trkpt lat="43.82899" lon="7.61537">
        <ele>378.42</ele>
        <time>2018-10-06T09:17:49Z</time>
      </trkpt>
      <trkpt lat="43.829" lon="7.61535">
        <ele>378.42</ele>
        <time>2018-10-06T09:17:50Z</time>
      </trkpt>
      <trkpt lat="43.82901" lon="7.61533">
        <ele>378.42</ele>
        <time>2018-10-06T09:17:51Z</time>
      </trkpt>
      <trkpt lat="43.82901" lon="7.61532">
        <ele>378.9</ele>
        <time>2018-10-06T09:17:52Z</time>
      </trkpt>
      <trkpt lat="43.82902" lon="7.6153">
        <ele>378.9</ele>
        <time>2018-10-06T09:17:53Z</time>
      </trkpt>
      <trkpt lat="43.82906" lon="7.61524">
        <ele>379.38</ele>
        <time>2018-10-06T09:17:57Z</time>
      </trkpt>
      <trkpt lat="43.82907" lon="7.61523">
        <ele>379.86</ele>
        <time>2018-10-06T09:17:58Z</time>
      </trkpt>
      <trkpt lat="43.82908" lon="7.61521">
        <ele>379.86</ele>
        <time>2018-10-06T09:17:59Z</time>
      </trkpt>
      <trkpt lat="43.82923" lon="7.61499">
        <ele>383.22</ele>
        <time>2018-10-06T09:18:15Z</time>
      </trkpt>
      <trkpt lat="43.82941" lon="7.61487">
        <ele>385.63</ele>
        <time>2018-10-06T09:18:30Z</time>
      </trkpt>
      <trkpt lat="43.82947" lon="7.61487">
        <ele>386.11</ele>
        <time>2018-10-06T09:18:43Z</time>
      </trkpt>
      <trkpt lat="43.82947" lon="7.61487">
        <ele>386.11</ele>
        <time>2018-10-06T09:19:00Z</time>
      </trkpt>
      <trkpt lat="43.82948" lon="7.61487">
        <ele>386.11</ele>
        <time>2018-10-06T09:19:16Z</time>
      </trkpt>
      <trkpt lat="43.82947" lon="7.61487">
        <ele>385.63</ele>
        <time>2018-10-06T09:19:40Z</time>
      </trkpt>
      <trkpt lat="43.82948" lon="7.61487">
        <ele>385.63</ele>
        <time>2018-10-06T09:20:02Z</time>
      </trkpt>
      <trkpt lat="43.82948" lon="7.61488">
        <ele>385.63</ele>
        <time>2018-10-06T09:20:25Z</time>
      </trkpt>
      <trkpt lat="43.82949" lon="7.61484">
        <ele>385.63</ele>
        <time>2018-10-06T09:20:48Z</time>
      </trkpt>
      <trkpt lat="43.82949" lon="7.61487">
        <ele>387.55</ele>
        <time>2018-10-06T09:20:59Z</time>
      </trkpt>
      <trkpt lat="43.82952" lon="7.61488">
        <ele>387.55</ele>
        <time>2018-10-06T09:21:01Z</time>
      </trkpt>
      <trkpt lat="43.82953" lon="7.61487">
        <ele>385.15</ele>
        <time>2018-10-06T09:21:11Z</time>
      </trkpt>
      <trkpt lat="43.82953" lon="7.61486">
        <ele>385.15</ele>
        <time>2018-10-06T09:21:43Z</time>
      </trkpt>
      <trkpt lat="43.82952" lon="7.61489">
        <ele>386.59</ele>
        <time>2018-10-06T09:21:48Z</time>
      </trkpt>
      <trkpt lat="43.82952" lon="7.61491">
        <ele>386.59</ele>
        <time>2018-10-06T09:22:00Z</time>
      </trkpt>
      <trkpt lat="43.82952" lon="7.61495">
        <ele>386.59</ele>
        <time>2018-10-06T09:22:09Z</time>
      </trkpt>
      <trkpt lat="43.82953" lon="7.61497">
        <ele>386.59</ele>
        <time>2018-10-06T09:22:10Z</time>
      </trkpt>
      <trkpt lat="43.82954" lon="7.61498">
        <ele>386.59</ele>
        <time>2018-10-06T09:22:11Z</time>
      </trkpt>
      <trkpt lat="43.82954" lon="7.61499">
        <ele>386.59</ele>
        <time>2018-10-06T09:22:12Z</time>
      </trkpt>
      <trkpt lat="43.82955" lon="7.61501">
        <ele>386.59</ele>
        <time>2018-10-06T09:22:13Z</time>
      </trkpt>
      <trkpt lat="43.8296" lon="7.61543">
        <ele>387.07</ele>
        <time>2018-10-06T09:22:27Z</time>
      </trkpt>
      <trkpt lat="43.82971" lon="7.61573">
        <ele>385.63</ele>
        <time>2018-10-06T09:22:34Z</time>
      </trkpt>
      <trkpt lat="43.82991" lon="7.61632">
        <ele>385.15</ele>
        <time>2018-10-06T09:22:48Z</time>
      </trkpt>
      <trkpt lat="43.83016" lon="7.61652">
        <ele>385.15</ele>
        <time>2018-10-06T09:22:59Z</time>
      </trkpt>
      <trkpt lat="43.83021" lon="7.61649">
        <ele>386.59</ele>
        <time>2018-10-06T09:23:01Z</time>
      </trkpt>
      <trkpt lat="43.83044" lon="7.61626">
        <ele>389.95</ele>
        <time>2018-10-06T09:23:15Z</time>
      </trkpt>
      <trkpt lat="43.83067" lon="7.61595">
        <ele>392.36</ele>
        <time>2018-10-06T09:23:31Z</time>
      </trkpt>
      <trkpt lat="43.83083" lon="7.61556">
        <ele>394.76</ele>
        <time>2018-10-06T09:23:47Z</time>
      </trkpt>
      <trkpt lat="43.83078" lon="7.61526">
        <ele>397.16</ele>
        <time>2018-10-06T09:24:00Z</time>
      </trkpt>
      <trkpt lat="43.83066" lon="7.61512">
        <ele>399.57</ele>
        <time>2018-10-06T09:24:10Z</time>
      </trkpt>
      <trkpt lat="43.83065" lon="7.61511">
        <ele>400.05</ele>
        <time>2018-10-06T09:24:11Z</time>
      </trkpt>
      <trkpt lat="43.83064" lon="7.6151">
        <ele>400.05</ele>
        <time>2018-10-06T09:24:12Z</time>
      </trkpt>
      <trkpt lat="43.8305" lon="7.61492">
        <ele>403.41</ele>
        <time>2018-10-06T09:24:25Z</time>
      </trkpt>
      <trkpt lat="43.83036" lon="7.61484">
        <ele>405.33</ele>
        <time>2018-10-06T09:24:35Z</time>
      </trkpt>
      <trkpt lat="43.83014" lon="7.61469">
        <ele>407.26</ele>
        <time>2018-10-06T09:24:49Z</time>
      </trkpt>
      <trkpt lat="43.82995" lon="7.61441">
        <ele>409.18</ele>
        <time>2018-10-06T09:25:05Z</time>
      </trkpt>
      <trkpt lat="43.82992" lon="7.6143">
        <ele>410.62</ele>
        <time>2018-10-06T09:25:11Z</time>
      </trkpt>
      <trkpt lat="43.82991" lon="7.61428">
        <ele>410.62</ele>
        <time>2018-10-06T09:25:12Z</time>
      </trkpt>
      <trkpt lat="43.82991" lon="7.61426">
        <ele>411.1</ele>
        <time>2018-10-06T09:25:13Z</time>
      </trkpt>
      <trkpt lat="43.82988" lon="7.61421">
        <ele>412.54</ele>
        <time>2018-10-06T09:25:17Z</time>
      </trkpt>
      <trkpt lat="43.82987" lon="7.6142">
        <ele>412.54</ele>
        <time>2018-10-06T09:25:18Z</time>
      </trkpt>
      <trkpt lat="43.82985" lon="7.61419">
        <ele>412.54</ele>
        <time>2018-10-06T09:25:19Z</time>
      </trkpt>
      <trkpt lat="43.82955" lon="7.61417">
        <ele>413.02</ele>
        <time>2018-10-06T09:25:34Z</time>
      </trkpt>
      <trkpt lat="43.82914" lon="7.61434">
        <ele>413.02</ele>
        <time>2018-10-06T09:25:50Z</time>
      </trkpt>
      <trkpt lat="43.82905" lon="7.61434">
        <ele>413.02</ele>
        <time>2018-10-06T09:25:53Z</time>
      </trkpt>
      <trkpt lat="43.82905" lon="7.61423">
        <ele>414.95</ele>
        <time>2018-10-06T09:25:59Z</time>
      </trkpt>
      <trkpt lat="43.82906" lon="7.61417">
        <ele>415.43</ele>
        <time>2018-10-06T09:26:02Z</time>
      </trkpt>
      <trkpt lat="43.8292" lon="7.61393">
        <ele>418.31</ele>
        <time>2018-10-06T09:26:18Z</time>
      </trkpt>
      <trkpt lat="43.82924" lon="7.61387">
        <ele>419.27</ele>
        <time>2018-10-06T09:26:22Z</time>
      </trkpt>
      <trkpt lat="43.82939" lon="7.61369">
        <ele>422.16</ele>
        <time>2018-10-06T09:26:36Z</time>
      </trkpt>
      <trkpt lat="43.82963" lon="7.61354">
        <ele>425.04</ele>
        <time>2018-10-06T09:26:53Z</time>
      </trkpt>
      <trkpt lat="43.82978" lon="7.61347">
        <ele>426.96</ele>
        <time>2018-10-06T09:27:04Z</time>
      </trkpt>
      <trkpt lat="43.82984" lon="7.61345">
        <ele>427.92</ele>
        <time>2018-10-06T09:27:09Z</time>
      </trkpt>
      <trkpt lat="43.83001" lon="7.61339">
        <ele>430.81</ele>
        <time>2018-10-06T09:27:23Z</time>
      </trkpt>
      <trkpt lat="43.83015" lon="7.61335">
        <ele>433.21</ele>
        <time>2018-10-06T09:27:35Z</time>
      </trkpt>
      <trkpt lat="43.83016" lon="7.61335">
        <ele>433.69</ele>
        <time>2018-10-06T09:27:36Z</time>
      </trkpt>
      <trkpt lat="43.8303" lon="7.61333">
        <ele>437.06</ele>
        <time>2018-10-06T09:27:48Z</time>
      </trkpt>
      <trkpt lat="43.83043" lon="7.61332">
        <ele>438.98</ele>
        <time>2018-10-06T09:27:58Z</time>
      </trkpt>
      <trkpt lat="43.8305" lon="7.61331">
        <ele>439.94</ele>
        <time>2018-10-06T09:28:04Z</time>
      </trkpt>
      <trkpt lat="43.83055" lon="7.61328">
        <ele>440.9</ele>
        <time>2018-10-06T09:28:10Z</time>
      </trkpt>
      <trkpt lat="43.83058" lon="7.61327">
        <ele>441.86</ele>
        <time>2018-10-06T09:28:13Z</time>
      </trkpt>
      <trkpt lat="43.83063" lon="7.61323">
        <ele>443.31</ele>
        <time>2018-10-06T09:28:24Z</time>
      </trkpt>
      <trkpt lat="43.8307" lon="7.61316">
        <ele>445.23</ele>
        <time>2018-10-06T09:28:37Z</time>
      </trkpt>
      <trkpt lat="43.83073" lon="7.61311">
        <ele>447.15</ele>
        <time>2018-10-06T09:28:51Z</time>
      </trkpt>
      <trkpt lat="43.83074" lon="7.6131">
        <ele>446.67</ele>
        <time>2018-10-06T09:29:10Z</time>
      </trkpt>
      <trkpt lat="43.83075" lon="7.61308">
        <ele>448.11</ele>
        <time>2018-10-06T09:29:23Z</time>
      </trkpt>
      <trkpt lat="43.83076" lon="7.61306">
        <ele>448.11</ele>
        <time>2018-10-06T09:29:25Z</time>
      </trkpt>
      <trkpt lat="43.83075" lon="7.61303">
        <ele>448.11</ele>
        <time>2018-10-06T09:29:39Z</time>
      </trkpt>
      <trkpt lat="43.83075" lon="7.61302">
        <ele>448.11</ele>
        <time>2018-10-06T09:30:08Z</time>
      </trkpt>
      <trkpt lat="43.83075" lon="7.61302">
        <ele>448.11</ele>
        <time>2018-10-06T09:30:40Z</time>
      </trkpt>
      <trkpt lat="43.83074" lon="7.61304">
        <ele>448.11</ele>
        <time>2018-10-06T09:31:04Z</time>
      </trkpt>
      <trkpt lat="43.83073" lon="7.61305">
        <ele>448.11</ele>
        <time>2018-10-06T09:31:10Z</time>
      </trkpt>
      <trkpt lat="43.83059" lon="7.61301">
        <ele>451.48</ele>
        <time>2018-10-06T09:31:26Z</time>
      </trkpt>
      <trkpt lat="43.83046" lon="7.61293">
        <ele>453.88</ele>
        <time>2018-10-06T09:31:44Z</time>
      </trkpt>
      <trkpt lat="43.83034" lon="7.61286">
        <ele>457.24</ele>
        <time>2018-10-06T09:32:00Z</time>
      </trkpt>
      <trkpt lat="43.83019" lon="7.61276">
        <ele>459.65</ele>
        <time>2018-10-06T09:32:19Z</time>
      </trkpt>
      <trkpt lat="43.83003" lon="7.61271">
        <ele>463.01</ele>
        <time>2018-10-06T09:32:37Z</time>
      </trkpt>
      <trkpt lat="43.8299" lon="7.61268">
        <ele>465.42</ele>
        <time>2018-10-06T09:32:54Z</time>
      </trkpt>
      <trkpt lat="43.82977" lon="7.61264">
        <ele>468.3</ele>
        <time>2018-10-06T09:33:11Z</time>
      </trkpt>
      <trkpt lat="43.82963" lon="7.6126">
        <ele>471.18</ele>
        <time>2018-10-06T09:33:29Z</time>
      </trkpt>
      <trkpt lat="43.82951" lon="7.61257">
        <ele>474.07</ele>
        <time>2018-10-06T09:33:45Z</time>
      </trkpt>
      <trkpt lat="43.82939" lon="7.61255">
        <ele>476.95</ele>
        <time>2018-10-06T09:34:01Z</time>
      </trkpt>
      <trkpt lat="43.82925" lon="7.61253">
        <ele>479.35</ele>
        <time>2018-10-06T09:34:18Z</time>
      </trkpt>
      <trkpt lat="43.82913" lon="7.61251">
        <ele>482.72</ele>
        <time>2018-10-06T09:34:35Z</time>
      </trkpt>
      <trkpt lat="43.82902" lon="7.61249">
        <ele>485.12</ele>
        <time>2018-10-06T09:34:49Z</time>
      </trkpt>
      <trkpt lat="43.82898" lon="7.61247">
        <ele>486.08</ele>
        <time>2018-10-06T09:34:53Z</time>
      </trkpt>
      <trkpt lat="43.82893" lon="7.61232">
        <ele>488.01</ele>
        <time>2018-10-06T09:35:10Z</time>
      </trkpt>
      <trkpt lat="43.82893" lon="7.61232">
        <ele>488.49</ele>
        <time>2018-10-06T09:35:11Z</time>
      </trkpt>
      <trkpt lat="43.82903" lon="7.61226">
        <ele>489.93</ele>
        <time>2018-10-06T09:35:24Z</time>
      </trkpt>
      <trkpt lat="43.82904" lon="7.61226">
        <ele>489.93</ele>
        <time>2018-10-06T09:35:25Z</time>
      </trkpt>
      <trkpt lat="43.8292" lon="7.61222">
        <ele>493.77</ele>
        <time>2018-10-06T09:35:45Z</time>
      </trkpt>
      <trkpt lat="43.8293" lon="7.61219">
        <ele>496.66</ele>
        <time>2018-10-06T09:36:01Z</time>
      </trkpt>
      <trkpt lat="43.82931" lon="7.61219">
        <ele>496.66</ele>
        <time>2018-10-06T09:36:14Z</time>
      </trkpt>
      <trkpt lat="43.82931" lon="7.61216">
        <ele>497.14</ele>
        <time>2018-10-06T09:36:33Z</time>
      </trkpt>
      <trkpt lat="43.82931" lon="7.61218">
        <ele>497.14</ele>
        <time>2018-10-06T09:36:53Z</time>
      </trkpt>
      <trkpt lat="43.82934" lon="7.61217">
        <ele>497.14</ele>
        <time>2018-10-06T09:37:06Z</time>
      </trkpt>
      <trkpt lat="43.82937" lon="7.61215">
        <ele>497.14</ele>
        <time>2018-10-06T09:37:07Z</time>
      </trkpt>
      <trkpt lat="43.82942" lon="7.61214">
        <ele>495.22</ele>
        <time>2018-10-06T09:37:08Z</time>
      </trkpt>
      <trkpt lat="43.82954" lon="7.61211">
        <ele>493.29</ele>
        <time>2018-10-06T09:37:10Z</time>
      </trkpt>
      <trkpt lat="43.82968" lon="7.61211">
        <ele>495.22</ele>
        <time>2018-10-06T09:37:17Z</time>
      </trkpt>
      <trkpt lat="43.82976" lon="7.61211">
        <ele>497.62</ele>
        <time>2018-10-06T09:37:29Z</time>
      </trkpt>
      <trkpt lat="43.82986" lon="7.61208">
        <ele>500.98</ele>
        <time>2018-10-06T09:37:45Z</time>
      </trkpt>
      <trkpt lat="43.82986" lon="7.61208">
        <ele>500.98</ele>
        <time>2018-10-06T09:37:46Z</time>
      </trkpt>
      <trkpt lat="43.82999" lon="7.61202">
        <ele>502.91</ele>
        <time>2018-10-06T09:38:01Z</time>
      </trkpt>
      <trkpt lat="43.83011" lon="7.612">
        <ele>504.83</ele>
        <time>2018-10-06T09:38:14Z</time>
      </trkpt>
      <trkpt lat="43.83026" lon="7.61198">
        <ele>506.75</ele>
        <time>2018-10-06T09:38:26Z</time>
      </trkpt>
      <trkpt lat="43.83027" lon="7.61197">
        <ele>507.23</ele>
        <time>2018-10-06T09:38:27Z</time>
      </trkpt>
      <trkpt lat="43.83037" lon="7.61195">
        <ele>508.19</ele>
        <time>2018-10-06T09:38:35Z</time>
      </trkpt>
      <trkpt lat="43.83038" lon="7.61195">
        <ele>508.19</ele>
        <time>2018-10-06T09:38:36Z</time>
      </trkpt>
      <trkpt lat="43.83047" lon="7.61193">
        <ele>509.64</ele>
        <time>2018-10-06T09:38:43Z</time>
      </trkpt>
      <trkpt lat="43.83048" lon="7.61193">
        <ele>510.12</ele>
        <time>2018-10-06T09:38:44Z</time>
      </trkpt>
      <trkpt lat="43.83049" lon="7.61192">
        <ele>510.12</ele>
        <time>2018-10-06T09:38:45Z</time>
      </trkpt>
      <trkpt lat="43.8305" lon="7.61192">
        <ele>510.12</ele>
        <time>2018-10-06T09:38:46Z</time>
      </trkpt>
      <trkpt lat="43.83051" lon="7.61191">
        <ele>510.6</ele>
        <time>2018-10-06T09:38:47Z</time>
      </trkpt>
      <trkpt lat="43.83052" lon="7.6119">
        <ele>510.6</ele>
        <time>2018-10-06T09:38:48Z</time>
      </trkpt>
      <trkpt lat="43.83053" lon="7.61189">
        <ele>511.08</ele>
        <time>2018-10-06T09:38:49Z</time>
      </trkpt>
      <trkpt lat="43.83055" lon="7.61188">
        <ele>511.08</ele>
        <time>2018-10-06T09:38:50Z</time>
      </trkpt>
      <trkpt lat="43.83056" lon="7.61188">
        <ele>511.08</ele>
        <time>2018-10-06T09:38:51Z</time>
      </trkpt>
      <trkpt lat="43.83057" lon="7.61187">
        <ele>511.08</ele>
        <time>2018-10-06T09:38:52Z</time>
      </trkpt>
      <trkpt lat="43.83059" lon="7.61186">
        <ele>511.56</ele>
        <time>2018-10-06T09:38:53Z</time>
      </trkpt>
      <trkpt lat="43.8308" lon="7.61178">
        <ele>513.48</ele>
        <time>2018-10-06T09:39:09Z</time>
      </trkpt>
      <trkpt lat="43.83081" lon="7.61177">
        <ele>513.48</ele>
        <time>2018-10-06T09:39:10Z</time>
      </trkpt>
      <trkpt lat="43.83082" lon="7.61176">
        <ele>513.48</ele>
        <time>2018-10-06T09:39:11Z</time>
      </trkpt>
      <trkpt lat="43.83084" lon="7.61175">
        <ele>513.48</ele>
        <time>2018-10-06T09:39:12Z</time>
      </trkpt>
      <trkpt lat="43.83085" lon="7.61174">
        <ele>513.48</ele>
        <time>2018-10-06T09:39:13Z</time>
      </trkpt>
      <trkpt lat="43.83087" lon="7.61174">
        <ele>513.48</ele>
        <time>2018-10-06T09:39:14Z</time>
      </trkpt>
      <trkpt lat="43.83104" lon="7.61156">
        <ele>513.96</ele>
        <time>2018-10-06T09:39:27Z</time>
      </trkpt>
      <trkpt lat="43.83114" lon="7.61149">
        <ele>513.96</ele>
        <time>2018-10-06T09:39:33Z</time>
      </trkpt>
      <trkpt lat="43.83116" lon="7.61149">
        <ele>514.44</ele>
        <time>2018-10-06T09:39:34Z</time>
      </trkpt>
      <trkpt lat="43.83117" lon="7.61149">
        <ele>514.44</ele>
        <time>2018-10-06T09:39:35Z</time>
      </trkpt>
      <trkpt lat="43.83119" lon="7.61148">
        <ele>514.44</ele>
        <time>2018-10-06T09:39:36Z</time>
      </trkpt>
      <trkpt lat="43.8312" lon="7.61147">
        <ele>514.44</ele>
        <time>2018-10-06T09:39:37Z</time>
      </trkpt>
      <trkpt lat="43.83121" lon="7.61145">
        <ele>514.44</ele>
        <time>2018-10-06T09:39:38Z</time>
      </trkpt>
      <trkpt lat="43.83122" lon="7.61144">
        <ele>514.92</ele>
        <time>2018-10-06T09:39:39Z</time>
      </trkpt>
      <trkpt lat="43.83123" lon="7.61142">
        <ele>514.92</ele>
        <time>2018-10-06T09:39:40Z</time>
      </trkpt>
      <trkpt lat="43.83124" lon="7.61141">
        <ele>514.92</ele>
        <time>2018-10-06T09:39:41Z</time>
      </trkpt>
      <trkpt lat="43.83126" lon="7.6114">
        <ele>514.92</ele>
        <time>2018-10-06T09:39:42Z</time>
      </trkpt>
      <trkpt lat="43.83127" lon="7.61138">
        <ele>514.92</ele>
        <time>2018-10-06T09:39:43Z</time>
      </trkpt>
      <trkpt lat="43.83141" lon="7.61121">
        <ele>515.4</ele>
        <time>2018-10-06T09:39:57Z</time>
      </trkpt>
      <trkpt lat="43.83143" lon="7.61119">
        <ele>515.4</ele>
        <time>2018-10-06T09:40:09Z</time>
      </trkpt>
      <trkpt lat="43.83143" lon="7.61118">
        <ele>515.4</ele>
        <time>2018-10-06T09:40:24Z</time>
      </trkpt>
      <trkpt lat="43.83143" lon="7.61118">
        <ele>515.88</ele>
        <time>2018-10-06T09:40:58Z</time>
      </trkpt>
      <trkpt lat="43.83143" lon="7.61118">
        <ele>515.88</ele>
        <time>2018-10-06T09:41:42Z</time>
      </trkpt>
      <trkpt lat="43.83143" lon="7.61118">
        <ele>515.88</ele>
        <time>2018-10-06T09:42:13Z</time>
      </trkpt>
      <trkpt lat="43.83143" lon="7.61119">
        <ele>515.88</ele>
        <time>2018-10-06T09:42:42Z</time>
      </trkpt>
      <trkpt lat="43.83143" lon="7.61118">
        <ele>515.88</ele>
        <time>2018-10-06T09:43:15Z</time>
      </trkpt>
      <trkpt lat="43.83144" lon="7.61118">
        <ele>515.88</ele>
        <time>2018-10-06T09:43:48Z</time>
      </trkpt>
      <trkpt lat="43.83143" lon="7.61118">
        <ele>515.88</ele>
        <time>2018-10-06T09:44:28Z</time>
      </trkpt>
      <trkpt lat="43.83143" lon="7.61118">
        <ele>515.88</ele>
        <time>2018-10-06T09:45:01Z</time>
      </trkpt>
      <trkpt lat="43.83143" lon="7.61118">
        <ele>515.88</ele>
        <time>2018-10-06T09:45:48Z</time>
      </trkpt>
      <trkpt lat="43.83143" lon="7.61118">
        <ele>515.88</ele>
        <time>2018-10-06T09:46:25Z</time>
      </trkpt>
      <trkpt lat="43.83143" lon="7.61118">
        <ele>515.88</ele>
        <time>2018-10-06T09:47:08Z</time>
      </trkpt>
      <trkpt lat="43.83143" lon="7.61119">
        <ele>515.88</ele>
        <time>2018-10-06T09:47:52Z</time>
      </trkpt>
      <trkpt lat="43.83143" lon="7.61118">
        <ele>515.88</ele>
        <time>2018-10-06T09:48:33Z</time>
      </trkpt>
      <trkpt lat="43.83143" lon="7.61118">
        <ele>515.88</ele>
        <time>2018-10-06T09:49:17Z</time>
      </trkpt>
      <trkpt lat="43.83143" lon="7.61118">
        <ele>515.88</ele>
        <time>2018-10-06T09:49:56Z</time>
      </trkpt>
      <trkpt lat="43.83143" lon="7.61118">
        <ele>515.88</ele>
        <time>2018-10-06T09:50:36Z</time>
      </trkpt>
      <trkpt lat="43.83143" lon="7.61118">
        <ele>515.88</ele>
        <time>2018-10-06T09:51:07Z</time>
      </trkpt>
      <trkpt lat="43.83143" lon="7.61119">
        <ele>515.88</ele>
        <time>2018-10-06T09:51:44Z</time>
      </trkpt>
      <trkpt lat="43.83143" lon="7.61119">
        <ele>515.88</ele>
        <time>2018-10-06T09:52:21Z</time>
      </trkpt>
      <trkpt lat="43.83143" lon="7.61118">
        <ele>515.88</ele>
        <time>2018-10-06T09:52:53Z</time>
      </trkpt>
      <trkpt lat="43.83143" lon="7.61118">
        <ele>515.88</ele>
        <time>2018-10-06T09:53:34Z</time>
      </trkpt>
      <trkpt lat="43.83143" lon="7.61118">
        <ele>515.88</ele>
        <time>2018-10-06T09:54:17Z</time>
      </trkpt>
      <trkpt lat="43.83143" lon="7.61119">
        <ele>515.88</ele>
        <time>2018-10-06T09:54:53Z</time>
      </trkpt>
      <trkpt lat="43.83143" lon="7.61118">
        <ele>516.37</ele>
        <time>2018-10-06T09:55:36Z</time>
      </trkpt>
      <trkpt lat="43.83143" lon="7.61119">
        <ele>516.37</ele>
        <time>2018-10-06T09:56:15Z</time>
      </trkpt>
      <trkpt lat="43.83143" lon="7.61118">
        <ele>516.37</ele>
        <time>2018-10-06T09:56:56Z</time>
      </trkpt>
      <trkpt lat="43.83143" lon="7.61118">
        <ele>516.37</ele>
        <time>2018-10-06T09:57:26Z</time>
      </trkpt>
      <trkpt lat="43.83143" lon="7.61118">
        <ele>516.37</ele>
        <time>2018-10-06T09:58:04Z</time>
      </trkpt>
      <trkpt lat="43.83143" lon="7.61118">
        <ele>516.37</ele>
        <time>2018-10-06T09:58:27Z</time>
      </trkpt>
      <trkpt lat="43.83143" lon="7.61119">
        <ele>516.37</ele>
        <time>2018-10-06T09:58:43Z</time>
      </trkpt>
      <trkpt lat="43.83143" lon="7.61119">
        <ele>516.37</ele>
        <time>2018-10-06T09:59:12Z</time>
      </trkpt>
      <trkpt lat="43.83147" lon="7.61115">
        <ele>516.37</ele>
        <time>2018-10-06T09:59:31Z</time>
      </trkpt>
      <trkpt lat="43.8315" lon="7.61113">
        <ele>516.37</ele>
        <time>2018-10-06T09:59:32Z</time>
      </trkpt>
      <trkpt lat="43.83157" lon="7.61108">
        <ele>514.44</ele>
        <time>2018-10-06T09:59:34Z</time>
      </trkpt>
      <trkpt lat="43.8316" lon="7.61105">
        <ele>513.96</ele>
        <time>2018-10-06T09:59:35Z</time>
      </trkpt>
      <trkpt lat="43.83164" lon="7.61101">
        <ele>513.48</ele>
        <time>2018-10-06T09:59:36Z</time>
      </trkpt>
      <trkpt lat="43.83173" lon="7.61094">
        <ele>511.56</ele>
        <time>2018-10-06T09:59:38Z</time>
      </trkpt>
      <trkpt lat="43.83176" lon="7.6109">
        <ele>510.6</ele>
        <time>2018-10-06T09:59:39Z</time>
      </trkpt>
      <trkpt lat="43.8318" lon="7.61089">
        <ele>509.64</ele>
        <time>2018-10-06T09:59:40Z</time>
      </trkpt>
      <trkpt lat="43.83183" lon="7.61088">
        <ele>508.67</ele>
        <time>2018-10-06T09:59:41Z</time>
      </trkpt>
      <trkpt lat="43.83185" lon="7.61085">
        <ele>508.19</ele>
        <time>2018-10-06T09:59:48Z</time>
      </trkpt>
      <trkpt lat="43.83186" lon="7.61083">
        <ele>508.19</ele>
        <time>2018-10-06T09:59:49Z</time>
      </trkpt>
      <trkpt lat="43.83188" lon="7.6108">
        <ele>507.23</ele>
        <time>2018-10-06T09:59:50Z</time>
      </trkpt>
      <trkpt lat="43.83191" lon="7.61075">
        <ele>506.75</ele>
        <time>2018-10-06T09:59:51Z</time>
      </trkpt>
      <trkpt lat="43.83194" lon="7.61071">
        <ele>505.79</ele>
        <time>2018-10-06T09:59:52Z</time>
      </trkpt>
      <trkpt lat="43.83198" lon="7.61066">
        <ele>504.35</ele>
        <time>2018-10-06T09:59:53Z</time>
      </trkpt>
      <trkpt lat="43.83201" lon="7.61062">
        <ele>502.91</ele>
        <time>2018-10-06T09:59:54Z</time>
      </trkpt>
      <trkpt lat="43.83205" lon="7.61059">
        <ele>500.98</ele>
        <time>2018-10-06T09:59:56Z</time>
      </trkpt>
      <trkpt lat="43.83207" lon="7.61058">
        <ele>500.5</ele>
        <time>2018-10-06T09:59:57Z</time>
      </trkpt>
      <trkpt lat="43.83207" lon="7.61057">
        <ele>500.02</ele>
        <time>2018-10-06T09:59:58Z</time>
      </trkpt>
      <trkpt lat="43.83207" lon="7.61054">
        <ele>499.54</ele>
        <time>2018-10-06T09:59:59Z</time>
      </trkpt>
      <trkpt lat="43.83208" lon="7.61051">
        <ele>499.54</ele>
        <time>2018-10-06T10:00:00Z</time>
      </trkpt>
      <trkpt lat="43.83209" lon="7.6105">
        <ele>499.06</ele>
        <time>2018-10-06T10:00:01Z</time>
      </trkpt>
      <trkpt lat="43.83211" lon="7.61049">
        <ele>498.58</ele>
        <time>2018-10-06T10:00:02Z</time>
      </trkpt>
      <trkpt lat="43.83213" lon="7.61048">
        <ele>498.1</ele>
        <time>2018-10-06T10:00:03Z</time>
      </trkpt>
      <trkpt lat="43.83215" lon="7.61046">
        <ele>497.62</ele>
        <time>2018-10-06T10:00:04Z</time>
      </trkpt>
      <trkpt lat="43.83216" lon="7.61041">
        <ele>496.66</ele>
        <time>2018-10-06T10:00:05Z</time>
      </trkpt>
      <trkpt lat="43.83217" lon="7.61036">
        <ele>495.7</ele>
        <time>2018-10-06T10:00:06Z</time>
      </trkpt>
      <trkpt lat="43.83223" lon="7.6102">
        <ele>491.85</ele>
        <time>2018-10-06T10:00:09Z</time>
      </trkpt>
      <trkpt lat="43.83227" lon="7.61017">
        <ele>491.37</ele>
        <time>2018-10-06T10:00:10Z</time>
      </trkpt>
      <trkpt lat="43.83236" lon="7.61009">
        <ele>489.93</ele>
        <time>2018-10-06T10:00:12Z</time>
      </trkpt>
      <trkpt lat="43.83239" lon="7.61004">
        <ele>489.45</ele>
        <time>2018-10-06T10:00:13Z</time>
      </trkpt>
      <trkpt lat="43.83242" lon="7.60998">
        <ele>488.97</ele>
        <time>2018-10-06T10:00:14Z</time>
      </trkpt>
      <trkpt lat="43.83246" lon="7.60992">
        <ele>488.49</ele>
        <time>2018-10-06T10:00:15Z</time>
      </trkpt>
      <trkpt lat="43.8325" lon="7.60986">
        <ele>487.53</ele>
        <time>2018-10-06T10:00:16Z</time>
      </trkpt>
      <trkpt lat="43.83254" lon="7.60979">
        <ele>487.05</ele>
        <time>2018-10-06T10:00:17Z</time>
      </trkpt>
      <trkpt lat="43.83258" lon="7.60973">
        <ele>486.08</ele>
        <time>2018-10-06T10:00:18Z</time>
      </trkpt>
      <trkpt lat="43.83263" lon="7.60969">
        <ele>485.12</ele>
        <time>2018-10-06T10:00:19Z</time>
      </trkpt>
      <trkpt lat="43.83269" lon="7.60964">
        <ele>485.12</ele>
        <time>2018-10-06T10:00:20Z</time>
      </trkpt>
      <trkpt lat="43.83274" lon="7.60959">
        <ele>484.64</ele>
        <time>2018-10-06T10:00:21Z</time>
      </trkpt>
      <trkpt lat="43.83279" lon="7.60954">
        <ele>485.12</ele>
        <time>2018-10-06T10:00:22Z</time>
      </trkpt>
      <trkpt lat="43.8329" lon="7.60941">
        <ele>486.56</ele>
        <time>2018-10-06T10:00:26Z</time>
      </trkpt>
      <trkpt lat="43.833" lon="7.60923">
        <ele>489.45</ele>
        <time>2018-10-06T10:00:34Z</time>
      </trkpt>
      <trkpt lat="43.83312" lon="7.60912">
        <ele>490.41</ele>
        <time>2018-10-06T10:00:41Z</time>
      </trkpt>
      <trkpt lat="43.83314" lon="7.6091">
        <ele>490.41</ele>
        <time>2018-10-06T10:00:42Z</time>
      </trkpt>
      <trkpt lat="43.83316" lon="7.60908">
        <ele>490.41</ele>
        <time>2018-10-06T10:00:43Z</time>
      </trkpt>
      <trkpt lat="43.83337" lon="7.60904">
        <ele>491.37</ele>
        <time>2018-10-06T10:00:51Z</time>
      </trkpt>
      <trkpt lat="43.8334" lon="7.609">
        <ele>491.37</ele>
        <time>2018-10-06T10:00:52Z</time>
      </trkpt>
      <trkpt lat="43.83342" lon="7.60897">
        <ele>489.93</ele>
        <time>2018-10-06T10:00:53Z</time>
      </trkpt>
      <trkpt lat="43.83345" lon="7.60895">
        <ele>489.93</ele>
        <time>2018-10-06T10:00:54Z</time>
      </trkpt>
      <trkpt lat="43.83349" lon="7.60894">
        <ele>489.93</ele>
        <time>2018-10-06T10:00:55Z</time>
      </trkpt>
      <trkpt lat="43.83353" lon="7.60893">
        <ele>489.93</ele>
        <time>2018-10-06T10:00:56Z</time>
      </trkpt>
      <trkpt lat="43.83357" lon="7.60892">
        <ele>488.97</ele>
        <time>2018-10-06T10:00:57Z</time>
      </trkpt>
      <trkpt lat="43.83361" lon="7.60891">
        <ele>488.97</ele>
        <time>2018-10-06T10:00:58Z</time>
      </trkpt>
      <trkpt lat="43.83365" lon="7.60891">
        <ele>488.97</ele>
        <time>2018-10-06T10:00:59Z</time>
      </trkpt>
      <trkpt lat="43.83369" lon="7.60891">
        <ele>488.97</ele>
        <time>2018-10-06T10:01:00Z</time>
      </trkpt>
      <trkpt lat="43.83372" lon="7.6089">
        <ele>488.97</ele>
        <time>2018-10-06T10:01:01Z</time>
      </trkpt>
      <trkpt lat="43.83375" lon="7.60891">
        <ele>488.97</ele>
        <time>2018-10-06T10:01:02Z</time>
      </trkpt>
      <trkpt lat="43.83377" lon="7.60891">
        <ele>490.41</ele>
        <time>2018-10-06T10:01:03Z</time>
      </trkpt>
      <trkpt lat="43.8338" lon="7.60891">
        <ele>490.41</ele>
        <time>2018-10-06T10:01:04Z</time>
      </trkpt>
      <trkpt lat="43.83383" lon="7.60892">
        <ele>490.89</ele>
        <time>2018-10-06T10:01:05Z</time>
      </trkpt>
      <trkpt lat="43.83394" lon="7.6089">
        <ele>491.37</ele>
        <time>2018-10-06T10:01:10Z</time>
      </trkpt>
      <trkpt lat="43.83395" lon="7.60891">
        <ele>491.37</ele>
        <time>2018-10-06T10:01:11Z</time>
      </trkpt>
      <trkpt lat="43.83396" lon="7.60891">
        <ele>491.85</ele>
        <time>2018-10-06T10:01:12Z</time>
      </trkpt>
      <trkpt lat="43.83399" lon="7.60893">
        <ele>491.85</ele>
        <time>2018-10-06T10:01:24Z</time>
      </trkpt>
      <trkpt lat="43.834" lon="7.60894">
        <ele>491.85</ele>
        <time>2018-10-06T10:01:25Z</time>
      </trkpt>
      <trkpt lat="43.83402" lon="7.60894">
        <ele>491.85</ele>
        <time>2018-10-06T10:01:26Z</time>
      </trkpt>
      <trkpt lat="43.83404" lon="7.60893">
        <ele>491.85</ele>
        <time>2018-10-06T10:01:27Z</time>
      </trkpt>
      <trkpt lat="43.83407" lon="7.6089">
        <ele>490.41</ele>
        <time>2018-10-06T10:01:28Z</time>
      </trkpt>
      <trkpt lat="43.83408" lon="7.60888">
        <ele>490.41</ele>
        <time>2018-10-06T10:01:29Z</time>
      </trkpt>
      <trkpt lat="43.8341" lon="7.60888">
        <ele>489.45</ele>
        <time>2018-10-06T10:01:30Z</time>
      </trkpt>
      <trkpt lat="43.83412" lon="7.6089">
        <ele>488.97</ele>
        <time>2018-10-06T10:01:31Z</time>
      </trkpt>
      <trkpt lat="43.83416" lon="7.60895">
        <ele>487.53</ele>
        <time>2018-10-06T10:01:33Z</time>
      </trkpt>
      <trkpt lat="43.83418" lon="7.60895">
        <ele>486.56</ele>
        <time>2018-10-06T10:01:34Z</time>
      </trkpt>
      <trkpt lat="43.83419" lon="7.60892">
        <ele>485.6</ele>
        <time>2018-10-06T10:01:35Z</time>
      </trkpt>
      <trkpt lat="43.8342" lon="7.60888">
        <ele>486.08</ele>
        <time>2018-10-06T10:01:36Z</time>
      </trkpt>
      <trkpt lat="43.83423" lon="7.60876">
        <ele>482.72</ele>
        <time>2018-10-06T10:01:39Z</time>
      </trkpt>
      <trkpt lat="43.83425" lon="7.60875">
        <ele>482.24</ele>
        <time>2018-10-06T10:01:40Z</time>
      </trkpt>
      <trkpt lat="43.83427" lon="7.6087">
        <ele>480.32</ele>
        <time>2018-10-06T10:01:42Z</time>
      </trkpt>
      <trkpt lat="43.83424" lon="7.60858">
        <ele>478.87</ele>
        <time>2018-10-06T10:01:45Z</time>
      </trkpt>
      <trkpt lat="43.83416" lon="7.60826">
        <ele>475.99</ele>
        <time>2018-10-06T10:01:55Z</time>
      </trkpt>
      <trkpt lat="43.83415" lon="7.60807">
        <ele>472.14</ele>
        <time>2018-10-06T10:01:59Z</time>
      </trkpt>
      <trkpt lat="43.83415" lon="7.60786">
        <ele>466.86</ele>
        <time>2018-10-06T10:02:04Z</time>
      </trkpt>
      <trkpt lat="43.83414" lon="7.60768">
        <ele>463.49</ele>
        <time>2018-10-06T10:02:07Z</time>
      </trkpt>
      <trkpt lat="43.83416" lon="7.60756">
        <ele>460.61</ele>
        <time>2018-10-06T10:02:09Z</time>
      </trkpt>
      <trkpt lat="43.83421" lon="7.60736">
        <ele>454.36</ele>
        <time>2018-10-06T10:02:13Z</time>
      </trkpt>
      <trkpt lat="43.83422" lon="7.6072">
        <ele>450.03</ele>
        <time>2018-10-06T10:02:16Z</time>
      </trkpt>
      <trkpt lat="43.83416" lon="7.607">
        <ele>446.67</ele>
        <time>2018-10-06T10:02:20Z</time>
      </trkpt>
      <trkpt lat="43.83416" lon="7.60677">
        <ele>441.86</ele>
        <time>2018-10-06T10:02:24Z</time>
      </trkpt>
      <trkpt lat="43.83417" lon="7.60672">
        <ele>440.9</ele>
        <time>2018-10-06T10:02:25Z</time>
      </trkpt>
      <trkpt lat="43.8342" lon="7.60657">
        <ele>437.06</ele>
        <time>2018-10-06T10:02:27Z</time>
      </trkpt>
      <trkpt lat="43.83422" lon="7.60643">
        <ele>436.1</ele>
        <time>2018-10-06T10:02:29Z</time>
      </trkpt>
      <trkpt lat="43.83423" lon="7.60639">
        <ele>438.02</ele>
        <time>2018-10-06T10:02:31Z</time>
      </trkpt>
      <trkpt lat="43.83421" lon="7.60641">
        <ele>438.02</ele>
        <time>2018-10-06T10:02:40Z</time>
      </trkpt>
      <trkpt lat="43.8342" lon="7.60642">
        <ele>438.02</ele>
        <time>2018-10-06T10:02:41Z</time>
      </trkpt>
      <trkpt lat="43.83418" lon="7.60644">
        <ele>436.58</ele>
        <time>2018-10-06T10:02:42Z</time>
      </trkpt>
      <trkpt lat="43.83417" lon="7.60646">
        <ele>436.1</ele>
        <time>2018-10-06T10:02:43Z</time>
      </trkpt>
      <trkpt lat="43.83416" lon="7.60647">
        <ele>436.1</ele>
        <time>2018-10-06T10:02:44Z</time>
      </trkpt>
      <trkpt lat="43.83414" lon="7.60649">
        <ele>435.61</ele>
        <time>2018-10-06T10:02:45Z</time>
      </trkpt>
      <trkpt lat="43.83412" lon="7.6065">
        <ele>435.13</ele>
        <time>2018-10-06T10:02:46Z</time>
      </trkpt>
      <trkpt lat="43.8341" lon="7.60651">
        <ele>434.65</ele>
        <time>2018-10-06T10:02:47Z</time>
      </trkpt>
      <trkpt lat="43.83406" lon="7.60652">
        <ele>433.69</ele>
        <time>2018-10-06T10:02:48Z</time>
      </trkpt>
      <trkpt lat="43.83402" lon="7.60654">
        <ele>432.73</ele>
        <time>2018-10-06T10:02:49Z</time>
      </trkpt>
      <trkpt lat="43.83397" lon="7.60658">
        <ele>431.77</ele>
        <time>2018-10-06T10:02:50Z</time>
      </trkpt>
      <trkpt lat="43.83386" lon="7.60669">
        <ele>427.92</ele>
        <time>2018-10-06T10:02:52Z</time>
      </trkpt>
      <trkpt lat="43.83369" lon="7.60682">
        <ele>425.04</ele>
        <time>2018-10-06T10:02:55Z</time>
      </trkpt>
      <trkpt lat="43.83358" lon="7.60687">
        <ele>423.12</ele>
        <time>2018-10-06T10:02:57Z</time>
      </trkpt>
      <trkpt lat="43.83352" lon="7.60689">
        <ele>422.16</ele>
        <time>2018-10-06T10:02:58Z</time>
      </trkpt>
      <trkpt lat="43.83327" lon="7.607">
        <ele>420.71</ele>
        <time>2018-10-06T10:03:02Z</time>
      </trkpt>
      <trkpt lat="43.83321" lon="7.60702">
        <ele>420.71</ele>
        <time>2018-10-06T10:03:03Z</time>
      </trkpt>
      <trkpt lat="43.83308" lon="7.60707">
        <ele>419.75</ele>
        <time>2018-10-06T10:03:05Z</time>
      </trkpt>
      <trkpt lat="43.83302" lon="7.60709">
        <ele>419.27</ele>
        <time>2018-10-06T10:03:06Z</time>
      </trkpt>
      <trkpt lat="43.83295" lon="7.60709">
        <ele>418.79</ele>
        <time>2018-10-06T10:03:07Z</time>
      </trkpt>
      <trkpt lat="43.83275" lon="7.60702">
        <ele>422.16</ele>
        <time>2018-10-06T10:03:13Z</time>
      </trkpt>
      <trkpt lat="43.83265" lon="7.60699">
        <ele>423.12</ele>
        <time>2018-10-06T10:03:17Z</time>
      </trkpt>
      <trkpt lat="43.83236" lon="7.60677">
        <ele>425.52</ele>
        <time>2018-10-06T10:03:31Z</time>
      </trkpt>
      <trkpt lat="43.83231" lon="7.60679">
        <ele>424.08</ele>
        <time>2018-10-06T10:03:41Z</time>
      </trkpt>
      <trkpt lat="43.83229" lon="7.60681">
        <ele>423.6</ele>
        <time>2018-10-06T10:03:42Z</time>
      </trkpt>
      <trkpt lat="43.83226" lon="7.60685">
        <ele>422.64</ele>
        <time>2018-10-06T10:03:43Z</time>
      </trkpt>
      <trkpt lat="43.83223" lon="7.6069">
        <ele>421.68</ele>
        <time>2018-10-06T10:03:44Z</time>
      </trkpt>
      <trkpt lat="43.83221" lon="7.60697">
        <ele>421.19</ele>
        <time>2018-10-06T10:03:45Z</time>
      </trkpt>
      <trkpt lat="43.83216" lon="7.60703">
        <ele>420.23</ele>
        <time>2018-10-06T10:03:46Z</time>
      </trkpt>
      <trkpt lat="43.83211" lon="7.60709">
        <ele>419.27</ele>
        <time>2018-10-06T10:03:47Z</time>
      </trkpt>
      <trkpt lat="43.83206" lon="7.60716">
        <ele>418.79</ele>
        <time>2018-10-06T10:03:48Z</time>
      </trkpt>
      <trkpt lat="43.83202" lon="7.60723">
        <ele>418.79</ele>
        <time>2018-10-06T10:03:49Z</time>
      </trkpt>
      <trkpt lat="43.83199" lon="7.60731">
        <ele>418.79</ele>
        <time>2018-10-06T10:03:50Z</time>
      </trkpt>
      <trkpt lat="43.83196" lon="7.60739">
        <ele>418.31</ele>
        <time>2018-10-06T10:03:51Z</time>
      </trkpt>
      <trkpt lat="43.83186" lon="7.60782">
        <ele>415.91</ele>
        <time>2018-10-06T10:03:56Z</time>
      </trkpt>
      <trkpt lat="43.83186" lon="7.60792">
        <ele>415.43</ele>
        <time>2018-10-06T10:03:57Z</time>
      </trkpt>
      <trkpt lat="43.83187" lon="7.60802">
        <ele>415.43</ele>
        <time>2018-10-06T10:03:58Z</time>
      </trkpt>
      <trkpt lat="43.8319" lon="7.60828">
        <ele>414.95</ele>
        <time>2018-10-06T10:04:01Z</time>
      </trkpt>
      <trkpt lat="43.83188" lon="7.60836">
        <ele>414.95</ele>
        <time>2018-10-06T10:04:02Z</time>
      </trkpt>
      <trkpt lat="43.83184" lon="7.60843">
        <ele>413.98</ele>
        <time>2018-10-06T10:04:03Z</time>
      </trkpt>
      <trkpt lat="43.83179" lon="7.60849">
        <ele>412.54</ele>
        <time>2018-10-06T10:04:04Z</time>
      </trkpt>
      <trkpt lat="43.83174" lon="7.60855">
        <ele>412.06</ele>
        <time>2018-10-06T10:04:05Z</time>
      </trkpt>
      <trkpt lat="43.83155" lon="7.60877">
        <ele>412.06</ele>
        <time>2018-10-06T10:04:09Z</time>
      </trkpt>
      <trkpt lat="43.8315" lon="7.60881">
        <ele>412.06</ele>
        <time>2018-10-06T10:04:10Z</time>
      </trkpt>
      <trkpt lat="43.83145" lon="7.60883">
        <ele>412.06</ele>
        <time>2018-10-06T10:04:11Z</time>
      </trkpt>
      <trkpt lat="43.83141" lon="7.60883">
        <ele>412.06</ele>
        <time>2018-10-06T10:04:12Z</time>
      </trkpt>
      <trkpt lat="43.83137" lon="7.60881">
        <ele>413.5</ele>
        <time>2018-10-06T10:04:13Z</time>
      </trkpt>
      <trkpt lat="43.83133" lon="7.6088">
        <ele>413.5</ele>
        <time>2018-10-06T10:04:14Z</time>
      </trkpt>
      <trkpt lat="43.83099" lon="7.60872">
        <ele>415.91</ele>
        <time>2018-10-06T10:04:24Z</time>
      </trkpt>
      <trkpt lat="43.83072" lon="7.60844">
        <ele>416.39</ele>
        <time>2018-10-06T10:04:33Z</time>
      </trkpt>
      <trkpt lat="43.83046" lon="7.60829">
        <ele>417.35</ele>
        <time>2018-10-06T10:04:41Z</time>
      </trkpt>
      <trkpt lat="43.83044" lon="7.60826">
        <ele>417.35</ele>
        <time>2018-10-06T10:04:42Z</time>
      </trkpt>
      <trkpt lat="43.83042" lon="7.60821">
        <ele>417.35</ele>
        <time>2018-10-06T10:04:43Z</time>
      </trkpt>
      <trkpt lat="43.8304" lon="7.60818">
        <ele>417.35</ele>
        <time>2018-10-06T10:04:44Z</time>
      </trkpt>
      <trkpt lat="43.83038" lon="7.60815">
        <ele>417.35</ele>
        <time>2018-10-06T10:04:45Z</time>
      </trkpt>
      <trkpt lat="43.83036" lon="7.60812">
        <ele>417.35</ele>
        <time>2018-10-06T10:04:46Z</time>
      </trkpt>
      <trkpt lat="43.83034" lon="7.6081">
        <ele>417.35</ele>
        <time>2018-10-06T10:04:55Z</time>
      </trkpt>
      <trkpt lat="43.83032" lon="7.60807">
        <ele>417.35</ele>
        <time>2018-10-06T10:05:00Z</time>
      </trkpt>
      <trkpt lat="43.83031" lon="7.60804">
        <ele>417.35</ele>
        <time>2018-10-06T10:05:01Z</time>
      </trkpt>
      <trkpt lat="43.83028" lon="7.60799">
        <ele>415.43</ele>
        <time>2018-10-06T10:05:02Z</time>
      </trkpt>
      <trkpt lat="43.83024" lon="7.60795">
        <ele>414.47</ele>
        <time>2018-10-06T10:05:03Z</time>
      </trkpt>
      <trkpt lat="43.8302" lon="7.60792">
        <ele>413.98</ele>
        <time>2018-10-06T10:05:04Z</time>
      </trkpt>
      <trkpt lat="43.83016" lon="7.60792">
        <ele>413.98</ele>
        <time>2018-10-06T10:05:05Z</time>
      </trkpt>
      <trkpt lat="43.83012" lon="7.60794">
        <ele>413.98</ele>
        <time>2018-10-06T10:05:06Z</time>
      </trkpt>
      <trkpt lat="43.8301" lon="7.60797">
        <ele>413.98</ele>
        <time>2018-10-06T10:05:07Z</time>
      </trkpt>
      <trkpt lat="43.83007" lon="7.608">
        <ele>413.98</ele>
        <time>2018-10-06T10:05:08Z</time>
      </trkpt>
      <trkpt lat="43.83003" lon="7.60803">
        <ele>413.98</ele>
        <time>2018-10-06T10:05:09Z</time>
      </trkpt>
      <trkpt lat="43.8299" lon="7.60817">
        <ele>412.06</ele>
        <time>2018-10-06T10:05:12Z</time>
      </trkpt>
      <trkpt lat="43.82985" lon="7.60824">
        <ele>411.1</ele>
        <time>2018-10-06T10:05:13Z</time>
      </trkpt>
      <trkpt lat="43.8298" lon="7.6083">
        <ele>410.62</ele>
        <time>2018-10-06T10:05:14Z</time>
      </trkpt>
      <trkpt lat="43.82975" lon="7.60837">
        <ele>409.66</ele>
        <time>2018-10-06T10:05:15Z</time>
      </trkpt>
      <trkpt lat="43.82971" lon="7.60842">
        <ele>409.66</ele>
        <time>2018-10-06T10:05:16Z</time>
      </trkpt>
      <trkpt lat="43.82967" lon="7.60844">
        <ele>409.66</ele>
        <time>2018-10-06T10:05:17Z</time>
      </trkpt>
      <trkpt lat="43.82961" lon="7.60844">
        <ele>408.22</ele>
        <time>2018-10-06T10:05:18Z</time>
      </trkpt>
      <trkpt lat="43.82955" lon="7.60844">
        <ele>407.26</ele>
        <time>2018-10-06T10:05:19Z</time>
      </trkpt>
      <trkpt lat="43.82949" lon="7.60843">
        <ele>407.26</ele>
        <time>2018-10-06T10:05:20Z</time>
      </trkpt>
      <trkpt lat="43.82942" lon="7.60842">
        <ele>406.29</ele>
        <time>2018-10-06T10:05:21Z</time>
      </trkpt>
      <trkpt lat="43.82936" lon="7.6084">
        <ele>406.29</ele>
        <time>2018-10-06T10:05:22Z</time>
      </trkpt>
      <trkpt lat="43.82918" lon="7.60831">
        <ele>405.81</ele>
        <time>2018-10-06T10:05:25Z</time>
      </trkpt>
      <trkpt lat="43.82913" lon="7.60826">
        <ele>405.33</ele>
        <time>2018-10-06T10:05:26Z</time>
      </trkpt>
      <trkpt lat="43.82908" lon="7.6082">
        <ele>404.37</ele>
        <time>2018-10-06T10:05:27Z</time>
      </trkpt>
      <trkpt lat="43.82904" lon="7.60812">
        <ele>403.41</ele>
        <time>2018-10-06T10:05:28Z</time>
      </trkpt>
      <trkpt lat="43.82899" lon="7.60803">
        <ele>402.45</ele>
        <time>2018-10-06T10:05:29Z</time>
      </trkpt>
      <trkpt lat="43.82894" lon="7.60795">
        <ele>401.01</ele>
        <time>2018-10-06T10:05:30Z</time>
      </trkpt>
      <trkpt lat="43.82884" lon="7.6078">
        <ele>399.08</ele>
        <time>2018-10-06T10:05:32Z</time>
      </trkpt>
      <trkpt lat="43.82875" lon="7.60769">
        <ele>397.64</ele>
        <time>2018-10-06T10:05:34Z</time>
      </trkpt>
      <trkpt lat="43.8287" lon="7.60764">
        <ele>396.68</ele>
        <time>2018-10-06T10:05:35Z</time>
      </trkpt>
      <trkpt lat="43.82863" lon="7.60761">
        <ele>395.72</ele>
        <time>2018-10-06T10:05:36Z</time>
      </trkpt>
      <trkpt lat="43.82857" lon="7.60758">
        <ele>394.28</ele>
        <time>2018-10-06T10:05:37Z</time>
      </trkpt>
      <trkpt lat="43.82852" lon="7.60758">
        <ele>393.32</ele>
        <time>2018-10-06T10:05:38Z</time>
      </trkpt>
      <trkpt lat="43.82849" lon="7.60758">
        <ele>393.32</ele>
        <time>2018-10-06T10:05:39Z</time>
      </trkpt>
      <trkpt lat="43.82838" lon="7.60755">
        <ele>395.24</ele>
        <time>2018-10-06T10:05:46Z</time>
      </trkpt>
      <trkpt lat="43.82815" lon="7.60737">
        <ele>396.2</ele>
        <time>2018-10-06T10:05:54Z</time>
      </trkpt>
      <trkpt lat="43.82797" lon="7.60735">
        <ele>396.2</ele>
        <time>2018-10-06T10:05:59Z</time>
      </trkpt>
      <trkpt lat="43.8279" lon="7.60731">
        <ele>396.2</ele>
        <time>2018-10-06T10:06:01Z</time>
      </trkpt>
      <trkpt lat="43.82771" lon="7.60713">
        <ele>391.39</ele>
        <time>2018-10-06T10:06:05Z</time>
      </trkpt>
      <trkpt lat="43.82766" lon="7.60711">
        <ele>390.43</ele>
        <time>2018-10-06T10:06:06Z</time>
      </trkpt>
      <trkpt lat="43.82733" lon="7.60707">
        <ele>384.18</ele>
        <time>2018-10-06T10:06:11Z</time>
      </trkpt>
      <trkpt lat="43.8271" lon="7.60698">
        <ele>382.74</ele>
        <time>2018-10-06T10:06:14Z</time>
      </trkpt>
      <trkpt lat="43.82697" lon="7.60704">
        <ele>382.26</ele>
        <time>2018-10-06T10:06:19Z</time>
      </trkpt>
      <trkpt lat="43.82697" lon="7.60704">
        <ele>382.74</ele>
        <time>2018-10-06T10:06:28Z</time>
      </trkpt>
      <trkpt lat="43.82697" lon="7.60703">
        <ele>382.74</ele>
        <time>2018-10-06T10:06:29Z</time>
      </trkpt>
      <trkpt lat="43.82704" lon="7.60702">
        <ele>382.74</ele>
        <time>2018-10-06T10:06:34Z</time>
      </trkpt>
      <trkpt lat="43.827" lon="7.60675">
        <ele>382.74</ele>
        <time>2018-10-06T10:06:43Z</time>
      </trkpt>
      <trkpt lat="43.82698" lon="7.60664">
        <ele>381.78</ele>
        <time>2018-10-06T10:06:45Z</time>
      </trkpt>
      <trkpt lat="43.82694" lon="7.60661">
        <ele>380.82</ele>
        <time>2018-10-06T10:06:46Z</time>
      </trkpt>
      <trkpt lat="43.82691" lon="7.6066">
        <ele>380.82</ele>
        <time>2018-10-06T10:06:47Z</time>
      </trkpt>
      <trkpt lat="43.82687" lon="7.6066">
        <ele>380.82</ele>
        <time>2018-10-06T10:06:48Z</time>
      </trkpt>
      <trkpt lat="43.82682" lon="7.60659">
        <ele>380.82</ele>
        <time>2018-10-06T10:06:49Z</time>
      </trkpt>
      <trkpt lat="43.82669" lon="7.6066">
        <ele>380.82</ele>
        <time>2018-10-06T10:06:52Z</time>
      </trkpt>
      <trkpt lat="43.82656" lon="7.60666">
        <ele>380.34</ele>
        <time>2018-10-06T10:06:55Z</time>
      </trkpt>
      <trkpt lat="43.82651" lon="7.60667">
        <ele>379.38</ele>
        <time>2018-10-06T10:06:56Z</time>
      </trkpt>
      <trkpt lat="43.82645" lon="7.60668">
        <ele>379.38</ele>
        <time>2018-10-06T10:06:57Z</time>
      </trkpt>
      <trkpt lat="43.82638" lon="7.60668">
        <ele>377.45</ele>
        <time>2018-10-06T10:06:58Z</time>
      </trkpt>
      <trkpt lat="43.8263" lon="7.6067">
        <ele>374.57</ele>
        <time>2018-10-06T10:06:59Z</time>
      </trkpt>
      <trkpt lat="43.82623" lon="7.60673">
        <ele>374.09</ele>
        <time>2018-10-06T10:07:00Z</time>
      </trkpt>
      <trkpt lat="43.82616" lon="7.60676">
        <ele>373.61</ele>
        <time>2018-10-06T10:07:01Z</time>
      </trkpt>
      <trkpt lat="43.82608" lon="7.60679">
        <ele>372.65</ele>
        <time>2018-10-06T10:07:02Z</time>
      </trkpt>
      <trkpt lat="43.82599" lon="7.6068">
        <ele>370.24</ele>
        <time>2018-10-06T10:07:03Z</time>
      </trkpt>
      <trkpt lat="43.82583" lon="7.60683">
        <ele>366.88</ele>
        <time>2018-10-06T10:07:05Z</time>
      </trkpt>
      <trkpt lat="43.82575" lon="7.60686">
        <ele>365.44</ele>
        <time>2018-10-06T10:07:06Z</time>
      </trkpt>
      <trkpt lat="43.82568" lon="7.60689">
        <ele>364</ele>
        <time>2018-10-06T10:07:07Z</time>
      </trkpt>
      <trkpt lat="43.82563" lon="7.60693">
        <ele>362.07</ele>
        <time>2018-10-06T10:07:08Z</time>
      </trkpt>
      <trkpt lat="43.82557" lon="7.60697">
        <ele>362.07</ele>
        <time>2018-10-06T10:07:09Z</time>
      </trkpt>
      <trkpt lat="43.82552" lon="7.60702">
        <ele>362.07</ele>
        <time>2018-10-06T10:07:10Z</time>
      </trkpt>
      <trkpt lat="43.82542" lon="7.60712">
        <ele>361.11</ele>
        <time>2018-10-06T10:07:12Z</time>
      </trkpt>
      <trkpt lat="43.82538" lon="7.60717">
        <ele>361.11</ele>
        <time>2018-10-06T10:07:13Z</time>
      </trkpt>
      <trkpt lat="43.82529" lon="7.60727">
        <ele>360.63</ele>
        <time>2018-10-06T10:07:15Z</time>
      </trkpt>
      <trkpt lat="43.8252" lon="7.60734">
        <ele>360.63</ele>
        <time>2018-10-06T10:07:17Z</time>
      </trkpt>
      <trkpt lat="43.82503" lon="7.60746">
        <ele>359.19</ele>
        <time>2018-10-06T10:07:24Z</time>
      </trkpt>
      <trkpt lat="43.82502" lon="7.6075">
        <ele>359.19</ele>
        <time>2018-10-06T10:07:32Z</time>
      </trkpt>
      <trkpt lat="43.82502" lon="7.60752">
        <ele>359.19</ele>
        <time>2018-10-06T10:07:33Z</time>
      </trkpt>
      <trkpt lat="43.82502" lon="7.60753">
        <ele>359.19</ele>
        <time>2018-10-06T10:07:43Z</time>
      </trkpt>
      <trkpt lat="43.82502" lon="7.60752">
        <ele>359.19</ele>
        <time>2018-10-06T10:07:44Z</time>
      </trkpt>
      <trkpt lat="43.825" lon="7.60748">
        <ele>359.19</ele>
        <time>2018-10-06T10:07:58Z</time>
      </trkpt>
      <trkpt lat="43.82501" lon="7.60754">
        <ele>359.19</ele>
        <time>2018-10-06T10:08:12Z</time>
      </trkpt>
      <trkpt lat="43.82502" lon="7.60756">
        <ele>359.19</ele>
        <time>2018-10-06T10:08:13Z</time>
      </trkpt>
      <trkpt lat="43.82502" lon="7.60761">
        <ele>358.23</ele>
        <time>2018-10-06T10:08:14Z</time>
      </trkpt>
      <trkpt lat="43.82503" lon="7.60767">
        <ele>357.75</ele>
        <time>2018-10-06T10:08:15Z</time>
      </trkpt>
      <trkpt lat="43.82506" lon="7.60773">
        <ele>356.79</ele>
        <time>2018-10-06T10:08:16Z</time>
      </trkpt>
      <trkpt lat="43.82509" lon="7.6078">
        <ele>355.83</ele>
        <time>2018-10-06T10:08:17Z</time>
      </trkpt>
      <trkpt lat="43.82513" lon="7.60787">
        <ele>354.86</ele>
        <time>2018-10-06T10:08:18Z</time>
      </trkpt>
      <trkpt lat="43.82518" lon="7.60794">
        <ele>352.94</ele>
        <time>2018-10-06T10:08:19Z</time>
      </trkpt>
      <trkpt lat="43.82532" lon="7.60816">
        <ele>350.06</ele>
        <time>2018-10-06T10:08:22Z</time>
      </trkpt>
      <trkpt lat="43.82536" lon="7.60823">
        <ele>348.62</ele>
        <time>2018-10-06T10:08:23Z</time>
      </trkpt>
      <trkpt lat="43.82539" lon="7.60828">
        <ele>347.65</ele>
        <time>2018-10-06T10:08:24Z</time>
      </trkpt>
      <trkpt lat="43.82542" lon="7.60831">
        <ele>347.17</ele>
        <time>2018-10-06T10:08:25Z</time>
      </trkpt>
      <trkpt lat="43.82546" lon="7.60833">
        <ele>346.69</ele>
        <time>2018-10-06T10:08:26Z</time>
      </trkpt>
      <trkpt lat="43.82551" lon="7.60836">
        <ele>345.73</ele>
        <time>2018-10-06T10:08:27Z</time>
      </trkpt>
      <trkpt lat="43.82556" lon="7.60839">
        <ele>344.77</ele>
        <time>2018-10-06T10:08:28Z</time>
      </trkpt>
      <trkpt lat="43.82561" lon="7.60843">
        <ele>343.81</ele>
        <time>2018-10-06T10:08:29Z</time>
      </trkpt>
      <trkpt lat="43.82564" lon="7.60847">
        <ele>342.37</ele>
        <time>2018-10-06T10:08:30Z</time>
      </trkpt>
      <trkpt lat="43.82568" lon="7.60852">
        <ele>341.41</ele>
        <time>2018-10-06T10:08:31Z</time>
      </trkpt>
      <trkpt lat="43.82572" lon="7.60859">
        <ele>339.48</ele>
        <time>2018-10-06T10:08:32Z</time>
      </trkpt>
      <trkpt lat="43.82575" lon="7.60865">
        <ele>338.04</ele>
        <time>2018-10-06T10:08:33Z</time>
      </trkpt>
      <trkpt lat="43.8258" lon="7.6087">
        <ele>336.6</ele>
        <time>2018-10-06T10:08:34Z</time>
      </trkpt>
      <trkpt lat="43.82584" lon="7.60874">
        <ele>335.16</ele>
        <time>2018-10-06T10:08:35Z</time>
      </trkpt>
      <trkpt lat="43.82593" lon="7.60877">
        <ele>333.71</ele>
        <time>2018-10-06T10:08:37Z</time>
      </trkpt>
      <trkpt lat="43.82598" lon="7.6088">
        <ele>333.23</ele>
        <time>2018-10-06T10:08:38Z</time>
      </trkpt>
      <trkpt lat="43.82603" lon="7.60883">
        <ele>332.27</ele>
        <time>2018-10-06T10:08:39Z</time>
      </trkpt>
      <trkpt lat="43.82609" lon="7.60888">
        <ele>331.31</ele>
        <time>2018-10-06T10:08:40Z</time>
      </trkpt>
      <trkpt lat="43.82607" lon="7.60906">
        <ele>330.83</ele>
        <time>2018-10-06T10:08:46Z</time>
      </trkpt>
      <trkpt lat="43.8259" lon="7.60913">
        <ele>330.83</ele>
        <time>2018-10-06T10:08:51Z</time>
      </trkpt>
      <trkpt lat="43.82575" lon="7.60917">
        <ele>329.87</ele>
        <time>2018-10-06T10:08:54Z</time>
      </trkpt>
      <trkpt lat="43.82569" lon="7.60918">
        <ele>328.91</ele>
        <time>2018-10-06T10:08:55Z</time>
      </trkpt>
      <trkpt lat="43.82562" lon="7.6092">
        <ele>327.47</ele>
        <time>2018-10-06T10:08:56Z</time>
      </trkpt>
      <trkpt lat="43.82556" lon="7.60921">
        <ele>326.02</ele>
        <time>2018-10-06T10:08:57Z</time>
      </trkpt>
      <trkpt lat="43.8255" lon="7.60923">
        <ele>324.58</ele>
        <time>2018-10-06T10:08:58Z</time>
      </trkpt>
      <trkpt lat="43.82539" lon="7.60929">
        <ele>321.22</ele>
        <time>2018-10-06T10:09:00Z</time>
      </trkpt>
      <trkpt lat="43.82525" lon="7.6094">
        <ele>316.89</ele>
        <time>2018-10-06T10:09:03Z</time>
      </trkpt>
      <trkpt lat="43.82511" lon="7.60958">
        <ele>312.09</ele>
        <time>2018-10-06T10:09:06Z</time>
      </trkpt>
      <trkpt lat="43.82498" lon="7.60969">
        <ele>309.2</ele>
        <time>2018-10-06T10:09:10Z</time>
      </trkpt>
      <trkpt lat="43.82496" lon="7.60971">
        <ele>309.2</ele>
        <time>2018-10-06T10:09:22Z</time>
      </trkpt>
      <trkpt lat="43.82489" lon="7.60977">
        <ele>306.8</ele>
        <time>2018-10-06T10:09:29Z</time>
      </trkpt>
      <trkpt lat="43.82483" lon="7.60979">
        <ele>305.84</ele>
        <time>2018-10-06T10:09:30Z</time>
      </trkpt>
      <trkpt lat="43.82478" lon="7.60984">
        <ele>303.91</ele>
        <time>2018-10-06T10:09:31Z</time>
      </trkpt>
      <trkpt lat="43.82472" lon="7.6099">
        <ele>301.99</ele>
        <time>2018-10-06T10:09:32Z</time>
      </trkpt>
      <trkpt lat="43.82467" lon="7.60997">
        <ele>300.55</ele>
        <time>2018-10-06T10:09:33Z</time>
      </trkpt>
      <trkpt lat="43.8246" lon="7.61004">
        <ele>300.07</ele>
        <time>2018-10-06T10:09:34Z</time>
      </trkpt>
      <trkpt lat="43.82454" lon="7.61011">
        <ele>298.63</ele>
        <time>2018-10-06T10:09:35Z</time>
      </trkpt>
      <trkpt lat="43.82449" lon="7.61019">
        <ele>298.63</ele>
        <time>2018-10-06T10:09:36Z</time>
      </trkpt>
      <trkpt lat="43.8244" lon="7.61034">
        <ele>296.7</ele>
        <time>2018-10-06T10:09:38Z</time>
      </trkpt>
      <trkpt lat="43.82434" lon="7.61042">
        <ele>295.26</ele>
        <time>2018-10-06T10:09:39Z</time>
      </trkpt>
      <trkpt lat="43.82428" lon="7.61049">
        <ele>294.3</ele>
        <time>2018-10-06T10:09:40Z</time>
      </trkpt>
      <trkpt lat="43.82422" lon="7.61058">
        <ele>294.3</ele>
        <time>2018-10-06T10:09:41Z</time>
      </trkpt>
      <trkpt lat="43.82416" lon="7.61067">
        <ele>292.86</ele>
        <time>2018-10-06T10:09:42Z</time>
      </trkpt>
      <trkpt lat="43.82411" lon="7.61076">
        <ele>292.38</ele>
        <time>2018-10-06T10:09:43Z</time>
      </trkpt>
      <trkpt lat="43.82406" lon="7.61083">
        <ele>291.42</ele>
        <time>2018-10-06T10:09:44Z</time>
      </trkpt>
      <trkpt lat="43.82404" lon="7.61091">
        <ele>291.42</ele>
        <time>2018-10-06T10:09:45Z</time>
      </trkpt>
      <trkpt lat="43.82401" lon="7.61099">
        <ele>291.42</ele>
        <time>2018-10-06T10:09:46Z</time>
      </trkpt>
      <trkpt lat="43.82398" lon="7.61106">
        <ele>289.97</ele>
        <time>2018-10-06T10:09:47Z</time>
      </trkpt>
      <trkpt lat="43.82393" lon="7.61112">
        <ele>288.53</ele>
        <time>2018-10-06T10:09:48Z</time>
      </trkpt>
      <trkpt lat="43.82388" lon="7.61118">
        <ele>286.13</ele>
        <time>2018-10-06T10:09:49Z</time>
      </trkpt>
      <trkpt lat="43.82381" lon="7.61124">
        <ele>283.73</ele>
        <time>2018-10-06T10:09:50Z</time>
      </trkpt>
      <trkpt lat="43.82367" lon="7.61137">
        <ele>281.8</ele>
        <time>2018-10-06T10:09:52Z</time>
      </trkpt>
      <trkpt lat="43.82358" lon="7.61145">
        <ele>281.32</ele>
        <time>2018-10-06T10:09:54Z</time>
      </trkpt>
      <trkpt lat="43.82353" lon="7.61147">
        <ele>279.4</ele>
        <time>2018-10-06T10:09:55Z</time>
      </trkpt>
      <trkpt lat="43.82347" lon="7.61151">
        <ele>277.96</ele>
        <time>2018-10-06T10:09:56Z</time>
      </trkpt>
      <trkpt lat="43.82342" lon="7.61155">
        <ele>277.48</ele>
        <time>2018-10-06T10:09:57Z</time>
      </trkpt>
      <trkpt lat="43.82337" lon="7.6116">
        <ele>277.48</ele>
        <time>2018-10-06T10:09:58Z</time>
      </trkpt>
      <trkpt lat="43.82334" lon="7.61165">
        <ele>277.48</ele>
        <time>2018-10-06T10:09:59Z</time>
      </trkpt>
      <trkpt lat="43.82332" lon="7.61169">
        <ele>277.48</ele>
        <time>2018-10-06T10:10:00Z</time>
      </trkpt>
      <trkpt lat="43.82329" lon="7.61173">
        <ele>277.48</ele>
        <time>2018-10-06T10:10:01Z</time>
      </trkpt>
      <trkpt lat="43.82324" lon="7.61177">
        <ele>277.48</ele>
        <time>2018-10-06T10:10:02Z</time>
      </trkpt>
      <trkpt lat="43.8232" lon="7.61182">
        <ele>276.52</ele>
        <time>2018-10-06T10:10:03Z</time>
      </trkpt>
      <trkpt lat="43.82317" lon="7.61187">
        <ele>276.52</ele>
        <time>2018-10-06T10:10:04Z</time>
      </trkpt>
      <trkpt lat="43.82313" lon="7.61192">
        <ele>276.52</ele>
        <time>2018-10-06T10:10:05Z</time>
      </trkpt>
      <trkpt lat="43.82311" lon="7.61197">
        <ele>276.52</ele>
        <time>2018-10-06T10:10:06Z</time>
      </trkpt>
      <trkpt lat="43.82308" lon="7.61201">
        <ele>276.52</ele>
        <time>2018-10-06T10:10:07Z</time>
      </trkpt>
      <trkpt lat="43.82306" lon="7.61204">
        <ele>277.96</ele>
        <time>2018-10-06T10:10:08Z</time>
      </trkpt>
      <trkpt lat="43.82302" lon="7.61207">
        <ele>277.96</ele>
        <time>2018-10-06T10:10:09Z</time>
      </trkpt>
      <trkpt lat="43.82296" lon="7.6121">
        <ele>276.52</ele>
        <time>2018-10-06T10:10:10Z</time>
      </trkpt>
      <trkpt lat="43.82292" lon="7.61214">
        <ele>275.56</ele>
        <time>2018-10-06T10:10:11Z</time>
      </trkpt>
      <trkpt lat="43.82288" lon="7.61219">
        <ele>275.56</ele>
        <time>2018-10-06T10:10:12Z</time>
      </trkpt>
      <trkpt lat="43.82284" lon="7.61225">
        <ele>275.07</ele>
        <time>2018-10-06T10:10:13Z</time>
      </trkpt>
      <trkpt lat="43.8228" lon="7.61231">
        <ele>275.07</ele>
        <time>2018-10-06T10:10:14Z</time>
      </trkpt>
      <trkpt lat="43.82275" lon="7.61236">
        <ele>275.07</ele>
        <time>2018-10-06T10:10:15Z</time>
      </trkpt>
      <trkpt lat="43.82265" lon="7.61246">
        <ele>274.59</ele>
        <time>2018-10-06T10:10:17Z</time>
      </trkpt>
      <trkpt lat="43.82255" lon="7.61253">
        <ele>274.59</ele>
        <time>2018-10-06T10:10:19Z</time>
      </trkpt>
      <trkpt lat="43.82249" lon="7.61256">
        <ele>273.15</ele>
        <time>2018-10-06T10:10:20Z</time>
      </trkpt>
      <trkpt lat="43.82243" lon="7.61258">
        <ele>272.19</ele>
        <time>2018-10-06T10:10:21Z</time>
      </trkpt>
      <trkpt lat="43.82238" lon="7.61261">
        <ele>272.19</ele>
        <time>2018-10-06T10:10:22Z</time>
      </trkpt>
      <trkpt lat="43.82234" lon="7.61265">
        <ele>271.23</ele>
        <time>2018-10-06T10:10:23Z</time>
      </trkpt>
      <trkpt lat="43.8223" lon="7.61268">
        <ele>270.27</ele>
        <time>2018-10-06T10:10:24Z</time>
      </trkpt>
      <trkpt lat="43.82226" lon="7.6127">
        <ele>269.79</ele>
        <time>2018-10-06T10:10:25Z</time>
      </trkpt>
      <trkpt lat="43.82216" lon="7.61272">
        <ele>268.35</ele>
        <time>2018-10-06T10:10:28Z</time>
      </trkpt>
      <trkpt lat="43.82214" lon="7.61272">
        <ele>268.35</ele>
        <time>2018-10-06T10:10:29Z</time>
      </trkpt>
      <trkpt lat="43.82213" lon="7.61273">
        <ele>267.38</ele>
        <time>2018-10-06T10:10:30Z</time>
      </trkpt>
      <trkpt lat="43.8221" lon="7.61272">
        <ele>266.9</ele>
        <time>2018-10-06T10:10:31Z</time>
      </trkpt>
      <trkpt lat="43.82206" lon="7.61272">
        <ele>265.46</ele>
        <time>2018-10-06T10:10:32Z</time>
      </trkpt>
      <trkpt lat="43.82202" lon="7.61274">
        <ele>264.98</ele>
        <time>2018-10-06T10:10:33Z</time>
      </trkpt>
      <trkpt lat="43.82197" lon="7.61276">
        <ele>263.54</ele>
        <time>2018-10-06T10:10:34Z</time>
      </trkpt>
      <trkpt lat="43.82192" lon="7.61276">
        <ele>263.06</ele>
        <time>2018-10-06T10:10:35Z</time>
      </trkpt>
      <trkpt lat="43.82187" lon="7.61276">
        <ele>262.1</ele>
        <time>2018-10-06T10:10:36Z</time>
      </trkpt>
      <trkpt lat="43.82182" lon="7.61277">
        <ele>260.17</ele>
        <time>2018-10-06T10:10:37Z</time>
      </trkpt>
      <trkpt lat="43.82177" lon="7.61276">
        <ele>259.69</ele>
        <time>2018-10-06T10:10:38Z</time>
      </trkpt>
      <trkpt lat="43.82172" lon="7.61277">
        <ele>258.73</ele>
        <time>2018-10-06T10:10:39Z</time>
      </trkpt>
      <trkpt lat="43.82167" lon="7.6128">
        <ele>257.77</ele>
        <time>2018-10-06T10:10:40Z</time>
      </trkpt>
      <trkpt lat="43.82162" lon="7.61283">
        <ele>257.29</ele>
        <time>2018-10-06T10:10:41Z</time>
      </trkpt>
      <trkpt lat="43.82147" lon="7.61294">
        <ele>255.85</ele>
        <time>2018-10-06T10:10:44Z</time>
      </trkpt>
      <trkpt lat="43.82143" lon="7.61296">
        <ele>254.89</ele>
        <time>2018-10-06T10:10:45Z</time>
      </trkpt>
      <trkpt lat="43.82138" lon="7.61297">
        <ele>253.93</ele>
        <time>2018-10-06T10:10:46Z</time>
      </trkpt>
      <trkpt lat="43.82134" lon="7.61299">
        <ele>253.44</ele>
        <time>2018-10-06T10:10:47Z</time>
      </trkpt>
      <trkpt lat="43.82129" lon="7.61301">
        <ele>252.48</ele>
        <time>2018-10-06T10:10:48Z</time>
      </trkpt>
      <trkpt lat="43.82107" lon="7.61311">
        <ele>250.08</ele>
        <time>2018-10-06T10:10:52Z</time>
      </trkpt>
      <trkpt lat="43.82096" lon="7.61319">
        <ele>249.12</ele>
        <time>2018-10-06T10:10:54Z</time>
      </trkpt>
      <trkpt lat="43.82077" lon="7.61327">
        <ele>246.23</ele>
        <time>2018-10-06T10:10:57Z</time>
      </trkpt>
      <trkpt lat="43.82071" lon="7.61327">
        <ele>245.27</ele>
        <time>2018-10-06T10:10:58Z</time>
      </trkpt>
      <trkpt lat="43.82065" lon="7.61327">
        <ele>244.31</ele>
        <time>2018-10-06T10:10:59Z</time>
      </trkpt>
      <trkpt lat="43.82057" lon="7.61329">
        <ele>242.39</ele>
        <time>2018-10-06T10:11:00Z</time>
      </trkpt>
      <trkpt lat="43.82048" lon="7.61333">
        <ele>241.43</ele>
        <time>2018-10-06T10:11:01Z</time>
      </trkpt>
      <trkpt lat="43.82041" lon="7.61338">
        <ele>240.47</ele>
        <time>2018-10-06T10:11:02Z</time>
      </trkpt>
      <trkpt lat="43.82034" lon="7.61344">
        <ele>239.99</ele>
        <time>2018-10-06T10:11:03Z</time>
      </trkpt>
      <trkpt lat="43.82028" lon="7.61351">
        <ele>238.54</ele>
        <time>2018-10-06T10:11:04Z</time>
      </trkpt>
      <trkpt lat="43.82021" lon="7.61357">
        <ele>238.54</ele>
        <time>2018-10-06T10:11:05Z</time>
      </trkpt>
      <trkpt lat="43.82009" lon="7.61367">
        <ele>237.1</ele>
        <time>2018-10-06T10:11:07Z</time>
      </trkpt>
      <trkpt lat="43.8198" lon="7.61384">
        <ele>233.26</ele>
        <time>2018-10-06T10:11:11Z</time>
      </trkpt>
      <trkpt lat="43.81959" lon="7.614">
        <ele>231.33</ele>
        <time>2018-10-06T10:11:14Z</time>
      </trkpt>
      <trkpt lat="43.81946" lon="7.61408">
        <ele>229.41</ele>
        <time>2018-10-06T10:11:16Z</time>
      </trkpt>
      <trkpt lat="43.81941" lon="7.61413">
        <ele>229.41</ele>
        <time>2018-10-06T10:11:17Z</time>
      </trkpt>
      <trkpt lat="43.8193" lon="7.61423">
        <ele>228.93</ele>
        <time>2018-10-06T10:11:19Z</time>
      </trkpt>
      <trkpt lat="43.81926" lon="7.61426">
        <ele>228.93</ele>
        <time>2018-10-06T10:11:20Z</time>
      </trkpt>
      <trkpt lat="43.81921" lon="7.61431">
        <ele>228.45</ele>
        <time>2018-10-06T10:11:25Z</time>
      </trkpt>
      <trkpt lat="43.81912" lon="7.61433">
        <ele>228.93</ele>
        <time>2018-10-06T10:11:34Z</time>
      </trkpt>
      <trkpt lat="43.81905" lon="7.61432">
        <ele>228.45</ele>
        <time>2018-10-06T10:11:52Z</time>
      </trkpt>
      <trkpt lat="43.81901" lon="7.61431">
        <ele>227.97</ele>
        <time>2018-10-06T10:11:53Z</time>
      </trkpt>
      <trkpt lat="43.81897" lon="7.61432">
        <ele>227.01</ele>
        <time>2018-10-06T10:11:54Z</time>
      </trkpt>
      <trkpt lat="43.81892" lon="7.61434">
        <ele>225.57</ele>
        <time>2018-10-06T10:11:55Z</time>
      </trkpt>
      <trkpt lat="43.81887" lon="7.61435">
        <ele>225.09</ele>
        <time>2018-10-06T10:11:56Z</time>
      </trkpt>
      <trkpt lat="43.8188" lon="7.61435">
        <ele>224.12</ele>
        <time>2018-10-06T10:11:57Z</time>
      </trkpt>
      <trkpt lat="43.81874" lon="7.61433">
        <ele>222.2</ele>
        <time>2018-10-06T10:11:58Z</time>
      </trkpt>
      <trkpt lat="43.81866" lon="7.61432">
        <ele>221.24</ele>
        <time>2018-10-06T10:11:59Z</time>
      </trkpt>
      <trkpt lat="43.81858" lon="7.61433">
        <ele>219.8</ele>
        <time>2018-10-06T10:12:00Z</time>
      </trkpt>
      <trkpt lat="43.8185" lon="7.61433">
        <ele>219.32</ele>
        <time>2018-10-06T10:12:01Z</time>
      </trkpt>
      <trkpt lat="43.81835" lon="7.61435">
        <ele>217.4</ele>
        <time>2018-10-06T10:12:03Z</time>
      </trkpt>
      <trkpt lat="43.81821" lon="7.61443">
        <ele>216.91</ele>
        <time>2018-10-06T10:12:05Z</time>
      </trkpt>
      <trkpt lat="43.81817" lon="7.61446">
        <ele>215.47</ele>
        <time>2018-10-06T10:12:06Z</time>
      </trkpt>
      <trkpt lat="43.81813" lon="7.61448">
        <ele>214.51</ele>
        <time>2018-10-06T10:12:07Z</time>
      </trkpt>
      <trkpt lat="43.81809" lon="7.61449">
        <ele>213.07</ele>
        <time>2018-10-06T10:12:08Z</time>
      </trkpt>
      <trkpt lat="43.81804" lon="7.61451">
        <ele>211.63</ele>
        <time>2018-10-06T10:12:09Z</time>
      </trkpt>
      <trkpt lat="43.81799" lon="7.61452">
        <ele>210.19</ele>
        <time>2018-10-06T10:12:10Z</time>
      </trkpt>
      <trkpt lat="43.81794" lon="7.61453">
        <ele>209.22</ele>
        <time>2018-10-06T10:12:11Z</time>
      </trkpt>
      <trkpt lat="43.8179" lon="7.61454">
        <ele>207.78</ele>
        <time>2018-10-06T10:12:12Z</time>
      </trkpt>
      <trkpt lat="43.81786" lon="7.61456">
        <ele>206.82</ele>
        <time>2018-10-06T10:12:13Z</time>
      </trkpt>
      <trkpt lat="43.81782" lon="7.61459">
        <ele>205.86</ele>
        <time>2018-10-06T10:12:14Z</time>
      </trkpt>
      <trkpt lat="43.81777" lon="7.61463">
        <ele>204.9</ele>
        <time>2018-10-06T10:12:15Z</time>
      </trkpt>
      <trkpt lat="43.81768" lon="7.6147">
        <ele>202.01</ele>
        <time>2018-10-06T10:12:17Z</time>
      </trkpt>
      <trkpt lat="43.81763" lon="7.61473">
        <ele>200.57</ele>
        <time>2018-10-06T10:12:18Z</time>
      </trkpt>
      <trkpt lat="43.81759" lon="7.61477">
        <ele>199.61</ele>
        <time>2018-10-06T10:12:19Z</time>
      </trkpt>
      <trkpt lat="43.81755" lon="7.61482">
        <ele>199.61</ele>
        <time>2018-10-06T10:12:20Z</time>
      </trkpt>
      <trkpt lat="43.81753" lon="7.61488">
        <ele>198.17</ele>
        <time>2018-10-06T10:12:21Z</time>
      </trkpt>
      <trkpt lat="43.81748" lon="7.61494">
        <ele>196.25</ele>
        <time>2018-10-06T10:12:23Z</time>
      </trkpt>
      <trkpt lat="43.81745" lon="7.61497">
        <ele>194.8</ele>
        <time>2018-10-06T10:12:24Z</time>
      </trkpt>
      <trkpt lat="43.81741" lon="7.615">
        <ele>194.32</ele>
        <time>2018-10-06T10:12:25Z</time>
      </trkpt>
      <trkpt lat="43.81732" lon="7.6151">
        <ele>192.4</ele>
        <time>2018-10-06T10:12:27Z</time>
      </trkpt>
      <trkpt lat="43.81728" lon="7.61516">
        <ele>191.44</ele>
        <time>2018-10-06T10:12:28Z</time>
      </trkpt>
      <trkpt lat="43.81713" lon="7.61536">
        <ele>187.11</ele>
        <time>2018-10-06T10:12:31Z</time>
      </trkpt>
      <trkpt lat="43.81708" lon="7.61542">
        <ele>187.11</ele>
        <time>2018-10-06T10:12:32Z</time>
      </trkpt>
      <trkpt lat="43.81698" lon="7.61555">
        <ele>184.71</ele>
        <time>2018-10-06T10:12:34Z</time>
      </trkpt>
      <trkpt lat="43.81692" lon="7.61562">
        <ele>183.27</ele>
        <time>2018-10-06T10:12:35Z</time>
      </trkpt>
      <trkpt lat="43.81687" lon="7.61571">
        <ele>182.79</ele>
        <time>2018-10-06T10:12:36Z</time>
      </trkpt>
      <trkpt lat="43.81684" lon="7.6158">
        <ele>181.83</ele>
        <time>2018-10-06T10:12:37Z</time>
      </trkpt>
      <trkpt lat="43.81681" lon="7.61588">
        <ele>181.83</ele>
        <time>2018-10-06T10:12:38Z</time>
      </trkpt>
      <trkpt lat="43.81681" lon="7.61594">
        <ele>181.35</ele>
        <time>2018-10-06T10:12:39Z</time>
      </trkpt>
      <trkpt lat="43.81682" lon="7.61598">
        <ele>180.87</ele>
        <time>2018-10-06T10:12:40Z</time>
      </trkpt>
      <trkpt lat="43.81684" lon="7.61603">
        <ele>180.38</ele>
        <time>2018-10-06T10:12:41Z</time>
      </trkpt>
      <trkpt lat="43.81686" lon="7.61607">
        <ele>180.38</ele>
        <time>2018-10-06T10:12:42Z</time>
      </trkpt>
      <trkpt lat="43.81685" lon="7.61611">
        <ele>179.9</ele>
        <time>2018-10-06T10:12:43Z</time>
      </trkpt>
      <trkpt lat="43.81683" lon="7.61616">
        <ele>179.9</ele>
        <time>2018-10-06T10:12:44Z</time>
      </trkpt>
      <trkpt lat="43.81679" lon="7.6162">
        <ele>179.42</ele>
        <time>2018-10-06T10:12:45Z</time>
      </trkpt>
      <trkpt lat="43.81676" lon="7.61627">
        <ele>178.46</ele>
        <time>2018-10-06T10:12:46Z</time>
      </trkpt>
      <trkpt lat="43.81674" lon="7.61634">
        <ele>177.5</ele>
        <time>2018-10-06T10:12:47Z</time>
      </trkpt>
      <trkpt lat="43.81668" lon="7.61661">
        <ele>175.58</ele>
        <time>2018-10-06T10:12:50Z</time>
      </trkpt>
      <trkpt lat="43.81666" lon="7.6167">
        <ele>175.1</ele>
        <time>2018-10-06T10:12:51Z</time>
      </trkpt>
      <trkpt lat="43.81662" lon="7.61687">
        <ele>173.66</ele>
        <time>2018-10-06T10:12:53Z</time>
      </trkpt>
      <trkpt lat="43.8166" lon="7.61696">
        <ele>173.17</ele>
        <time>2018-10-06T10:12:54Z</time>
      </trkpt>
      <trkpt lat="43.8166" lon="7.61704">
        <ele>172.69</ele>
        <time>2018-10-06T10:12:55Z</time>
      </trkpt>
      <trkpt lat="43.81663" lon="7.61727">
        <ele>171.73</ele>
        <time>2018-10-06T10:12:58Z</time>
      </trkpt>
      <trkpt lat="43.81664" lon="7.61734">
        <ele>171.73</ele>
        <time>2018-10-06T10:12:59Z</time>
      </trkpt>
      <trkpt lat="43.81665" lon="7.61741">
        <ele>171.73</ele>
        <time>2018-10-06T10:13:00Z</time>
      </trkpt>
      <trkpt lat="43.81672" lon="7.61764">
        <ele>169.81</ele>
        <time>2018-10-06T10:13:03Z</time>
      </trkpt>
      <trkpt lat="43.8168" lon="7.61792">
        <ele>167.89</ele>
        <time>2018-10-06T10:13:07Z</time>
      </trkpt>
      <trkpt lat="43.81681" lon="7.618">
        <ele>166.93</ele>
        <time>2018-10-06T10:13:08Z</time>
      </trkpt>
      <trkpt lat="43.81686" lon="7.61815">
        <ele>164.04</ele>
        <time>2018-10-06T10:13:10Z</time>
      </trkpt>
      <trkpt lat="43.81687" lon="7.61824">
        <ele>163.08</ele>
        <time>2018-10-06T10:13:11Z</time>
      </trkpt>
      <trkpt lat="43.81688" lon="7.61831">
        <ele>162.12</ele>
        <time>2018-10-06T10:13:12Z</time>
      </trkpt>
      <trkpt lat="43.81687" lon="7.61837">
        <ele>161.16</ele>
        <time>2018-10-06T10:13:13Z</time>
      </trkpt>
      <trkpt lat="43.81686" lon="7.61842">
        <ele>160.68</ele>
        <time>2018-10-06T10:13:14Z</time>
      </trkpt>
      <trkpt lat="43.81686" lon="7.61846">
        <ele>159.72</ele>
        <time>2018-10-06T10:13:15Z</time>
      </trkpt>
      <trkpt lat="43.81687" lon="7.6185">
        <ele>159.24</ele>
        <time>2018-10-06T10:13:16Z</time>
      </trkpt>
      <trkpt lat="43.81687" lon="7.61854">
        <ele>159.24</ele>
        <time>2018-10-06T10:13:17Z</time>
      </trkpt>
      <trkpt lat="43.81684" lon="7.61859">
        <ele>158.27</ele>
        <time>2018-10-06T10:13:18Z</time>
      </trkpt>
      <trkpt lat="43.8168" lon="7.61866">
        <ele>157.31</ele>
        <time>2018-10-06T10:13:19Z</time>
      </trkpt>
      <trkpt lat="43.81676" lon="7.61872">
        <ele>156.83</ele>
        <time>2018-10-06T10:13:20Z</time>
      </trkpt>
      <trkpt lat="43.81665" lon="7.61896">
        <ele>153.95</ele>
        <time>2018-10-06T10:13:23Z</time>
      </trkpt>
      <trkpt lat="43.81663" lon="7.61904">
        <ele>154.43</ele>
        <time>2018-10-06T10:13:24Z</time>
      </trkpt>
      <trkpt lat="43.81663" lon="7.61912">
        <ele>153.95</ele>
        <time>2018-10-06T10:13:25Z</time>
      </trkpt>
      <trkpt lat="43.81664" lon="7.61918">
        <ele>153.95</ele>
        <time>2018-10-06T10:13:26Z</time>
      </trkpt>
      <trkpt lat="43.81664" lon="7.61926">
        <ele>153.95</ele>
        <time>2018-10-06T10:13:27Z</time>
      </trkpt>
      <trkpt lat="43.81665" lon="7.61933">
        <ele>153.47</ele>
        <time>2018-10-06T10:13:28Z</time>
      </trkpt>
      <trkpt lat="43.81667" lon="7.6194">
        <ele>153.47</ele>
        <time>2018-10-06T10:13:29Z</time>
      </trkpt>
      <trkpt lat="43.81673" lon="7.61948">
        <ele>155.39</ele>
        <time>2018-10-06T10:13:33Z</time>
      </trkpt>
      <trkpt lat="43.81675" lon="7.61952">
        <ele>156.35</ele>
        <time>2018-10-06T10:13:38Z</time>
      </trkpt>
      <trkpt lat="43.81675" lon="7.61957">
        <ele>156.35</ele>
        <time>2018-10-06T10:13:40Z</time>
      </trkpt>
      <trkpt lat="43.81673" lon="7.61962">
        <ele>156.35</ele>
        <time>2018-10-06T10:13:41Z</time>
      </trkpt>
      <trkpt lat="43.81672" lon="7.61968">
        <ele>154.91</ele>
        <time>2018-10-06T10:13:42Z</time>
      </trkpt>
      <trkpt lat="43.81671" lon="7.61974">
        <ele>154.91</ele>
        <time>2018-10-06T10:13:43Z</time>
      </trkpt>
      <trkpt lat="43.81671" lon="7.6198">
        <ele>154.91</ele>
        <time>2018-10-06T10:13:44Z</time>
      </trkpt>
      <trkpt lat="43.81673" lon="7.61985">
        <ele>154.91</ele>
        <time>2018-10-06T10:13:45Z</time>
      </trkpt>
      <trkpt lat="43.81674" lon="7.61989">
        <ele>154.91</ele>
        <time>2018-10-06T10:13:46Z</time>
      </trkpt>
      <trkpt lat="43.81676" lon="7.61992">
        <ele>156.83</ele>
        <time>2018-10-06T10:13:47Z</time>
      </trkpt>
      <trkpt lat="43.81677" lon="7.61994">
        <ele>156.83</ele>
        <time>2018-10-06T10:13:48Z</time>
      </trkpt>
      <trkpt lat="43.81678" lon="7.61997">
        <ele>156.83</ele>
        <time>2018-10-06T10:13:49Z</time>
      </trkpt>
      <trkpt lat="43.81679" lon="7.62">
        <ele>157.31</ele>
        <time>2018-10-06T10:13:50Z</time>
      </trkpt>
      <trkpt lat="43.81681" lon="7.6201">
        <ele>159.24</ele>
        <time>2018-10-06T10:13:59Z</time>
      </trkpt>
      <trkpt lat="43.81682" lon="7.62013">
        <ele>158.27</ele>
        <time>2018-10-06T10:14:17Z</time>
      </trkpt>
      <trkpt lat="43.81688" lon="7.62029">
        <ele>157.79</ele>
        <time>2018-10-06T10:14:34Z</time>
      </trkpt>
      <trkpt lat="43.81694" lon="7.62051">
        <ele>156.35</ele>
        <time>2018-10-06T10:14:39Z</time>
      </trkpt>
      <trkpt lat="43.817" lon="7.62063">
        <ele>155.39</ele>
        <time>2018-10-06T10:14:41Z</time>
      </trkpt>
      <trkpt lat="43.81708" lon="7.62078">
        <ele>155.39</ele>
        <time>2018-10-06T10:14:44Z</time>
      </trkpt>
      <trkpt lat="43.81712" lon="7.62082">
        <ele>155.39</ele>
        <time>2018-10-06T10:14:45Z</time>
      </trkpt>
      <trkpt lat="43.81715" lon="7.62086">
        <ele>155.39</ele>
        <time>2018-10-06T10:14:46Z</time>
      </trkpt>
      <trkpt lat="43.81717" lon="7.62089">
        <ele>157.31</ele>
        <time>2018-10-06T10:14:47Z</time>
      </trkpt>
      <trkpt lat="43.81718" lon="7.62093">
        <ele>158.27</ele>
        <time>2018-10-06T10:14:48Z</time>
      </trkpt>
      <trkpt lat="43.8172" lon="7.62098">
        <ele>158.27</ele>
        <time>2018-10-06T10:14:49Z</time>
      </trkpt>
      <trkpt lat="43.81723" lon="7.62103">
        <ele>158.27</ele>
        <time>2018-10-06T10:14:50Z</time>
      </trkpt>
      <trkpt lat="43.81734" lon="7.6212">
        <ele>158.27</ele>
        <time>2018-10-06T10:14:54Z</time>
      </trkpt>
      <trkpt lat="43.81735" lon="7.62125">
        <ele>158.27</ele>
        <time>2018-10-06T10:14:55Z</time>
      </trkpt>
      <trkpt lat="43.81734" lon="7.6213">
        <ele>156.83</ele>
        <time>2018-10-06T10:14:56Z</time>
      </trkpt>
      <trkpt lat="43.81732" lon="7.62133">
        <ele>155.87</ele>
        <time>2018-10-06T10:14:57Z</time>
      </trkpt>
      <trkpt lat="43.81731" lon="7.62138">
        <ele>154.91</ele>
        <time>2018-10-06T10:14:58Z</time>
      </trkpt>
      <trkpt lat="43.81729" lon="7.62143">
        <ele>153.47</ele>
        <time>2018-10-06T10:14:59Z</time>
      </trkpt>
      <trkpt lat="43.81726" lon="7.62147">
        <ele>152.51</ele>
        <time>2018-10-06T10:15:00Z</time>
      </trkpt>
      <trkpt lat="43.81724" lon="7.6215">
        <ele>151.06</ele>
        <time>2018-10-06T10:15:01Z</time>
      </trkpt>
      <trkpt lat="43.81722" lon="7.62153">
        <ele>149.62</ele>
        <time>2018-10-06T10:15:02Z</time>
      </trkpt>
      <trkpt lat="43.81722" lon="7.62158">
        <ele>148.66</ele>
        <time>2018-10-06T10:15:03Z</time>
      </trkpt>
      <trkpt lat="43.81721" lon="7.62162">
        <ele>147.7</ele>
        <time>2018-10-06T10:15:04Z</time>
      </trkpt>
      <trkpt lat="43.81719" lon="7.62163">
        <ele>146.74</ele>
        <time>2018-10-06T10:15:05Z</time>
      </trkpt>
      <trkpt lat="43.81717" lon="7.62163">
        <ele>145.78</ele>
        <time>2018-10-06T10:15:06Z</time>
      </trkpt>
      <trkpt lat="43.81715" lon="7.62165">
        <ele>145.3</ele>
        <time>2018-10-06T10:15:07Z</time>
      </trkpt>
      <trkpt lat="43.81715" lon="7.62168">
        <ele>144.82</ele>
        <time>2018-10-06T10:15:08Z</time>
      </trkpt>
      <trkpt lat="43.81716" lon="7.62173">
        <ele>144.34</ele>
        <time>2018-10-06T10:15:09Z</time>
      </trkpt>
      <trkpt lat="43.81717" lon="7.62179">
        <ele>143.37</ele>
        <time>2018-10-06T10:15:10Z</time>
      </trkpt>
      <trkpt lat="43.81717" lon="7.62186">
        <ele>141.93</ele>
        <time>2018-10-06T10:15:11Z</time>
      </trkpt>
      <trkpt lat="43.81718" lon="7.62193">
        <ele>140.49</ele>
        <time>2018-10-06T10:15:12Z</time>
      </trkpt>
      <trkpt lat="43.8172" lon="7.62207">
        <ele>137.13</ele>
        <time>2018-10-06T10:15:14Z</time>
      </trkpt>
      <trkpt lat="43.8172" lon="7.62213">
        <ele>135.68</ele>
        <time>2018-10-06T10:15:15Z</time>
      </trkpt>
      <trkpt lat="43.8172" lon="7.6222">
        <ele>134.72</ele>
        <time>2018-10-06T10:15:16Z</time>
      </trkpt>
      <trkpt lat="43.81722" lon="7.62226">
        <ele>133.76</ele>
        <time>2018-10-06T10:15:17Z</time>
      </trkpt>
      <trkpt lat="43.81726" lon="7.62239">
        <ele>132.8</ele>
        <time>2018-10-06T10:15:19Z</time>
      </trkpt>
      <trkpt lat="43.81731" lon="7.62251">
        <ele>132.32</ele>
        <time>2018-10-06T10:15:21Z</time>
      </trkpt>
      <trkpt lat="43.81734" lon="7.62257">
        <ele>131.84</ele>
        <time>2018-10-06T10:15:22Z</time>
      </trkpt>
      <trkpt lat="43.81738" lon="7.62262">
        <ele>131.36</ele>
        <time>2018-10-06T10:15:23Z</time>
      </trkpt>
      <trkpt lat="43.81747" lon="7.62272">
        <ele>130.4</ele>
        <time>2018-10-06T10:15:25Z</time>
      </trkpt>
      <trkpt lat="43.81753" lon="7.62274">
        <ele>130.4</ele>
        <time>2018-10-06T10:15:26Z</time>
      </trkpt>
      <trkpt lat="43.81758" lon="7.62276">
        <ele>130.4</ele>
        <time>2018-10-06T10:15:27Z</time>
      </trkpt>
      <trkpt lat="43.81774" lon="7.62279">
        <ele>127.99</ele>
        <time>2018-10-06T10:15:30Z</time>
      </trkpt>
      <trkpt lat="43.81778" lon="7.62284">
        <ele>126.55</ele>
        <time>2018-10-06T10:15:31Z</time>
      </trkpt>
      <trkpt lat="43.8178" lon="7.6229">
        <ele>125.11</ele>
        <time>2018-10-06T10:15:32Z</time>
      </trkpt>
      <trkpt lat="43.81784" lon="7.62304">
        <ele>122.71</ele>
        <time>2018-10-06T10:15:34Z</time>
      </trkpt>
      <trkpt lat="43.81787" lon="7.6231">
        <ele>121.26</ele>
        <time>2018-10-06T10:15:35Z</time>
      </trkpt>
      <trkpt lat="43.81788" lon="7.62316">
        <ele>120.78</ele>
        <time>2018-10-06T10:15:36Z</time>
      </trkpt>
      <trkpt lat="43.81788" lon="7.62322">
        <ele>120.78</ele>
        <time>2018-10-06T10:15:37Z</time>
      </trkpt>
      <trkpt lat="43.81786" lon="7.62327">
        <ele>121.26</ele>
        <time>2018-10-06T10:15:38Z</time>
      </trkpt>
      <trkpt lat="43.81784" lon="7.62332">
        <ele>121.26</ele>
        <time>2018-10-06T10:15:39Z</time>
      </trkpt>
      <trkpt lat="43.81777" lon="7.62383">
        <ele>120.78</ele>
        <time>2018-10-06T10:15:49Z</time>
      </trkpt>
      <trkpt lat="43.81777" lon="7.62423">
        <ele>118.86</ele>
        <time>2018-10-06T10:15:56Z</time>
      </trkpt>
      <trkpt lat="43.81777" lon="7.6243">
        <ele>118.38</ele>
        <time>2018-10-06T10:15:57Z</time>
      </trkpt>
      <trkpt lat="43.81783" lon="7.62461">
        <ele>114.53</ele>
        <time>2018-10-06T10:16:04Z</time>
      </trkpt>
      <trkpt lat="43.81784" lon="7.62469">
        <ele>114.05</ele>
        <time>2018-10-06T10:16:05Z</time>
      </trkpt>
      <trkpt lat="43.81784" lon="7.62478">
        <ele>113.09</ele>
        <time>2018-10-06T10:16:06Z</time>
      </trkpt>
      <trkpt lat="43.81786" lon="7.62488">
        <ele>112.13</ele>
        <time>2018-10-06T10:16:07Z</time>
      </trkpt>
      <trkpt lat="43.81788" lon="7.62498">
        <ele>111.17</ele>
        <time>2018-10-06T10:16:08Z</time>
      </trkpt>
      <trkpt lat="43.81791" lon="7.62508">
        <ele>111.17</ele>
        <time>2018-10-06T10:16:09Z</time>
      </trkpt>
      <trkpt lat="43.81794" lon="7.62517">
        <ele>111.17</ele>
        <time>2018-10-06T10:16:10Z</time>
      </trkpt>
      <trkpt lat="43.81798" lon="7.62524">
        <ele>111.17</ele>
        <time>2018-10-06T10:16:11Z</time>
      </trkpt>
      <trkpt lat="43.81802" lon="7.6253">
        <ele>112.13</ele>
        <time>2018-10-06T10:16:12Z</time>
      </trkpt>
      <trkpt lat="43.81807" lon="7.62534">
        <ele>112.13</ele>
        <time>2018-10-06T10:16:13Z</time>
      </trkpt>
      <trkpt lat="43.81812" lon="7.62537">
        <ele>113.09</ele>
        <time>2018-10-06T10:16:14Z</time>
      </trkpt>
      <trkpt lat="43.81817" lon="7.6254">
        <ele>113.09</ele>
        <time>2018-10-06T10:16:15Z</time>
      </trkpt>
      <trkpt lat="43.81822" lon="7.62543">
        <ele>113.09</ele>
        <time>2018-10-06T10:16:16Z</time>
      </trkpt>
      <trkpt lat="43.81828" lon="7.62548">
        <ele>111.65</ele>
        <time>2018-10-06T10:16:17Z</time>
      </trkpt>
      <trkpt lat="43.8184" lon="7.62561">
        <ele>108.29</ele>
        <time>2018-10-06T10:16:19Z</time>
      </trkpt>
      <trkpt lat="43.81847" lon="7.62567">
        <ele>106.84</ele>
        <time>2018-10-06T10:16:20Z</time>
      </trkpt>
      <trkpt lat="43.81854" lon="7.6257">
        <ele>105.88</ele>
        <time>2018-10-06T10:16:21Z</time>
      </trkpt>
      <trkpt lat="43.81863" lon="7.62572">
        <ele>105.4</ele>
        <time>2018-10-06T10:16:22Z</time>
      </trkpt>
      <trkpt lat="43.81871" lon="7.62572">
        <ele>103.96</ele>
        <time>2018-10-06T10:16:23Z</time>
      </trkpt>
      <trkpt lat="43.81877" lon="7.62569">
        <ele>103.96</ele>
        <time>2018-10-06T10:16:24Z</time>
      </trkpt>
      <trkpt lat="43.81882" lon="7.62564">
        <ele>103</ele>
        <time>2018-10-06T10:16:25Z</time>
      </trkpt>
      <trkpt lat="43.81885" lon="7.6256">
        <ele>102.52</ele>
        <time>2018-10-06T10:16:26Z</time>
      </trkpt>
      <trkpt lat="43.81888" lon="7.62561">
        <ele>102.04</ele>
        <time>2018-10-06T10:16:27Z</time>
      </trkpt>
      <trkpt lat="43.81888" lon="7.62565">
        <ele>101.56</ele>
        <time>2018-10-06T10:16:28Z</time>
      </trkpt>
      <trkpt lat="43.81885" lon="7.62569">
        <ele>100.6</ele>
        <time>2018-10-06T10:16:29Z</time>
      </trkpt>
      <trkpt lat="43.81882" lon="7.62576">
        <ele>99.63</ele>
        <time>2018-10-06T10:16:30Z</time>
      </trkpt>
      <trkpt lat="43.81878" lon="7.62582">
        <ele>98.67</ele>
        <time>2018-10-06T10:16:31Z</time>
      </trkpt>
      <trkpt lat="43.81872" lon="7.62588">
        <ele>97.71</ele>
        <time>2018-10-06T10:16:32Z</time>
      </trkpt>
      <trkpt lat="43.81865" lon="7.62592">
        <ele>96.27</ele>
        <time>2018-10-06T10:16:33Z</time>
      </trkpt>
      <trkpt lat="43.81858" lon="7.62594">
        <ele>95.79</ele>
        <time>2018-10-06T10:16:34Z</time>
      </trkpt>
      <trkpt lat="43.81851" lon="7.62594">
        <ele>95.31</ele>
        <time>2018-10-06T10:16:35Z</time>
      </trkpt>
      <trkpt lat="43.81844" lon="7.62592">
        <ele>94.35</ele>
        <time>2018-10-06T10:16:36Z</time>
      </trkpt>
      <trkpt lat="43.81836" lon="7.6259">
        <ele>93.39</ele>
        <time>2018-10-06T10:16:37Z</time>
      </trkpt>
      <trkpt lat="43.81828" lon="7.62589">
        <ele>91.94</ele>
        <time>2018-10-06T10:16:38Z</time>
      </trkpt>
      <trkpt lat="43.81819" lon="7.62589">
        <ele>90.02</ele>
        <time>2018-10-06T10:16:39Z</time>
      </trkpt>
      <trkpt lat="43.81811" lon="7.62592">
        <ele>88.58</ele>
        <time>2018-10-06T10:16:40Z</time>
      </trkpt>
      <trkpt lat="43.81803" lon="7.62596">
        <ele>87.14</ele>
        <time>2018-10-06T10:16:41Z</time>
      </trkpt>
      <trkpt lat="43.81796" lon="7.62599">
        <ele>85.69</ele>
        <time>2018-10-06T10:16:42Z</time>
      </trkpt>
      <trkpt lat="43.81788" lon="7.626">
        <ele>83.77</ele>
        <time>2018-10-06T10:16:43Z</time>
      </trkpt>
      <trkpt lat="43.81781" lon="7.62598">
        <ele>81.85</ele>
        <time>2018-10-06T10:16:44Z</time>
      </trkpt>
      <trkpt lat="43.81775" lon="7.62596">
        <ele>81.37</ele>
        <time>2018-10-06T10:16:45Z</time>
      </trkpt>
      <trkpt lat="43.81756" lon="7.62587">
        <ele>78</ele>
        <time>2018-10-06T10:16:49Z</time>
      </trkpt>
      <trkpt lat="43.81741" lon="7.6258">
        <ele>74.16</ele>
        <time>2018-10-06T10:16:51Z</time>
      </trkpt>
      <trkpt lat="43.81733" lon="7.62576">
        <ele>73.2</ele>
        <time>2018-10-06T10:16:52Z</time>
      </trkpt>
      <trkpt lat="43.81726" lon="7.62576">
        <ele>72.24</ele>
        <time>2018-10-06T10:16:53Z</time>
      </trkpt>
      <trkpt lat="43.81721" lon="7.6258">
        <ele>71.27</ele>
        <time>2018-10-06T10:16:54Z</time>
      </trkpt>
      <trkpt lat="43.8172" lon="7.62588">
        <ele>69.83</ele>
        <time>2018-10-06T10:16:55Z</time>
      </trkpt>
      <trkpt lat="43.8172" lon="7.62598">
        <ele>68.39</ele>
        <time>2018-10-06T10:16:56Z</time>
      </trkpt>
      <trkpt lat="43.81721" lon="7.6261">
        <ele>66.47</ele>
        <time>2018-10-06T10:16:57Z</time>
      </trkpt>
      <trkpt lat="43.81721" lon="7.62623">
        <ele>65.03</ele>
        <time>2018-10-06T10:16:58Z</time>
      </trkpt>
      <trkpt lat="43.81719" lon="7.62637">
        <ele>63.58</ele>
        <time>2018-10-06T10:16:59Z</time>
      </trkpt>
      <trkpt lat="43.81717" lon="7.62651">
        <ele>61.66</ele>
        <time>2018-10-06T10:17:00Z</time>
      </trkpt>
      <trkpt lat="43.81715" lon="7.62676">
        <ele>59.74</ele>
        <time>2018-10-06T10:17:02Z</time>
      </trkpt>
      <trkpt lat="43.81715" lon="7.62686">
        <ele>59.26</ele>
        <time>2018-10-06T10:17:03Z</time>
      </trkpt>
      <trkpt lat="43.81716" lon="7.62708">
        <ele>56.37</ele>
        <time>2018-10-06T10:17:05Z</time>
      </trkpt>
      <trkpt lat="43.81714" lon="7.62753">
        <ele>53.01</ele>
        <time>2018-10-06T10:17:09Z</time>
      </trkpt>
      <trkpt lat="43.81714" lon="7.62761">
        <ele>53.01</ele>
        <time>2018-10-06T10:17:10Z</time>
      </trkpt>
      <trkpt lat="43.81712" lon="7.62771">
        <ele>52.53</ele>
        <time>2018-10-06T10:17:16Z</time>
      </trkpt>
      <trkpt lat="43.81711" lon="7.62773">
        <ele>52.53</ele>
        <time>2018-10-06T10:17:31Z</time>
      </trkpt>
      <trkpt lat="43.8171" lon="7.62774">
        <ele>52.53</ele>
        <time>2018-10-06T10:17:32Z</time>
      </trkpt>
      <trkpt lat="43.81711" lon="7.62776">
        <ele>52.53</ele>
        <time>2018-10-06T10:17:33Z</time>
      </trkpt>
      <trkpt lat="43.81713" lon="7.62777">
        <ele>52.53</ele>
        <time>2018-10-06T10:17:34Z</time>
      </trkpt>
      <trkpt lat="43.81715" lon="7.62778">
        <ele>52.53</ele>
        <time>2018-10-06T10:17:35Z</time>
      </trkpt>
      <trkpt lat="43.81718" lon="7.62778">
        <ele>52.05</ele>
        <time>2018-10-06T10:17:36Z</time>
      </trkpt>
      <trkpt lat="43.81748" lon="7.62778">
        <ele>52.05</ele>
        <time>2018-10-06T10:17:49Z</time>
      </trkpt>
      <trkpt lat="43.81748" lon="7.62779">
        <ele>52.05</ele>
        <time>2018-10-06T10:18:00Z</time>
      </trkpt>
      <trkpt lat="43.81747" lon="7.62778">
        <ele>52.05</ele>
        <time>2018-10-06T10:18:31Z</time>
      </trkpt>
      <trkpt lat="43.81747" lon="7.62777">
        <ele>52.05</ele>
        <time>2018-10-06T10:19:05Z</time>
      </trkpt>
      <trkpt lat="43.81747" lon="7.62776">
        <ele>51.57</ele>
        <time>2018-10-06T10:19:37Z</time>
      </trkpt>
      <trkpt lat="43.8175" lon="7.62776">
        <ele>51.57</ele>
        <time>2018-10-06T10:19:55Z</time>
      </trkpt>
      <trkpt lat="43.81752" lon="7.62776">
        <ele>51.57</ele>
        <time>2018-10-06T10:19:56Z</time>
      </trkpt>
      <trkpt lat="43.81754" lon="7.62775">
        <ele>51.57</ele>
        <time>2018-10-06T10:19:57Z</time>
      </trkpt>
      <trkpt lat="43.81757" lon="7.62774">
        <ele>51.57</ele>
        <time>2018-10-06T10:19:58Z</time>
      </trkpt>
      <trkpt lat="43.8176" lon="7.62774">
        <ele>51.57</ele>
        <time>2018-10-06T10:19:59Z</time>
      </trkpt>
      <trkpt lat="43.81764" lon="7.62774">
        <ele>51.57</ele>
        <time>2018-10-06T10:20:00Z</time>
      </trkpt>
      <trkpt lat="43.81768" lon="7.62773">
        <ele>51.57</ele>
        <time>2018-10-06T10:20:01Z</time>
      </trkpt>
      <trkpt lat="43.81772" lon="7.62772">
        <ele>51.57</ele>
        <time>2018-10-06T10:20:02Z</time>
      </trkpt>
      <trkpt lat="43.81811" lon="7.62768">
        <ele>51.57</ele>
        <time>2018-10-06T10:20:12Z</time>
      </trkpt>
      <trkpt lat="43.81815" lon="7.62769">
        <ele>51.57</ele>
        <time>2018-10-06T10:20:13Z</time>
      </trkpt>
      <trkpt lat="43.81819" lon="7.62772">
        <ele>51.57</ele>
        <time>2018-10-06T10:20:14Z</time>
      </trkpt>
      <trkpt lat="43.81834" lon="7.62779">
        <ele>50.61</ele>
        <time>2018-10-06T10:20:21Z</time>
      </trkpt>
      <trkpt lat="43.81835" lon="7.62779">
        <ele>50.61</ele>
        <time>2018-10-06T10:20:22Z</time>
      </trkpt>
      <trkpt lat="43.81835" lon="7.62778">
        <ele>50.13</ele>
        <time>2018-10-06T10:20:23Z</time>
      </trkpt>
      <trkpt lat="43.81831" lon="7.62777">
        <ele>50.13</ele>
        <time>2018-10-06T10:20:26Z</time>
      </trkpt>
      <trkpt lat="43.81829" lon="7.62777">
        <ele>50.13</ele>
        <time>2018-10-06T10:20:27Z</time>
      </trkpt>
      <trkpt lat="43.81827" lon="7.62776">
        <ele>50.13</ele>
        <time>2018-10-06T10:20:28Z</time>
      </trkpt>
      <trkpt lat="43.81824" lon="7.62775">
        <ele>50.13</ele>
        <time>2018-10-06T10:20:29Z</time>
      </trkpt>
      <trkpt lat="43.81818" lon="7.62771">
        <ele>51.57</ele>
        <time>2018-10-06T10:20:33Z</time>
      </trkpt>
      <trkpt lat="43.81818" lon="7.62769">
        <ele>52.05</ele>
        <time>2018-10-06T10:20:34Z</time>
      </trkpt>
      <trkpt lat="43.8182" lon="7.62767">
        <ele>52.05</ele>
        <time>2018-10-06T10:20:35Z</time>
      </trkpt>
      <trkpt lat="43.81822" lon="7.62767">
        <ele>52.05</ele>
        <time>2018-10-06T10:20:36Z</time>
      </trkpt>
      <trkpt lat="43.81825" lon="7.62766">
        <ele>52.05</ele>
        <time>2018-10-06T10:20:37Z</time>
      </trkpt>
      <trkpt lat="43.81828" lon="7.62766">
        <ele>52.05</ele>
        <time>2018-10-06T10:20:38Z</time>
      </trkpt>
      <trkpt lat="43.81831" lon="7.62766">
        <ele>52.53</ele>
        <time>2018-10-06T10:20:39Z</time>
      </trkpt>
      <trkpt lat="43.81895" lon="7.62758">
        <ele>52.53</ele>
        <time>2018-10-06T10:20:54Z</time>
      </trkpt>
      <trkpt lat="43.81988" lon="7.62757">
        <ele>52.53</ele>
        <time>2018-10-06T10:21:13Z</time>
      </trkpt>
      <trkpt lat="43.82075" lon="7.62791">
        <ele>54.93</ele>
        <time>2018-10-06T10:21:31Z</time>
      </trkpt>
      <trkpt lat="43.82158" lon="7.62824">
        <ele>55.41</ele>
        <time>2018-10-06T10:21:48Z</time>
      </trkpt>
      <trkpt lat="43.8225" lon="7.62836">
        <ele>55.41</ele>
        <time>2018-10-06T10:22:03Z</time>
      </trkpt>
      <trkpt lat="43.82271" lon="7.62837">
        <ele>53.97</ele>
        <time>2018-10-06T10:22:06Z</time>
      </trkpt>
      <trkpt lat="43.82431" lon="7.62844">
        <ele>52.05</ele>
        <time>2018-10-06T10:22:28Z</time>
      </trkpt>
      <trkpt lat="43.82537" lon="7.62839">
        <ele>52.05</ele>
        <time>2018-10-06T10:22:43Z</time>
      </trkpt>
      <trkpt lat="43.82618" lon="7.62805">
        <ele>53.49</ele>
        <time>2018-10-06T10:22:56Z</time>
      </trkpt>
      <trkpt lat="43.82723" lon="7.62769">
        <ele>55.41</ele>
        <time>2018-10-06T10:23:15Z</time>
      </trkpt>
      <trkpt lat="43.82768" lon="7.62778">
        <ele>57.34</ele>
        <time>2018-10-06T10:23:25Z</time>
      </trkpt>
      <trkpt lat="43.82793" lon="7.62784">
        <ele>58.3</ele>
        <time>2018-10-06T10:23:31Z</time>
      </trkpt>
      <trkpt lat="43.82808" lon="7.62795">
        <ele>59.26</ele>
        <time>2018-10-06T10:23:35Z</time>
      </trkpt>
      <trkpt lat="43.8281" lon="7.62799">
        <ele>59.26</ele>
        <time>2018-10-06T10:23:36Z</time>
      </trkpt>
      <trkpt lat="43.82812" lon="7.62804">
        <ele>59.26</ele>
        <time>2018-10-06T10:23:37Z</time>
      </trkpt>
      <trkpt lat="43.82814" lon="7.6281">
        <ele>59.26</ele>
        <time>2018-10-06T10:23:38Z</time>
      </trkpt>
      <trkpt lat="43.82816" lon="7.62816">
        <ele>59.26</ele>
        <time>2018-10-06T10:23:39Z</time>
      </trkpt>
      <trkpt lat="43.8282" lon="7.6283">
        <ele>57.34</ele>
        <time>2018-10-06T10:23:41Z</time>
      </trkpt>
      <trkpt lat="43.82822" lon="7.62839">
        <ele>56.86</ele>
        <time>2018-10-06T10:23:42Z</time>
      </trkpt>
      <trkpt lat="43.82826" lon="7.62846">
        <ele>56.86</ele>
        <time>2018-10-06T10:23:43Z</time>
      </trkpt>
      <trkpt lat="43.8283" lon="7.62852">
        <ele>56.37</ele>
        <time>2018-10-06T10:23:44Z</time>
      </trkpt>
      <trkpt lat="43.82836" lon="7.62856">
        <ele>55.89</ele>
        <time>2018-10-06T10:23:45Z</time>
      </trkpt>
      <trkpt lat="43.82843" lon="7.6286">
        <ele>54.93</ele>
        <time>2018-10-06T10:23:46Z</time>
      </trkpt>
      <trkpt lat="43.8287" lon="7.62882">
        <ele>52.05</ele>
        <time>2018-10-06T10:23:50Z</time>
      </trkpt>
      <trkpt lat="43.82875" lon="7.62892">
        <ele>51.09</ele>
        <time>2018-10-06T10:23:51Z</time>
      </trkpt>
      <trkpt lat="43.82878" lon="7.62904">
        <ele>50.13</ele>
        <time>2018-10-06T10:23:52Z</time>
      </trkpt>
      <trkpt lat="43.8288" lon="7.62917">
        <ele>49.65</ele>
        <time>2018-10-06T10:23:53Z</time>
      </trkpt>
      <trkpt lat="43.82881" lon="7.6293">
        <ele>48.68</ele>
        <time>2018-10-06T10:23:54Z</time>
      </trkpt>
      <trkpt lat="43.82889" lon="7.62984">
        <ele>45.8</ele>
        <time>2018-10-06T10:23:58Z</time>
      </trkpt>
      <trkpt lat="43.82889" lon="7.62996">
        <ele>45.8</ele>
        <time>2018-10-06T10:23:59Z</time>
      </trkpt>
      <trkpt lat="43.82888" lon="7.63008">
        <ele>44.84</ele>
        <time>2018-10-06T10:24:00Z</time>
      </trkpt>
      <trkpt lat="43.82886" lon="7.63019">
        <ele>44.84</ele>
        <time>2018-10-06T10:24:01Z</time>
      </trkpt>
      <trkpt lat="43.82874" lon="7.63061">
        <ele>44.36</ele>
        <time>2018-10-06T10:24:05Z</time>
      </trkpt>
      <trkpt lat="43.8287" lon="7.63071">
        <ele>43.88</ele>
        <time>2018-10-06T10:24:06Z</time>
      </trkpt>
      <trkpt lat="43.82841" lon="7.63135">
        <ele>43.4</ele>
        <time>2018-10-06T10:24:13Z</time>
      </trkpt>
      <trkpt lat="43.82841" lon="7.63144">
        <ele>42.92</ele>
        <time>2018-10-06T10:24:14Z</time>
      </trkpt>
      <trkpt lat="43.82843" lon="7.63152">
        <ele>42.92</ele>
        <time>2018-10-06T10:24:15Z</time>
      </trkpt>
      <trkpt lat="43.82848" lon="7.63157">
        <ele>42.92</ele>
        <time>2018-10-06T10:24:16Z</time>
      </trkpt>
      <trkpt lat="43.82853" lon="7.63161">
        <ele>42.92</ele>
        <time>2018-10-06T10:24:17Z</time>
      </trkpt>
      <trkpt lat="43.82859" lon="7.63163">
        <ele>42.92</ele>
        <time>2018-10-06T10:24:18Z</time>
      </trkpt>
      <trkpt lat="43.82865" lon="7.63166">
        <ele>42.92</ele>
        <time>2018-10-06T10:24:19Z</time>
      </trkpt>
      <trkpt lat="43.8287" lon="7.63168">
        <ele>42.92</ele>
        <time>2018-10-06T10:24:20Z</time>
      </trkpt>
      <trkpt lat="43.82876" lon="7.6317">
        <ele>42.92</ele>
        <time>2018-10-06T10:24:21Z</time>
      </trkpt>
      <trkpt lat="43.82968" lon="7.63206">
        <ele>44.84</ele>
        <time>2018-10-06T10:24:38Z</time>
      </trkpt>
      <trkpt lat="43.82974" lon="7.63206">
        <ele>44.84</ele>
        <time>2018-10-06T10:24:39Z</time>
      </trkpt>
      <trkpt lat="43.82979" lon="7.63206">
        <ele>44.84</ele>
        <time>2018-10-06T10:24:40Z</time>
      </trkpt>
      <trkpt lat="43.83057" lon="7.63168">
        <ele>46.28</ele>
        <time>2018-10-06T10:24:56Z</time>
      </trkpt>
      <trkpt lat="43.83115" lon="7.63105">
        <ele>48.2</ele>
        <time>2018-10-06T10:25:11Z</time>
      </trkpt>
      <trkpt lat="43.83138" lon="7.63106">
        <ele>51.09</ele>
        <time>2018-10-06T10:25:22Z</time>
      </trkpt>
      <trkpt lat="43.83182" lon="7.63121">
        <ele>50.61</ele>
        <time>2018-10-06T10:25:34Z</time>
      </trkpt>
      <trkpt lat="43.83186" lon="7.6312">
        <ele>50.61</ele>
        <time>2018-10-06T10:25:35Z</time>
      </trkpt>
      <trkpt lat="43.8319" lon="7.63117">
        <ele>49.16</ele>
        <time>2018-10-06T10:25:36Z</time>
      </trkpt>
      <trkpt lat="43.83194" lon="7.63111">
        <ele>48.68</ele>
        <time>2018-10-06T10:25:37Z</time>
      </trkpt>
      <trkpt lat="43.83196" lon="7.63103">
        <ele>48.2</ele>
        <time>2018-10-06T10:25:38Z</time>
      </trkpt>
      <trkpt lat="43.83199" lon="7.63092">
        <ele>47.72</ele>
        <time>2018-10-06T10:25:39Z</time>
      </trkpt>
      <trkpt lat="43.832" lon="7.63083">
        <ele>46.76</ele>
        <time>2018-10-06T10:25:40Z</time>
      </trkpt>
      <trkpt lat="43.83202" lon="7.63074">
        <ele>46.76</ele>
        <time>2018-10-06T10:25:41Z</time>
      </trkpt>
      <trkpt lat="43.83207" lon="7.63054">
        <ele>46.28</ele>
        <time>2018-10-06T10:25:43Z</time>
      </trkpt>
      <trkpt lat="43.83209" lon="7.63047">
        <ele>46.28</ele>
        <time>2018-10-06T10:25:44Z</time>
      </trkpt>
      <trkpt lat="43.83238" lon="7.62997">
        <ele>46.28</ele>
        <time>2018-10-06T10:25:52Z</time>
      </trkpt>
      <trkpt lat="43.83271" lon="7.62972">
        <ele>47.24</ele>
        <time>2018-10-06T10:25:59Z</time>
      </trkpt>
      <trkpt lat="43.83291" lon="7.62966">
        <ele>47.72</ele>
        <time>2018-10-06T10:26:03Z</time>
      </trkpt>
      <trkpt lat="43.83314" lon="7.62962">
        <ele>48.2</ele>
        <time>2018-10-06T10:26:08Z</time>
      </trkpt>
      <trkpt lat="43.83339" lon="7.62961">
        <ele>48.68</ele>
        <time>2018-10-06T10:26:13Z</time>
      </trkpt>
      <trkpt lat="43.83379" lon="7.62955">
        <ele>49.16</ele>
        <time>2018-10-06T10:26:21Z</time>
      </trkpt>
      <trkpt lat="43.83414" lon="7.62947">
        <ele>49.16</ele>
        <time>2018-10-06T10:26:28Z</time>
      </trkpt>
      <trkpt lat="43.83435" lon="7.62948">
        <ele>49.16</ele>
        <time>2018-10-06T10:26:32Z</time>
      </trkpt>
      <trkpt lat="43.8345" lon="7.62953">
        <ele>50.13</ele>
        <time>2018-10-06T10:26:35Z</time>
      </trkpt>
      <trkpt lat="43.83463" lon="7.62962">
        <ele>49.65</ele>
        <time>2018-10-06T10:26:38Z</time>
      </trkpt>
      <trkpt lat="43.83493" lon="7.62993">
        <ele>51.09</ele>
        <time>2018-10-06T10:26:46Z</time>
      </trkpt>
      <trkpt lat="43.83566" lon="7.63035">
        <ele>52.05</ele>
        <time>2018-10-06T10:27:02Z</time>
      </trkpt>
      <trkpt lat="43.83598" lon="7.63054">
        <ele>52.05</ele>
        <time>2018-10-06T10:27:09Z</time>
      </trkpt>
      <trkpt lat="43.83621" lon="7.63078">
        <ele>55.41</ele>
        <time>2018-10-06T10:27:20Z</time>
      </trkpt>
      <trkpt lat="43.83638" lon="7.63097">
        <ele>58.78</ele>
        <time>2018-10-06T10:27:35Z</time>
      </trkpt>
      <trkpt lat="43.83648" lon="7.63106">
        <ele>60.22</ele>
        <time>2018-10-06T10:27:43Z</time>
      </trkpt>
      <trkpt lat="43.8366" lon="7.63115">
        <ele>62.14</ele>
        <time>2018-10-06T10:27:53Z</time>
      </trkpt>
      <trkpt lat="43.83681" lon="7.63122">
        <ele>65.51</ele>
        <time>2018-10-06T10:28:08Z</time>
      </trkpt>
      <trkpt lat="43.83697" lon="7.63121">
        <ele>66.47</ele>
        <time>2018-10-06T10:28:17Z</time>
      </trkpt>
      <trkpt lat="43.83735" lon="7.63104">
        <ele>67.91</ele>
        <time>2018-10-06T10:28:33Z</time>
      </trkpt>
      <trkpt lat="43.83756" lon="7.63088">
        <ele>67.91</ele>
        <time>2018-10-06T10:28:40Z</time>
      </trkpt>
      <trkpt lat="43.83768" lon="7.63082">
        <ele>66.95</ele>
        <time>2018-10-06T10:28:43Z</time>
      </trkpt>
      <trkpt lat="43.83777" lon="7.63077">
        <ele>65.99</ele>
        <time>2018-10-06T10:28:45Z</time>
      </trkpt>
      <trkpt lat="43.83804" lon="7.63066">
        <ele>64.55</ele>
        <time>2018-10-06T10:28:50Z</time>
      </trkpt>
      <trkpt lat="43.83867" lon="7.6302">
        <ele>65.51</ele>
        <time>2018-10-06T10:29:05Z</time>
      </trkpt>
      <trkpt lat="43.83889" lon="7.62995">
        <ele>68.87</ele>
        <time>2018-10-06T10:29:16Z</time>
      </trkpt>
      <trkpt lat="43.83908" lon="7.62981">
        <ele>71.76</ele>
        <time>2018-10-06T10:29:28Z</time>
      </trkpt>
      <trkpt lat="43.83936" lon="7.62972">
        <ele>75.12</ele>
        <time>2018-10-06T10:29:43Z</time>
      </trkpt>
      <trkpt lat="43.83964" lon="7.62963">
        <ele>77.52</ele>
        <time>2018-10-06T10:29:57Z</time>
      </trkpt>
      <trkpt lat="43.84002" lon="7.62932">
        <ele>78.48</ele>
        <time>2018-10-06T10:30:13Z</time>
      </trkpt>
      <trkpt lat="43.84018" lon="7.62918">
        <ele>78.97</ele>
        <time>2018-10-06T10:30:24Z</time>
      </trkpt>
      <trkpt lat="43.84029" lon="7.62911">
        <ele>77.04</ele>
        <time>2018-10-06T10:30:27Z</time>
      </trkpt>
      <trkpt lat="43.84038" lon="7.62903">
        <ele>75.6</ele>
        <time>2018-10-06T10:30:29Z</time>
      </trkpt>
      <trkpt lat="43.84079" lon="7.6288">
        <ele>72.24</ele>
        <time>2018-10-06T10:30:35Z</time>
      </trkpt>
      <trkpt lat="43.84087" lon="7.62878">
        <ele>71.27</ele>
        <time>2018-10-06T10:30:36Z</time>
      </trkpt>
      <trkpt lat="43.84126" lon="7.62895">
        <ele>68.39</ele>
        <time>2018-10-06T10:30:42Z</time>
      </trkpt>
      <trkpt lat="43.84155" lon="7.6293">
        <ele>66.47</ele>
        <time>2018-10-06T10:30:48Z</time>
      </trkpt>
      <trkpt lat="43.84166" lon="7.62906">
        <ele>65.03</ele>
        <time>2018-10-06T10:30:54Z</time>
      </trkpt>
      <trkpt lat="43.84152" lon="7.6287">
        <ele>64.07</ele>
        <time>2018-10-06T10:31:00Z</time>
      </trkpt>
      <trkpt lat="43.84154" lon="7.62854">
        <ele>63.1</ele>
        <time>2018-10-06T10:31:02Z</time>
      </trkpt>
      <trkpt lat="43.84151" lon="7.62806">
        <ele>59.26</ele>
        <time>2018-10-06T10:31:07Z</time>
      </trkpt>
      <trkpt lat="43.84149" lon="7.62796">
        <ele>58.3</ele>
        <time>2018-10-06T10:31:08Z</time>
      </trkpt>
      <trkpt lat="43.84149" lon="7.6278">
        <ele>57.34</ele>
        <time>2018-10-06T10:31:10Z</time>
      </trkpt>
      <trkpt lat="43.84157" lon="7.62774">
        <ele>56.86</ele>
        <time>2018-10-06T10:31:12Z</time>
      </trkpt>
      <trkpt lat="43.84167" lon="7.62774">
        <ele>56.37</ele>
        <time>2018-10-06T10:31:14Z</time>
      </trkpt>
      <trkpt lat="43.84207" lon="7.62772">
        <ele>59.26</ele>
        <time>2018-10-06T10:31:25Z</time>
      </trkpt>
      <trkpt lat="43.8422" lon="7.62769">
        <ele>62.14</ele>
        <time>2018-10-06T10:31:34Z</time>
      </trkpt>
      <trkpt lat="43.84226" lon="7.62773">
        <ele>62.62</ele>
        <time>2018-10-06T10:31:38Z</time>
      </trkpt>
      <trkpt lat="43.84266" lon="7.628">
        <ele>64.07</ele>
        <time>2018-10-06T10:31:54Z</time>
      </trkpt>
      <trkpt lat="43.84275" lon="7.62801">
        <ele>64.07</ele>
        <time>2018-10-06T10:31:56Z</time>
      </trkpt>
      <trkpt lat="43.84298" lon="7.62788">
        <ele>59.74</ele>
        <time>2018-10-06T10:32:00Z</time>
      </trkpt>
      <trkpt lat="43.84312" lon="7.62773">
        <ele>57.34</ele>
        <time>2018-10-06T10:32:02Z</time>
      </trkpt>
      <trkpt lat="43.84327" lon="7.62762">
        <ele>56.37</ele>
        <time>2018-10-06T10:32:04Z</time>
      </trkpt>
      <trkpt lat="43.84355" lon="7.62745">
        <ele>56.86</ele>
        <time>2018-10-06T10:32:08Z</time>
      </trkpt>
      <trkpt lat="43.84442" lon="7.62668">
        <ele>56.86</ele>
        <time>2018-10-06T10:32:24Z</time>
      </trkpt>
      <trkpt lat="43.845" lon="7.62626">
        <ele>57.82</ele>
        <time>2018-10-06T10:32:35Z</time>
      </trkpt>
      <trkpt lat="43.846" lon="7.62574">
        <ele>58.78</ele>
        <time>2018-10-06T10:32:54Z</time>
      </trkpt>
      <trkpt lat="43.84694" lon="7.62528">
        <ele>59.74</ele>
        <time>2018-10-06T10:33:12Z</time>
      </trkpt>
      <trkpt lat="43.84784" lon="7.62517">
        <ele>60.22</ele>
        <time>2018-10-06T10:33:28Z</time>
      </trkpt>
      <trkpt lat="43.84807" lon="7.62515">
        <ele>60.22</ele>
        <time>2018-10-06T10:33:32Z</time>
      </trkpt>
      <trkpt lat="43.8485" lon="7.62507">
        <ele>60.7</ele>
        <time>2018-10-06T10:33:40Z</time>
      </trkpt>
      <trkpt lat="43.84855" lon="7.62507">
        <ele>60.7</ele>
        <time>2018-10-06T10:33:41Z</time>
      </trkpt>
      <trkpt lat="43.8486" lon="7.62509">
        <ele>60.7</ele>
        <time>2018-10-06T10:33:42Z</time>
      </trkpt>
      <trkpt lat="43.84864" lon="7.62511">
        <ele>60.7</ele>
        <time>2018-10-06T10:33:43Z</time>
      </trkpt>
      <trkpt lat="43.84868" lon="7.62515">
        <ele>60.7</ele>
        <time>2018-10-06T10:33:44Z</time>
      </trkpt>
      <trkpt lat="43.8487" lon="7.62519">
        <ele>60.7</ele>
        <time>2018-10-06T10:33:45Z</time>
      </trkpt>
      <trkpt lat="43.84873" lon="7.62523">
        <ele>61.18</ele>
        <time>2018-10-06T10:33:46Z</time>
      </trkpt>
      <trkpt lat="43.84877" lon="7.6253">
        <ele>61.18</ele>
        <time>2018-10-06T10:33:48Z</time>
      </trkpt>
      <trkpt lat="43.84875" lon="7.62532">
        <ele>61.66</ele>
        <time>2018-10-06T10:33:49Z</time>
      </trkpt>
      <trkpt lat="43.84874" lon="7.62532">
        <ele>61.66</ele>
        <time>2018-10-06T10:33:50Z</time>
      </trkpt>
      <trkpt lat="43.84872" lon="7.62531">
        <ele>62.62</ele>
        <time>2018-10-06T10:33:51Z</time>
      </trkpt>
      <trkpt lat="43.84871" lon="7.6253">
        <ele>62.62</ele>
        <time>2018-10-06T10:33:52Z</time>
      </trkpt>
      <trkpt lat="43.84858" lon="7.62524">
        <ele>64.55</ele>
        <time>2018-10-06T10:34:00Z</time>
      </trkpt>
      <trkpt lat="43.84856" lon="7.62524">
        <ele>65.03</ele>
        <time>2018-10-06T10:34:01Z</time>
      </trkpt>
      <trkpt lat="43.84829" lon="7.62524">
        <ele>67.91</ele>
        <time>2018-10-06T10:34:15Z</time>
      </trkpt>
      <trkpt lat="43.84796" lon="7.62534">
        <ele>71.27</ele>
        <time>2018-10-06T10:34:32Z</time>
      </trkpt>
      <trkpt lat="43.84754" lon="7.62548">
        <ele>72.72</ele>
        <time>2018-10-06T10:34:50Z</time>
      </trkpt>
      <trkpt lat="43.84727" lon="7.62575">
        <ele>74.16</ele>
        <time>2018-10-06T10:35:03Z</time>
      </trkpt>
      <trkpt lat="43.84694" lon="7.62606">
        <ele>75.12</ele>
        <time>2018-10-06T10:35:18Z</time>
      </trkpt>
      <trkpt lat="43.84665" lon="7.6265">
        <ele>78</ele>
        <time>2018-10-06T10:35:35Z</time>
      </trkpt>
      <trkpt lat="43.84646" lon="7.62691">
        <ele>80.41</ele>
        <time>2018-10-06T10:35:51Z</time>
      </trkpt>
      <trkpt lat="43.84635" lon="7.62723">
        <ele>83.29</ele>
        <time>2018-10-06T10:36:06Z</time>
      </trkpt>
      <trkpt lat="43.84636" lon="7.62725">
        <ele>83.77</ele>
        <time>2018-10-06T10:36:07Z</time>
      </trkpt>
      <trkpt lat="43.84638" lon="7.62728">
        <ele>83.77</ele>
        <time>2018-10-06T10:36:09Z</time>
      </trkpt>
      <trkpt lat="43.8464" lon="7.62729">
        <ele>84.25</ele>
        <time>2018-10-06T10:36:10Z</time>
      </trkpt>
      <trkpt lat="43.84641" lon="7.62729">
        <ele>84.25</ele>
        <time>2018-10-06T10:36:11Z</time>
      </trkpt>
      <trkpt lat="43.84663" lon="7.62708">
        <ele>87.14</ele>
        <time>2018-10-06T10:36:26Z</time>
      </trkpt>
      <trkpt lat="43.8468" lon="7.62686">
        <ele>90.5</ele>
        <time>2018-10-06T10:36:40Z</time>
      </trkpt>
      <trkpt lat="43.84687" lon="7.62676">
        <ele>91.46</ele>
        <time>2018-10-06T10:36:46Z</time>
      </trkpt>
      <trkpt lat="43.84688" lon="7.62675">
        <ele>91.94</ele>
        <time>2018-10-06T10:36:47Z</time>
      </trkpt>
      <trkpt lat="43.84689" lon="7.62673">
        <ele>91.94</ele>
        <time>2018-10-06T10:36:48Z</time>
      </trkpt>
      <trkpt lat="43.8469" lon="7.62671">
        <ele>91.94</ele>
        <time>2018-10-06T10:36:49Z</time>
      </trkpt>
      <trkpt lat="43.84692" lon="7.62669">
        <ele>92.42</ele>
        <time>2018-10-06T10:36:50Z</time>
      </trkpt>
      <trkpt lat="43.84709" lon="7.62651">
        <ele>95.79</ele>
        <time>2018-10-06T10:37:03Z</time>
      </trkpt>
      <trkpt lat="43.84731" lon="7.62644">
        <ele>98.67</ele>
        <time>2018-10-06T10:37:18Z</time>
      </trkpt>
      <trkpt lat="43.84757" lon="7.62642">
        <ele>101.08</ele>
        <time>2018-10-06T10:37:35Z</time>
      </trkpt>
      <trkpt lat="43.84783" lon="7.62635">
        <ele>104.44</ele>
        <time>2018-10-06T10:37:52Z</time>
      </trkpt>
      <trkpt lat="43.84805" lon="7.62637">
        <ele>107.81</ele>
        <time>2018-10-06T10:38:07Z</time>
      </trkpt>
      <trkpt lat="43.84822" lon="7.62647">
        <ele>108.77</ele>
        <time>2018-10-06T10:38:18Z</time>
      </trkpt>
      <trkpt lat="43.84822" lon="7.6265">
        <ele>108.77</ele>
        <time>2018-10-06T10:38:19Z</time>
      </trkpt>
      <trkpt lat="43.84822" lon="7.62651">
        <ele>109.25</ele>
        <time>2018-10-06T10:38:20Z</time>
      </trkpt>
      <trkpt lat="43.8482" lon="7.62652">
        <ele>109.25</ele>
        <time>2018-10-06T10:38:21Z</time>
      </trkpt>
      <trkpt lat="43.84819" lon="7.62653">
        <ele>109.73</ele>
        <time>2018-10-06T10:38:22Z</time>
      </trkpt>
      <trkpt lat="43.84817" lon="7.62652">
        <ele>109.73</ele>
        <time>2018-10-06T10:38:23Z</time>
      </trkpt>
      <trkpt lat="43.84816" lon="7.62652">
        <ele>110.21</ele>
        <time>2018-10-06T10:38:24Z</time>
      </trkpt>
      <trkpt lat="43.84814" lon="7.62651">
        <ele>110.21</ele>
        <time>2018-10-06T10:38:25Z</time>
      </trkpt>
      <trkpt lat="43.84813" lon="7.6265">
        <ele>110.69</ele>
        <time>2018-10-06T10:38:26Z</time>
      </trkpt>
      <trkpt lat="43.84811" lon="7.62649">
        <ele>110.69</ele>
        <time>2018-10-06T10:38:27Z</time>
      </trkpt>
      <trkpt lat="43.8481" lon="7.62648">
        <ele>110.69</ele>
        <time>2018-10-06T10:38:28Z</time>
      </trkpt>
      <trkpt lat="43.84808" lon="7.62646">
        <ele>111.17</ele>
        <time>2018-10-06T10:38:29Z</time>
      </trkpt>
      <trkpt lat="43.84781" lon="7.62657">
        <ele>113.09</ele>
        <time>2018-10-06T10:38:46Z</time>
      </trkpt>
      <trkpt lat="43.84767" lon="7.62669">
        <ele>115.01</ele>
        <time>2018-10-06T10:38:56Z</time>
      </trkpt>
      <trkpt lat="43.84765" lon="7.62669">
        <ele>115.01</ele>
        <time>2018-10-06T10:38:57Z</time>
      </trkpt>
      <trkpt lat="43.84764" lon="7.6267">
        <ele>115.01</ele>
        <time>2018-10-06T10:38:58Z</time>
      </trkpt>
      <trkpt lat="43.84762" lon="7.6267">
        <ele>115.5</ele>
        <time>2018-10-06T10:38:59Z</time>
      </trkpt>
      <trkpt lat="43.8476" lon="7.62671">
        <ele>115.5</ele>
        <time>2018-10-06T10:39:00Z</time>
      </trkpt>
      <trkpt lat="43.84759" lon="7.62672">
        <ele>115.98</ele>
        <time>2018-10-06T10:39:01Z</time>
      </trkpt>
      <trkpt lat="43.8473" lon="7.62685">
        <ele>118.38</ele>
        <time>2018-10-06T10:39:18Z</time>
      </trkpt>
      <trkpt lat="43.84718" lon="7.62726">
        <ele>119.34</ele>
        <time>2018-10-06T10:39:33Z</time>
      </trkpt>
      <trkpt lat="43.84705" lon="7.62759">
        <ele>121.26</ele>
        <time>2018-10-06T10:39:45Z</time>
      </trkpt>
      <trkpt lat="43.84663" lon="7.62791">
        <ele>123.67</ele>
        <time>2018-10-06T10:40:05Z</time>
      </trkpt>
      <trkpt lat="43.84655" lon="7.62826">
        <ele>125.11</ele>
        <time>2018-10-06T10:40:17Z</time>
      </trkpt>
      <trkpt lat="43.84659" lon="7.62865">
        <ele>125.59</ele>
        <time>2018-10-06T10:40:27Z</time>
      </trkpt>
      <trkpt lat="43.84657" lon="7.62868">
        <ele>125.59</ele>
        <time>2018-10-06T10:40:28Z</time>
      </trkpt>
      <trkpt lat="43.84655" lon="7.6287">
        <ele>126.07</ele>
        <time>2018-10-06T10:40:29Z</time>
      </trkpt>
      <trkpt lat="43.84652" lon="7.62872">
        <ele>126.07</ele>
        <time>2018-10-06T10:40:30Z</time>
      </trkpt>
      <trkpt lat="43.8465" lon="7.62872">
        <ele>127.03</ele>
        <time>2018-10-06T10:40:31Z</time>
      </trkpt>
      <trkpt lat="43.84648" lon="7.62873">
        <ele>127.03</ele>
        <time>2018-10-06T10:40:32Z</time>
      </trkpt>
      <trkpt lat="43.84646" lon="7.62874">
        <ele>127.03</ele>
        <time>2018-10-06T10:40:33Z</time>
      </trkpt>
      <trkpt lat="43.84644" lon="7.62875">
        <ele>127.51</ele>
        <time>2018-10-06T10:40:34Z</time>
      </trkpt>
      <trkpt lat="43.84642" lon="7.62876">
        <ele>127.51</ele>
        <time>2018-10-06T10:40:35Z</time>
      </trkpt>
      <trkpt lat="43.8464" lon="7.62876">
        <ele>127.99</ele>
        <time>2018-10-06T10:40:36Z</time>
      </trkpt>
      <trkpt lat="43.84605" lon="7.62878">
        <ele>130.4</ele>
        <time>2018-10-06T10:40:52Z</time>
      </trkpt>
      <trkpt lat="43.84562" lon="7.62872">
        <ele>132.8</ele>
        <time>2018-10-06T10:41:10Z</time>
      </trkpt>
      <trkpt lat="43.84531" lon="7.62895">
        <ele>135.2</ele>
        <time>2018-10-06T10:41:24Z</time>
      </trkpt>
      <trkpt lat="43.84497" lon="7.62918">
        <ele>138.09</ele>
        <time>2018-10-06T10:41:40Z</time>
      </trkpt>
      <trkpt lat="43.84469" lon="7.62929">
        <ele>140.01</ele>
        <time>2018-10-06T10:41:53Z</time>
      </trkpt>
      <trkpt lat="43.84431" lon="7.62926">
        <ele>141.93</ele>
        <time>2018-10-06T10:42:07Z</time>
      </trkpt>
      <trkpt lat="43.84382" lon="7.62944">
        <ele>143.85</ele>
        <time>2018-10-06T10:42:25Z</time>
      </trkpt>
      <trkpt lat="43.84339" lon="7.6297">
        <ele>146.74</ele>
        <time>2018-10-06T10:42:44Z</time>
      </trkpt>
      <trkpt lat="43.84342" lon="7.62999">
        <ele>148.18</ele>
        <time>2018-10-06T10:42:54Z</time>
      </trkpt>
      <trkpt lat="43.84371" lon="7.63028">
        <ele>150.58</ele>
        <time>2018-10-06T10:43:09Z</time>
      </trkpt>
      <trkpt lat="43.84408" lon="7.63066">
        <ele>153.47</ele>
        <time>2018-10-06T10:43:28Z</time>
      </trkpt>
      <trkpt lat="43.84437" lon="7.63112">
        <ele>156.35</ele>
        <time>2018-10-06T10:43:46Z</time>
      </trkpt>
      <trkpt lat="43.84455" lon="7.63151">
        <ele>158.27</ele>
        <time>2018-10-06T10:44:00Z</time>
      </trkpt>
      <trkpt lat="43.84475" lon="7.63196">
        <ele>160.68</ele>
        <time>2018-10-06T10:44:16Z</time>
      </trkpt>
      <trkpt lat="43.84498" lon="7.63224">
        <ele>162.6</ele>
        <time>2018-10-06T10:44:29Z</time>
      </trkpt>
      <trkpt lat="43.84503" lon="7.63259">
        <ele>164.52</ele>
        <time>2018-10-06T10:44:41Z</time>
      </trkpt>
      <trkpt lat="43.84511" lon="7.63303">
        <ele>167.41</ele>
        <time>2018-10-06T10:44:58Z</time>
      </trkpt>
      <trkpt lat="43.84534" lon="7.63337">
        <ele>170.29</ele>
        <time>2018-10-06T10:45:15Z</time>
      </trkpt>
      <trkpt lat="43.84549" lon="7.63367">
        <ele>173.17</ele>
        <time>2018-10-06T10:45:31Z</time>
      </trkpt>
      <trkpt lat="43.8456" lon="7.63403">
        <ele>176.06</ele>
        <time>2018-10-06T10:45:47Z</time>
      </trkpt>
      <trkpt lat="43.84575" lon="7.63436">
        <ele>179.42</ele>
        <time>2018-10-06T10:46:03Z</time>
      </trkpt>
      <trkpt lat="43.84589" lon="7.6346">
        <ele>181.35</ele>
        <time>2018-10-06T10:46:16Z</time>
      </trkpt>
      <trkpt lat="43.84611" lon="7.63478">
        <ele>184.23</ele>
        <time>2018-10-06T10:46:32Z</time>
      </trkpt>
      <trkpt lat="43.84609" lon="7.63502">
        <ele>186.63</ele>
        <time>2018-10-06T10:46:45Z</time>
      </trkpt>
      <trkpt lat="43.84605" lon="7.63533">
        <ele>190</ele>
        <time>2018-10-06T10:47:01Z</time>
      </trkpt>
      <trkpt lat="43.84613" lon="7.63564">
        <ele>192.88</ele>
        <time>2018-10-06T10:47:18Z</time>
      </trkpt>
      <trkpt lat="43.84625" lon="7.63583">
        <ele>195.77</ele>
        <time>2018-10-06T10:47:31Z</time>
      </trkpt>
      <trkpt lat="43.84642" lon="7.63607">
        <ele>199.13</ele>
        <time>2018-10-06T10:47:48Z</time>
      </trkpt>
      <trkpt lat="43.84656" lon="7.63629">
        <ele>201.53</ele>
        <time>2018-10-06T10:48:03Z</time>
      </trkpt>
      <trkpt lat="43.84659" lon="7.63631">
        <ele>202.01</ele>
        <time>2018-10-06T10:48:06Z</time>
      </trkpt>
      <trkpt lat="43.8466" lon="7.63632">
        <ele>202.01</ele>
        <time>2018-10-06T10:48:07Z</time>
      </trkpt>
      <trkpt lat="43.84662" lon="7.63633">
        <ele>202.49</ele>
        <time>2018-10-06T10:48:08Z</time>
      </trkpt>
      <trkpt lat="43.84663" lon="7.63633">
        <ele>202.49</ele>
        <time>2018-10-06T10:48:09Z</time>
      </trkpt>
      <trkpt lat="43.84665" lon="7.63634">
        <ele>202.49</ele>
        <time>2018-10-06T10:48:10Z</time>
      </trkpt>
      <trkpt lat="43.84666" lon="7.63635">
        <ele>202.98</ele>
        <time>2018-10-06T10:48:11Z</time>
      </trkpt>
      <trkpt lat="43.84667" lon="7.63636">
        <ele>202.98</ele>
        <time>2018-10-06T10:48:12Z</time>
      </trkpt>
      <trkpt lat="43.84669" lon="7.63636">
        <ele>202.98</ele>
        <time>2018-10-06T10:48:13Z</time>
      </trkpt>
      <trkpt lat="43.8467" lon="7.63637">
        <ele>202.98</ele>
        <time>2018-10-06T10:48:14Z</time>
      </trkpt>
      <trkpt lat="43.84671" lon="7.63639">
        <ele>203.46</ele>
        <time>2018-10-06T10:48:15Z</time>
      </trkpt>
      <trkpt lat="43.84672" lon="7.6364">
        <ele>203.46</ele>
        <time>2018-10-06T10:48:16Z</time>
      </trkpt>
      <trkpt lat="43.84673" lon="7.63642">
        <ele>203.94</ele>
        <time>2018-10-06T10:48:17Z</time>
      </trkpt>
      <trkpt lat="43.84674" lon="7.63643">
        <ele>203.94</ele>
        <time>2018-10-06T10:48:18Z</time>
      </trkpt>
      <trkpt lat="43.84675" lon="7.63645">
        <ele>203.94</ele>
        <time>2018-10-06T10:48:19Z</time>
      </trkpt>
      <trkpt lat="43.84676" lon="7.63647">
        <ele>204.42</ele>
        <time>2018-10-06T10:48:20Z</time>
      </trkpt>
      <trkpt lat="43.84687" lon="7.63675">
        <ele>207.3</ele>
        <time>2018-10-06T10:48:37Z</time>
      </trkpt>
      <trkpt lat="43.84696" lon="7.63685">
        <ele>208.26</ele>
        <time>2018-10-06T10:48:46Z</time>
      </trkpt>
      <trkpt lat="43.84697" lon="7.63685">
        <ele>208.74</ele>
        <time>2018-10-06T10:48:47Z</time>
      </trkpt>
      <trkpt lat="43.84698" lon="7.63686">
        <ele>208.74</ele>
        <time>2018-10-06T10:48:48Z</time>
      </trkpt>
      <trkpt lat="43.847" lon="7.63687">
        <ele>208.74</ele>
        <time>2018-10-06T10:48:49Z</time>
      </trkpt>
      <trkpt lat="43.84701" lon="7.63688">
        <ele>209.22</ele>
        <time>2018-10-06T10:48:50Z</time>
      </trkpt>
      <trkpt lat="43.84703" lon="7.63689">
        <ele>209.22</ele>
        <time>2018-10-06T10:48:51Z</time>
      </trkpt>
      <trkpt lat="43.84704" lon="7.63689">
        <ele>209.22</ele>
        <time>2018-10-06T10:48:52Z</time>
      </trkpt>
      <trkpt lat="43.84724" lon="7.63699">
        <ele>212.11</ele>
        <time>2018-10-06T10:49:07Z</time>
      </trkpt>
      <trkpt lat="43.84746" lon="7.63697">
        <ele>214.99</ele>
        <time>2018-10-06T10:49:22Z</time>
      </trkpt>
      <trkpt lat="43.84769" lon="7.63696">
        <ele>217.88</ele>
        <time>2018-10-06T10:49:38Z</time>
      </trkpt>
      <trkpt lat="43.8479" lon="7.63699">
        <ele>221.24</ele>
        <time>2018-10-06T10:49:53Z</time>
      </trkpt>
      <trkpt lat="43.84811" lon="7.63707">
        <ele>224.12</ele>
        <time>2018-10-06T10:50:09Z</time>
      </trkpt>
      <trkpt lat="43.84816" lon="7.63705">
        <ele>224.61</ele>
        <time>2018-10-06T10:50:13Z</time>
      </trkpt>
      <trkpt lat="43.84817" lon="7.63704">
        <ele>225.09</ele>
        <time>2018-10-06T10:50:14Z</time>
      </trkpt>
      <trkpt lat="43.84818" lon="7.63703">
        <ele>225.09</ele>
        <time>2018-10-06T10:50:15Z</time>
      </trkpt>
      <trkpt lat="43.8482" lon="7.63682">
        <ele>227.49</ele>
        <time>2018-10-06T10:50:29Z</time>
      </trkpt>
      <trkpt lat="43.84816" lon="7.63678">
        <ele>227.97</ele>
        <time>2018-10-06T10:50:33Z</time>
      </trkpt>
      <trkpt lat="43.84814" lon="7.63678">
        <ele>228.45</ele>
        <time>2018-10-06T10:50:34Z</time>
      </trkpt>
      <trkpt lat="43.84812" lon="7.63677">
        <ele>228.93</ele>
        <time>2018-10-06T10:50:36Z</time>
      </trkpt>
      <trkpt lat="43.8481" lon="7.63676">
        <ele>228.93</ele>
        <time>2018-10-06T10:50:37Z</time>
      </trkpt>
      <trkpt lat="43.84809" lon="7.63676">
        <ele>229.41</ele>
        <time>2018-10-06T10:50:38Z</time>
      </trkpt>
      <trkpt lat="43.84808" lon="7.63675">
        <ele>229.41</ele>
        <time>2018-10-06T10:50:39Z</time>
      </trkpt>
      <trkpt lat="43.84806" lon="7.63675">
        <ele>229.41</ele>
        <time>2018-10-06T10:50:40Z</time>
      </trkpt>
      <trkpt lat="43.84782" lon="7.63661">
        <ele>232.78</ele>
        <time>2018-10-06T10:50:58Z</time>
      </trkpt>
      <trkpt lat="43.84762" lon="7.63653">
        <ele>235.18</ele>
        <time>2018-10-06T10:51:13Z</time>
      </trkpt>
      <trkpt lat="43.84748" lon="7.63651">
        <ele>236.62</ele>
        <time>2018-10-06T10:51:23Z</time>
      </trkpt>
      <trkpt lat="43.84736" lon="7.63624">
        <ele>239.99</ele>
        <time>2018-10-06T10:51:39Z</time>
      </trkpt>
      <trkpt lat="43.84733" lon="7.63593">
        <ele>242.87</ele>
        <time>2018-10-06T10:51:55Z</time>
      </trkpt>
      <trkpt lat="43.84732" lon="7.63582">
        <ele>242.87</ele>
        <time>2018-10-06T10:52:01Z</time>
      </trkpt>
      <trkpt lat="43.84731" lon="7.6358">
        <ele>242.87</ele>
        <time>2018-10-06T10:52:02Z</time>
      </trkpt>
      <trkpt lat="43.84731" lon="7.63578">
        <ele>242.87</ele>
        <time>2018-10-06T10:52:03Z</time>
      </trkpt>
      <trkpt lat="43.8473" lon="7.63576">
        <ele>243.35</ele>
        <time>2018-10-06T10:52:04Z</time>
      </trkpt>
      <trkpt lat="43.84729" lon="7.63574">
        <ele>243.35</ele>
        <time>2018-10-06T10:52:05Z</time>
      </trkpt>
      <trkpt lat="43.84728" lon="7.63572">
        <ele>243.35</ele>
        <time>2018-10-06T10:52:06Z</time>
      </trkpt>
      <trkpt lat="43.84728" lon="7.6357">
        <ele>243.83</ele>
        <time>2018-10-06T10:52:07Z</time>
      </trkpt>
      <trkpt lat="43.84726" lon="7.63568">
        <ele>243.83</ele>
        <time>2018-10-06T10:52:08Z</time>
      </trkpt>
      <trkpt lat="43.84725" lon="7.63567">
        <ele>244.31</ele>
        <time>2018-10-06T10:52:09Z</time>
      </trkpt>
      <trkpt lat="43.84724" lon="7.63565">
        <ele>244.31</ele>
        <time>2018-10-06T10:52:10Z</time>
      </trkpt>
      <trkpt lat="43.84723" lon="7.63563">
        <ele>244.31</ele>
        <time>2018-10-06T10:52:11Z</time>
      </trkpt>
      <trkpt lat="43.84722" lon="7.63562">
        <ele>244.79</ele>
        <time>2018-10-06T10:52:12Z</time>
      </trkpt>
      <trkpt lat="43.84721" lon="7.6356">
        <ele>244.79</ele>
        <time>2018-10-06T10:52:13Z</time>
      </trkpt>
      <trkpt lat="43.8472" lon="7.63559">
        <ele>245.27</ele>
        <time>2018-10-06T10:52:14Z</time>
      </trkpt>
      <trkpt lat="43.84704" lon="7.63538">
        <ele>247.68</ele>
        <time>2018-10-06T10:52:28Z</time>
      </trkpt>
      <trkpt lat="43.84714" lon="7.63512">
        <ele>251.04</ele>
        <time>2018-10-06T10:52:44Z</time>
      </trkpt>
      <trkpt lat="43.84714" lon="7.6351">
        <ele>251.04</ele>
        <time>2018-10-06T10:52:45Z</time>
      </trkpt>
      <trkpt lat="43.84715" lon="7.63509">
        <ele>251.52</ele>
        <time>2018-10-06T10:52:46Z</time>
      </trkpt>
      <trkpt lat="43.84716" lon="7.63507">
        <ele>251.52</ele>
        <time>2018-10-06T10:52:47Z</time>
      </trkpt>
      <trkpt lat="43.84716" lon="7.63505">
        <ele>251.52</ele>
        <time>2018-10-06T10:52:48Z</time>
      </trkpt>
      <trkpt lat="43.84717" lon="7.63504">
        <ele>252</ele>
        <time>2018-10-06T10:52:49Z</time>
      </trkpt>
      <trkpt lat="43.84718" lon="7.63502">
        <ele>252</ele>
        <time>2018-10-06T10:52:50Z</time>
      </trkpt>
      <trkpt lat="43.84719" lon="7.63501">
        <ele>252</ele>
        <time>2018-10-06T10:52:51Z</time>
      </trkpt>
      <trkpt lat="43.84726" lon="7.63483">
        <ele>253.93</ele>
        <time>2018-10-06T10:53:02Z</time>
      </trkpt>
      <trkpt lat="43.84727" lon="7.63482">
        <ele>253.93</ele>
        <time>2018-10-06T10:53:03Z</time>
      </trkpt>
      <trkpt lat="43.84728" lon="7.63481">
        <ele>253.93</ele>
        <time>2018-10-06T10:53:04Z</time>
      </trkpt>
      <trkpt lat="43.84729" lon="7.63479">
        <ele>254.89</ele>
        <time>2018-10-06T10:53:05Z</time>
      </trkpt>
      <trkpt lat="43.84729" lon="7.63477">
        <ele>254.89</ele>
        <time>2018-10-06T10:53:06Z</time>
      </trkpt>
      <trkpt lat="43.84732" lon="7.63453">
        <ele>256.81</ele>
        <time>2018-10-06T10:53:19Z</time>
      </trkpt>
      <trkpt lat="43.84731" lon="7.63451">
        <ele>256.81</ele>
        <time>2018-10-06T10:53:20Z</time>
      </trkpt>
      <trkpt lat="43.84731" lon="7.63449">
        <ele>257.29</ele>
        <time>2018-10-06T10:53:21Z</time>
      </trkpt>
      <trkpt lat="43.8473" lon="7.63447">
        <ele>257.29</ele>
        <time>2018-10-06T10:53:22Z</time>
      </trkpt>
      <trkpt lat="43.8473" lon="7.63445">
        <ele>257.29</ele>
        <time>2018-10-06T10:53:23Z</time>
      </trkpt>
      <trkpt lat="43.84729" lon="7.63443">
        <ele>257.29</ele>
        <time>2018-10-06T10:53:24Z</time>
      </trkpt>
      <trkpt lat="43.84728" lon="7.6344">
        <ele>257.77</ele>
        <time>2018-10-06T10:53:25Z</time>
      </trkpt>
      <trkpt lat="43.84718" lon="7.63405">
        <ele>260.17</ele>
        <time>2018-10-06T10:53:41Z</time>
      </trkpt>
      <trkpt lat="43.84691" lon="7.63373">
        <ele>263.06</ele>
        <time>2018-10-06T10:54:00Z</time>
      </trkpt>
      <trkpt lat="43.84681" lon="7.63335">
        <ele>264.98</ele>
        <time>2018-10-06T10:54:16Z</time>
      </trkpt>
      <trkpt lat="43.84674" lon="7.63292">
        <ele>267.86</ele>
        <time>2018-10-06T10:54:32Z</time>
      </trkpt>
      <trkpt lat="43.84656" lon="7.63254">
        <ele>270.27</ele>
        <time>2018-10-06T10:54:49Z</time>
      </trkpt>
      <trkpt lat="43.84656" lon="7.6325">
        <ele>270.27</ele>
        <time>2018-10-06T10:54:51Z</time>
      </trkpt>
      <trkpt lat="43.84657" lon="7.63248">
        <ele>270.75</ele>
        <time>2018-10-06T10:54:52Z</time>
      </trkpt>
      <trkpt lat="43.84658" lon="7.63248">
        <ele>270.75</ele>
        <time>2018-10-06T10:54:53Z</time>
      </trkpt>
      <trkpt lat="43.8466" lon="7.63248">
        <ele>270.75</ele>
        <time>2018-10-06T10:54:54Z</time>
      </trkpt>
      <trkpt lat="43.84661" lon="7.63248">
        <ele>270.75</ele>
        <time>2018-10-06T10:54:55Z</time>
      </trkpt>
      <trkpt lat="43.84663" lon="7.63249">
        <ele>271.23</ele>
        <time>2018-10-06T10:54:56Z</time>
      </trkpt>
      <trkpt lat="43.84664" lon="7.63251">
        <ele>271.23</ele>
        <time>2018-10-06T10:54:57Z</time>
      </trkpt>
      <trkpt lat="43.84682" lon="7.63281">
        <ele>274.59</ele>
        <time>2018-10-06T10:55:14Z</time>
      </trkpt>
      <trkpt lat="43.84696" lon="7.63319">
        <ele>277.48</ele>
        <time>2018-10-06T10:55:31Z</time>
      </trkpt>
      <trkpt lat="43.84713" lon="7.63344">
        <ele>280.36</ele>
        <time>2018-10-06T10:55:46Z</time>
      </trkpt>
      <trkpt lat="43.84738" lon="7.63363">
        <ele>282.77</ele>
        <time>2018-10-06T10:56:02Z</time>
      </trkpt>
      <trkpt lat="43.84752" lon="7.63377">
        <ele>286.13</ele>
        <time>2018-10-06T10:56:15Z</time>
      </trkpt>
      <trkpt lat="43.84764" lon="7.63396">
        <ele>289.49</ele>
        <time>2018-10-06T10:56:29Z</time>
      </trkpt>
      <trkpt lat="43.84777" lon="7.63418">
        <ele>292.86</ele>
        <time>2018-10-06T10:56:45Z</time>
      </trkpt>
      <trkpt lat="43.84778" lon="7.63419">
        <ele>292.86</ele>
        <time>2018-10-06T10:56:46Z</time>
      </trkpt>
      <trkpt lat="43.84786" lon="7.63442">
        <ele>295.74</ele>
        <time>2018-10-06T10:57:01Z</time>
      </trkpt>
      <trkpt lat="43.84786" lon="7.63444">
        <ele>295.74</ele>
        <time>2018-10-06T10:57:02Z</time>
      </trkpt>
      <trkpt lat="43.84786" lon="7.63446">
        <ele>295.74</ele>
        <time>2018-10-06T10:57:03Z</time>
      </trkpt>
      <trkpt lat="43.84792" lon="7.63469">
        <ele>299.11</ele>
        <time>2018-10-06T10:57:17Z</time>
      </trkpt>
      <trkpt lat="43.84806" lon="7.63491">
        <ele>301.51</ele>
        <time>2018-10-06T10:57:33Z</time>
      </trkpt>
      <trkpt lat="43.84822" lon="7.63509">
        <ele>304.88</ele>
        <time>2018-10-06T10:57:49Z</time>
      </trkpt>
      <trkpt lat="43.84843" lon="7.63511">
        <ele>307.28</ele>
        <time>2018-10-06T10:58:05Z</time>
      </trkpt>
      <trkpt lat="43.84866" lon="7.63499">
        <ele>310.16</ele>
        <time>2018-10-06T10:58:23Z</time>
      </trkpt>
      <trkpt lat="43.84888" lon="7.635">
        <ele>313.53</ele>
        <time>2018-10-06T10:58:39Z</time>
      </trkpt>
      <trkpt lat="43.84899" lon="7.63503">
        <ele>314.49</ele>
        <time>2018-10-06T10:58:47Z</time>
      </trkpt>
      <trkpt lat="43.84918" lon="7.63514">
        <ele>317.85</ele>
        <time>2018-10-06T10:59:02Z</time>
      </trkpt>
      <trkpt lat="43.84934" lon="7.6353">
        <ele>320.26</ele>
        <time>2018-10-06T10:59:17Z</time>
      </trkpt>
      <trkpt lat="43.84957" lon="7.63546">
        <ele>322.66</ele>
        <time>2018-10-06T10:59:33Z</time>
      </trkpt>
      <trkpt lat="43.84987" lon="7.6355">
        <ele>325.54</ele>
        <time>2018-10-06T10:59:51Z</time>
      </trkpt>
      <trkpt lat="43.84988" lon="7.63549">
        <ele>325.54</ele>
        <time>2018-10-06T10:59:52Z</time>
      </trkpt>
      <trkpt lat="43.84989" lon="7.63548">
        <ele>325.54</ele>
        <time>2018-10-06T10:59:53Z</time>
      </trkpt>
      <trkpt lat="43.84989" lon="7.63545">
        <ele>325.54</ele>
        <time>2018-10-06T11:00:03Z</time>
      </trkpt>
      <trkpt lat="43.84989" lon="7.63544">
        <ele>325.54</ele>
        <time>2018-10-06T11:00:14Z</time>
      </trkpt>
      <trkpt lat="43.84991" lon="7.63542">
        <ele>325.06</ele>
        <time>2018-10-06T11:00:54Z</time>
      </trkpt>
      <trkpt lat="43.84994" lon="7.63544">
        <ele>325.06</ele>
        <time>2018-10-06T11:01:27Z</time>
      </trkpt>
      <trkpt lat="43.84991" lon="7.63545">
        <ele>325.06</ele>
        <time>2018-10-06T11:01:56Z</time>
      </trkpt>
      <trkpt lat="43.8499" lon="7.63547">
        <ele>325.06</ele>
        <time>2018-10-06T11:02:24Z</time>
      </trkpt>
      <trkpt lat="43.84991" lon="7.63546">
        <ele>325.06</ele>
        <time>2018-10-06T11:02:51Z</time>
      </trkpt>
      <trkpt lat="43.84993" lon="7.63543">
        <ele>325.06</ele>
        <time>2018-10-06T11:03:25Z</time>
      </trkpt>
      <trkpt lat="43.84992" lon="7.63545">
        <ele>325.06</ele>
        <time>2018-10-06T11:03:57Z</time>
      </trkpt>
      <trkpt lat="43.84991" lon="7.63544">
        <ele>325.06</ele>
        <time>2018-10-06T11:04:24Z</time>
      </trkpt>
      <trkpt lat="43.8499" lon="7.63544">
        <ele>325.54</ele>
        <time>2018-10-06T11:04:52Z</time>
      </trkpt>
      <trkpt lat="43.8499" lon="7.63544">
        <ele>325.54</ele>
        <time>2018-10-06T11:04:59Z</time>
      </trkpt>
      <trkpt lat="43.8499" lon="7.63544">
        <ele>325.54</ele>
        <time>2018-10-06T11:05:13Z</time>
      </trkpt>
      <trkpt lat="43.84989" lon="7.63545">
        <ele>325.54</ele>
        <time>2018-10-06T11:05:41Z</time>
      </trkpt>
      <trkpt lat="43.84991" lon="7.63545">
        <ele>325.54</ele>
        <time>2018-10-06T11:06:12Z</time>
      </trkpt>
      <trkpt lat="43.84988" lon="7.63543">
        <ele>325.54</ele>
        <time>2018-10-06T11:06:25Z</time>
      </trkpt>
      <trkpt lat="43.84978" lon="7.63507">
        <ele>325.54</ele>
        <time>2018-10-06T11:06:37Z</time>
      </trkpt>
      <trkpt lat="43.84969" lon="7.6345">
        <ele>324.58</ele>
        <time>2018-10-06T11:06:52Z</time>
      </trkpt>
      <trkpt lat="43.84946" lon="7.63418">
        <ele>321.7</ele>
        <time>2018-10-06T11:07:01Z</time>
      </trkpt>
      <trkpt lat="43.84939" lon="7.63405">
        <ele>320.26</ele>
        <time>2018-10-06T11:07:04Z</time>
      </trkpt>
      <trkpt lat="43.84937" lon="7.634">
        <ele>319.78</ele>
        <time>2018-10-06T11:07:06Z</time>
      </trkpt>
      <trkpt lat="43.84931" lon="7.63397">
        <ele>319.3</ele>
        <time>2018-10-06T11:07:19Z</time>
      </trkpt>
      <trkpt lat="43.84922" lon="7.63371">
        <ele>314.01</ele>
        <time>2018-10-06T11:07:23Z</time>
      </trkpt>
      <trkpt lat="43.84922" lon="7.63355">
        <ele>312.09</ele>
        <time>2018-10-06T11:07:25Z</time>
      </trkpt>
      <trkpt lat="43.84925" lon="7.63336">
        <ele>309.68</ele>
        <time>2018-10-06T11:07:27Z</time>
      </trkpt>
      <trkpt lat="43.84927" lon="7.63316">
        <ele>308.72</ele>
        <time>2018-10-06T11:07:29Z</time>
      </trkpt>
      <trkpt lat="43.84928" lon="7.63306">
        <ele>308.24</ele>
        <time>2018-10-06T11:07:30Z</time>
      </trkpt>
      <trkpt lat="43.8493" lon="7.63276">
        <ele>307.28</ele>
        <time>2018-10-06T11:07:33Z</time>
      </trkpt>
      <trkpt lat="43.84931" lon="7.63261">
        <ele>306.8</ele>
        <time>2018-10-06T11:07:35Z</time>
      </trkpt>
      <trkpt lat="43.84931" lon="7.63232">
        <ele>303.91</ele>
        <time>2018-10-06T11:07:40Z</time>
      </trkpt>
      <trkpt lat="43.8493" lon="7.63214">
        <ele>300.55</ele>
        <time>2018-10-06T11:07:44Z</time>
      </trkpt>
      <trkpt lat="43.84926" lon="7.63199">
        <ele>298.63</ele>
        <time>2018-10-06T11:07:47Z</time>
      </trkpt>
      <trkpt lat="43.84924" lon="7.63193">
        <ele>297.67</ele>
        <time>2018-10-06T11:07:55Z</time>
      </trkpt>
      <trkpt lat="43.84924" lon="7.63193">
        <ele>297.18</ele>
        <time>2018-10-06T11:07:57Z</time>
      </trkpt>
      <trkpt lat="43.84922" lon="7.63181">
        <ele>295.26</ele>
        <time>2018-10-06T11:08:00Z</time>
      </trkpt>
      <trkpt lat="43.8492" lon="7.63161">
        <ele>293.34</ele>
        <time>2018-10-06T11:08:03Z</time>
      </trkpt>
      <trkpt lat="43.84919" lon="7.6313">
        <ele>290.94</ele>
        <time>2018-10-06T11:08:08Z</time>
      </trkpt>
      <trkpt lat="43.84922" lon="7.63098">
        <ele>284.69</ele>
        <time>2018-10-06T11:08:12Z</time>
      </trkpt>
      <trkpt lat="43.84927" lon="7.6308">
        <ele>283.73</ele>
        <time>2018-10-06T11:08:14Z</time>
      </trkpt>
      <trkpt lat="43.84929" lon="7.63067">
        <ele>283.25</ele>
        <time>2018-10-06T11:08:16Z</time>
      </trkpt>
      <trkpt lat="43.84925" lon="7.6304">
        <ele>279.4</ele>
        <time>2018-10-06T11:08:22Z</time>
      </trkpt>
      <trkpt lat="43.84927" lon="7.63038">
        <ele>279.4</ele>
        <time>2018-10-06T11:08:23Z</time>
      </trkpt>
      <trkpt lat="43.84919" lon="7.63032">
        <ele>276.04</ele>
        <time>2018-10-06T11:08:30Z</time>
      </trkpt>
      <trkpt lat="43.8492" lon="7.63013">
        <ele>272.19</ele>
        <time>2018-10-06T11:08:35Z</time>
      </trkpt>
      <trkpt lat="43.84921" lon="7.62988">
        <ele>265.94</ele>
        <time>2018-10-06T11:08:41Z</time>
      </trkpt>
      <trkpt lat="43.84914" lon="7.62976">
        <ele>262.58</ele>
        <time>2018-10-06T11:08:44Z</time>
      </trkpt>
      <trkpt lat="43.84905" lon="7.62958">
        <ele>260.17</ele>
        <time>2018-10-06T11:08:48Z</time>
      </trkpt>
      <trkpt lat="43.849" lon="7.62948">
        <ele>257.77</ele>
        <time>2018-10-06T11:08:50Z</time>
      </trkpt>
      <trkpt lat="43.84893" lon="7.62946">
        <ele>257.77</ele>
        <time>2018-10-06T11:08:55Z</time>
      </trkpt>
      <trkpt lat="43.84881" lon="7.62906">
        <ele>256.33</ele>
        <time>2018-10-06T11:09:04Z</time>
      </trkpt>
      <trkpt lat="43.84886" lon="7.629">
        <ele>254.41</ele>
        <time>2018-10-06T11:09:08Z</time>
      </trkpt>
      <trkpt lat="43.84884" lon="7.62892">
        <ele>251.04</ele>
        <time>2018-10-06T11:09:13Z</time>
      </trkpt>
      <trkpt lat="43.84884" lon="7.6289">
        <ele>250.08</ele>
        <time>2018-10-06T11:09:14Z</time>
      </trkpt>
      <trkpt lat="43.84888" lon="7.62884">
        <ele>248.64</ele>
        <time>2018-10-06T11:09:19Z</time>
      </trkpt>
      <trkpt lat="43.84891" lon="7.62874">
        <ele>244.79</ele>
        <time>2018-10-06T11:09:23Z</time>
      </trkpt>
      <trkpt lat="43.84897" lon="7.62875">
        <ele>242.87</ele>
        <time>2018-10-06T11:09:26Z</time>
      </trkpt>
      <trkpt lat="43.84899" lon="7.62865">
        <ele>238.54</ele>
        <time>2018-10-06T11:09:33Z</time>
      </trkpt>
      <trkpt lat="43.84901" lon="7.62862">
        <ele>237.1</ele>
        <time>2018-10-06T11:09:36Z</time>
      </trkpt>
      <trkpt lat="43.84905" lon="7.62867">
        <ele>236.62</ele>
        <time>2018-10-06T11:09:40Z</time>
      </trkpt>
      <trkpt lat="43.84905" lon="7.62863">
        <ele>236.14</ele>
        <time>2018-10-06T11:09:44Z</time>
      </trkpt>
      <trkpt lat="43.84904" lon="7.62856">
        <ele>234.22</ele>
        <time>2018-10-06T11:09:48Z</time>
      </trkpt>
      <trkpt lat="43.84909" lon="7.62857">
        <ele>232.78</ele>
        <time>2018-10-06T11:09:53Z</time>
      </trkpt>
      <trkpt lat="43.84911" lon="7.62854">
        <ele>232.3</ele>
        <time>2018-10-06T11:10:08Z</time>
      </trkpt>
      <trkpt lat="43.8491" lon="7.62857">
        <ele>232.3</ele>
        <time>2018-10-06T11:10:20Z</time>
      </trkpt>
      <trkpt lat="43.8491" lon="7.62856">
        <ele>232.3</ele>
        <time>2018-10-06T11:10:25Z</time>
      </trkpt>
      <trkpt lat="43.84913" lon="7.62843">
        <ele>229.41</ele>
        <time>2018-10-06T11:10:29Z</time>
      </trkpt>
      <trkpt lat="43.84913" lon="7.6284">
        <ele>227.49</ele>
        <time>2018-10-06T11:10:30Z</time>
      </trkpt>
      <trkpt lat="43.84912" lon="7.62825">
        <ele>225.09</ele>
        <time>2018-10-06T11:10:35Z</time>
      </trkpt>
      <trkpt lat="43.84913" lon="7.62823">
        <ele>224.12</ele>
        <time>2018-10-06T11:10:38Z</time>
      </trkpt>
      <trkpt lat="43.84916" lon="7.62827">
        <ele>223.64</ele>
        <time>2018-10-06T11:10:47Z</time>
      </trkpt>
      <trkpt lat="43.84916" lon="7.62822">
        <ele>223.16</ele>
        <time>2018-10-06T11:10:50Z</time>
      </trkpt>
      <trkpt lat="43.84913" lon="7.62813">
        <ele>221.24</ele>
        <time>2018-10-06T11:10:53Z</time>
      </trkpt>
      <trkpt lat="43.84912" lon="7.62812">
        <ele>221.24</ele>
        <time>2018-10-06T11:11:06Z</time>
      </trkpt>
      <trkpt lat="43.84911" lon="7.62811">
        <ele>221.24</ele>
        <time>2018-10-06T11:11:19Z</time>
      </trkpt>
      <trkpt lat="43.84913" lon="7.62802">
        <ele>218.84</ele>
        <time>2018-10-06T11:11:23Z</time>
      </trkpt>
      <trkpt lat="43.84922" lon="7.628">
        <ele>215.47</ele>
        <time>2018-10-06T11:11:27Z</time>
      </trkpt>
      <trkpt lat="43.84919" lon="7.62791">
        <ele>213.07</ele>
        <time>2018-10-06T11:11:32Z</time>
      </trkpt>
      <trkpt lat="43.8492" lon="7.62789">
        <ele>212.59</ele>
        <time>2018-10-06T11:11:34Z</time>
      </trkpt>
      <trkpt lat="43.84929" lon="7.62796">
        <ele>211.15</ele>
        <time>2018-10-06T11:11:43Z</time>
      </trkpt>
      <trkpt lat="43.84929" lon="7.62796">
        <ele>211.63</ele>
        <time>2018-10-06T11:11:47Z</time>
      </trkpt>
      <trkpt lat="43.84932" lon="7.62784">
        <ele>208.26</ele>
        <time>2018-10-06T11:11:51Z</time>
      </trkpt>
      <trkpt lat="43.84934" lon="7.62773">
        <ele>204.9</ele>
        <time>2018-10-06T11:11:54Z</time>
      </trkpt>
      <trkpt lat="43.84936" lon="7.62768">
        <ele>203.46</ele>
        <time>2018-10-06T11:11:56Z</time>
      </trkpt>
      <trkpt lat="43.84945" lon="7.62786">
        <ele>200.57</ele>
        <time>2018-10-06T11:12:00Z</time>
      </trkpt>
      <trkpt lat="43.84949" lon="7.62813">
        <ele>197.69</ele>
        <time>2018-10-06T11:12:03Z</time>
      </trkpt>
      <trkpt lat="43.84947" lon="7.62834">
        <ele>194.8</ele>
        <time>2018-10-06T11:12:07Z</time>
      </trkpt>
      <trkpt lat="43.84948" lon="7.62839">
        <ele>193.84</ele>
        <time>2018-10-06T11:12:09Z</time>
      </trkpt>
      <trkpt lat="43.84954" lon="7.62832">
        <ele>190.96</ele>
        <time>2018-10-06T11:12:15Z</time>
      </trkpt>
      <trkpt lat="43.84956" lon="7.62844">
        <ele>189.04</ele>
        <time>2018-10-06T11:12:19Z</time>
      </trkpt>
      <trkpt lat="43.84963" lon="7.62862">
        <ele>185.67</ele>
        <time>2018-10-06T11:12:24Z</time>
      </trkpt>
      <trkpt lat="43.84983" lon="7.62874">
        <ele>180.87</ele>
        <time>2018-10-06T11:12:30Z</time>
      </trkpt>
      <trkpt lat="43.84995" lon="7.62868">
        <ele>177.98</ele>
        <time>2018-10-06T11:12:33Z</time>
      </trkpt>
      <trkpt lat="43.85019" lon="7.62865">
        <ele>174.62</ele>
        <time>2018-10-06T11:12:37Z</time>
      </trkpt>
      <trkpt lat="43.85022" lon="7.62868">
        <ele>174.14</ele>
        <time>2018-10-06T11:12:38Z</time>
      </trkpt>
      <trkpt lat="43.85029" lon="7.62877">
        <ele>173.17</ele>
        <time>2018-10-06T11:12:40Z</time>
      </trkpt>
      <trkpt lat="43.85038" lon="7.62901">
        <ele>170.29</ele>
        <time>2018-10-06T11:12:44Z</time>
      </trkpt>
      <trkpt lat="43.85046" lon="7.62918">
        <ele>167.41</ele>
        <time>2018-10-06T11:12:47Z</time>
      </trkpt>
      <trkpt lat="43.85059" lon="7.62943">
        <ele>164.04</ele>
        <time>2018-10-06T11:12:51Z</time>
      </trkpt>
      <trkpt lat="43.85073" lon="7.62943">
        <ele>160.68</ele>
        <time>2018-10-06T11:12:55Z</time>
      </trkpt>
      <trkpt lat="43.85085" lon="7.62946">
        <ele>158.75</ele>
        <time>2018-10-06T11:12:58Z</time>
      </trkpt>
      <trkpt lat="43.85088" lon="7.62943">
        <ele>157.79</ele>
        <time>2018-10-06T11:13:00Z</time>
      </trkpt>
      <trkpt lat="43.8508" lon="7.62937">
        <ele>155.87</ele>
        <time>2018-10-06T11:13:04Z</time>
      </trkpt>
      <trkpt lat="43.85076" lon="7.62936">
        <ele>155.39</ele>
        <time>2018-10-06T11:13:05Z</time>
      </trkpt>
      <trkpt lat="43.85075" lon="7.62931">
        <ele>153.47</ele>
        <time>2018-10-06T11:13:09Z</time>
      </trkpt>
      <trkpt lat="43.85105" lon="7.62937">
        <ele>147.22</ele>
        <time>2018-10-06T11:13:16Z</time>
      </trkpt>
      <trkpt lat="43.85118" lon="7.62941">
        <ele>143.37</ele>
        <time>2018-10-06T11:13:19Z</time>
      </trkpt>
      <trkpt lat="43.85122" lon="7.62944">
        <ele>142.41</ele>
        <time>2018-10-06T11:13:20Z</time>
      </trkpt>
      <trkpt lat="43.85125" lon="7.62947">
        <ele>141.45</ele>
        <time>2018-10-06T11:13:21Z</time>
      </trkpt>
      <trkpt lat="43.85132" lon="7.62955">
        <ele>140.49</ele>
        <time>2018-10-06T11:13:23Z</time>
      </trkpt>
      <trkpt lat="43.85137" lon="7.62959">
        <ele>139.53</ele>
        <time>2018-10-06T11:13:24Z</time>
      </trkpt>
      <trkpt lat="43.85146" lon="7.62967">
        <ele>138.09</ele>
        <time>2018-10-06T11:13:26Z</time>
      </trkpt>
      <trkpt lat="43.85149" lon="7.62972">
        <ele>136.16</ele>
        <time>2018-10-06T11:13:27Z</time>
      </trkpt>
      <trkpt lat="43.85152" lon="7.62978">
        <ele>135.2</ele>
        <time>2018-10-06T11:13:28Z</time>
      </trkpt>
      <trkpt lat="43.8516" lon="7.62992">
        <ele>131.84</ele>
        <time>2018-10-06T11:13:31Z</time>
      </trkpt>
      <trkpt lat="43.85163" lon="7.62996">
        <ele>131.36</ele>
        <time>2018-10-06T11:13:32Z</time>
      </trkpt>
      <trkpt lat="43.85165" lon="7.62998">
        <ele>130.88</ele>
        <time>2018-10-06T11:13:33Z</time>
      </trkpt>
      <trkpt lat="43.85168" lon="7.63003">
        <ele>129.92</ele>
        <time>2018-10-06T11:13:43Z</time>
      </trkpt>
      <trkpt lat="43.8517" lon="7.63005">
        <ele>129.92</ele>
        <time>2018-10-06T11:13:53Z</time>
      </trkpt>
      <trkpt lat="43.85173" lon="7.63008">
        <ele>128.95</ele>
        <time>2018-10-06T11:13:59Z</time>
      </trkpt>
      <trkpt lat="43.85187" lon="7.63024">
        <ele>125.59</ele>
        <time>2018-10-06T11:14:04Z</time>
      </trkpt>
      <trkpt lat="43.8519" lon="7.63028">
        <ele>124.63</ele>
        <time>2018-10-06T11:14:06Z</time>
      </trkpt>
      <trkpt lat="43.85191" lon="7.63027">
        <ele>124.15</ele>
        <time>2018-10-06T11:14:10Z</time>
      </trkpt>
      <trkpt lat="43.8519" lon="7.63025">
        <ele>124.15</ele>
        <time>2018-10-06T11:14:13Z</time>
      </trkpt>
      <trkpt lat="43.8519" lon="7.63021">
        <ele>124.63</ele>
        <time>2018-10-06T11:14:28Z</time>
      </trkpt>
      <trkpt lat="43.8519" lon="7.6302">
        <ele>124.15</ele>
        <time>2018-10-06T11:14:44Z</time>
      </trkpt>
      <trkpt lat="43.85192" lon="7.6302">
        <ele>124.15</ele>
        <time>2018-10-06T11:15:03Z</time>
      </trkpt>
      <trkpt lat="43.85191" lon="7.6302">
        <ele>124.15</ele>
        <time>2018-10-06T11:15:20Z</time>
      </trkpt>
      <trkpt lat="43.8519" lon="7.6302">
        <ele>124.15</ele>
        <time>2018-10-06T11:15:26Z</time>
      </trkpt>
      <trkpt lat="43.85173" lon="7.62995">
        <ele>123.67</ele>
        <time>2018-10-06T11:15:40Z</time>
      </trkpt>
      <trkpt lat="43.85176" lon="7.62996">
        <ele>123.67</ele>
        <time>2018-10-06T11:15:55Z</time>
      </trkpt>
      <trkpt lat="43.85179" lon="7.62998">
        <ele>123.67</ele>
        <time>2018-10-06T11:16:04Z</time>
      </trkpt>
      <trkpt lat="43.85181" lon="7.63">
        <ele>123.67</ele>
        <time>2018-10-06T11:16:05Z</time>
      </trkpt>
      <trkpt lat="43.85184" lon="7.63002">
        <ele>122.22</ele>
        <time>2018-10-06T11:16:06Z</time>
      </trkpt>
      <trkpt lat="43.85187" lon="7.63004">
        <ele>121.26</ele>
        <time>2018-10-06T11:16:07Z</time>
      </trkpt>
      <trkpt lat="43.8519" lon="7.63007">
        <ele>120.3</ele>
        <time>2018-10-06T11:16:08Z</time>
      </trkpt>
      <trkpt lat="43.85197" lon="7.63012">
        <ele>117.42</ele>
        <time>2018-10-06T11:16:10Z</time>
      </trkpt>
      <trkpt lat="43.85205" lon="7.63015">
        <ele>114.53</ele>
        <time>2018-10-06T11:16:13Z</time>
      </trkpt>
      <trkpt lat="43.85209" lon="7.63013">
        <ele>111.65</ele>
        <time>2018-10-06T11:16:17Z</time>
      </trkpt>
      <trkpt lat="43.85208" lon="7.63009">
        <ele>110.69</ele>
        <time>2018-10-06T11:16:18Z</time>
      </trkpt>
      <trkpt lat="43.85207" lon="7.63005">
        <ele>110.69</ele>
        <time>2018-10-06T11:16:19Z</time>
      </trkpt>
      <trkpt lat="43.85207" lon="7.63">
        <ele>110.69</ele>
        <time>2018-10-06T11:16:20Z</time>
      </trkpt>
      <trkpt lat="43.85201" lon="7.62964">
        <ele>109.25</ele>
        <time>2018-10-06T11:16:27Z</time>
      </trkpt>
      <trkpt lat="43.85203" lon="7.6296">
        <ele>109.25</ele>
        <time>2018-10-06T11:16:28Z</time>
      </trkpt>
      <trkpt lat="43.85205" lon="7.62958">
        <ele>109.25</ele>
        <time>2018-10-06T11:16:29Z</time>
      </trkpt>
      <trkpt lat="43.85206" lon="7.62956">
        <ele>109.25</ele>
        <time>2018-10-06T11:16:30Z</time>
      </trkpt>
      <trkpt lat="43.85207" lon="7.62953">
        <ele>109.25</ele>
        <time>2018-10-06T11:16:31Z</time>
      </trkpt>
      <trkpt lat="43.85208" lon="7.62951">
        <ele>110.69</ele>
        <time>2018-10-06T11:16:32Z</time>
      </trkpt>
      <trkpt lat="43.85207" lon="7.62949">
        <ele>110.69</ele>
        <time>2018-10-06T11:16:33Z</time>
      </trkpt>
      <trkpt lat="43.85206" lon="7.62947">
        <ele>111.17</ele>
        <time>2018-10-06T11:16:34Z</time>
      </trkpt>
      <trkpt lat="43.85205" lon="7.62944">
        <ele>111.17</ele>
        <time>2018-10-06T11:16:35Z</time>
      </trkpt>
      <trkpt lat="43.85204" lon="7.62941">
        <ele>111.17</ele>
        <time>2018-10-06T11:16:36Z</time>
      </trkpt>
      <trkpt lat="43.85203" lon="7.62938">
        <ele>111.17</ele>
        <time>2018-10-06T11:16:37Z</time>
      </trkpt>
      <trkpt lat="43.85202" lon="7.62936">
        <ele>111.17</ele>
        <time>2018-10-06T11:16:38Z</time>
      </trkpt>
      <trkpt lat="43.85191" lon="7.62898">
        <ele>111.17</ele>
        <time>2018-10-06T11:16:50Z</time>
      </trkpt>
      <trkpt lat="43.85191" lon="7.62884">
        <ele>112.61</ele>
        <time>2018-10-06T11:16:55Z</time>
      </trkpt>
      <trkpt lat="43.8519" lon="7.62882">
        <ele>112.61</ele>
        <time>2018-10-06T11:16:56Z</time>
      </trkpt>
      <trkpt lat="43.85188" lon="7.6288">
        <ele>112.61</ele>
        <time>2018-10-06T11:16:57Z</time>
      </trkpt>
      <trkpt lat="43.85185" lon="7.62878">
        <ele>112.61</ele>
        <time>2018-10-06T11:16:58Z</time>
      </trkpt>
      <trkpt lat="43.85182" lon="7.62875">
        <ele>112.61</ele>
        <time>2018-10-06T11:16:59Z</time>
      </trkpt>
      <trkpt lat="43.8518" lon="7.62872">
        <ele>112.61</ele>
        <time>2018-10-06T11:17:00Z</time>
      </trkpt>
      <trkpt lat="43.85178" lon="7.62869">
        <ele>112.61</ele>
        <time>2018-10-06T11:17:01Z</time>
      </trkpt>
      <trkpt lat="43.85177" lon="7.62866">
        <ele>112.61</ele>
        <time>2018-10-06T11:17:02Z</time>
      </trkpt>
      <trkpt lat="43.85176" lon="7.62862">
        <ele>112.61</ele>
        <time>2018-10-06T11:17:03Z</time>
      </trkpt>
      <trkpt lat="43.85175" lon="7.6286">
        <ele>113.09</ele>
        <time>2018-10-06T11:17:04Z</time>
      </trkpt>
      <trkpt lat="43.85174" lon="7.62857">
        <ele>114.05</ele>
        <time>2018-10-06T11:17:05Z</time>
      </trkpt>
      <trkpt lat="43.85169" lon="7.62849">
        <ele>114.05</ele>
        <time>2018-10-06T11:17:08Z</time>
      </trkpt>
      <trkpt lat="43.85168" lon="7.62846">
        <ele>114.05</ele>
        <time>2018-10-06T11:17:09Z</time>
      </trkpt>
      <trkpt lat="43.85168" lon="7.62842">
        <ele>114.53</ele>
        <time>2018-10-06T11:17:10Z</time>
      </trkpt>
      <trkpt lat="43.85168" lon="7.62839">
        <ele>114.53</ele>
        <time>2018-10-06T11:17:11Z</time>
      </trkpt>
      <trkpt lat="43.85167" lon="7.62836">
        <ele>115.01</ele>
        <time>2018-10-06T11:17:12Z</time>
      </trkpt>
      <trkpt lat="43.85168" lon="7.62825">
        <ele>116.46</ele>
        <time>2018-10-06T11:17:17Z</time>
      </trkpt>
      <trkpt lat="43.85168" lon="7.62823">
        <ele>116.46</ele>
        <time>2018-10-06T11:17:18Z</time>
      </trkpt>
      <trkpt lat="43.85168" lon="7.62821">
        <ele>116.46</ele>
        <time>2018-10-06T11:17:19Z</time>
      </trkpt>
      <trkpt lat="43.85161" lon="7.62782">
        <ele>118.38</ele>
        <time>2018-10-06T11:17:35Z</time>
      </trkpt>
      <trkpt lat="43.85151" lon="7.62761">
        <ele>117.9</ele>
        <time>2018-10-06T11:17:41Z</time>
      </trkpt>
      <trkpt lat="43.85149" lon="7.62757">
        <ele>117.9</ele>
        <time>2018-10-06T11:17:42Z</time>
      </trkpt>
      <trkpt lat="43.85147" lon="7.62754">
        <ele>117.9</ele>
        <time>2018-10-06T11:17:43Z</time>
      </trkpt>
      <trkpt lat="43.85141" lon="7.62736">
        <ele>116.94</ele>
        <time>2018-10-06T11:17:48Z</time>
      </trkpt>
      <trkpt lat="43.8514" lon="7.62725">
        <ele>115.5</ele>
        <time>2018-10-06T11:17:50Z</time>
      </trkpt>
      <trkpt lat="43.85141" lon="7.62719">
        <ele>114.53</ele>
        <time>2018-10-06T11:17:51Z</time>
      </trkpt>
      <trkpt lat="43.85141" lon="7.62714">
        <ele>113.57</ele>
        <time>2018-10-06T11:17:52Z</time>
      </trkpt>
      <trkpt lat="43.85141" lon="7.6271">
        <ele>113.57</ele>
        <time>2018-10-06T11:17:53Z</time>
      </trkpt>
      <trkpt lat="43.8514" lon="7.62707">
        <ele>112.13</ele>
        <time>2018-10-06T11:17:54Z</time>
      </trkpt>
      <trkpt lat="43.85134" lon="7.6269">
        <ele>109.25</ele>
        <time>2018-10-06T11:17:58Z</time>
      </trkpt>
      <trkpt lat="43.85133" lon="7.62686">
        <ele>108.77</ele>
        <time>2018-10-06T11:18:00Z</time>
      </trkpt>
      <trkpt lat="43.8513" lon="7.62668">
        <ele>106.84</ele>
        <time>2018-10-06T11:18:06Z</time>
      </trkpt>
      <trkpt lat="43.85128" lon="7.62662">
        <ele>105.88</ele>
        <time>2018-10-06T11:18:07Z</time>
      </trkpt>
      <trkpt lat="43.85121" lon="7.62638">
        <ele>102.52</ele>
        <time>2018-10-06T11:18:11Z</time>
      </trkpt>
      <trkpt lat="43.85117" lon="7.62635">
        <ele>102.04</ele>
        <time>2018-10-06T11:18:13Z</time>
      </trkpt>
      <trkpt lat="43.85114" lon="7.62626">
        <ele>99.63</ele>
        <time>2018-10-06T11:18:15Z</time>
      </trkpt>
      <trkpt lat="43.85111" lon="7.62617">
        <ele>97.23</ele>
        <time>2018-10-06T11:18:17Z</time>
      </trkpt>
      <trkpt lat="43.85102" lon="7.62617">
        <ele>94.35</ele>
        <time>2018-10-06T11:18:21Z</time>
      </trkpt>
      <trkpt lat="43.85095" lon="7.62621">
        <ele>92.9</ele>
        <time>2018-10-06T11:18:28Z</time>
      </trkpt>
      <trkpt lat="43.8509" lon="7.62611">
        <ele>92.9</ele>
        <time>2018-10-06T11:18:40Z</time>
      </trkpt>
      <trkpt lat="43.8509" lon="7.62612">
        <ele>91.46</ele>
        <time>2018-10-06T11:19:01Z</time>
      </trkpt>
      <trkpt lat="43.85084" lon="7.62555">
        <ele>86.18</ele>
        <time>2018-10-06T11:23:51Z</time>
      </trkpt>
      <trkpt lat="43.85086" lon="7.62549">
        <ele>85.69</ele>
        <time>2018-10-06T11:23:53Z</time>
      </trkpt>
      <trkpt lat="43.8509" lon="7.62541">
        <ele>83.29</ele>
        <time>2018-10-06T11:24:00Z</time>
      </trkpt>
      <trkpt lat="43.85088" lon="7.6254">
        <ele>81.85</ele>
        <time>2018-10-06T11:24:02Z</time>
      </trkpt>
      <trkpt lat="43.85087" lon="7.62538">
        <ele>80.41</ele>
        <time>2018-10-06T11:24:04Z</time>
      </trkpt>
      <trkpt lat="43.85083" lon="7.62529">
        <ele>76.56</ele>
        <time>2018-10-06T11:24:11Z</time>
      </trkpt>
      <trkpt lat="43.85082" lon="7.62527">
        <ele>75.6</ele>
        <time>2018-10-06T11:24:13Z</time>
      </trkpt>
      <trkpt lat="43.85079" lon="7.62525">
        <ele>74.64</ele>
        <time>2018-10-06T11:24:16Z</time>
      </trkpt>
      <trkpt lat="43.85076" lon="7.62517">
        <ele>72.72</ele>
        <time>2018-10-06T11:24:22Z</time>
      </trkpt>
      <trkpt lat="43.85071" lon="7.62504">
        <ele>69.35</ele>
        <time>2018-10-06T11:24:35Z</time>
      </trkpt>
      <trkpt lat="43.85071" lon="7.62504">
        <ele>68.87</ele>
        <time>2018-10-06T11:24:54Z</time>
      </trkpt>
      <trkpt lat="43.85064" lon="7.6249">
        <ele>66.47</ele>
        <time>2018-10-06T11:25:09Z</time>
      </trkpt>
      <trkpt lat="43.85064" lon="7.62487">
        <ele>65.99</ele>
        <time>2018-10-06T11:25:11Z</time>
      </trkpt>
      <trkpt lat="43.85066" lon="7.62477">
        <ele>63.58</ele>
        <time>2018-10-06T11:25:23Z</time>
      </trkpt>
      <trkpt lat="43.85069" lon="7.62472">
        <ele>62.62</ele>
        <time>2018-10-06T11:25:28Z</time>
      </trkpt>
      <trkpt lat="43.85077" lon="7.62458">
        <ele>63.1</ele>
        <time>2018-10-06T11:25:43Z</time>
      </trkpt>
      <trkpt lat="43.85076" lon="7.62442">
        <ele>62.14</ele>
        <time>2018-10-06T11:25:53Z</time>
      </trkpt>
      <trkpt lat="43.85071" lon="7.62428">
        <ele>58.3</ele>
        <time>2018-10-06T11:26:05Z</time>
      </trkpt>
      <trkpt lat="43.85066" lon="7.62411">
        <ele>56.37</ele>
        <time>2018-10-06T11:26:17Z</time>
      </trkpt>
      <trkpt lat="43.85065" lon="7.62407">
        <ele>56.37</ele>
        <time>2018-10-06T11:26:21Z</time>
      </trkpt>
      <trkpt lat="43.85064" lon="7.62406">
        <ele>56.37</ele>
        <time>2018-10-06T11:26:23Z</time>
      </trkpt>
      <trkpt lat="43.8506" lon="7.62411">
        <ele>56.37</ele>
        <time>2018-10-06T11:26:28Z</time>
      </trkpt>
      <trkpt lat="43.85049" lon="7.62423">
        <ele>56.37</ele>
        <time>2018-10-06T11:26:44Z</time>
      </trkpt>
      <trkpt lat="43.85049" lon="7.62423">
        <ele>55.41</ele>
        <time>2018-10-06T11:26:48Z</time>
      </trkpt>
      <trkpt lat="43.85049" lon="7.62424">
        <ele>56.86</ele>
        <time>2018-10-06T11:26:50Z</time>
      </trkpt>
      <trkpt lat="43.85052" lon="7.62427">
        <ele>56.86</ele>
        <time>2018-10-06T11:27:04Z</time>
      </trkpt>
      <trkpt lat="43.85051" lon="7.62428">
        <ele>56.86</ele>
        <time>2018-10-06T11:27:27Z</time>
      </trkpt>
      <trkpt lat="43.85053" lon="7.62428">
        <ele>56.86</ele>
        <time>2018-10-06T11:27:48Z</time>
      </trkpt>
      <trkpt lat="43.85054" lon="7.62427">
        <ele>56.86</ele>
        <time>2018-10-06T11:28:08Z</time>
      </trkpt>
      <trkpt lat="43.85053" lon="7.62427">
        <ele>56.86</ele>
        <time>2018-10-06T11:28:29Z</time>
      </trkpt>
      <trkpt lat="43.85055" lon="7.62428">
        <ele>55.41</ele>
        <time>2018-10-06T11:28:38Z</time>
      </trkpt>
    </trkseg>
  </trk>
</gpx>